<?xml version="1.0" encoding="UTF-8" standalone="no" ?>
<gpx xmlns="http://www.topografix.com/GPX/1/1" xmlns:xsi="http://www.w3.org/2001/XMLSchema-instance" xsi:schemaLocation="http://www.topografix.com/GPX/1/1 http://www.topografix.com/GPX/1/1/gpx.xsd" version="1.1" creator="VisuGPX - https://www.visugpx.com">
  <metadata>
    <name>Pornichet 14/01/2021</name>
    <desc><![CDATA[Sortie VTT du jeudi 14 janvier 2021]]></desc>
  </metadata>
  <trk>
    <name><![CDATA[Pornichet Cyclisme]]></name>
    <trkseg>
      <trkpt lat="47.26412" lon="-2.31569">
        <ele>11.39999961853</ele>
        <time>2021-01-14T08:16:06.000Z</time>
      </trkpt>
      <trkpt lat="47.26413" lon="-2.31582">
        <ele>11.39999961853</ele>
        <time>2021-01-14T08:16:09.000Z</time>
      </trkpt>
      <trkpt lat="47.26413" lon="-2.31587">
        <ele>12.39999961853</ele>
        <time>2021-01-14T08:16:10.000Z</time>
      </trkpt>
      <trkpt lat="47.26412" lon="-2.31596">
        <ele>12.39999961853</ele>
        <time>2021-01-14T08:16:12.000Z</time>
      </trkpt>
      <trkpt lat="47.26413" lon="-2.31634">
        <ele>12.39999961853</ele>
        <time>2021-01-14T08:16:19.000Z</time>
      </trkpt>
      <trkpt lat="47.26414" lon="-2.31653">
        <ele>12.39999961853</ele>
        <time>2021-01-14T08:16:23.000Z</time>
      </trkpt>
      <trkpt lat="47.26405" lon="-2.31662">
        <ele>11.800000190735</ele>
        <time>2021-01-14T08:16:27.000Z</time>
      </trkpt>
      <trkpt lat="47.26401" lon="-2.31663">
        <ele>11.39999961853</ele>
        <time>2021-01-14T08:16:28.000Z</time>
      </trkpt>
      <trkpt lat="47.26397" lon="-2.31665">
        <ele>10.800000190735</ele>
        <time>2021-01-14T08:16:29.000Z</time>
      </trkpt>
      <trkpt lat="47.26394" lon="-2.31667">
        <ele>10.39999961853</ele>
        <time>2021-01-14T08:16:30.000Z</time>
      </trkpt>
      <trkpt lat="47.2639" lon="-2.31669">
        <ele>9.8000001907349</ele>
        <time>2021-01-14T08:16:31.000Z</time>
      </trkpt>
      <trkpt lat="47.26382" lon="-2.31675">
        <ele>9.8000001907349</ele>
        <time>2021-01-14T08:16:33.000Z</time>
      </trkpt>
      <trkpt lat="47.26366" lon="-2.31687">
        <ele>9.8000001907349</ele>
        <time>2021-01-14T08:16:37.000Z</time>
      </trkpt>
      <trkpt lat="47.26357" lon="-2.31692">
        <ele>9.8000001907349</ele>
        <time>2021-01-14T08:16:39.000Z</time>
      </trkpt>
      <trkpt lat="47.26348" lon="-2.31696">
        <ele>9.8000001907349</ele>
        <time>2021-01-14T08:16:41.000Z</time>
      </trkpt>
      <trkpt lat="47.2634" lon="-2.31699">
        <ele>9.3999996185303</ele>
        <time>2021-01-14T08:16:43.000Z</time>
      </trkpt>
      <trkpt lat="47.26337" lon="-2.31701">
        <ele>9</ele>
        <time>2021-01-14T08:16:44.000Z</time>
      </trkpt>
      <trkpt lat="47.26334" lon="-2.31703">
        <ele>8.6000003814697</ele>
        <time>2021-01-14T08:16:45.000Z</time>
      </trkpt>
      <trkpt lat="47.2633" lon="-2.31705">
        <ele>8.1999998092651</ele>
        <time>2021-01-14T08:16:46.000Z</time>
      </trkpt>
      <trkpt lat="47.26328" lon="-2.31706">
        <ele>7.5999999046326</ele>
        <time>2021-01-14T08:16:47.000Z</time>
      </trkpt>
      <trkpt lat="47.26317" lon="-2.31713">
        <ele>7.5999999046326</ele>
        <time>2021-01-14T08:16:51.000Z</time>
      </trkpt>
      <trkpt lat="47.2631" lon="-2.31718">
        <ele>7.5999999046326</ele>
        <time>2021-01-14T08:16:54.000Z</time>
      </trkpt>
      <trkpt lat="47.26309" lon="-2.31721">
        <ele>7.5999999046326</ele>
        <time>2021-01-14T08:16:55.000Z</time>
      </trkpt>
      <trkpt lat="47.26309" lon="-2.31732">
        <ele>7.5999999046326</ele>
        <time>2021-01-14T08:16:58.000Z</time>
      </trkpt>
      <trkpt lat="47.2631" lon="-2.31737">
        <ele>7.5999999046326</ele>
        <time>2021-01-14T08:16:59.000Z</time>
      </trkpt>
      <trkpt lat="47.26313" lon="-2.3176">
        <ele>7.1999998092651</ele>
        <time>2021-01-14T08:17:04.000Z</time>
      </trkpt>
      <trkpt lat="47.26313" lon="-2.31764">
        <ele>6.8000001907349</ele>
        <time>2021-01-14T08:17:05.000Z</time>
      </trkpt>
      <trkpt lat="47.26314" lon="-2.31768">
        <ele>6.4000000953674</ele>
        <time>2021-01-14T08:17:06.000Z</time>
      </trkpt>
      <trkpt lat="47.26314" lon="-2.31773">
        <ele>6</ele>
        <time>2021-01-14T08:17:07.000Z</time>
      </trkpt>
      <trkpt lat="47.26314" lon="-2.31778">
        <ele>5.5999999046326</ele>
        <time>2021-01-14T08:17:08.000Z</time>
      </trkpt>
      <trkpt lat="47.26315" lon="-2.31795">
        <ele>5.5999999046326</ele>
        <time>2021-01-14T08:17:12.000Z</time>
      </trkpt>
      <trkpt lat="47.26314" lon="-2.31799">
        <ele>5.5999999046326</ele>
        <time>2021-01-14T08:17:13.000Z</time>
      </trkpt>
      <trkpt lat="47.26312" lon="-2.31825">
        <ele>5.5999999046326</ele>
        <time>2021-01-14T08:17:20.000Z</time>
      </trkpt>
      <trkpt lat="47.26309" lon="-2.31844">
        <ele>5.5999999046326</ele>
        <time>2021-01-14T08:17:26.000Z</time>
      </trkpt>
      <trkpt lat="47.26311" lon="-2.31861">
        <ele>5.5999999046326</ele>
        <time>2021-01-14T08:17:32.000Z</time>
      </trkpt>
      <trkpt lat="47.2631" lon="-2.31866">
        <ele>5.5999999046326</ele>
        <time>2021-01-14T08:17:34.000Z</time>
      </trkpt>
      <trkpt lat="47.26307" lon="-2.3187">
        <ele>5.5999999046326</ele>
        <time>2021-01-14T08:17:36.000Z</time>
      </trkpt>
      <trkpt lat="47.26294" lon="-2.31884">
        <ele>5.5999999046326</ele>
        <time>2021-01-14T08:17:41.000Z</time>
      </trkpt>
      <trkpt lat="47.26284" lon="-2.319">
        <ele>5.5999999046326</ele>
        <time>2021-01-14T08:17:46.000Z</time>
      </trkpt>
      <trkpt lat="47.26276" lon="-2.31914">
        <ele>5.5999999046326</ele>
        <time>2021-01-14T08:17:50.000Z</time>
      </trkpt>
      <trkpt lat="47.26265" lon="-2.31934">
        <ele>5.5999999046326</ele>
        <time>2021-01-14T08:17:56.000Z</time>
      </trkpt>
      <trkpt lat="47.26254" lon="-2.31954">
        <ele>5.5999999046326</ele>
        <time>2021-01-14T08:18:02.000Z</time>
      </trkpt>
      <trkpt lat="47.26251" lon="-2.31957">
        <ele>5.5999999046326</ele>
        <time>2021-01-14T08:18:04.000Z</time>
      </trkpt>
      <trkpt lat="47.26247" lon="-2.31957">
        <ele>5.5999999046326</ele>
        <time>2021-01-14T08:18:06.000Z</time>
      </trkpt>
      <trkpt lat="47.26242" lon="-2.3196">
        <ele>5.5999999046326</ele>
        <time>2021-01-14T08:18:09.000Z</time>
      </trkpt>
      <trkpt lat="47.2624" lon="-2.31965">
        <ele>5.5999999046326</ele>
        <time>2021-01-14T08:18:11.000Z</time>
      </trkpt>
      <trkpt lat="47.26233" lon="-2.31975">
        <ele>5.5999999046326</ele>
        <time>2021-01-14T08:18:15.000Z</time>
      </trkpt>
      <trkpt lat="47.26228" lon="-2.31981">
        <ele>5.5999999046326</ele>
        <time>2021-01-14T08:18:17.000Z</time>
      </trkpt>
      <trkpt lat="47.26221" lon="-2.31987">
        <ele>5.1999998092651</ele>
        <time>2021-01-14T08:18:20.000Z</time>
      </trkpt>
      <trkpt lat="47.26219" lon="-2.31989">
        <ele>4.8000001907349</ele>
        <time>2021-01-14T08:18:21.000Z</time>
      </trkpt>
      <trkpt lat="47.26217" lon="-2.31991">
        <ele>4.4000000953674</ele>
        <time>2021-01-14T08:18:22.000Z</time>
      </trkpt>
      <trkpt lat="47.26216" lon="-2.31993">
        <ele>4</ele>
        <time>2021-01-14T08:18:23.000Z</time>
      </trkpt>
      <trkpt lat="47.26215" lon="-2.31995">
        <ele>3.5999999046326</ele>
        <time>2021-01-14T08:18:24.000Z</time>
      </trkpt>
      <trkpt lat="47.26215" lon="-2.31997">
        <ele>3.5999999046326</ele>
        <time>2021-01-14T08:18:25.000Z</time>
      </trkpt>
      <trkpt lat="47.26214" lon="-2.32003">
        <ele>3.5999999046326</ele>
        <time>2021-01-14T08:18:27.000Z</time>
      </trkpt>
      <trkpt lat="47.26213" lon="-2.32005">
        <ele>3.5999999046326</ele>
        <time>2021-01-14T08:18:28.000Z</time>
      </trkpt>
      <trkpt lat="47.26207" lon="-2.32008">
        <ele>3.5999999046326</ele>
        <time>2021-01-14T08:18:31.000Z</time>
      </trkpt>
      <trkpt lat="47.26206" lon="-2.32009">
        <ele>3.5999999046326</ele>
        <time>2021-01-14T08:18:32.000Z</time>
      </trkpt>
      <trkpt lat="47.26198" lon="-2.32008">
        <ele>3.5999999046326</ele>
        <time>2021-01-14T08:18:36.000Z</time>
      </trkpt>
      <trkpt lat="47.26183" lon="-2.32014">
        <ele>3.5999999046326</ele>
        <time>2021-01-14T08:18:41.000Z</time>
      </trkpt>
      <trkpt lat="47.26167" lon="-2.3203">
        <ele>3.5999999046326</ele>
        <time>2021-01-14T08:18:46.000Z</time>
      </trkpt>
      <trkpt lat="47.26162" lon="-2.32046">
        <ele>3.5999999046326</ele>
        <time>2021-01-14T08:18:49.000Z</time>
      </trkpt>
      <trkpt lat="47.26158" lon="-2.32057">
        <ele>3.5999999046326</ele>
        <time>2021-01-14T08:18:51.000Z</time>
      </trkpt>
      <trkpt lat="47.26145" lon="-2.32099">
        <ele>3.5999999046326</ele>
        <time>2021-01-14T08:18:59.000Z</time>
      </trkpt>
      <trkpt lat="47.26134" lon="-2.32129">
        <ele>3.5999999046326</ele>
        <time>2021-01-14T08:19:05.000Z</time>
      </trkpt>
      <trkpt lat="47.26121" lon="-2.32164">
        <ele>3.5999999046326</ele>
        <time>2021-01-14T08:19:12.000Z</time>
      </trkpt>
      <trkpt lat="47.26112" lon="-2.32184">
        <ele>3.5999999046326</ele>
        <time>2021-01-14T08:19:16.000Z</time>
      </trkpt>
      <trkpt lat="47.26107" lon="-2.32194">
        <ele>3.5999999046326</ele>
        <time>2021-01-14T08:19:18.000Z</time>
      </trkpt>
      <trkpt lat="47.26092" lon="-2.32217">
        <ele>3.5999999046326</ele>
        <time>2021-01-14T08:19:23.000Z</time>
      </trkpt>
      <trkpt lat="47.26067" lon="-2.32249">
        <ele>3.5999999046326</ele>
        <time>2021-01-14T08:19:31.000Z</time>
      </trkpt>
      <trkpt lat="47.26046" lon="-2.32272">
        <ele>3.5999999046326</ele>
        <time>2021-01-14T08:19:37.000Z</time>
      </trkpt>
      <trkpt lat="47.26021" lon="-2.32303">
        <ele>3.5999999046326</ele>
        <time>2021-01-14T08:19:45.000Z</time>
      </trkpt>
      <trkpt lat="47.26001" lon="-2.32327">
        <ele>3.5999999046326</ele>
        <time>2021-01-14T08:19:51.000Z</time>
      </trkpt>
      <trkpt lat="47.25975" lon="-2.32361">
        <ele>3.5999999046326</ele>
        <time>2021-01-14T08:19:59.000Z</time>
      </trkpt>
      <trkpt lat="47.25969" lon="-2.32368">
        <ele>3.5999999046326</ele>
        <time>2021-01-14T08:20:01.000Z</time>
      </trkpt>
      <trkpt lat="47.25952" lon="-2.32392">
        <ele>3.5999999046326</ele>
        <time>2021-01-14T08:20:07.000Z</time>
      </trkpt>
      <trkpt lat="47.25931" lon="-2.32419">
        <ele>3.5999999046326</ele>
        <time>2021-01-14T08:20:14.000Z</time>
      </trkpt>
      <trkpt lat="47.25914" lon="-2.3244">
        <ele>3.5999999046326</ele>
        <time>2021-01-14T08:20:20.000Z</time>
      </trkpt>
      <trkpt lat="47.25908" lon="-2.32455">
        <ele>3.5999999046326</ele>
        <time>2021-01-14T08:20:24.000Z</time>
      </trkpt>
      <trkpt lat="47.25909" lon="-2.32458">
        <ele>3.5999999046326</ele>
        <time>2021-01-14T08:20:25.000Z</time>
      </trkpt>
      <trkpt lat="47.25916" lon="-2.32465">
        <ele>3.5999999046326</ele>
        <time>2021-01-14T08:20:28.000Z</time>
      </trkpt>
      <trkpt lat="47.25919" lon="-2.32468">
        <ele>3.5999999046326</ele>
        <time>2021-01-14T08:20:29.000Z</time>
      </trkpt>
      <trkpt lat="47.25928" lon="-2.3248">
        <ele>3.5999999046326</ele>
        <time>2021-01-14T08:20:32.000Z</time>
      </trkpt>
      <trkpt lat="47.25932" lon="-2.32492">
        <ele>3.5999999046326</ele>
        <time>2021-01-14T08:20:34.000Z</time>
      </trkpt>
      <trkpt lat="47.25936" lon="-2.32505">
        <ele>3.5999999046326</ele>
        <time>2021-01-14T08:20:36.000Z</time>
      </trkpt>
      <trkpt lat="47.25943" lon="-2.3253">
        <ele>3.5999999046326</ele>
        <time>2021-01-14T08:20:40.000Z</time>
      </trkpt>
      <trkpt lat="47.25957" lon="-2.32581">
        <ele>3.5999999046326</ele>
        <time>2021-01-14T08:20:48.000Z</time>
      </trkpt>
      <trkpt lat="47.25964" lon="-2.32624">
        <ele>3.5999999046326</ele>
        <time>2021-01-14T08:20:55.000Z</time>
      </trkpt>
      <trkpt lat="47.25967" lon="-2.3265">
        <ele>3.5999999046326</ele>
        <time>2021-01-14T08:21:00.000Z</time>
      </trkpt>
      <trkpt lat="47.25976" lon="-2.32651">
        <ele>3.5999999046326</ele>
        <time>2021-01-14T08:21:03.000Z</time>
      </trkpt>
      <trkpt lat="47.25982" lon="-2.32651">
        <ele>3.5999999046326</ele>
        <time>2021-01-14T08:21:05.000Z</time>
      </trkpt>
      <trkpt lat="47.2599" lon="-2.32651">
        <ele>3.5999999046326</ele>
        <time>2021-01-14T08:21:07.000Z</time>
      </trkpt>
      <trkpt lat="47.26017" lon="-2.32647">
        <ele>3.5999999046326</ele>
        <time>2021-01-14T08:21:14.000Z</time>
      </trkpt>
      <trkpt lat="47.2605" lon="-2.32643">
        <ele>3.5999999046326</ele>
        <time>2021-01-14T08:21:22.000Z</time>
      </trkpt>
      <trkpt lat="47.26083" lon="-2.32635">
        <ele>3.5999999046326</ele>
        <time>2021-01-14T08:21:30.000Z</time>
      </trkpt>
      <trkpt lat="47.26115" lon="-2.32633">
        <ele>3.5999999046326</ele>
        <time>2021-01-14T08:21:38.000Z</time>
      </trkpt>
      <trkpt lat="47.26148" lon="-2.3264">
        <ele>3.5999999046326</ele>
        <time>2021-01-14T08:21:46.000Z</time>
      </trkpt>
      <trkpt lat="47.26181" lon="-2.32659">
        <ele>3.5999999046326</ele>
        <time>2021-01-14T08:21:54.000Z</time>
      </trkpt>
      <trkpt lat="47.26207" lon="-2.32686">
        <ele>3.5999999046326</ele>
        <time>2021-01-14T08:22:01.000Z</time>
      </trkpt>
      <trkpt lat="47.26235" lon="-2.32724">
        <ele>3.5999999046326</ele>
        <time>2021-01-14T08:22:09.000Z</time>
      </trkpt>
      <trkpt lat="47.26239" lon="-2.3273">
        <ele>3.5999999046326</ele>
        <time>2021-01-14T08:22:10.000Z</time>
      </trkpt>
      <trkpt lat="47.26263" lon="-2.32766">
        <ele>3.5999999046326</ele>
        <time>2021-01-14T08:22:17.000Z</time>
      </trkpt>
      <trkpt lat="47.26276" lon="-2.32794">
        <ele>3.5999999046326</ele>
        <time>2021-01-14T08:22:22.000Z</time>
      </trkpt>
      <trkpt lat="47.26279" lon="-2.32805">
        <ele>3.5999999046326</ele>
        <time>2021-01-14T08:22:24.000Z</time>
      </trkpt>
      <trkpt lat="47.26288" lon="-2.32841">
        <ele>3.5999999046326</ele>
        <time>2021-01-14T08:22:30.000Z</time>
      </trkpt>
      <trkpt lat="47.2629" lon="-2.32847">
        <ele>3.5999999046326</ele>
        <time>2021-01-14T08:22:31.000Z</time>
      </trkpt>
      <trkpt lat="47.263" lon="-2.32858">
        <ele>3.2000000476837</ele>
        <time>2021-01-14T08:22:34.000Z</time>
      </trkpt>
      <trkpt lat="47.26304" lon="-2.32859">
        <ele>2.7999999523163</ele>
        <time>2021-01-14T08:22:35.000Z</time>
      </trkpt>
      <trkpt lat="47.26309" lon="-2.3286">
        <ele>2.4000000953674</ele>
        <time>2021-01-14T08:22:36.000Z</time>
      </trkpt>
      <trkpt lat="47.26313" lon="-2.32863">
        <ele>2</ele>
        <time>2021-01-14T08:22:37.000Z</time>
      </trkpt>
      <trkpt lat="47.26316" lon="-2.32867">
        <ele>1.6000000238419</ele>
        <time>2021-01-14T08:22:38.000Z</time>
      </trkpt>
      <trkpt lat="47.26323" lon="-2.32885">
        <ele>1.6000000238419</ele>
        <time>2021-01-14T08:22:41.000Z</time>
      </trkpt>
      <trkpt lat="47.26325" lon="-2.3289">
        <ele>1.6000000238419</ele>
        <time>2021-01-14T08:22:42.000Z</time>
      </trkpt>
      <trkpt lat="47.26344" lon="-2.32948">
        <ele>1.6000000238419</ele>
        <time>2021-01-14T08:22:52.000Z</time>
      </trkpt>
      <trkpt lat="47.26347" lon="-2.32959">
        <ele>1.6000000238419</ele>
        <time>2021-01-14T08:22:54.000Z</time>
      </trkpt>
      <trkpt lat="47.26359" lon="-2.32977">
        <ele>1.6000000238419</ele>
        <time>2021-01-14T08:22:58.000Z</time>
      </trkpt>
      <trkpt lat="47.26362" lon="-2.32981">
        <ele>1.6000000238419</ele>
        <time>2021-01-14T08:22:59.000Z</time>
      </trkpt>
      <trkpt lat="47.26367" lon="-2.32997">
        <ele>1.6000000238419</ele>
        <time>2021-01-14T08:23:02.000Z</time>
      </trkpt>
      <trkpt lat="47.26369" lon="-2.33046">
        <ele>1.6000000238419</ele>
        <time>2021-01-14T08:23:10.000Z</time>
      </trkpt>
      <trkpt lat="47.26371" lon="-2.33094">
        <ele>1.6000000238419</ele>
        <time>2021-01-14T08:23:18.000Z</time>
      </trkpt>
      <trkpt lat="47.26373" lon="-2.33117">
        <ele>1.6000000238419</ele>
        <time>2021-01-14T08:23:22.000Z</time>
      </trkpt>
      <trkpt lat="47.26374" lon="-2.33135">
        <ele>1.6000000238419</ele>
        <time>2021-01-14T08:23:25.000Z</time>
      </trkpt>
      <trkpt lat="47.26377" lon="-2.3319">
        <ele>1.6000000238419</ele>
        <time>2021-01-14T08:23:34.000Z</time>
      </trkpt>
      <trkpt lat="47.26381" lon="-2.33239">
        <ele>1.6000000238419</ele>
        <time>2021-01-14T08:23:42.000Z</time>
      </trkpt>
      <trkpt lat="47.26383" lon="-2.33251">
        <ele>1.6000000238419</ele>
        <time>2021-01-14T08:23:44.000Z</time>
      </trkpt>
      <trkpt lat="47.26389" lon="-2.33259">
        <ele>1.6000000238419</ele>
        <time>2021-01-14T08:23:46.000Z</time>
      </trkpt>
      <trkpt lat="47.26401" lon="-2.33265">
        <ele>1.6000000238419</ele>
        <time>2021-01-14T08:23:49.000Z</time>
      </trkpt>
      <trkpt lat="47.26406" lon="-2.33266">
        <ele>1.6000000238419</ele>
        <time>2021-01-14T08:23:50.000Z</time>
      </trkpt>
      <trkpt lat="47.26448" lon="-2.33269">
        <ele>1.6000000238419</ele>
        <time>2021-01-14T08:24:00.000Z</time>
      </trkpt>
      <trkpt lat="47.26452" lon="-2.3327">
        <ele>1.6000000238419</ele>
        <time>2021-01-14T08:24:01.000Z</time>
      </trkpt>
      <trkpt lat="47.26469" lon="-2.33277">
        <ele>1.6000000238419</ele>
        <time>2021-01-14T08:24:05.000Z</time>
      </trkpt>
      <trkpt lat="47.26488" lon="-2.33279">
        <ele>1.6000000238419</ele>
        <time>2021-01-14T08:24:10.000Z</time>
      </trkpt>
      <trkpt lat="47.2651" lon="-2.33287">
        <ele>1.6000000238419</ele>
        <time>2021-01-14T08:24:17.000Z</time>
      </trkpt>
      <trkpt lat="47.2653" lon="-2.33289">
        <ele>1.6000000238419</ele>
        <time>2021-01-14T08:24:23.000Z</time>
      </trkpt>
      <trkpt lat="47.26532" lon="-2.33291">
        <ele>1.6000000238419</ele>
        <time>2021-01-14T08:24:24.000Z</time>
      </trkpt>
      <trkpt lat="47.26535" lon="-2.33296">
        <ele>1.6000000238419</ele>
        <time>2021-01-14T08:24:26.000Z</time>
      </trkpt>
      <trkpt lat="47.26537" lon="-2.33298">
        <ele>1.6000000238419</ele>
        <time>2021-01-14T08:24:27.000Z</time>
      </trkpt>
      <trkpt lat="47.26542" lon="-2.33296">
        <ele>1.6000000238419</ele>
        <time>2021-01-14T08:24:29.000Z</time>
      </trkpt>
      <trkpt lat="47.2655" lon="-2.33286">
        <ele>1.6000000238419</ele>
        <time>2021-01-14T08:24:32.000Z</time>
      </trkpt>
      <trkpt lat="47.26556" lon="-2.33279">
        <ele>1.6000000238419</ele>
        <time>2021-01-14T08:24:34.000Z</time>
      </trkpt>
      <trkpt lat="47.26581" lon="-2.33255">
        <ele>1.6000000238419</ele>
        <time>2021-01-14T08:24:41.000Z</time>
      </trkpt>
      <trkpt lat="47.26614" lon="-2.33221">
        <ele>1.6000000238419</ele>
        <time>2021-01-14T08:24:50.000Z</time>
      </trkpt>
      <trkpt lat="47.26625" lon="-2.33209">
        <ele>1.6000000238419</ele>
        <time>2021-01-14T08:24:53.000Z</time>
      </trkpt>
      <trkpt lat="47.2664" lon="-2.33195">
        <ele>1.6000000238419</ele>
        <time>2021-01-14T08:24:57.000Z</time>
      </trkpt>
      <trkpt lat="47.26667" lon="-2.33167">
        <ele>1.6000000238419</ele>
        <time>2021-01-14T08:25:05.000Z</time>
      </trkpt>
      <trkpt lat="47.26681" lon="-2.33152">
        <ele>1.6000000238419</ele>
        <time>2021-01-14T08:25:09.000Z</time>
      </trkpt>
      <trkpt lat="47.26692" lon="-2.33141">
        <ele>1.6000000238419</ele>
        <time>2021-01-14T08:25:12.000Z</time>
      </trkpt>
      <trkpt lat="47.26721" lon="-2.3311">
        <ele>1.6000000238419</ele>
        <time>2021-01-14T08:25:20.000Z</time>
      </trkpt>
      <trkpt lat="47.2674" lon="-2.33089">
        <ele>1.6000000238419</ele>
        <time>2021-01-14T08:25:26.000Z</time>
      </trkpt>
      <trkpt lat="47.26749" lon="-2.33084">
        <ele>1.6000000238419</ele>
        <time>2021-01-14T08:25:29.000Z</time>
      </trkpt>
      <trkpt lat="47.26753" lon="-2.33086">
        <ele>1.6000000238419</ele>
        <time>2021-01-14T08:25:30.000Z</time>
      </trkpt>
      <trkpt lat="47.26761" lon="-2.33101">
        <ele>1.6000000238419</ele>
        <time>2021-01-14T08:25:33.000Z</time>
      </trkpt>
      <trkpt lat="47.26763" lon="-2.33114">
        <ele>1.6000000238419</ele>
        <time>2021-01-14T08:25:35.000Z</time>
      </trkpt>
      <trkpt lat="47.26764" lon="-2.3312">
        <ele>1.6000000238419</ele>
        <time>2021-01-14T08:25:36.000Z</time>
      </trkpt>
      <trkpt lat="47.26763" lon="-2.3314">
        <ele>1.6000000238419</ele>
        <time>2021-01-14T08:25:39.000Z</time>
      </trkpt>
      <trkpt lat="47.26759" lon="-2.33152">
        <ele>1.6000000238419</ele>
        <time>2021-01-14T08:25:41.000Z</time>
      </trkpt>
      <trkpt lat="47.26753" lon="-2.33177">
        <ele>1.6000000238419</ele>
        <time>2021-01-14T08:25:45.000Z</time>
      </trkpt>
      <trkpt lat="47.26744" lon="-2.33203">
        <ele>1.6000000238419</ele>
        <time>2021-01-14T08:25:50.000Z</time>
      </trkpt>
      <trkpt lat="47.26738" lon="-2.33225">
        <ele>1.6000000238419</ele>
        <time>2021-01-14T08:25:54.000Z</time>
      </trkpt>
      <trkpt lat="47.26736" lon="-2.33231">
        <ele>1.6000000238419</ele>
        <time>2021-01-14T08:25:55.000Z</time>
      </trkpt>
      <trkpt lat="47.26731" lon="-2.33269">
        <ele>1.6000000238419</ele>
        <time>2021-01-14T08:26:01.000Z</time>
      </trkpt>
      <trkpt lat="47.26737" lon="-2.33304">
        <ele>1.6000000238419</ele>
        <time>2021-01-14T08:26:06.000Z</time>
      </trkpt>
      <trkpt lat="47.26739" lon="-2.33311">
        <ele>1.6000000238419</ele>
        <time>2021-01-14T08:26:07.000Z</time>
      </trkpt>
      <trkpt lat="47.26746" lon="-2.33338">
        <ele>1.6000000238419</ele>
        <time>2021-01-14T08:26:11.000Z</time>
      </trkpt>
      <trkpt lat="47.26747" lon="-2.33351">
        <ele>1.6000000238419</ele>
        <time>2021-01-14T08:26:13.000Z</time>
      </trkpt>
      <trkpt lat="47.26753" lon="-2.334">
        <ele>1.6000000238419</ele>
        <time>2021-01-14T08:26:20.000Z</time>
      </trkpt>
      <trkpt lat="47.26755" lon="-2.33415">
        <ele>1.6000000238419</ele>
        <time>2021-01-14T08:26:22.000Z</time>
      </trkpt>
      <trkpt lat="47.26757" lon="-2.33442">
        <ele>1.6000000238419</ele>
        <time>2021-01-14T08:26:26.000Z</time>
      </trkpt>
      <trkpt lat="47.26767" lon="-2.33495">
        <ele>1.6000000238419</ele>
        <time>2021-01-14T08:26:34.000Z</time>
      </trkpt>
      <trkpt lat="47.26774" lon="-2.33541">
        <ele>1.6000000238419</ele>
        <time>2021-01-14T08:26:41.000Z</time>
      </trkpt>
      <trkpt lat="47.26779" lon="-2.33565">
        <ele>1.6000000238419</ele>
        <time>2021-01-14T08:26:45.000Z</time>
      </trkpt>
      <trkpt lat="47.26782" lon="-2.33567">
        <ele>1.6000000238419</ele>
        <time>2021-01-14T08:26:46.000Z</time>
      </trkpt>
      <trkpt lat="47.2679" lon="-2.33566">
        <ele>1.6000000238419</ele>
        <time>2021-01-14T08:26:49.000Z</time>
      </trkpt>
      <trkpt lat="47.26793" lon="-2.33564">
        <ele>1.6000000238419</ele>
        <time>2021-01-14T08:26:50.000Z</time>
      </trkpt>
      <trkpt lat="47.26811" lon="-2.33555">
        <ele>1.6000000238419</ele>
        <time>2021-01-14T08:26:55.000Z</time>
      </trkpt>
      <trkpt lat="47.26841" lon="-2.3354">
        <ele>1.6000000238419</ele>
        <time>2021-01-14T08:27:02.000Z</time>
      </trkpt>
      <trkpt lat="47.2687" lon="-2.33531">
        <ele>1.6000000238419</ele>
        <time>2021-01-14T08:27:08.000Z</time>
      </trkpt>
      <trkpt lat="47.2688" lon="-2.33532">
        <ele>1.6000000238419</ele>
        <time>2021-01-14T08:27:10.000Z</time>
      </trkpt>
      <trkpt lat="47.26889" lon="-2.33539">
        <ele>1.6000000238419</ele>
        <time>2021-01-14T08:27:12.000Z</time>
      </trkpt>
      <trkpt lat="47.26899" lon="-2.33557">
        <ele>1.6000000238419</ele>
        <time>2021-01-14T08:27:16.000Z</time>
      </trkpt>
      <trkpt lat="47.26903" lon="-2.33567">
        <ele>2</ele>
        <time>2021-01-14T08:27:18.000Z</time>
      </trkpt>
      <trkpt lat="47.26905" lon="-2.33572">
        <ele>2.4000000953674</ele>
        <time>2021-01-14T08:27:19.000Z</time>
      </trkpt>
      <trkpt lat="47.26907" lon="-2.33578">
        <ele>2.7999999523163</ele>
        <time>2021-01-14T08:27:20.000Z</time>
      </trkpt>
      <trkpt lat="47.26909" lon="-2.33583">
        <ele>3.2000000476837</ele>
        <time>2021-01-14T08:27:21.000Z</time>
      </trkpt>
      <trkpt lat="47.26911" lon="-2.33588">
        <ele>3.5999999046326</ele>
        <time>2021-01-14T08:27:22.000Z</time>
      </trkpt>
      <trkpt lat="47.26914" lon="-2.33594">
        <ele>3.5999999046326</ele>
        <time>2021-01-14T08:27:23.000Z</time>
      </trkpt>
      <trkpt lat="47.26925" lon="-2.33628">
        <ele>3.5999999046326</ele>
        <time>2021-01-14T08:27:30.000Z</time>
      </trkpt>
      <trkpt lat="47.26934" lon="-2.33672">
        <ele>4.1999998092651</ele>
        <time>2021-01-14T08:27:38.000Z</time>
      </trkpt>
      <trkpt lat="47.26934" lon="-2.33677">
        <ele>4.5999999046326</ele>
        <time>2021-01-14T08:27:39.000Z</time>
      </trkpt>
      <trkpt lat="47.26935" lon="-2.33683">
        <ele>5.4000000953674</ele>
        <time>2021-01-14T08:27:40.000Z</time>
      </trkpt>
      <trkpt lat="47.26936" lon="-2.33689">
        <ele>5.8000001907349</ele>
        <time>2021-01-14T08:27:41.000Z</time>
      </trkpt>
      <trkpt lat="47.26938" lon="-2.33723">
        <ele>5.8000001907349</ele>
        <time>2021-01-14T08:27:47.000Z</time>
      </trkpt>
      <trkpt lat="47.26932" lon="-2.33765">
        <ele>5.8000001907349</ele>
        <time>2021-01-14T08:27:54.000Z</time>
      </trkpt>
      <trkpt lat="47.2693" lon="-2.33777">
        <ele>6.1999998092651</ele>
        <time>2021-01-14T08:27:56.000Z</time>
      </trkpt>
      <trkpt lat="47.26929" lon="-2.33783">
        <ele>6.5999999046326</ele>
        <time>2021-01-14T08:27:57.000Z</time>
      </trkpt>
      <trkpt lat="47.2693" lon="-2.3379">
        <ele>7</ele>
        <time>2021-01-14T08:27:58.000Z</time>
      </trkpt>
      <trkpt lat="47.26931" lon="-2.33797">
        <ele>7.4000000953674</ele>
        <time>2021-01-14T08:27:59.000Z</time>
      </trkpt>
      <trkpt lat="47.26932" lon="-2.33803">
        <ele>7.8000001907349</ele>
        <time>2021-01-14T08:28:00.000Z</time>
      </trkpt>
      <trkpt lat="47.2694" lon="-2.33816">
        <ele>7.8000001907349</ele>
        <time>2021-01-14T08:28:03.000Z</time>
      </trkpt>
      <trkpt lat="47.2696" lon="-2.33835">
        <ele>7.8000001907349</ele>
        <time>2021-01-14T08:28:09.000Z</time>
      </trkpt>
      <trkpt lat="47.26981" lon="-2.33847">
        <ele>7.8000001907349</ele>
        <time>2021-01-14T08:28:15.000Z</time>
      </trkpt>
      <trkpt lat="47.27007" lon="-2.3386">
        <ele>8.1999998092651</ele>
        <time>2021-01-14T08:28:23.000Z</time>
      </trkpt>
      <trkpt lat="47.2701" lon="-2.33862">
        <ele>8.6000003814697</ele>
        <time>2021-01-14T08:28:24.000Z</time>
      </trkpt>
      <trkpt lat="47.27013" lon="-2.33864">
        <ele>9</ele>
        <time>2021-01-14T08:28:25.000Z</time>
      </trkpt>
      <trkpt lat="47.27015" lon="-2.33866">
        <ele>9.3999996185303</ele>
        <time>2021-01-14T08:28:26.000Z</time>
      </trkpt>
      <trkpt lat="47.27018" lon="-2.33867">
        <ele>9.8000001907349</ele>
        <time>2021-01-14T08:28:27.000Z</time>
      </trkpt>
      <trkpt lat="47.27028" lon="-2.33872">
        <ele>10.60000038147</ele>
        <time>2021-01-14T08:28:30.000Z</time>
      </trkpt>
      <trkpt lat="47.27031" lon="-2.33874">
        <ele>11</ele>
        <time>2021-01-14T08:28:31.000Z</time>
      </trkpt>
      <trkpt lat="47.27035" lon="-2.33877">
        <ele>11.39999961853</ele>
        <time>2021-01-14T08:28:32.000Z</time>
      </trkpt>
      <trkpt lat="47.27038" lon="-2.33879">
        <ele>11.800000190735</ele>
        <time>2021-01-14T08:28:33.000Z</time>
      </trkpt>
      <trkpt lat="47.27052" lon="-2.33891">
        <ele>11.800000190735</ele>
        <time>2021-01-14T08:28:37.000Z</time>
      </trkpt>
      <trkpt lat="47.27075" lon="-2.33917">
        <ele>11.800000190735</ele>
        <time>2021-01-14T08:28:45.000Z</time>
      </trkpt>
      <trkpt lat="47.27081" lon="-2.33921">
        <ele>12.199999809265</ele>
        <time>2021-01-14T08:28:47.000Z</time>
      </trkpt>
      <trkpt lat="47.27084" lon="-2.33923">
        <ele>12.60000038147</ele>
        <time>2021-01-14T08:28:48.000Z</time>
      </trkpt>
      <trkpt lat="47.27086" lon="-2.33925">
        <ele>13.199999809265</ele>
        <time>2021-01-14T08:28:49.000Z</time>
      </trkpt>
      <trkpt lat="47.27089" lon="-2.33927">
        <ele>13.60000038147</ele>
        <time>2021-01-14T08:28:50.000Z</time>
      </trkpt>
      <trkpt lat="47.27091" lon="-2.33929">
        <ele>14</ele>
        <time>2021-01-14T08:28:51.000Z</time>
      </trkpt>
      <trkpt lat="47.27101" lon="-2.33938">
        <ele>14.800000190735</ele>
        <time>2021-01-14T08:28:55.000Z</time>
      </trkpt>
      <trkpt lat="47.27103" lon="-2.33941">
        <ele>15.199999809265</ele>
        <time>2021-01-14T08:28:56.000Z</time>
      </trkpt>
      <trkpt lat="47.27106" lon="-2.33944">
        <ele>15.60000038147</ele>
        <time>2021-01-14T08:28:57.000Z</time>
      </trkpt>
      <trkpt lat="47.27108" lon="-2.33947">
        <ele>16</ele>
        <time>2021-01-14T08:28:58.000Z</time>
      </trkpt>
      <trkpt lat="47.2713" lon="-2.33969">
        <ele>16.39999961853</ele>
        <time>2021-01-14T08:29:06.000Z</time>
      </trkpt>
      <trkpt lat="47.27133" lon="-2.33972">
        <ele>16.799999237061</ele>
        <time>2021-01-14T08:29:07.000Z</time>
      </trkpt>
      <trkpt lat="47.27136" lon="-2.33975">
        <ele>17.39999961853</ele>
        <time>2021-01-14T08:29:08.000Z</time>
      </trkpt>
      <trkpt lat="47.2714" lon="-2.33978">
        <ele>17.799999237061</ele>
        <time>2021-01-14T08:29:09.000Z</time>
      </trkpt>
      <trkpt lat="47.27143" lon="-2.33981">
        <ele>18.200000762939</ele>
        <time>2021-01-14T08:29:10.000Z</time>
      </trkpt>
      <trkpt lat="47.2715" lon="-2.33988">
        <ele>18.200000762939</ele>
        <time>2021-01-14T08:29:12.000Z</time>
      </trkpt>
      <trkpt lat="47.27173" lon="-2.34011">
        <ele>18.200000762939</ele>
        <time>2021-01-14T08:29:19.000Z</time>
      </trkpt>
      <trkpt lat="47.27189" lon="-2.34027">
        <ele>18.60000038147</ele>
        <time>2021-01-14T08:29:24.000Z</time>
      </trkpt>
      <trkpt lat="47.27192" lon="-2.34031">
        <ele>19</ele>
        <time>2021-01-14T08:29:25.000Z</time>
      </trkpt>
      <trkpt lat="47.27195" lon="-2.34034">
        <ele>19.39999961853</ele>
        <time>2021-01-14T08:29:26.000Z</time>
      </trkpt>
      <trkpt lat="47.27198" lon="-2.34037">
        <ele>19.799999237061</ele>
        <time>2021-01-14T08:29:27.000Z</time>
      </trkpt>
      <trkpt lat="47.27201" lon="-2.34039">
        <ele>20.200000762939</ele>
        <time>2021-01-14T08:29:28.000Z</time>
      </trkpt>
      <trkpt lat="47.27222" lon="-2.34053">
        <ele>20.200000762939</ele>
        <time>2021-01-14T08:29:34.000Z</time>
      </trkpt>
      <trkpt lat="47.2724" lon="-2.3405">
        <ele>20.200000762939</ele>
        <time>2021-01-14T08:29:39.000Z</time>
      </trkpt>
      <trkpt lat="47.27263" lon="-2.34055">
        <ele>20.200000762939</ele>
        <time>2021-01-14T08:29:45.000Z</time>
      </trkpt>
      <trkpt lat="47.27276" lon="-2.34075">
        <ele>20.60000038147</ele>
        <time>2021-01-14T08:29:50.000Z</time>
      </trkpt>
      <trkpt lat="47.27278" lon="-2.34081">
        <ele>21</ele>
        <time>2021-01-14T08:29:51.000Z</time>
      </trkpt>
      <trkpt lat="47.27279" lon="-2.34086">
        <ele>21.39999961853</ele>
        <time>2021-01-14T08:29:52.000Z</time>
      </trkpt>
      <trkpt lat="47.2728" lon="-2.34092">
        <ele>21.799999237061</ele>
        <time>2021-01-14T08:29:53.000Z</time>
      </trkpt>
      <trkpt lat="47.27282" lon="-2.34097">
        <ele>22.200000762939</ele>
        <time>2021-01-14T08:29:54.000Z</time>
      </trkpt>
      <trkpt lat="47.27283" lon="-2.34103">
        <ele>22.200000762939</ele>
        <time>2021-01-14T08:29:55.000Z</time>
      </trkpt>
      <trkpt lat="47.27284" lon="-2.3411">
        <ele>22.200000762939</ele>
        <time>2021-01-14T08:29:56.000Z</time>
      </trkpt>
      <trkpt lat="47.27285" lon="-2.34115">
        <ele>22.200000762939</ele>
        <time>2021-01-14T08:29:57.000Z</time>
      </trkpt>
      <trkpt lat="47.27295" lon="-2.34128">
        <ele>22.200000762939</ele>
        <time>2021-01-14T08:30:00.000Z</time>
      </trkpt>
      <trkpt lat="47.27299" lon="-2.34131">
        <ele>22.200000762939</ele>
        <time>2021-01-14T08:30:01.000Z</time>
      </trkpt>
      <trkpt lat="47.27321" lon="-2.34146">
        <ele>22.200000762939</ele>
        <time>2021-01-14T08:30:06.000Z</time>
      </trkpt>
      <trkpt lat="47.27357" lon="-2.34168">
        <ele>22.200000762939</ele>
        <time>2021-01-14T08:30:14.000Z</time>
      </trkpt>
      <trkpt lat="47.27383" lon="-2.34186">
        <ele>21.799999237061</ele>
        <time>2021-01-14T08:30:20.000Z</time>
      </trkpt>
      <trkpt lat="47.27387" lon="-2.3419">
        <ele>21.39999961853</ele>
        <time>2021-01-14T08:30:21.000Z</time>
      </trkpt>
      <trkpt lat="47.27391" lon="-2.34193">
        <ele>21</ele>
        <time>2021-01-14T08:30:22.000Z</time>
      </trkpt>
      <trkpt lat="47.27394" lon="-2.34198">
        <ele>20.60000038147</ele>
        <time>2021-01-14T08:30:23.000Z</time>
      </trkpt>
      <trkpt lat="47.27395" lon="-2.34203">
        <ele>20.200000762939</ele>
        <time>2021-01-14T08:30:24.000Z</time>
      </trkpt>
      <trkpt lat="47.27396" lon="-2.34209">
        <ele>20.200000762939</ele>
        <time>2021-01-14T08:30:25.000Z</time>
      </trkpt>
      <trkpt lat="47.27399" lon="-2.34219">
        <ele>20.200000762939</ele>
        <time>2021-01-14T08:30:27.000Z</time>
      </trkpt>
      <trkpt lat="47.27403" lon="-2.34234">
        <ele>20.200000762939</ele>
        <time>2021-01-14T08:30:30.000Z</time>
      </trkpt>
      <trkpt lat="47.27411" lon="-2.34242">
        <ele>20.200000762939</ele>
        <time>2021-01-14T08:30:34.000Z</time>
      </trkpt>
      <trkpt lat="47.27416" lon="-2.34256">
        <ele>20.200000762939</ele>
        <time>2021-01-14T08:30:37.000Z</time>
      </trkpt>
      <trkpt lat="47.27417" lon="-2.34283">
        <ele>20.200000762939</ele>
        <time>2021-01-14T08:30:42.000Z</time>
      </trkpt>
      <trkpt lat="47.27419" lon="-2.343">
        <ele>20.200000762939</ele>
        <time>2021-01-14T08:30:45.000Z</time>
      </trkpt>
      <trkpt lat="47.2742" lon="-2.34312">
        <ele>20.200000762939</ele>
        <time>2021-01-14T08:30:47.000Z</time>
      </trkpt>
      <trkpt lat="47.27419" lon="-2.34348">
        <ele>20.200000762939</ele>
        <time>2021-01-14T08:30:53.000Z</time>
      </trkpt>
      <trkpt lat="47.2742" lon="-2.34367">
        <ele>20.200000762939</ele>
        <time>2021-01-14T08:30:56.000Z</time>
      </trkpt>
      <trkpt lat="47.27422" lon="-2.34384">
        <ele>20.200000762939</ele>
        <time>2021-01-14T08:30:59.000Z</time>
      </trkpt>
      <trkpt lat="47.27423" lon="-2.34395">
        <ele>20.60000038147</ele>
        <time>2021-01-14T08:31:01.000Z</time>
      </trkpt>
      <trkpt lat="47.27424" lon="-2.34401">
        <ele>21</ele>
        <time>2021-01-14T08:31:02.000Z</time>
      </trkpt>
      <trkpt lat="47.27424" lon="-2.34407">
        <ele>21.39999961853</ele>
        <time>2021-01-14T08:31:03.000Z</time>
      </trkpt>
      <trkpt lat="47.27424" lon="-2.34413">
        <ele>21.799999237061</ele>
        <time>2021-01-14T08:31:04.000Z</time>
      </trkpt>
      <trkpt lat="47.27425" lon="-2.34419">
        <ele>22.200000762939</ele>
        <time>2021-01-14T08:31:05.000Z</time>
      </trkpt>
      <trkpt lat="47.27427" lon="-2.34455">
        <ele>22.200000762939</ele>
        <time>2021-01-14T08:31:11.000Z</time>
      </trkpt>
      <trkpt lat="47.27431" lon="-2.34498">
        <ele>22.200000762939</ele>
        <time>2021-01-14T08:31:18.000Z</time>
      </trkpt>
      <trkpt lat="47.27432" lon="-2.34503">
        <ele>22.200000762939</ele>
        <time>2021-01-14T08:31:19.000Z</time>
      </trkpt>
      <trkpt lat="47.27439" lon="-2.34532">
        <ele>22.200000762939</ele>
        <time>2021-01-14T08:31:24.000Z</time>
      </trkpt>
      <trkpt lat="47.27446" lon="-2.3456">
        <ele>22.60000038147</ele>
        <time>2021-01-14T08:31:29.000Z</time>
      </trkpt>
      <trkpt lat="47.27448" lon="-2.34565">
        <ele>23</ele>
        <time>2021-01-14T08:31:30.000Z</time>
      </trkpt>
      <trkpt lat="47.27449" lon="-2.34571">
        <ele>23.39999961853</ele>
        <time>2021-01-14T08:31:31.000Z</time>
      </trkpt>
      <trkpt lat="47.27451" lon="-2.34577">
        <ele>23.799999237061</ele>
        <time>2021-01-14T08:31:32.000Z</time>
      </trkpt>
      <trkpt lat="47.27452" lon="-2.34583">
        <ele>24.39999961853</ele>
        <time>2021-01-14T08:31:33.000Z</time>
      </trkpt>
      <trkpt lat="47.27455" lon="-2.34603">
        <ele>24.39999961853</ele>
        <time>2021-01-14T08:31:36.000Z</time>
      </trkpt>
      <trkpt lat="47.2746" lon="-2.34661">
        <ele>24.39999961853</ele>
        <time>2021-01-14T08:31:44.000Z</time>
      </trkpt>
      <trkpt lat="47.2746" lon="-2.34668">
        <ele>24.39999961853</ele>
        <time>2021-01-14T08:31:45.000Z</time>
      </trkpt>
      <trkpt lat="47.27461" lon="-2.34683">
        <ele>24.39999961853</ele>
        <time>2021-01-14T08:31:47.000Z</time>
      </trkpt>
      <trkpt lat="47.27466" lon="-2.3469">
        <ele>24.39999961853</ele>
        <time>2021-01-14T08:31:49.000Z</time>
      </trkpt>
      <trkpt lat="47.27477" lon="-2.34685">
        <ele>24.39999961853</ele>
        <time>2021-01-14T08:31:52.000Z</time>
      </trkpt>
      <trkpt lat="47.2749" lon="-2.34679">
        <ele>24.39999961853</ele>
        <time>2021-01-14T08:31:55.000Z</time>
      </trkpt>
      <trkpt lat="47.27499" lon="-2.34677">
        <ele>24.39999961853</ele>
        <time>2021-01-14T08:31:57.000Z</time>
      </trkpt>
      <trkpt lat="47.2754" lon="-2.34669">
        <ele>24.39999961853</ele>
        <time>2021-01-14T08:32:06.000Z</time>
      </trkpt>
      <trkpt lat="47.27555" lon="-2.34664">
        <ele>24.39999961853</ele>
        <time>2021-01-14T08:32:09.000Z</time>
      </trkpt>
      <trkpt lat="47.2757" lon="-2.34656">
        <ele>24</ele>
        <time>2021-01-14T08:32:12.000Z</time>
      </trkpt>
      <trkpt lat="47.27574" lon="-2.34652">
        <ele>23.60000038147</ele>
        <time>2021-01-14T08:32:13.000Z</time>
      </trkpt>
      <trkpt lat="47.27579" lon="-2.34648">
        <ele>23</ele>
        <time>2021-01-14T08:32:14.000Z</time>
      </trkpt>
      <trkpt lat="47.27584" lon="-2.34644">
        <ele>22.60000038147</ele>
        <time>2021-01-14T08:32:15.000Z</time>
      </trkpt>
      <trkpt lat="47.27588" lon="-2.34639">
        <ele>22.200000762939</ele>
        <time>2021-01-14T08:32:16.000Z</time>
      </trkpt>
      <trkpt lat="47.27601" lon="-2.34626">
        <ele>22.200000762939</ele>
        <time>2021-01-14T08:32:19.000Z</time>
      </trkpt>
      <trkpt lat="47.27632" lon="-2.34596">
        <ele>22.200000762939</ele>
        <time>2021-01-14T08:32:26.000Z</time>
      </trkpt>
      <trkpt lat="47.27667" lon="-2.34561">
        <ele>22.200000762939</ele>
        <time>2021-01-14T08:32:35.000Z</time>
      </trkpt>
      <trkpt lat="47.27675" lon="-2.34562">
        <ele>22.200000762939</ele>
        <time>2021-01-14T08:32:38.000Z</time>
      </trkpt>
      <trkpt lat="47.27678" lon="-2.34565">
        <ele>22.200000762939</ele>
        <time>2021-01-14T08:32:40.000Z</time>
      </trkpt>
      <trkpt lat="47.2768" lon="-2.3457">
        <ele>22.200000762939</ele>
        <time>2021-01-14T08:32:42.000Z</time>
      </trkpt>
      <trkpt lat="47.27688" lon="-2.3459">
        <ele>22.200000762939</ele>
        <time>2021-01-14T08:32:47.000Z</time>
      </trkpt>
      <trkpt lat="47.27691" lon="-2.34623">
        <ele>22.200000762939</ele>
        <time>2021-01-14T08:32:52.000Z</time>
      </trkpt>
      <trkpt lat="47.27695" lon="-2.3466">
        <ele>22.200000762939</ele>
        <time>2021-01-14T08:32:58.000Z</time>
      </trkpt>
      <trkpt lat="47.27696" lon="-2.34665">
        <ele>22.200000762939</ele>
        <time>2021-01-14T08:32:59.000Z</time>
      </trkpt>
      <trkpt lat="47.27697" lon="-2.34676">
        <ele>22.200000762939</ele>
        <time>2021-01-14T08:33:02.000Z</time>
      </trkpt>
      <trkpt lat="47.27697" lon="-2.34678">
        <ele>22.200000762939</ele>
        <time>2021-01-14T08:33:03.000Z</time>
      </trkpt>
      <trkpt lat="47.27702" lon="-2.3469">
        <ele>22.200000762939</ele>
        <time>2021-01-14T08:33:06.000Z</time>
      </trkpt>
      <trkpt lat="47.27703" lon="-2.34695">
        <ele>22.200000762939</ele>
        <time>2021-01-14T08:33:07.000Z</time>
      </trkpt>
      <trkpt lat="47.27708" lon="-2.34711">
        <ele>22.200000762939</ele>
        <time>2021-01-14T08:33:10.000Z</time>
      </trkpt>
      <trkpt lat="47.27713" lon="-2.34723">
        <ele>22.200000762939</ele>
        <time>2021-01-14T08:33:12.000Z</time>
      </trkpt>
      <trkpt lat="47.27732" lon="-2.34766">
        <ele>22.200000762939</ele>
        <time>2021-01-14T08:33:19.000Z</time>
      </trkpt>
      <trkpt lat="47.27751" lon="-2.34802">
        <ele>22.200000762939</ele>
        <time>2021-01-14T08:33:25.000Z</time>
      </trkpt>
      <trkpt lat="47.27771" lon="-2.34845">
        <ele>21.799999237061</ele>
        <time>2021-01-14T08:33:32.000Z</time>
      </trkpt>
      <trkpt lat="47.27774" lon="-2.34851">
        <ele>21.39999961853</ele>
        <time>2021-01-14T08:33:33.000Z</time>
      </trkpt>
      <trkpt lat="47.27777" lon="-2.34857">
        <ele>21</ele>
        <time>2021-01-14T08:33:34.000Z</time>
      </trkpt>
      <trkpt lat="47.27781" lon="-2.34864">
        <ele>20.60000038147</ele>
        <time>2021-01-14T08:33:35.000Z</time>
      </trkpt>
      <trkpt lat="47.27783" lon="-2.34869">
        <ele>20.200000762939</ele>
        <time>2021-01-14T08:33:36.000Z</time>
      </trkpt>
      <trkpt lat="47.27787" lon="-2.34879">
        <ele>20.200000762939</ele>
        <time>2021-01-14T08:33:38.000Z</time>
      </trkpt>
      <trkpt lat="47.27786" lon="-2.34907">
        <ele>20.200000762939</ele>
        <time>2021-01-14T08:33:42.000Z</time>
      </trkpt>
      <trkpt lat="47.27784" lon="-2.34922">
        <ele>19.799999237061</ele>
        <time>2021-01-14T08:33:44.000Z</time>
      </trkpt>
      <trkpt lat="47.27783" lon="-2.3493">
        <ele>19.39999961853</ele>
        <time>2021-01-14T08:33:45.000Z</time>
      </trkpt>
      <trkpt lat="47.27781" lon="-2.34938">
        <ele>19</ele>
        <time>2021-01-14T08:33:46.000Z</time>
      </trkpt>
      <trkpt lat="47.27779" lon="-2.34946">
        <ele>18.60000038147</ele>
        <time>2021-01-14T08:33:47.000Z</time>
      </trkpt>
      <trkpt lat="47.27778" lon="-2.34954">
        <ele>18.200000762939</ele>
        <time>2021-01-14T08:33:48.000Z</time>
      </trkpt>
      <trkpt lat="47.27767" lon="-2.35015">
        <ele>18.200000762939</ele>
        <time>2021-01-14T08:33:56.000Z</time>
      </trkpt>
      <trkpt lat="47.27766" lon="-2.35064">
        <ele>17.799999237061</ele>
        <time>2021-01-14T08:34:02.000Z</time>
      </trkpt>
      <trkpt lat="47.27766" lon="-2.35073">
        <ele>17.200000762939</ele>
        <time>2021-01-14T08:34:03.000Z</time>
      </trkpt>
      <trkpt lat="47.27766" lon="-2.35081">
        <ele>16.799999237061</ele>
        <time>2021-01-14T08:34:04.000Z</time>
      </trkpt>
      <trkpt lat="47.27766" lon="-2.3509">
        <ele>16.39999961853</ele>
        <time>2021-01-14T08:34:05.000Z</time>
      </trkpt>
      <trkpt lat="47.27766" lon="-2.35098">
        <ele>16</ele>
        <time>2021-01-14T08:34:06.000Z</time>
      </trkpt>
      <trkpt lat="47.27768" lon="-2.35124">
        <ele>16</ele>
        <time>2021-01-14T08:34:09.000Z</time>
      </trkpt>
      <trkpt lat="47.27772" lon="-2.3518">
        <ele>16</ele>
        <time>2021-01-14T08:34:16.000Z</time>
      </trkpt>
      <trkpt lat="47.27774" lon="-2.35194">
        <ele>16</ele>
        <time>2021-01-14T08:34:18.000Z</time>
      </trkpt>
      <trkpt lat="47.27778" lon="-2.35225">
        <ele>16</ele>
        <time>2021-01-14T08:34:22.000Z</time>
      </trkpt>
      <trkpt lat="47.2778" lon="-2.35241">
        <ele>15.39999961853</ele>
        <time>2021-01-14T08:34:24.000Z</time>
      </trkpt>
      <trkpt lat="47.27781" lon="-2.35248">
        <ele>15</ele>
        <time>2021-01-14T08:34:25.000Z</time>
      </trkpt>
      <trkpt lat="47.27783" lon="-2.35256">
        <ele>14.60000038147</ele>
        <time>2021-01-14T08:34:26.000Z</time>
      </trkpt>
      <trkpt lat="47.27784" lon="-2.35263">
        <ele>14</ele>
        <time>2021-01-14T08:34:27.000Z</time>
      </trkpt>
      <trkpt lat="47.27786" lon="-2.35271">
        <ele>13.60000038147</ele>
        <time>2021-01-14T08:34:28.000Z</time>
      </trkpt>
      <trkpt lat="47.27788" lon="-2.35278">
        <ele>13.60000038147</ele>
        <time>2021-01-14T08:34:29.000Z</time>
      </trkpt>
      <trkpt lat="47.27799" lon="-2.35329">
        <ele>13.60000038147</ele>
        <time>2021-01-14T08:34:36.000Z</time>
      </trkpt>
      <trkpt lat="47.27807" lon="-2.35357">
        <ele>13.60000038147</ele>
        <time>2021-01-14T08:34:40.000Z</time>
      </trkpt>
      <trkpt lat="47.27815" lon="-2.35364">
        <ele>13.60000038147</ele>
        <time>2021-01-14T08:34:42.000Z</time>
      </trkpt>
      <trkpt lat="47.27829" lon="-2.35364">
        <ele>13.60000038147</ele>
        <time>2021-01-14T08:34:45.000Z</time>
      </trkpt>
      <trkpt lat="47.27863" lon="-2.35359">
        <ele>13.60000038147</ele>
        <time>2021-01-14T08:34:53.000Z</time>
      </trkpt>
      <trkpt lat="47.27871" lon="-2.35362">
        <ele>13.60000038147</ele>
        <time>2021-01-14T08:34:55.000Z</time>
      </trkpt>
      <trkpt lat="47.27881" lon="-2.3537">
        <ele>13.60000038147</ele>
        <time>2021-01-14T08:34:58.000Z</time>
      </trkpt>
      <trkpt lat="47.27887" lon="-2.35378">
        <ele>13.60000038147</ele>
        <time>2021-01-14T08:35:00.000Z</time>
      </trkpt>
      <trkpt lat="47.27896" lon="-2.3539">
        <ele>13.60000038147</ele>
        <time>2021-01-14T08:35:03.000Z</time>
      </trkpt>
      <trkpt lat="47.2792" lon="-2.35422">
        <ele>13.60000038147</ele>
        <time>2021-01-14T08:35:11.000Z</time>
      </trkpt>
      <trkpt lat="47.27935" lon="-2.35443">
        <ele>14</ele>
        <time>2021-01-14T08:35:16.000Z</time>
      </trkpt>
      <trkpt lat="47.27939" lon="-2.35447">
        <ele>14.39999961853</ele>
        <time>2021-01-14T08:35:17.000Z</time>
      </trkpt>
      <trkpt lat="47.27943" lon="-2.3545">
        <ele>14.800000190735</ele>
        <time>2021-01-14T08:35:18.000Z</time>
      </trkpt>
      <trkpt lat="47.27947" lon="-2.35453">
        <ele>15.39999961853</ele>
        <time>2021-01-14T08:35:19.000Z</time>
      </trkpt>
      <trkpt lat="47.27951" lon="-2.35456">
        <ele>15.800000190735</ele>
        <time>2021-01-14T08:35:20.000Z</time>
      </trkpt>
      <trkpt lat="47.27959" lon="-2.35461">
        <ele>15.800000190735</ele>
        <time>2021-01-14T08:35:22.000Z</time>
      </trkpt>
      <trkpt lat="47.27969" lon="-2.35469">
        <ele>15.800000190735</ele>
        <time>2021-01-14T08:35:25.000Z</time>
      </trkpt>
      <trkpt lat="47.27972" lon="-2.35474">
        <ele>15.800000190735</ele>
        <time>2021-01-14T08:35:26.000Z</time>
      </trkpt>
      <trkpt lat="47.27981" lon="-2.35489">
        <ele>15.800000190735</ele>
        <time>2021-01-14T08:35:29.000Z</time>
      </trkpt>
      <trkpt lat="47.27987" lon="-2.35499">
        <ele>15.800000190735</ele>
        <time>2021-01-14T08:35:31.000Z</time>
      </trkpt>
      <trkpt lat="47.27998" lon="-2.35525">
        <ele>15.800000190735</ele>
        <time>2021-01-14T08:35:37.000Z</time>
      </trkpt>
      <trkpt lat="47.28004" lon="-2.35545">
        <ele>15.800000190735</ele>
        <time>2021-01-14T08:35:43.000Z</time>
      </trkpt>
      <trkpt lat="47.28004" lon="-2.35548">
        <ele>15.800000190735</ele>
        <time>2021-01-14T08:35:47.000Z</time>
      </trkpt>
      <trkpt lat="47.28004" lon="-2.35548">
        <ele>15.800000190735</ele>
        <time>2021-01-14T08:35:48.000Z</time>
      </trkpt>
      <trkpt lat="47.28006" lon="-2.3555">
        <ele>15.800000190735</ele>
        <time>2021-01-14T08:35:52.000Z</time>
      </trkpt>
      <trkpt lat="47.28009" lon="-2.35556">
        <ele>15.800000190735</ele>
        <time>2021-01-14T08:35:55.000Z</time>
      </trkpt>
      <trkpt lat="47.28011" lon="-2.3556">
        <ele>15.800000190735</ele>
        <time>2021-01-14T08:35:57.000Z</time>
      </trkpt>
      <trkpt lat="47.28014" lon="-2.35563">
        <ele>15.800000190735</ele>
        <time>2021-01-14T08:35:59.000Z</time>
      </trkpt>
      <trkpt lat="47.28018" lon="-2.35561">
        <ele>15.800000190735</ele>
        <time>2021-01-14T08:36:01.000Z</time>
      </trkpt>
      <trkpt lat="47.28033" lon="-2.35567">
        <ele>15.800000190735</ele>
        <time>2021-01-14T08:36:06.000Z</time>
      </trkpt>
      <trkpt lat="47.28044" lon="-2.35575">
        <ele>15.800000190735</ele>
        <time>2021-01-14T08:36:10.000Z</time>
      </trkpt>
      <trkpt lat="47.28047" lon="-2.35576">
        <ele>15.800000190735</ele>
        <time>2021-01-14T08:36:11.000Z</time>
      </trkpt>
      <trkpt lat="47.28052" lon="-2.35579">
        <ele>16.200000762939</ele>
        <time>2021-01-14T08:36:13.000Z</time>
      </trkpt>
      <trkpt lat="47.28055" lon="-2.3558">
        <ele>16.60000038147</ele>
        <time>2021-01-14T08:36:14.000Z</time>
      </trkpt>
      <trkpt lat="47.28058" lon="-2.35581">
        <ele>17</ele>
        <time>2021-01-14T08:36:15.000Z</time>
      </trkpt>
      <trkpt lat="47.2806" lon="-2.35581">
        <ele>17.39999961853</ele>
        <time>2021-01-14T08:36:16.000Z</time>
      </trkpt>
      <trkpt lat="47.28062" lon="-2.35581">
        <ele>17.799999237061</ele>
        <time>2021-01-14T08:36:17.000Z</time>
      </trkpt>
      <trkpt lat="47.28072" lon="-2.35591">
        <ele>17.799999237061</ele>
        <time>2021-01-14T08:36:22.000Z</time>
      </trkpt>
      <trkpt lat="47.28081" lon="-2.35608">
        <ele>17.799999237061</ele>
        <time>2021-01-14T08:36:28.000Z</time>
      </trkpt>
      <trkpt lat="47.28082" lon="-2.35612">
        <ele>17.799999237061</ele>
        <time>2021-01-14T08:36:31.000Z</time>
      </trkpt>
      <trkpt lat="47.28084" lon="-2.35613">
        <ele>17.799999237061</ele>
        <time>2021-01-14T08:40:53.000Z</time>
      </trkpt>
      <trkpt lat="47.28084" lon="-2.35613">
        <ele>17.799999237061</ele>
        <time>2021-01-14T08:40:54.000Z</time>
      </trkpt>
      <trkpt lat="47.28084" lon="-2.3561">
        <ele>17.799999237061</ele>
        <time>2021-01-14T08:40:56.000Z</time>
      </trkpt>
      <trkpt lat="47.28083" lon="-2.35609">
        <ele>17.799999237061</ele>
        <time>2021-01-14T08:40:58.000Z</time>
      </trkpt>
      <trkpt lat="47.2808" lon="-2.35608">
        <ele>17.799999237061</ele>
        <time>2021-01-14T08:41:00.000Z</time>
      </trkpt>
      <trkpt lat="47.28074" lon="-2.3561">
        <ele>17.799999237061</ele>
        <time>2021-01-14T08:41:03.000Z</time>
      </trkpt>
      <trkpt lat="47.28073" lon="-2.35622">
        <ele>17.799999237061</ele>
        <time>2021-01-14T08:41:07.000Z</time>
      </trkpt>
      <trkpt lat="47.28078" lon="-2.3564">
        <ele>18.200000762939</ele>
        <time>2021-01-14T08:41:13.000Z</time>
      </trkpt>
      <trkpt lat="47.2808" lon="-2.35643">
        <ele>18.799999237061</ele>
        <time>2021-01-14T08:41:14.000Z</time>
      </trkpt>
      <trkpt lat="47.28082" lon="-2.35648">
        <ele>19.60000038147</ele>
        <time>2021-01-14T08:41:15.000Z</time>
      </trkpt>
      <trkpt lat="47.28083" lon="-2.35653">
        <ele>20.200000762939</ele>
        <time>2021-01-14T08:41:16.000Z</time>
      </trkpt>
      <trkpt lat="47.28086" lon="-2.35664">
        <ele>20.200000762939</ele>
        <time>2021-01-14T08:41:18.000Z</time>
      </trkpt>
      <trkpt lat="47.28087" lon="-2.35668">
        <ele>20.60000038147</ele>
        <time>2021-01-14T08:41:19.000Z</time>
      </trkpt>
      <trkpt lat="47.28087" lon="-2.35672">
        <ele>21</ele>
        <time>2021-01-14T08:41:20.000Z</time>
      </trkpt>
      <trkpt lat="47.28087" lon="-2.35676">
        <ele>21.39999961853</ele>
        <time>2021-01-14T08:41:21.000Z</time>
      </trkpt>
      <trkpt lat="47.28087" lon="-2.3568">
        <ele>21.799999237061</ele>
        <time>2021-01-14T08:41:22.000Z</time>
      </trkpt>
      <trkpt lat="47.28088" lon="-2.35684">
        <ele>22.200000762939</ele>
        <time>2021-01-14T08:41:23.000Z</time>
      </trkpt>
      <trkpt lat="47.28096" lon="-2.35702">
        <ele>22.200000762939</ele>
        <time>2021-01-14T08:41:29.000Z</time>
      </trkpt>
      <trkpt lat="47.28093" lon="-2.35714">
        <ele>22.200000762939</ele>
        <time>2021-01-14T08:41:35.000Z</time>
      </trkpt>
      <trkpt lat="47.28092" lon="-2.35717">
        <ele>22.200000762939</ele>
        <time>2021-01-14T08:41:37.000Z</time>
      </trkpt>
      <trkpt lat="47.2809" lon="-2.35726">
        <ele>22.200000762939</ele>
        <time>2021-01-14T08:41:51.000Z</time>
      </trkpt>
      <trkpt lat="47.28087" lon="-2.35738">
        <ele>22.200000762939</ele>
        <time>2021-01-14T08:41:53.000Z</time>
      </trkpt>
      <trkpt lat="47.28082" lon="-2.35756">
        <ele>22.200000762939</ele>
        <time>2021-01-14T08:41:56.000Z</time>
      </trkpt>
      <trkpt lat="47.28079" lon="-2.35771">
        <ele>22.200000762939</ele>
        <time>2021-01-14T08:41:59.000Z</time>
      </trkpt>
      <trkpt lat="47.28078" lon="-2.35775">
        <ele>22.200000762939</ele>
        <time>2021-01-14T08:42:00.000Z</time>
      </trkpt>
      <trkpt lat="47.28075" lon="-2.35802">
        <ele>21.799999237061</ele>
        <time>2021-01-14T08:42:05.000Z</time>
      </trkpt>
      <trkpt lat="47.28077" lon="-2.35808">
        <ele>21.200000762939</ele>
        <time>2021-01-14T08:42:06.000Z</time>
      </trkpt>
      <trkpt lat="47.2808" lon="-2.35813">
        <ele>20.799999237061</ele>
        <time>2021-01-14T08:42:07.000Z</time>
      </trkpt>
      <trkpt lat="47.28083" lon="-2.35819">
        <ele>20.39999961853</ele>
        <time>2021-01-14T08:42:08.000Z</time>
      </trkpt>
      <trkpt lat="47.28086" lon="-2.35824">
        <ele>20</ele>
        <time>2021-01-14T08:42:09.000Z</time>
      </trkpt>
      <trkpt lat="47.28099" lon="-2.35844">
        <ele>20</ele>
        <time>2021-01-14T08:42:14.000Z</time>
      </trkpt>
      <trkpt lat="47.28117" lon="-2.35869">
        <ele>20</ele>
        <time>2021-01-14T08:42:20.000Z</time>
      </trkpt>
      <trkpt lat="47.2813" lon="-2.35883">
        <ele>20</ele>
        <time>2021-01-14T08:42:25.000Z</time>
      </trkpt>
      <trkpt lat="47.28138" lon="-2.35895">
        <ele>20</ele>
        <time>2021-01-14T08:42:30.000Z</time>
      </trkpt>
      <trkpt lat="47.28155" lon="-2.3592">
        <ele>20</ele>
        <time>2021-01-14T08:42:37.000Z</time>
      </trkpt>
      <trkpt lat="47.28158" lon="-2.35926">
        <ele>20</ele>
        <time>2021-01-14T08:42:38.000Z</time>
      </trkpt>
      <trkpt lat="47.28167" lon="-2.35939">
        <ele>20</ele>
        <time>2021-01-14T08:42:41.000Z</time>
      </trkpt>
      <trkpt lat="47.2817" lon="-2.35942">
        <ele>20</ele>
        <time>2021-01-14T08:42:42.000Z</time>
      </trkpt>
      <trkpt lat="47.28173" lon="-2.35942">
        <ele>20</ele>
        <time>2021-01-14T08:42:44.000Z</time>
      </trkpt>
      <trkpt lat="47.28175" lon="-2.35941">
        <ele>19.60000038147</ele>
        <time>2021-01-14T08:42:45.000Z</time>
      </trkpt>
      <trkpt lat="47.28176" lon="-2.35939">
        <ele>19.200000762939</ele>
        <time>2021-01-14T08:42:46.000Z</time>
      </trkpt>
      <trkpt lat="47.28179" lon="-2.35937">
        <ele>18.60000038147</ele>
        <time>2021-01-14T08:42:47.000Z</time>
      </trkpt>
      <trkpt lat="47.28181" lon="-2.35935">
        <ele>18.200000762939</ele>
        <time>2021-01-14T08:42:48.000Z</time>
      </trkpt>
      <trkpt lat="47.28183" lon="-2.35932">
        <ele>17.799999237061</ele>
        <time>2021-01-14T08:42:49.000Z</time>
      </trkpt>
      <trkpt lat="47.28187" lon="-2.35929">
        <ele>17.799999237061</ele>
        <time>2021-01-14T08:42:50.000Z</time>
      </trkpt>
      <trkpt lat="47.28196" lon="-2.35907">
        <ele>17.799999237061</ele>
        <time>2021-01-14T08:42:56.000Z</time>
      </trkpt>
      <trkpt lat="47.282" lon="-2.35898">
        <ele>17.799999237061</ele>
        <time>2021-01-14T08:42:59.000Z</time>
      </trkpt>
      <trkpt lat="47.28205" lon="-2.35896">
        <ele>18.39999961853</ele>
        <time>2021-01-14T08:43:01.000Z</time>
      </trkpt>
      <trkpt lat="47.28207" lon="-2.35896">
        <ele>18.799999237061</ele>
        <time>2021-01-14T08:43:02.000Z</time>
      </trkpt>
      <trkpt lat="47.28209" lon="-2.35896">
        <ele>19.200000762939</ele>
        <time>2021-01-14T08:43:03.000Z</time>
      </trkpt>
      <trkpt lat="47.2821" lon="-2.35897">
        <ele>19.60000038147</ele>
        <time>2021-01-14T08:43:04.000Z</time>
      </trkpt>
      <trkpt lat="47.28212" lon="-2.35896">
        <ele>20</ele>
        <time>2021-01-14T08:43:05.000Z</time>
      </trkpt>
      <trkpt lat="47.28224" lon="-2.35899">
        <ele>20</ele>
        <time>2021-01-14T08:43:08.000Z</time>
      </trkpt>
      <trkpt lat="47.28239" lon="-2.35895">
        <ele>20</ele>
        <time>2021-01-14T08:43:14.000Z</time>
      </trkpt>
      <trkpt lat="47.28244" lon="-2.359">
        <ele>20</ele>
        <time>2021-01-14T08:43:18.000Z</time>
      </trkpt>
      <trkpt lat="47.28245" lon="-2.35902">
        <ele>21</ele>
        <time>2021-01-14T08:43:19.000Z</time>
      </trkpt>
      <trkpt lat="47.28246" lon="-2.35903">
        <ele>21.39999961853</ele>
        <time>2021-01-14T08:43:20.000Z</time>
      </trkpt>
      <trkpt lat="47.28248" lon="-2.35907">
        <ele>21.799999237061</ele>
        <time>2021-01-14T08:43:21.000Z</time>
      </trkpt>
      <trkpt lat="47.28252" lon="-2.35912">
        <ele>22.200000762939</ele>
        <time>2021-01-14T08:43:22.000Z</time>
      </trkpt>
      <trkpt lat="47.28259" lon="-2.35922">
        <ele>22.200000762939</ele>
        <time>2021-01-14T08:43:24.000Z</time>
      </trkpt>
      <trkpt lat="47.28277" lon="-2.35956">
        <ele>22.200000762939</ele>
        <time>2021-01-14T08:43:30.000Z</time>
      </trkpt>
      <trkpt lat="47.28286" lon="-2.3597">
        <ele>21.799999237061</ele>
        <time>2021-01-14T08:43:33.000Z</time>
      </trkpt>
      <trkpt lat="47.28288" lon="-2.35972">
        <ele>21.39999961853</ele>
        <time>2021-01-14T08:43:34.000Z</time>
      </trkpt>
      <trkpt lat="47.2829" lon="-2.35971">
        <ele>21</ele>
        <time>2021-01-14T08:43:35.000Z</time>
      </trkpt>
      <trkpt lat="47.28292" lon="-2.35971">
        <ele>20.60000038147</ele>
        <time>2021-01-14T08:43:36.000Z</time>
      </trkpt>
      <trkpt lat="47.28294" lon="-2.35969">
        <ele>20.200000762939</ele>
        <time>2021-01-14T08:43:37.000Z</time>
      </trkpt>
      <trkpt lat="47.28295" lon="-2.35968">
        <ele>20.200000762939</ele>
        <time>2021-01-14T08:43:38.000Z</time>
      </trkpt>
      <trkpt lat="47.28298" lon="-2.35963">
        <ele>20.200000762939</ele>
        <time>2021-01-14T08:43:40.000Z</time>
      </trkpt>
      <trkpt lat="47.2831" lon="-2.35943">
        <ele>20.200000762939</ele>
        <time>2021-01-14T08:43:47.000Z</time>
      </trkpt>
      <trkpt lat="47.28321" lon="-2.35926">
        <ele>20.200000762939</ele>
        <time>2021-01-14T08:43:53.000Z</time>
      </trkpt>
      <trkpt lat="47.28324" lon="-2.35924">
        <ele>20.60000038147</ele>
        <time>2021-01-14T08:43:54.000Z</time>
      </trkpt>
      <trkpt lat="47.28326" lon="-2.35922">
        <ele>21</ele>
        <time>2021-01-14T08:43:55.000Z</time>
      </trkpt>
      <trkpt lat="47.28327" lon="-2.3592">
        <ele>21.39999961853</ele>
        <time>2021-01-14T08:43:56.000Z</time>
      </trkpt>
      <trkpt lat="47.28332" lon="-2.35918">
        <ele>21.799999237061</ele>
        <time>2021-01-14T08:43:57.000Z</time>
      </trkpt>
      <trkpt lat="47.28334" lon="-2.35917">
        <ele>22.200000762939</ele>
        <time>2021-01-14T08:43:58.000Z</time>
      </trkpt>
      <trkpt lat="47.28336" lon="-2.35915">
        <ele>22.200000762939</ele>
        <time>2021-01-14T08:43:59.000Z</time>
      </trkpt>
      <trkpt lat="47.28352" lon="-2.35906">
        <ele>22.200000762939</ele>
        <time>2021-01-14T08:44:06.000Z</time>
      </trkpt>
      <trkpt lat="47.28356" lon="-2.35909">
        <ele>22.200000762939</ele>
        <time>2021-01-14T08:44:08.000Z</time>
      </trkpt>
      <trkpt lat="47.28357" lon="-2.35911">
        <ele>22.60000038147</ele>
        <time>2021-01-14T08:44:09.000Z</time>
      </trkpt>
      <trkpt lat="47.28358" lon="-2.35913">
        <ele>23.200000762939</ele>
        <time>2021-01-14T08:44:10.000Z</time>
      </trkpt>
      <trkpt lat="47.2836" lon="-2.35916">
        <ele>23.60000038147</ele>
        <time>2021-01-14T08:44:11.000Z</time>
      </trkpt>
      <trkpt lat="47.2836" lon="-2.35919">
        <ele>24</ele>
        <time>2021-01-14T08:44:12.000Z</time>
      </trkpt>
      <trkpt lat="47.28362" lon="-2.35922">
        <ele>24.39999961853</ele>
        <time>2021-01-14T08:44:13.000Z</time>
      </trkpt>
      <trkpt lat="47.2837" lon="-2.35934">
        <ele>24.39999961853</ele>
        <time>2021-01-14T08:44:17.000Z</time>
      </trkpt>
      <trkpt lat="47.28373" lon="-2.35943">
        <ele>24.39999961853</ele>
        <time>2021-01-14T08:44:20.000Z</time>
      </trkpt>
      <trkpt lat="47.28373" lon="-2.35946">
        <ele>24.39999961853</ele>
        <time>2021-01-14T08:44:21.000Z</time>
      </trkpt>
      <trkpt lat="47.28369" lon="-2.35971">
        <ele>24.39999961853</ele>
        <time>2021-01-14T08:44:30.000Z</time>
      </trkpt>
      <trkpt lat="47.28368" lon="-2.35976">
        <ele>24.799999237061</ele>
        <time>2021-01-14T08:44:32.000Z</time>
      </trkpt>
      <trkpt lat="47.28368" lon="-2.35977">
        <ele>25.799999237061</ele>
        <time>2021-01-14T08:44:33.000Z</time>
      </trkpt>
      <trkpt lat="47.28368" lon="-2.35979">
        <ele>26.200000762939</ele>
        <time>2021-01-14T08:44:34.000Z</time>
      </trkpt>
      <trkpt lat="47.28367" lon="-2.3598">
        <ele>26.60000038147</ele>
        <time>2021-01-14T08:44:35.000Z</time>
      </trkpt>
      <trkpt lat="47.28365" lon="-2.35985">
        <ele>27</ele>
        <time>2021-01-14T08:44:39.000Z</time>
      </trkpt>
      <trkpt lat="47.28364" lon="-2.35987">
        <ele>27.39999961853</ele>
        <time>2021-01-14T08:44:40.000Z</time>
      </trkpt>
      <trkpt lat="47.28364" lon="-2.35989">
        <ele>27.799999237061</ele>
        <time>2021-01-14T08:44:41.000Z</time>
      </trkpt>
      <trkpt lat="47.28364" lon="-2.35992">
        <ele>28.39999961853</ele>
        <time>2021-01-14T08:44:42.000Z</time>
      </trkpt>
      <trkpt lat="47.28365" lon="-2.35994">
        <ele>28.799999237061</ele>
        <time>2021-01-14T08:44:43.000Z</time>
      </trkpt>
      <trkpt lat="47.28367" lon="-2.35999">
        <ele>29.200000762939</ele>
        <time>2021-01-14T08:44:46.000Z</time>
      </trkpt>
      <trkpt lat="47.28367" lon="-2.36">
        <ele>29.60000038147</ele>
        <time>2021-01-14T08:44:47.000Z</time>
      </trkpt>
      <trkpt lat="47.28368" lon="-2.36001">
        <ele>30</ele>
        <time>2021-01-14T08:44:48.000Z</time>
      </trkpt>
      <trkpt lat="47.28373" lon="-2.36015">
        <ele>30.799999237061</ele>
        <time>2021-01-14T08:45:30.000Z</time>
      </trkpt>
      <trkpt lat="47.28371" lon="-2.36015">
        <ele>30.799999237061</ele>
        <time>2021-01-14T08:45:31.000Z</time>
      </trkpt>
      <trkpt lat="47.28354" lon="-2.3602">
        <ele>30.799999237061</ele>
        <time>2021-01-14T08:45:35.000Z</time>
      </trkpt>
      <trkpt lat="47.28349" lon="-2.36023">
        <ele>30.799999237061</ele>
        <time>2021-01-14T08:45:36.000Z</time>
      </trkpt>
      <trkpt lat="47.28334" lon="-2.36038">
        <ele>30.799999237061</ele>
        <time>2021-01-14T08:45:40.000Z</time>
      </trkpt>
      <trkpt lat="47.28319" lon="-2.3605">
        <ele>30.799999237061</ele>
        <time>2021-01-14T08:45:44.000Z</time>
      </trkpt>
      <trkpt lat="47.28316" lon="-2.3605">
        <ele>30.799999237061</ele>
        <time>2021-01-14T08:45:45.000Z</time>
      </trkpt>
      <trkpt lat="47.28306" lon="-2.3605">
        <ele>30.39999961853</ele>
        <time>2021-01-14T08:45:48.000Z</time>
      </trkpt>
      <trkpt lat="47.28303" lon="-2.36049">
        <ele>30</ele>
        <time>2021-01-14T08:45:49.000Z</time>
      </trkpt>
      <trkpt lat="47.283" lon="-2.36049">
        <ele>29.60000038147</ele>
        <time>2021-01-14T08:45:50.000Z</time>
      </trkpt>
      <trkpt lat="47.28297" lon="-2.36048">
        <ele>29.200000762939</ele>
        <time>2021-01-14T08:45:51.000Z</time>
      </trkpt>
      <trkpt lat="47.28294" lon="-2.36048">
        <ele>28.799999237061</ele>
        <time>2021-01-14T08:45:52.000Z</time>
      </trkpt>
      <trkpt lat="47.28287" lon="-2.36042">
        <ele>28.39999961853</ele>
        <time>2021-01-14T08:45:55.000Z</time>
      </trkpt>
      <trkpt lat="47.28284" lon="-2.3604">
        <ele>28</ele>
        <time>2021-01-14T08:45:56.000Z</time>
      </trkpt>
      <trkpt lat="47.28282" lon="-2.36037">
        <ele>27.60000038147</ele>
        <time>2021-01-14T08:45:57.000Z</time>
      </trkpt>
      <trkpt lat="47.28278" lon="-2.36033">
        <ele>27</ele>
        <time>2021-01-14T08:45:58.000Z</time>
      </trkpt>
      <trkpt lat="47.28277" lon="-2.36028">
        <ele>26.39999961853</ele>
        <time>2021-01-14T08:45:59.000Z</time>
      </trkpt>
      <trkpt lat="47.28276" lon="-2.36024">
        <ele>25.799999237061</ele>
        <time>2021-01-14T08:46:00.000Z</time>
      </trkpt>
      <trkpt lat="47.28275" lon="-2.3602">
        <ele>25.200000762939</ele>
        <time>2021-01-14T08:46:01.000Z</time>
      </trkpt>
      <trkpt lat="47.28274" lon="-2.36016">
        <ele>24.39999961853</ele>
        <time>2021-01-14T08:46:02.000Z</time>
      </trkpt>
      <trkpt lat="47.28273" lon="-2.36013">
        <ele>23.799999237061</ele>
        <time>2021-01-14T08:46:03.000Z</time>
      </trkpt>
      <trkpt lat="47.2827" lon="-2.36011">
        <ele>23</ele>
        <time>2021-01-14T08:46:04.000Z</time>
      </trkpt>
      <trkpt lat="47.28268" lon="-2.36012">
        <ele>22.39999961853</ele>
        <time>2021-01-14T08:46:05.000Z</time>
      </trkpt>
      <trkpt lat="47.28265" lon="-2.36014">
        <ele>21.799999237061</ele>
        <time>2021-01-14T08:46:06.000Z</time>
      </trkpt>
      <trkpt lat="47.28262" lon="-2.36017">
        <ele>21.200000762939</ele>
        <time>2021-01-14T08:46:07.000Z</time>
      </trkpt>
      <trkpt lat="47.2826" lon="-2.3602">
        <ele>20.60000038147</ele>
        <time>2021-01-14T08:46:08.000Z</time>
      </trkpt>
      <trkpt lat="47.28258" lon="-2.36025">
        <ele>20</ele>
        <time>2021-01-14T08:46:09.000Z</time>
      </trkpt>
      <trkpt lat="47.28256" lon="-2.3603">
        <ele>19.39999961853</ele>
        <time>2021-01-14T08:46:10.000Z</time>
      </trkpt>
      <trkpt lat="47.28251" lon="-2.36053">
        <ele>19.39999961853</ele>
        <time>2021-01-14T08:46:15.000Z</time>
      </trkpt>
      <trkpt lat="47.28248" lon="-2.36073">
        <ele>19.39999961853</ele>
        <time>2021-01-14T08:46:21.000Z</time>
      </trkpt>
      <trkpt lat="47.28245" lon="-2.36085">
        <ele>19.799999237061</ele>
        <time>2021-01-14T08:46:24.000Z</time>
      </trkpt>
      <trkpt lat="47.28244" lon="-2.36089">
        <ele>20.200000762939</ele>
        <time>2021-01-14T08:46:25.000Z</time>
      </trkpt>
      <trkpt lat="47.28243" lon="-2.36093">
        <ele>20.60000038147</ele>
        <time>2021-01-14T08:46:26.000Z</time>
      </trkpt>
      <trkpt lat="47.28242" lon="-2.36097">
        <ele>21</ele>
        <time>2021-01-14T08:46:27.000Z</time>
      </trkpt>
      <trkpt lat="47.28241" lon="-2.36102">
        <ele>21.39999961853</ele>
        <time>2021-01-14T08:46:28.000Z</time>
      </trkpt>
      <trkpt lat="47.28245" lon="-2.36112">
        <ele>21.39999961853</ele>
        <time>2021-01-14T08:46:30.000Z</time>
      </trkpt>
      <trkpt lat="47.28262" lon="-2.36146">
        <ele>21.39999961853</ele>
        <time>2021-01-14T08:46:36.000Z</time>
      </trkpt>
      <trkpt lat="47.28269" lon="-2.36174">
        <ele>21.39999961853</ele>
        <time>2021-01-14T08:46:41.000Z</time>
      </trkpt>
      <trkpt lat="47.28276" lon="-2.36204">
        <ele>21</ele>
        <time>2021-01-14T08:46:46.000Z</time>
      </trkpt>
      <trkpt lat="47.28276" lon="-2.3621">
        <ele>20.60000038147</ele>
        <time>2021-01-14T08:46:47.000Z</time>
      </trkpt>
      <trkpt lat="47.28277" lon="-2.36214">
        <ele>20.200000762939</ele>
        <time>2021-01-14T08:46:48.000Z</time>
      </trkpt>
      <trkpt lat="47.28279" lon="-2.36218">
        <ele>19.799999237061</ele>
        <time>2021-01-14T08:46:49.000Z</time>
      </trkpt>
      <trkpt lat="47.2828" lon="-2.36221">
        <ele>19.200000762939</ele>
        <time>2021-01-14T08:46:50.000Z</time>
      </trkpt>
      <trkpt lat="47.28281" lon="-2.36222">
        <ele>19.200000762939</ele>
        <time>2021-01-14T08:46:51.000Z</time>
      </trkpt>
      <trkpt lat="47.28284" lon="-2.36225">
        <ele>19.200000762939</ele>
        <time>2021-01-14T08:46:54.000Z</time>
      </trkpt>
      <trkpt lat="47.28286" lon="-2.36225">
        <ele>19.200000762939</ele>
        <time>2021-01-14T08:46:55.000Z</time>
      </trkpt>
      <trkpt lat="47.28289" lon="-2.36224">
        <ele>19.200000762939</ele>
        <time>2021-01-14T08:46:57.000Z</time>
      </trkpt>
      <trkpt lat="47.28297" lon="-2.36217">
        <ele>19.200000762939</ele>
        <time>2021-01-14T08:47:03.000Z</time>
      </trkpt>
      <trkpt lat="47.28303" lon="-2.36214">
        <ele>19.200000762939</ele>
        <time>2021-01-14T08:47:07.000Z</time>
      </trkpt>
      <trkpt lat="47.28308" lon="-2.36213">
        <ele>19.200000762939</ele>
        <time>2021-01-14T08:47:09.000Z</time>
      </trkpt>
      <trkpt lat="47.28317" lon="-2.36207">
        <ele>19.60000038147</ele>
        <time>2021-01-14T08:47:13.000Z</time>
      </trkpt>
      <trkpt lat="47.28318" lon="-2.36205">
        <ele>20</ele>
        <time>2021-01-14T08:47:14.000Z</time>
      </trkpt>
      <trkpt lat="47.2832" lon="-2.36204">
        <ele>20.60000038147</ele>
        <time>2021-01-14T08:47:15.000Z</time>
      </trkpt>
      <trkpt lat="47.28321" lon="-2.36202">
        <ele>21</ele>
        <time>2021-01-14T08:47:16.000Z</time>
      </trkpt>
      <trkpt lat="47.28323" lon="-2.36199">
        <ele>21.39999961853</ele>
        <time>2021-01-14T08:47:17.000Z</time>
      </trkpt>
      <trkpt lat="47.2833" lon="-2.3619">
        <ele>21.39999961853</ele>
        <time>2021-01-14T08:47:23.000Z</time>
      </trkpt>
      <trkpt lat="47.28336" lon="-2.36184">
        <ele>21.799999237061</ele>
        <time>2021-01-14T08:47:28.000Z</time>
      </trkpt>
      <trkpt lat="47.28337" lon="-2.36183">
        <ele>22.200000762939</ele>
        <time>2021-01-14T08:47:29.000Z</time>
      </trkpt>
      <trkpt lat="47.28339" lon="-2.36181">
        <ele>22.60000038147</ele>
        <time>2021-01-14T08:47:30.000Z</time>
      </trkpt>
      <trkpt lat="47.2834" lon="-2.36179">
        <ele>23</ele>
        <time>2021-01-14T08:47:31.000Z</time>
      </trkpt>
      <trkpt lat="47.28341" lon="-2.36178">
        <ele>23.39999961853</ele>
        <time>2021-01-14T08:47:32.000Z</time>
      </trkpt>
      <trkpt lat="47.28348" lon="-2.3617">
        <ele>23.799999237061</ele>
        <time>2021-01-14T08:47:37.000Z</time>
      </trkpt>
      <trkpt lat="47.28349" lon="-2.36168">
        <ele>24.39999961853</ele>
        <time>2021-01-14T08:47:38.000Z</time>
      </trkpt>
      <trkpt lat="47.28351" lon="-2.36167">
        <ele>24.799999237061</ele>
        <time>2021-01-14T08:47:39.000Z</time>
      </trkpt>
      <trkpt lat="47.28352" lon="-2.36166">
        <ele>25.200000762939</ele>
        <time>2021-01-14T08:47:40.000Z</time>
      </trkpt>
      <trkpt lat="47.28353" lon="-2.36165">
        <ele>25.799999237061</ele>
        <time>2021-01-14T08:47:41.000Z</time>
      </trkpt>
      <trkpt lat="47.28355" lon="-2.36164">
        <ele>26.200000762939</ele>
        <time>2021-01-14T08:47:43.000Z</time>
      </trkpt>
      <trkpt lat="47.28356" lon="-2.36163">
        <ele>26.60000038147</ele>
        <time>2021-01-14T08:47:44.000Z</time>
      </trkpt>
      <trkpt lat="47.28357" lon="-2.36162">
        <ele>27</ele>
        <time>2021-01-14T08:47:45.000Z</time>
      </trkpt>
      <trkpt lat="47.28359" lon="-2.3616">
        <ele>27.39999961853</ele>
        <time>2021-01-14T08:47:46.000Z</time>
      </trkpt>
      <trkpt lat="47.2836" lon="-2.36158">
        <ele>28</ele>
        <time>2021-01-14T08:47:47.000Z</time>
      </trkpt>
      <trkpt lat="47.28362" lon="-2.36156">
        <ele>28.39999961853</ele>
        <time>2021-01-14T08:47:49.000Z</time>
      </trkpt>
      <trkpt lat="47.28363" lon="-2.36155">
        <ele>28.799999237061</ele>
        <time>2021-01-14T08:47:50.000Z</time>
      </trkpt>
      <trkpt lat="47.28364" lon="-2.36154">
        <ele>29.60000038147</ele>
        <time>2021-01-14T08:47:51.000Z</time>
      </trkpt>
      <trkpt lat="47.28365" lon="-2.36153">
        <ele>30</ele>
        <time>2021-01-14T08:47:52.000Z</time>
      </trkpt>
      <trkpt lat="47.28369" lon="-2.36148">
        <ele>30.39999961853</ele>
        <time>2021-01-14T08:47:56.000Z</time>
      </trkpt>
      <trkpt lat="47.28369" lon="-2.36146">
        <ele>30.799999237061</ele>
        <time>2021-01-14T08:47:57.000Z</time>
      </trkpt>
      <trkpt lat="47.2837" lon="-2.36144">
        <ele>31.39999961853</ele>
        <time>2021-01-14T08:47:58.000Z</time>
      </trkpt>
      <trkpt lat="47.28371" lon="-2.36141">
        <ele>31.799999237061</ele>
        <time>2021-01-14T08:47:59.000Z</time>
      </trkpt>
      <trkpt lat="47.28373" lon="-2.36138">
        <ele>32.200000762939</ele>
        <time>2021-01-14T08:48:00.000Z</time>
      </trkpt>
      <trkpt lat="47.28377" lon="-2.36132">
        <ele>32.200000762939</ele>
        <time>2021-01-14T08:48:03.000Z</time>
      </trkpt>
      <trkpt lat="47.28381" lon="-2.36125">
        <ele>32.599998474121</ele>
        <time>2021-01-14T08:48:07.000Z</time>
      </trkpt>
      <trkpt lat="47.28383" lon="-2.36123">
        <ele>33</ele>
        <time>2021-01-14T08:48:08.000Z</time>
      </trkpt>
      <trkpt lat="47.28383" lon="-2.36121">
        <ele>33.400001525879</ele>
        <time>2021-01-14T08:48:09.000Z</time>
      </trkpt>
      <trkpt lat="47.28384" lon="-2.36119">
        <ele>33.799999237061</ele>
        <time>2021-01-14T08:48:10.000Z</time>
      </trkpt>
      <trkpt lat="47.28384" lon="-2.36117">
        <ele>34.200000762939</ele>
        <time>2021-01-14T08:48:11.000Z</time>
      </trkpt>
      <trkpt lat="47.28386" lon="-2.36108">
        <ele>34.200000762939</ele>
        <time>2021-01-14T08:48:16.000Z</time>
      </trkpt>
      <trkpt lat="47.28388" lon="-2.36098">
        <ele>34.599998474121</ele>
        <time>2021-01-14T08:48:21.000Z</time>
      </trkpt>
      <trkpt lat="47.28389" lon="-2.36096">
        <ele>35</ele>
        <time>2021-01-14T08:48:22.000Z</time>
      </trkpt>
      <trkpt lat="47.28389" lon="-2.36093">
        <ele>35.400001525879</ele>
        <time>2021-01-14T08:48:23.000Z</time>
      </trkpt>
      <trkpt lat="47.28388" lon="-2.36091">
        <ele>35.799999237061</ele>
        <time>2021-01-14T08:48:24.000Z</time>
      </trkpt>
      <trkpt lat="47.28388" lon="-2.36088">
        <ele>36.400001525879</ele>
        <time>2021-01-14T08:48:25.000Z</time>
      </trkpt>
      <trkpt lat="47.2839" lon="-2.36074">
        <ele>36.400001525879</ele>
        <time>2021-01-14T08:48:30.000Z</time>
      </trkpt>
      <trkpt lat="47.2839" lon="-2.36071">
        <ele>36.400001525879</ele>
        <time>2021-01-14T08:48:31.000Z</time>
      </trkpt>
      <trkpt lat="47.28388" lon="-2.36063">
        <ele>36.400001525879</ele>
        <time>2021-01-14T08:48:35.000Z</time>
      </trkpt>
      <trkpt lat="47.28387" lon="-2.36059">
        <ele>36.400001525879</ele>
        <time>2021-01-14T08:48:38.000Z</time>
      </trkpt>
      <trkpt lat="47.28387" lon="-2.36052">
        <ele>36.400001525879</ele>
        <time>2021-01-14T08:49:00.000Z</time>
      </trkpt>
      <trkpt lat="47.28387" lon="-2.36047">
        <ele>36.400001525879</ele>
        <time>2021-01-14T08:49:01.000Z</time>
      </trkpt>
      <trkpt lat="47.28387" lon="-2.36035">
        <ele>36.400001525879</ele>
        <time>2021-01-14T08:49:04.000Z</time>
      </trkpt>
      <trkpt lat="47.28389" lon="-2.36028">
        <ele>36.400001525879</ele>
        <time>2021-01-14T08:49:06.000Z</time>
      </trkpt>
      <trkpt lat="47.28391" lon="-2.36025">
        <ele>36.400001525879</ele>
        <time>2021-01-14T08:49:08.000Z</time>
      </trkpt>
      <trkpt lat="47.28393" lon="-2.36025">
        <ele>36.400001525879</ele>
        <time>2021-01-14T08:49:09.000Z</time>
      </trkpt>
      <trkpt lat="47.28396" lon="-2.36023">
        <ele>36.400001525879</ele>
        <time>2021-01-14T08:49:11.000Z</time>
      </trkpt>
      <trkpt lat="47.28405" lon="-2.36019">
        <ele>36.400001525879</ele>
        <time>2021-01-14T08:49:17.000Z</time>
      </trkpt>
      <trkpt lat="47.28415" lon="-2.36004">
        <ele>36.400001525879</ele>
        <time>2021-01-14T08:49:23.000Z</time>
      </trkpt>
      <trkpt lat="47.28433" lon="-2.35992">
        <ele>36.400001525879</ele>
        <time>2021-01-14T08:49:29.000Z</time>
      </trkpt>
      <trkpt lat="47.28438" lon="-2.35991">
        <ele>36.799999237061</ele>
        <time>2021-01-14T08:49:30.000Z</time>
      </trkpt>
      <trkpt lat="47.28442" lon="-2.35991">
        <ele>37.200000762939</ele>
        <time>2021-01-14T08:49:31.000Z</time>
      </trkpt>
      <trkpt lat="47.28446" lon="-2.35994">
        <ele>37.599998474121</ele>
        <time>2021-01-14T08:49:32.000Z</time>
      </trkpt>
      <trkpt lat="47.28449" lon="-2.35997">
        <ele>38</ele>
        <time>2021-01-14T08:49:33.000Z</time>
      </trkpt>
      <trkpt lat="47.28452" lon="-2.35999">
        <ele>38.400001525879</ele>
        <time>2021-01-14T08:49:34.000Z</time>
      </trkpt>
      <trkpt lat="47.28455" lon="-2.36006">
        <ele>38.400001525879</ele>
        <time>2021-01-14T08:49:36.000Z</time>
      </trkpt>
      <trkpt lat="47.28458" lon="-2.36012">
        <ele>38.400001525879</ele>
        <time>2021-01-14T08:49:38.000Z</time>
      </trkpt>
      <trkpt lat="47.28467" lon="-2.36024">
        <ele>38.400001525879</ele>
        <time>2021-01-14T08:49:44.000Z</time>
      </trkpt>
      <trkpt lat="47.28469" lon="-2.36026">
        <ele>38.400001525879</ele>
        <time>2021-01-14T08:49:45.000Z</time>
      </trkpt>
      <trkpt lat="47.28476" lon="-2.36027">
        <ele>38.400001525879</ele>
        <time>2021-01-14T08:49:48.000Z</time>
      </trkpt>
      <trkpt lat="47.28495" lon="-2.36041">
        <ele>38.400001525879</ele>
        <time>2021-01-14T08:49:54.000Z</time>
      </trkpt>
      <trkpt lat="47.28511" lon="-2.36059">
        <ele>38.400001525879</ele>
        <time>2021-01-14T08:50:00.000Z</time>
      </trkpt>
      <trkpt lat="47.28528" lon="-2.36084">
        <ele>38.400001525879</ele>
        <time>2021-01-14T08:50:07.000Z</time>
      </trkpt>
      <trkpt lat="47.28534" lon="-2.36107">
        <ele>38.400001525879</ele>
        <time>2021-01-14T08:50:11.000Z</time>
      </trkpt>
      <trkpt lat="47.28545" lon="-2.36149">
        <ele>38.400001525879</ele>
        <time>2021-01-14T08:50:17.000Z</time>
      </trkpt>
      <trkpt lat="47.28556" lon="-2.36171">
        <ele>38.400001525879</ele>
        <time>2021-01-14T08:50:22.000Z</time>
      </trkpt>
      <trkpt lat="47.28557" lon="-2.362">
        <ele>38.400001525879</ele>
        <time>2021-01-14T08:50:27.000Z</time>
      </trkpt>
      <trkpt lat="47.28556" lon="-2.36244">
        <ele>38.400001525879</ele>
        <time>2021-01-14T08:50:33.000Z</time>
      </trkpt>
      <trkpt lat="47.28556" lon="-2.36251">
        <ele>38.400001525879</ele>
        <time>2021-01-14T08:50:34.000Z</time>
      </trkpt>
      <trkpt lat="47.28556" lon="-2.36292">
        <ele>38.400001525879</ele>
        <time>2021-01-14T08:50:40.000Z</time>
      </trkpt>
      <trkpt lat="47.28545" lon="-2.36322">
        <ele>38.400001525879</ele>
        <time>2021-01-14T08:50:45.000Z</time>
      </trkpt>
      <trkpt lat="47.2854" lon="-2.36341">
        <ele>38.400001525879</ele>
        <time>2021-01-14T08:50:49.000Z</time>
      </trkpt>
      <trkpt lat="47.28541" lon="-2.3635">
        <ele>38.400001525879</ele>
        <time>2021-01-14T08:50:54.000Z</time>
      </trkpt>
      <trkpt lat="47.28543" lon="-2.36363">
        <ele>38.400001525879</ele>
        <time>2021-01-14T08:51:00.000Z</time>
      </trkpt>
      <trkpt lat="47.28544" lon="-2.3637">
        <ele>38.799999237061</ele>
        <time>2021-01-14T08:51:03.000Z</time>
      </trkpt>
      <trkpt lat="47.28544" lon="-2.36374">
        <ele>39.200000762939</ele>
        <time>2021-01-14T08:51:04.000Z</time>
      </trkpt>
      <trkpt lat="47.28545" lon="-2.36377">
        <ele>39.599998474121</ele>
        <time>2021-01-14T08:51:05.000Z</time>
      </trkpt>
      <trkpt lat="47.28545" lon="-2.36381">
        <ele>40</ele>
        <time>2021-01-14T08:51:06.000Z</time>
      </trkpt>
      <trkpt lat="47.28544" lon="-2.36385">
        <ele>40.599998474121</ele>
        <time>2021-01-14T08:51:07.000Z</time>
      </trkpt>
      <trkpt lat="47.28549" lon="-2.36414">
        <ele>40.599998474121</ele>
        <time>2021-01-14T08:51:13.000Z</time>
      </trkpt>
      <trkpt lat="47.28558" lon="-2.36442">
        <ele>40.599998474121</ele>
        <time>2021-01-14T08:51:19.000Z</time>
      </trkpt>
      <trkpt lat="47.28572" lon="-2.36468">
        <ele>40.599998474121</ele>
        <time>2021-01-14T08:51:25.000Z</time>
      </trkpt>
      <trkpt lat="47.28586" lon="-2.36488">
        <ele>40.599998474121</ele>
        <time>2021-01-14T08:51:30.000Z</time>
      </trkpt>
      <trkpt lat="47.28595" lon="-2.36503">
        <ele>39.599998474121</ele>
        <time>2021-01-14T08:51:33.000Z</time>
      </trkpt>
      <trkpt lat="47.28599" lon="-2.36509">
        <ele>39.200000762939</ele>
        <time>2021-01-14T08:51:34.000Z</time>
      </trkpt>
      <trkpt lat="47.28604" lon="-2.36516">
        <ele>38.799999237061</ele>
        <time>2021-01-14T08:51:35.000Z</time>
      </trkpt>
      <trkpt lat="47.28609" lon="-2.36524">
        <ele>38.400001525879</ele>
        <time>2021-01-14T08:51:36.000Z</time>
      </trkpt>
      <trkpt lat="47.28614" lon="-2.36533">
        <ele>37.799999237061</ele>
        <time>2021-01-14T08:51:37.000Z</time>
      </trkpt>
      <trkpt lat="47.28619" lon="-2.36543">
        <ele>37.400001525879</ele>
        <time>2021-01-14T08:51:38.000Z</time>
      </trkpt>
      <trkpt lat="47.28624" lon="-2.36553">
        <ele>36.799999237061</ele>
        <time>2021-01-14T08:51:39.000Z</time>
      </trkpt>
      <trkpt lat="47.28629" lon="-2.36562">
        <ele>36.400001525879</ele>
        <time>2021-01-14T08:51:40.000Z</time>
      </trkpt>
      <trkpt lat="47.28642" lon="-2.36585">
        <ele>36.400001525879</ele>
        <time>2021-01-14T08:51:43.000Z</time>
      </trkpt>
      <trkpt lat="47.28646" lon="-2.3659">
        <ele>36.400001525879</ele>
        <time>2021-01-14T08:51:44.000Z</time>
      </trkpt>
      <trkpt lat="47.28653" lon="-2.36597">
        <ele>36.400001525879</ele>
        <time>2021-01-14T08:51:46.000Z</time>
      </trkpt>
      <trkpt lat="47.28656" lon="-2.36599">
        <ele>36.400001525879</ele>
        <time>2021-01-14T08:51:47.000Z</time>
      </trkpt>
      <trkpt lat="47.28677" lon="-2.36597">
        <ele>36.400001525879</ele>
        <time>2021-01-14T08:51:52.000Z</time>
      </trkpt>
      <trkpt lat="47.28685" lon="-2.36588">
        <ele>36.400001525879</ele>
        <time>2021-01-14T08:51:56.000Z</time>
      </trkpt>
      <trkpt lat="47.2869" lon="-2.36573">
        <ele>36.400001525879</ele>
        <time>2021-01-14T08:52:02.000Z</time>
      </trkpt>
      <trkpt lat="47.28694" lon="-2.36564">
        <ele>36.400001525879</ele>
        <time>2021-01-14T08:52:05.000Z</time>
      </trkpt>
      <trkpt lat="47.28695" lon="-2.36558">
        <ele>36.400001525879</ele>
        <time>2021-01-14T08:52:07.000Z</time>
      </trkpt>
      <trkpt lat="47.28692" lon="-2.36538">
        <ele>36.400001525879</ele>
        <time>2021-01-14T08:52:14.000Z</time>
      </trkpt>
      <trkpt lat="47.2869" lon="-2.36518">
        <ele>36.400001525879</ele>
        <time>2021-01-14T08:52:21.000Z</time>
      </trkpt>
      <trkpt lat="47.28689" lon="-2.36496">
        <ele>36.400001525879</ele>
        <time>2021-01-14T08:52:27.000Z</time>
      </trkpt>
      <trkpt lat="47.28691" lon="-2.36469">
        <ele>36.400001525879</ele>
        <time>2021-01-14T08:52:33.000Z</time>
      </trkpt>
      <trkpt lat="47.28691" lon="-2.36435">
        <ele>36.400001525879</ele>
        <time>2021-01-14T08:52:38.000Z</time>
      </trkpt>
      <trkpt lat="47.2869" lon="-2.36417">
        <ele>36.400001525879</ele>
        <time>2021-01-14T08:52:42.000Z</time>
      </trkpt>
      <trkpt lat="47.2869" lon="-2.36413">
        <ele>36.400001525879</ele>
        <time>2021-01-14T08:52:55.000Z</time>
      </trkpt>
      <trkpt lat="47.28692" lon="-2.36402">
        <ele>36.400001525879</ele>
        <time>2021-01-14T08:52:58.000Z</time>
      </trkpt>
      <trkpt lat="47.28695" lon="-2.364">
        <ele>36.400001525879</ele>
        <time>2021-01-14T08:52:59.000Z</time>
      </trkpt>
      <trkpt lat="47.28711" lon="-2.36389">
        <ele>36.400001525879</ele>
        <time>2021-01-14T08:53:03.000Z</time>
      </trkpt>
      <trkpt lat="47.28717" lon="-2.36384">
        <ele>36.400001525879</ele>
        <time>2021-01-14T08:53:06.000Z</time>
      </trkpt>
      <trkpt lat="47.28727" lon="-2.36383">
        <ele>36.400001525879</ele>
        <time>2021-01-14T08:53:13.000Z</time>
      </trkpt>
      <trkpt lat="47.2874" lon="-2.36398">
        <ele>36.400001525879</ele>
        <time>2021-01-14T08:53:18.000Z</time>
      </trkpt>
      <trkpt lat="47.28747" lon="-2.36407">
        <ele>36.400001525879</ele>
        <time>2021-01-14T08:53:22.000Z</time>
      </trkpt>
      <trkpt lat="47.28748" lon="-2.36417">
        <ele>36.400001525879</ele>
        <time>2021-01-14T08:53:28.000Z</time>
      </trkpt>
      <trkpt lat="47.28752" lon="-2.36425">
        <ele>36.400001525879</ele>
        <time>2021-01-14T08:53:32.000Z</time>
      </trkpt>
      <trkpt lat="47.28752" lon="-2.36434">
        <ele>36.400001525879</ele>
        <time>2021-01-14T08:53:57.000Z</time>
      </trkpt>
      <trkpt lat="47.28753" lon="-2.36437">
        <ele>36.400001525879</ele>
        <time>2021-01-14T08:53:58.000Z</time>
      </trkpt>
      <trkpt lat="47.28761" lon="-2.36454">
        <ele>36.400001525879</ele>
        <time>2021-01-14T08:54:02.000Z</time>
      </trkpt>
      <trkpt lat="47.28764" lon="-2.36465">
        <ele>36.400001525879</ele>
        <time>2021-01-14T08:54:06.000Z</time>
      </trkpt>
      <trkpt lat="47.28768" lon="-2.36477">
        <ele>34.799999237061</ele>
        <time>2021-01-14T08:54:14.000Z</time>
      </trkpt>
      <trkpt lat="47.2877" lon="-2.36478">
        <ele>34.200000762939</ele>
        <time>2021-01-14T08:54:15.000Z</time>
      </trkpt>
      <trkpt lat="47.28772" lon="-2.36478">
        <ele>33.799999237061</ele>
        <time>2021-01-14T08:54:16.000Z</time>
      </trkpt>
      <trkpt lat="47.28783" lon="-2.36463">
        <ele>33.799999237061</ele>
        <time>2021-01-14T08:54:21.000Z</time>
      </trkpt>
      <trkpt lat="47.28786" lon="-2.36458">
        <ele>33.799999237061</ele>
        <time>2021-01-14T08:54:24.000Z</time>
      </trkpt>
      <trkpt lat="47.28788" lon="-2.36451">
        <ele>33.799999237061</ele>
        <time>2021-01-14T08:54:32.000Z</time>
      </trkpt>
      <trkpt lat="47.28795" lon="-2.36439">
        <ele>33.799999237061</ele>
        <time>2021-01-14T08:54:37.000Z</time>
      </trkpt>
      <trkpt lat="47.28802" lon="-2.36418">
        <ele>33.799999237061</ele>
        <time>2021-01-14T08:54:42.000Z</time>
      </trkpt>
      <trkpt lat="47.28817" lon="-2.36409">
        <ele>33.799999237061</ele>
        <time>2021-01-14T08:54:47.000Z</time>
      </trkpt>
      <trkpt lat="47.2883" lon="-2.36403">
        <ele>33.799999237061</ele>
        <time>2021-01-14T08:54:52.000Z</time>
      </trkpt>
      <trkpt lat="47.28836" lon="-2.36403">
        <ele>33.799999237061</ele>
        <time>2021-01-14T08:54:54.000Z</time>
      </trkpt>
      <trkpt lat="47.28842" lon="-2.36408">
        <ele>33.799999237061</ele>
        <time>2021-01-14T08:54:56.000Z</time>
      </trkpt>
      <trkpt lat="47.28853" lon="-2.36428">
        <ele>33.799999237061</ele>
        <time>2021-01-14T08:55:00.000Z</time>
      </trkpt>
      <trkpt lat="47.28855" lon="-2.36435">
        <ele>33.799999237061</ele>
        <time>2021-01-14T08:55:01.000Z</time>
      </trkpt>
      <trkpt lat="47.28859" lon="-2.36461">
        <ele>33.799999237061</ele>
        <time>2021-01-14T08:55:04.000Z</time>
      </trkpt>
      <trkpt lat="47.28859" lon="-2.36468">
        <ele>33.799999237061</ele>
        <time>2021-01-14T08:55:05.000Z</time>
      </trkpt>
      <trkpt lat="47.28861" lon="-2.36486">
        <ele>33.799999237061</ele>
        <time>2021-01-14T08:55:08.000Z</time>
      </trkpt>
      <trkpt lat="47.28866" lon="-2.36505">
        <ele>33.799999237061</ele>
        <time>2021-01-14T08:55:11.000Z</time>
      </trkpt>
      <trkpt lat="47.28869" lon="-2.36524">
        <ele>33.799999237061</ele>
        <time>2021-01-14T08:55:13.000Z</time>
      </trkpt>
      <trkpt lat="47.28864" lon="-2.36552">
        <ele>33.799999237061</ele>
        <time>2021-01-14T08:55:16.000Z</time>
      </trkpt>
      <trkpt lat="47.28858" lon="-2.36566">
        <ele>33.799999237061</ele>
        <time>2021-01-14T08:55:18.000Z</time>
      </trkpt>
      <trkpt lat="47.28854" lon="-2.36579">
        <ele>33.799999237061</ele>
        <time>2021-01-14T08:55:20.000Z</time>
      </trkpt>
      <trkpt lat="47.28847" lon="-2.36599">
        <ele>33.799999237061</ele>
        <time>2021-01-14T08:55:23.000Z</time>
      </trkpt>
      <trkpt lat="47.28839" lon="-2.36614">
        <ele>33.799999237061</ele>
        <time>2021-01-14T08:55:26.000Z</time>
      </trkpt>
      <trkpt lat="47.28836" lon="-2.36619">
        <ele>33.799999237061</ele>
        <time>2021-01-14T08:55:27.000Z</time>
      </trkpt>
      <trkpt lat="47.28825" lon="-2.36634">
        <ele>33.799999237061</ele>
        <time>2021-01-14T08:55:30.000Z</time>
      </trkpt>
      <trkpt lat="47.28813" lon="-2.36664">
        <ele>33.799999237061</ele>
        <time>2021-01-14T08:55:34.000Z</time>
      </trkpt>
      <trkpt lat="47.28807" lon="-2.36694">
        <ele>33.400001525879</ele>
        <time>2021-01-14T08:55:37.000Z</time>
      </trkpt>
      <trkpt lat="47.28805" lon="-2.36705">
        <ele>33</ele>
        <time>2021-01-14T08:55:38.000Z</time>
      </trkpt>
      <trkpt lat="47.28802" lon="-2.36718">
        <ele>32.599998474121</ele>
        <time>2021-01-14T08:55:39.000Z</time>
      </trkpt>
      <trkpt lat="47.28798" lon="-2.36733">
        <ele>31.799999237061</ele>
        <time>2021-01-14T08:55:40.000Z</time>
      </trkpt>
      <trkpt lat="47.28789" lon="-2.36774">
        <ele>31.799999237061</ele>
        <time>2021-01-14T08:55:43.000Z</time>
      </trkpt>
      <trkpt lat="47.28778" lon="-2.36817">
        <ele>31.799999237061</ele>
        <time>2021-01-14T08:55:47.000Z</time>
      </trkpt>
      <trkpt lat="47.28766" lon="-2.36872">
        <ele>31.799999237061</ele>
        <time>2021-01-14T08:55:53.000Z</time>
      </trkpt>
      <trkpt lat="47.28758" lon="-2.36889">
        <ele>31.799999237061</ele>
        <time>2021-01-14T08:55:56.000Z</time>
      </trkpt>
      <trkpt lat="47.28755" lon="-2.36892">
        <ele>31.799999237061</ele>
        <time>2021-01-14T08:55:57.000Z</time>
      </trkpt>
      <trkpt lat="47.28745" lon="-2.36898">
        <ele>31.799999237061</ele>
        <time>2021-01-14T08:56:01.000Z</time>
      </trkpt>
      <trkpt lat="47.28744" lon="-2.36901">
        <ele>31.799999237061</ele>
        <time>2021-01-14T08:56:02.000Z</time>
      </trkpt>
      <trkpt lat="47.28742" lon="-2.36911">
        <ele>31.799999237061</ele>
        <time>2021-01-14T08:56:05.000Z</time>
      </trkpt>
      <trkpt lat="47.28743" lon="-2.36913">
        <ele>31.799999237061</ele>
        <time>2021-01-14T08:56:06.000Z</time>
      </trkpt>
      <trkpt lat="47.28747" lon="-2.36921">
        <ele>31.799999237061</ele>
        <time>2021-01-14T08:56:09.000Z</time>
      </trkpt>
      <trkpt lat="47.2875" lon="-2.36928">
        <ele>31.799999237061</ele>
        <time>2021-01-14T08:56:14.000Z</time>
      </trkpt>
      <trkpt lat="47.28753" lon="-2.36935">
        <ele>31.799999237061</ele>
        <time>2021-01-14T08:56:21.000Z</time>
      </trkpt>
      <trkpt lat="47.28753" lon="-2.36946">
        <ele>31.799999237061</ele>
        <time>2021-01-14T08:56:27.000Z</time>
      </trkpt>
      <trkpt lat="47.28753" lon="-2.36961">
        <ele>31.799999237061</ele>
        <time>2021-01-14T08:56:34.000Z</time>
      </trkpt>
      <trkpt lat="47.28765" lon="-2.36978">
        <ele>31.799999237061</ele>
        <time>2021-01-14T08:56:39.000Z</time>
      </trkpt>
      <trkpt lat="47.28774" lon="-2.36989">
        <ele>31.39999961853</ele>
        <time>2021-01-14T08:56:43.000Z</time>
      </trkpt>
      <trkpt lat="47.28777" lon="-2.36995">
        <ele>30.799999237061</ele>
        <time>2021-01-14T08:56:44.000Z</time>
      </trkpt>
      <trkpt lat="47.28779" lon="-2.37">
        <ele>30.39999961853</ele>
        <time>2021-01-14T08:56:45.000Z</time>
      </trkpt>
      <trkpt lat="47.28781" lon="-2.37005">
        <ele>30</ele>
        <time>2021-01-14T08:56:46.000Z</time>
      </trkpt>
      <trkpt lat="47.28782" lon="-2.37011">
        <ele>29.60000038147</ele>
        <time>2021-01-14T08:56:47.000Z</time>
      </trkpt>
      <trkpt lat="47.28786" lon="-2.37022">
        <ele>29.60000038147</ele>
        <time>2021-01-14T08:56:49.000Z</time>
      </trkpt>
      <trkpt lat="47.28798" lon="-2.37061">
        <ele>29.60000038147</ele>
        <time>2021-01-14T08:56:55.000Z</time>
      </trkpt>
      <trkpt lat="47.28798" lon="-2.37073">
        <ele>29.60000038147</ele>
        <time>2021-01-14T08:56:56.000Z</time>
      </trkpt>
      <trkpt lat="47.28803" lon="-2.37103">
        <ele>29.60000038147</ele>
        <time>2021-01-14T08:57:00.000Z</time>
      </trkpt>
      <trkpt lat="47.28805" lon="-2.37107">
        <ele>29.60000038147</ele>
        <time>2021-01-14T08:57:01.000Z</time>
      </trkpt>
      <trkpt lat="47.28811" lon="-2.37112">
        <ele>29.60000038147</ele>
        <time>2021-01-14T08:57:04.000Z</time>
      </trkpt>
      <trkpt lat="47.28819" lon="-2.37104">
        <ele>29.60000038147</ele>
        <time>2021-01-14T08:57:08.000Z</time>
      </trkpt>
      <trkpt lat="47.28822" lon="-2.37078">
        <ele>29.60000038147</ele>
        <time>2021-01-14T08:57:12.000Z</time>
      </trkpt>
      <trkpt lat="47.28818" lon="-2.37055">
        <ele>29.60000038147</ele>
        <time>2021-01-14T08:57:16.000Z</time>
      </trkpt>
      <trkpt lat="47.28809" lon="-2.37022">
        <ele>29.200000762939</ele>
        <time>2021-01-14T08:57:22.000Z</time>
      </trkpt>
      <trkpt lat="47.28807" lon="-2.37016">
        <ele>28.799999237061</ele>
        <time>2021-01-14T08:57:23.000Z</time>
      </trkpt>
      <trkpt lat="47.28806" lon="-2.3701">
        <ele>28.39999961853</ele>
        <time>2021-01-14T08:57:24.000Z</time>
      </trkpt>
      <trkpt lat="47.28804" lon="-2.37003">
        <ele>28</ele>
        <time>2021-01-14T08:57:25.000Z</time>
      </trkpt>
      <trkpt lat="47.28802" lon="-2.36997">
        <ele>27.60000038147</ele>
        <time>2021-01-14T08:57:26.000Z</time>
      </trkpt>
      <trkpt lat="47.28799" lon="-2.36985">
        <ele>27.60000038147</ele>
        <time>2021-01-14T08:57:28.000Z</time>
      </trkpt>
      <trkpt lat="47.28787" lon="-2.36947">
        <ele>27.60000038147</ele>
        <time>2021-01-14T08:57:34.000Z</time>
      </trkpt>
      <trkpt lat="47.28784" lon="-2.36933">
        <ele>27.60000038147</ele>
        <time>2021-01-14T08:57:36.000Z</time>
      </trkpt>
      <trkpt lat="47.2878" lon="-2.36906">
        <ele>27.60000038147</ele>
        <time>2021-01-14T08:57:40.000Z</time>
      </trkpt>
      <trkpt lat="47.2878" lon="-2.36892">
        <ele>27.60000038147</ele>
        <time>2021-01-14T08:57:42.000Z</time>
      </trkpt>
      <trkpt lat="47.28783" lon="-2.36878">
        <ele>27.60000038147</ele>
        <time>2021-01-14T08:57:44.000Z</time>
      </trkpt>
      <trkpt lat="47.28792" lon="-2.36838">
        <ele>27.60000038147</ele>
        <time>2021-01-14T08:57:50.000Z</time>
      </trkpt>
      <trkpt lat="47.288" lon="-2.36822">
        <ele>27.60000038147</ele>
        <time>2021-01-14T08:57:53.000Z</time>
      </trkpt>
      <trkpt lat="47.28804" lon="-2.36819">
        <ele>27.60000038147</ele>
        <time>2021-01-14T08:57:54.000Z</time>
      </trkpt>
      <trkpt lat="47.28816" lon="-2.36823">
        <ele>27.60000038147</ele>
        <time>2021-01-14T08:57:57.000Z</time>
      </trkpt>
      <trkpt lat="47.28824" lon="-2.36837">
        <ele>27.60000038147</ele>
        <time>2021-01-14T08:58:00.000Z</time>
      </trkpt>
      <trkpt lat="47.28827" lon="-2.36851">
        <ele>27.60000038147</ele>
        <time>2021-01-14T08:58:04.000Z</time>
      </trkpt>
      <trkpt lat="47.28832" lon="-2.36868">
        <ele>27.60000038147</ele>
        <time>2021-01-14T08:58:10.000Z</time>
      </trkpt>
      <trkpt lat="47.28844" lon="-2.36881">
        <ele>27.60000038147</ele>
        <time>2021-01-14T08:58:17.000Z</time>
      </trkpt>
      <trkpt lat="47.2886" lon="-2.36894">
        <ele>27.60000038147</ele>
        <time>2021-01-14T08:58:22.000Z</time>
      </trkpt>
      <trkpt lat="47.28877" lon="-2.36906">
        <ele>27.60000038147</ele>
        <time>2021-01-14T08:58:28.000Z</time>
      </trkpt>
      <trkpt lat="47.28893" lon="-2.36925">
        <ele>27.60000038147</ele>
        <time>2021-01-14T08:58:35.000Z</time>
      </trkpt>
      <trkpt lat="47.28914" lon="-2.36952">
        <ele>27.60000038147</ele>
        <time>2021-01-14T08:58:43.000Z</time>
      </trkpt>
      <trkpt lat="47.28932" lon="-2.3698">
        <ele>27.60000038147</ele>
        <time>2021-01-14T08:58:50.000Z</time>
      </trkpt>
      <trkpt lat="47.28948" lon="-2.3701">
        <ele>27.60000038147</ele>
        <time>2021-01-14T08:58:57.000Z</time>
      </trkpt>
      <trkpt lat="47.28955" lon="-2.37023">
        <ele>27.200000762939</ele>
        <time>2021-01-14T08:59:00.000Z</time>
      </trkpt>
      <trkpt lat="47.28957" lon="-2.37028">
        <ele>26.799999237061</ele>
        <time>2021-01-14T08:59:01.000Z</time>
      </trkpt>
      <trkpt lat="47.28959" lon="-2.37032">
        <ele>26.39999961853</ele>
        <time>2021-01-14T08:59:02.000Z</time>
      </trkpt>
      <trkpt lat="47.28962" lon="-2.37037">
        <ele>26</ele>
        <time>2021-01-14T08:59:03.000Z</time>
      </trkpt>
      <trkpt lat="47.28964" lon="-2.37042">
        <ele>25.60000038147</ele>
        <time>2021-01-14T08:59:04.000Z</time>
      </trkpt>
      <trkpt lat="47.28977" lon="-2.37078">
        <ele>25.60000038147</ele>
        <time>2021-01-14T08:59:10.000Z</time>
      </trkpt>
      <trkpt lat="47.28995" lon="-2.37126">
        <ele>25.60000038147</ele>
        <time>2021-01-14T08:59:17.000Z</time>
      </trkpt>
      <trkpt lat="47.29006" lon="-2.3715">
        <ele>25.60000038147</ele>
        <time>2021-01-14T08:59:22.000Z</time>
      </trkpt>
      <trkpt lat="47.29008" lon="-2.37173">
        <ele>25.60000038147</ele>
        <time>2021-01-14T08:59:28.000Z</time>
      </trkpt>
      <trkpt lat="47.29012" lon="-2.37182">
        <ele>25.60000038147</ele>
        <time>2021-01-14T08:59:30.000Z</time>
      </trkpt>
      <trkpt lat="47.29015" lon="-2.37186">
        <ele>25.60000038147</ele>
        <time>2021-01-14T08:59:31.000Z</time>
      </trkpt>
      <trkpt lat="47.29026" lon="-2.37197">
        <ele>25.60000038147</ele>
        <time>2021-01-14T08:59:34.000Z</time>
      </trkpt>
      <trkpt lat="47.29036" lon="-2.37208">
        <ele>25.60000038147</ele>
        <time>2021-01-14T08:59:37.000Z</time>
      </trkpt>
      <trkpt lat="47.29057" lon="-2.37227">
        <ele>25.60000038147</ele>
        <time>2021-01-14T08:59:43.000Z</time>
      </trkpt>
      <trkpt lat="47.29082" lon="-2.37252">
        <ele>25.60000038147</ele>
        <time>2021-01-14T08:59:51.000Z</time>
      </trkpt>
      <trkpt lat="47.29109" lon="-2.37278">
        <ele>25.60000038147</ele>
        <time>2021-01-14T08:59:59.000Z</time>
      </trkpt>
      <trkpt lat="47.29128" lon="-2.37295">
        <ele>25.200000762939</ele>
        <time>2021-01-14T09:00:05.000Z</time>
      </trkpt>
      <trkpt lat="47.29131" lon="-2.37299">
        <ele>24.799999237061</ele>
        <time>2021-01-14T09:00:06.000Z</time>
      </trkpt>
      <trkpt lat="47.29135" lon="-2.37302">
        <ele>24.39999961853</ele>
        <time>2021-01-14T09:00:07.000Z</time>
      </trkpt>
      <trkpt lat="47.29138" lon="-2.37306">
        <ele>24</ele>
        <time>2021-01-14T09:00:08.000Z</time>
      </trkpt>
      <trkpt lat="47.29141" lon="-2.37309">
        <ele>23.60000038147</ele>
        <time>2021-01-14T09:00:09.000Z</time>
      </trkpt>
      <trkpt lat="47.29152" lon="-2.3732">
        <ele>23.60000038147</ele>
        <time>2021-01-14T09:00:12.000Z</time>
      </trkpt>
      <trkpt lat="47.29156" lon="-2.37321">
        <ele>23.60000038147</ele>
        <time>2021-01-14T09:00:13.000Z</time>
      </trkpt>
      <trkpt lat="47.29167" lon="-2.37312">
        <ele>23.60000038147</ele>
        <time>2021-01-14T09:00:16.000Z</time>
      </trkpt>
      <trkpt lat="47.29171" lon="-2.37308">
        <ele>23.60000038147</ele>
        <time>2021-01-14T09:00:17.000Z</time>
      </trkpt>
      <trkpt lat="47.29188" lon="-2.37285">
        <ele>23.60000038147</ele>
        <time>2021-01-14T09:00:23.000Z</time>
      </trkpt>
      <trkpt lat="47.2921" lon="-2.37259">
        <ele>23.60000038147</ele>
        <time>2021-01-14T09:00:30.000Z</time>
      </trkpt>
      <trkpt lat="47.2923" lon="-2.37233">
        <ele>23.60000038147</ele>
        <time>2021-01-14T09:00:37.000Z</time>
      </trkpt>
      <trkpt lat="47.29249" lon="-2.37207">
        <ele>23.60000038147</ele>
        <time>2021-01-14T09:00:44.000Z</time>
      </trkpt>
      <trkpt lat="47.2927" lon="-2.37176">
        <ele>23.60000038147</ele>
        <time>2021-01-14T09:00:52.000Z</time>
      </trkpt>
      <trkpt lat="47.29291" lon="-2.37156">
        <ele>23.60000038147</ele>
        <time>2021-01-14T09:00:59.000Z</time>
      </trkpt>
      <trkpt lat="47.29294" lon="-2.37158">
        <ele>23.60000038147</ele>
        <time>2021-01-14T09:01:00.000Z</time>
      </trkpt>
      <trkpt lat="47.293" lon="-2.37163">
        <ele>23.60000038147</ele>
        <time>2021-01-14T09:01:02.000Z</time>
      </trkpt>
      <trkpt lat="47.29308" lon="-2.37169">
        <ele>23.60000038147</ele>
        <time>2021-01-14T09:01:04.000Z</time>
      </trkpt>
      <trkpt lat="47.29318" lon="-2.37179">
        <ele>23.60000038147</ele>
        <time>2021-01-14T09:01:07.000Z</time>
      </trkpt>
      <trkpt lat="47.29339" lon="-2.37197">
        <ele>23.60000038147</ele>
        <time>2021-01-14T09:01:12.000Z</time>
      </trkpt>
      <trkpt lat="47.29344" lon="-2.37199">
        <ele>23.60000038147</ele>
        <time>2021-01-14T09:01:13.000Z</time>
      </trkpt>
      <trkpt lat="47.29382" lon="-2.37218">
        <ele>23.60000038147</ele>
        <time>2021-01-14T09:01:21.000Z</time>
      </trkpt>
      <trkpt lat="47.2939" lon="-2.37221">
        <ele>23.60000038147</ele>
        <time>2021-01-14T09:01:23.000Z</time>
      </trkpt>
      <trkpt lat="47.29402" lon="-2.37226">
        <ele>23.60000038147</ele>
        <time>2021-01-14T09:01:26.000Z</time>
      </trkpt>
      <trkpt lat="47.29407" lon="-2.37227">
        <ele>23.60000038147</ele>
        <time>2021-01-14T09:01:27.000Z</time>
      </trkpt>
      <trkpt lat="47.29421" lon="-2.37223">
        <ele>23.60000038147</ele>
        <time>2021-01-14T09:01:30.000Z</time>
      </trkpt>
      <trkpt lat="47.29435" lon="-2.37205">
        <ele>23.60000038147</ele>
        <time>2021-01-14T09:01:34.000Z</time>
      </trkpt>
      <trkpt lat="47.29438" lon="-2.372">
        <ele>23.60000038147</ele>
        <time>2021-01-14T09:01:35.000Z</time>
      </trkpt>
      <trkpt lat="47.29455" lon="-2.37177">
        <ele>23.60000038147</ele>
        <time>2021-01-14T09:01:40.000Z</time>
      </trkpt>
      <trkpt lat="47.29474" lon="-2.37158">
        <ele>23.60000038147</ele>
        <time>2021-01-14T09:01:45.000Z</time>
      </trkpt>
      <trkpt lat="47.29478" lon="-2.37155">
        <ele>23.60000038147</ele>
        <time>2021-01-14T09:01:46.000Z</time>
      </trkpt>
      <trkpt lat="47.29499" lon="-2.37132">
        <ele>23.60000038147</ele>
        <time>2021-01-14T09:01:52.000Z</time>
      </trkpt>
      <trkpt lat="47.29522" lon="-2.37105">
        <ele>23.60000038147</ele>
        <time>2021-01-14T09:01:59.000Z</time>
      </trkpt>
      <trkpt lat="47.29548" lon="-2.37079">
        <ele>23.60000038147</ele>
        <time>2021-01-14T09:02:06.000Z</time>
      </trkpt>
      <trkpt lat="47.29573" lon="-2.37054">
        <ele>23.60000038147</ele>
        <time>2021-01-14T09:02:13.000Z</time>
      </trkpt>
      <trkpt lat="47.29593" lon="-2.37033">
        <ele>23.60000038147</ele>
        <time>2021-01-14T09:02:19.000Z</time>
      </trkpt>
      <trkpt lat="47.29616" lon="-2.37004">
        <ele>23.60000038147</ele>
        <time>2021-01-14T09:02:26.000Z</time>
      </trkpt>
      <trkpt lat="47.29642" lon="-2.36956">
        <ele>23.60000038147</ele>
        <time>2021-01-14T09:02:35.000Z</time>
      </trkpt>
      <trkpt lat="47.29651" lon="-2.36939">
        <ele>23.60000038147</ele>
        <time>2021-01-14T09:02:38.000Z</time>
      </trkpt>
      <trkpt lat="47.2966" lon="-2.36916">
        <ele>23.60000038147</ele>
        <time>2021-01-14T09:02:42.000Z</time>
      </trkpt>
      <trkpt lat="47.29662" lon="-2.3691">
        <ele>23.60000038147</ele>
        <time>2021-01-14T09:02:43.000Z</time>
      </trkpt>
      <trkpt lat="47.29673" lon="-2.36877">
        <ele>23.60000038147</ele>
        <time>2021-01-14T09:02:48.000Z</time>
      </trkpt>
      <trkpt lat="47.29685" lon="-2.36853">
        <ele>23.60000038147</ele>
        <time>2021-01-14T09:02:52.000Z</time>
      </trkpt>
      <trkpt lat="47.29696" lon="-2.36836">
        <ele>23.60000038147</ele>
        <time>2021-01-14T09:02:55.000Z</time>
      </trkpt>
      <trkpt lat="47.29719" lon="-2.36805">
        <ele>23.60000038147</ele>
        <time>2021-01-14T09:03:01.000Z</time>
      </trkpt>
      <trkpt lat="47.29748" lon="-2.36768">
        <ele>23.60000038147</ele>
        <time>2021-01-14T09:03:08.000Z</time>
      </trkpt>
      <trkpt lat="47.29769" lon="-2.36742">
        <ele>23.60000038147</ele>
        <time>2021-01-14T09:03:14.000Z</time>
      </trkpt>
      <trkpt lat="47.29775" lon="-2.36742">
        <ele>23.60000038147</ele>
        <time>2021-01-14T09:03:16.000Z</time>
      </trkpt>
      <trkpt lat="47.29778" lon="-2.36744">
        <ele>23.60000038147</ele>
        <time>2021-01-14T09:03:17.000Z</time>
      </trkpt>
      <trkpt lat="47.29787" lon="-2.36754">
        <ele>23.60000038147</ele>
        <time>2021-01-14T09:03:20.000Z</time>
      </trkpt>
      <trkpt lat="47.29793" lon="-2.36763">
        <ele>23.60000038147</ele>
        <time>2021-01-14T09:03:22.000Z</time>
      </trkpt>
      <trkpt lat="47.29813" lon="-2.36799">
        <ele>23.60000038147</ele>
        <time>2021-01-14T09:03:29.000Z</time>
      </trkpt>
      <trkpt lat="47.29832" lon="-2.36845">
        <ele>23.60000038147</ele>
        <time>2021-01-14T09:03:37.000Z</time>
      </trkpt>
      <trkpt lat="47.29853" lon="-2.36893">
        <ele>23.60000038147</ele>
        <time>2021-01-14T09:03:46.000Z</time>
      </trkpt>
      <trkpt lat="47.2986" lon="-2.36908">
        <ele>23.60000038147</ele>
        <time>2021-01-14T09:03:49.000Z</time>
      </trkpt>
      <trkpt lat="47.2987" lon="-2.36927">
        <ele>23.60000038147</ele>
        <time>2021-01-14T09:03:53.000Z</time>
      </trkpt>
      <trkpt lat="47.29884" lon="-2.36947">
        <ele>23.60000038147</ele>
        <time>2021-01-14T09:03:58.000Z</time>
      </trkpt>
      <trkpt lat="47.29892" lon="-2.36952">
        <ele>23.60000038147</ele>
        <time>2021-01-14T09:04:00.000Z</time>
      </trkpt>
      <trkpt lat="47.299" lon="-2.36952">
        <ele>23.60000038147</ele>
        <time>2021-01-14T09:04:02.000Z</time>
      </trkpt>
      <trkpt lat="47.29916" lon="-2.36936">
        <ele>23.60000038147</ele>
        <time>2021-01-14T09:04:06.000Z</time>
      </trkpt>
      <trkpt lat="47.2992" lon="-2.36932">
        <ele>23.60000038147</ele>
        <time>2021-01-14T09:04:07.000Z</time>
      </trkpt>
      <trkpt lat="47.29948" lon="-2.36898">
        <ele>23.60000038147</ele>
        <time>2021-01-14T09:04:14.000Z</time>
      </trkpt>
      <trkpt lat="47.29983" lon="-2.36854">
        <ele>23.60000038147</ele>
        <time>2021-01-14T09:04:22.000Z</time>
      </trkpt>
      <trkpt lat="47.30017" lon="-2.36813">
        <ele>23.60000038147</ele>
        <time>2021-01-14T09:04:30.000Z</time>
      </trkpt>
      <trkpt lat="47.30044" lon="-2.36782">
        <ele>24</ele>
        <time>2021-01-14T09:04:36.000Z</time>
      </trkpt>
      <trkpt lat="47.30048" lon="-2.36777">
        <ele>24.39999961853</ele>
        <time>2021-01-14T09:04:37.000Z</time>
      </trkpt>
      <trkpt lat="47.30053" lon="-2.36772">
        <ele>24.799999237061</ele>
        <time>2021-01-14T09:04:38.000Z</time>
      </trkpt>
      <trkpt lat="47.30057" lon="-2.36767">
        <ele>25.200000762939</ele>
        <time>2021-01-14T09:04:39.000Z</time>
      </trkpt>
      <trkpt lat="47.30061" lon="-2.36762">
        <ele>25.60000038147</ele>
        <time>2021-01-14T09:04:40.000Z</time>
      </trkpt>
      <trkpt lat="47.301" lon="-2.36724">
        <ele>25.60000038147</ele>
        <time>2021-01-14T09:04:48.000Z</time>
      </trkpt>
      <trkpt lat="47.30134" lon="-2.36697">
        <ele>25.60000038147</ele>
        <time>2021-01-14T09:04:53.000Z</time>
      </trkpt>
      <trkpt lat="47.30163" lon="-2.36676">
        <ele>25.60000038147</ele>
        <time>2021-01-14T09:04:58.000Z</time>
      </trkpt>
      <trkpt lat="47.30166" lon="-2.36677">
        <ele>25.60000038147</ele>
        <time>2021-01-14T09:04:59.000Z</time>
      </trkpt>
      <trkpt lat="47.3017" lon="-2.36685">
        <ele>25.60000038147</ele>
        <time>2021-01-14T09:05:01.000Z</time>
      </trkpt>
      <trkpt lat="47.3018" lon="-2.36714">
        <ele>25.60000038147</ele>
        <time>2021-01-14T09:05:06.000Z</time>
      </trkpt>
      <trkpt lat="47.30181" lon="-2.3672">
        <ele>25.60000038147</ele>
        <time>2021-01-14T09:05:07.000Z</time>
      </trkpt>
      <trkpt lat="47.30196" lon="-2.36772">
        <ele>25.60000038147</ele>
        <time>2021-01-14T09:05:15.000Z</time>
      </trkpt>
      <trkpt lat="47.30211" lon="-2.36813">
        <ele>25.60000038147</ele>
        <time>2021-01-14T09:05:22.000Z</time>
      </trkpt>
      <trkpt lat="47.30217" lon="-2.36829">
        <ele>25.60000038147</ele>
        <time>2021-01-14T09:05:25.000Z</time>
      </trkpt>
      <trkpt lat="47.30228" lon="-2.36856">
        <ele>25.60000038147</ele>
        <time>2021-01-14T09:05:30.000Z</time>
      </trkpt>
      <trkpt lat="47.30242" lon="-2.36893">
        <ele>26</ele>
        <time>2021-01-14T09:05:37.000Z</time>
      </trkpt>
      <trkpt lat="47.30244" lon="-2.36898">
        <ele>26.39999961853</ele>
        <time>2021-01-14T09:05:38.000Z</time>
      </trkpt>
      <trkpt lat="47.30246" lon="-2.36904">
        <ele>26.799999237061</ele>
        <time>2021-01-14T09:05:39.000Z</time>
      </trkpt>
      <trkpt lat="47.30248" lon="-2.36909">
        <ele>27.200000762939</ele>
        <time>2021-01-14T09:05:40.000Z</time>
      </trkpt>
      <trkpt lat="47.3025" lon="-2.36914">
        <ele>27.60000038147</ele>
        <time>2021-01-14T09:05:41.000Z</time>
      </trkpt>
      <trkpt lat="47.30267" lon="-2.36954">
        <ele>27.60000038147</ele>
        <time>2021-01-14T09:05:50.000Z</time>
      </trkpt>
      <trkpt lat="47.30283" lon="-2.36987">
        <ele>27.60000038147</ele>
        <time>2021-01-14T09:05:58.000Z</time>
      </trkpt>
      <trkpt lat="47.3029" lon="-2.37009">
        <ele>27.60000038147</ele>
        <time>2021-01-14T09:06:03.000Z</time>
      </trkpt>
      <trkpt lat="47.30305" lon="-2.3705">
        <ele>27.60000038147</ele>
        <time>2021-01-14T09:06:10.000Z</time>
      </trkpt>
      <trkpt lat="47.3032" lon="-2.37095">
        <ele>27.60000038147</ele>
        <time>2021-01-14T09:06:17.000Z</time>
      </trkpt>
      <trkpt lat="47.30338" lon="-2.37151">
        <ele>27.60000038147</ele>
        <time>2021-01-14T09:06:25.000Z</time>
      </trkpt>
      <trkpt lat="47.30357" lon="-2.37214">
        <ele>27.60000038147</ele>
        <time>2021-01-14T09:06:34.000Z</time>
      </trkpt>
      <trkpt lat="47.30375" lon="-2.37275">
        <ele>27.60000038147</ele>
        <time>2021-01-14T09:06:42.000Z</time>
      </trkpt>
      <trkpt lat="47.30378" lon="-2.37283">
        <ele>27.60000038147</ele>
        <time>2021-01-14T09:06:43.000Z</time>
      </trkpt>
      <trkpt lat="47.30389" lon="-2.37324">
        <ele>27.60000038147</ele>
        <time>2021-01-14T09:06:48.000Z</time>
      </trkpt>
      <trkpt lat="47.30409" lon="-2.37389">
        <ele>27.60000038147</ele>
        <time>2021-01-14T09:06:56.000Z</time>
      </trkpt>
      <trkpt lat="47.30421" lon="-2.37426">
        <ele>28.200000762939</ele>
        <time>2021-01-14T09:07:00.000Z</time>
      </trkpt>
      <trkpt lat="47.30424" lon="-2.37436">
        <ele>28.60000038147</ele>
        <time>2021-01-14T09:07:01.000Z</time>
      </trkpt>
      <trkpt lat="47.30427" lon="-2.37445">
        <ele>29</ele>
        <time>2021-01-14T09:07:02.000Z</time>
      </trkpt>
      <trkpt lat="47.30429" lon="-2.37455">
        <ele>29.39999961853</ele>
        <time>2021-01-14T09:07:03.000Z</time>
      </trkpt>
      <trkpt lat="47.30433" lon="-2.37466">
        <ele>29.799999237061</ele>
        <time>2021-01-14T09:07:04.000Z</time>
      </trkpt>
      <trkpt lat="47.30448" lon="-2.37523">
        <ele>29.799999237061</ele>
        <time>2021-01-14T09:07:10.000Z</time>
      </trkpt>
      <trkpt lat="47.30465" lon="-2.37581">
        <ele>29.799999237061</ele>
        <time>2021-01-14T09:07:17.000Z</time>
      </trkpt>
      <trkpt lat="47.30483" lon="-2.37642">
        <ele>29.799999237061</ele>
        <time>2021-01-14T09:07:25.000Z</time>
      </trkpt>
      <trkpt lat="47.30501" lon="-2.37709">
        <ele>29.799999237061</ele>
        <time>2021-01-14T09:07:34.000Z</time>
      </trkpt>
      <trkpt lat="47.30519" lon="-2.37766">
        <ele>29.799999237061</ele>
        <time>2021-01-14T09:07:42.000Z</time>
      </trkpt>
      <trkpt lat="47.30533" lon="-2.37816">
        <ele>29.799999237061</ele>
        <time>2021-01-14T09:07:49.000Z</time>
      </trkpt>
      <trkpt lat="47.30547" lon="-2.37875">
        <ele>29.799999237061</ele>
        <time>2021-01-14T09:07:57.000Z</time>
      </trkpt>
      <trkpt lat="47.30561" lon="-2.37912">
        <ele>29.799999237061</ele>
        <time>2021-01-14T09:08:03.000Z</time>
      </trkpt>
      <trkpt lat="47.30564" lon="-2.37918">
        <ele>29.799999237061</ele>
        <time>2021-01-14T09:08:04.000Z</time>
      </trkpt>
      <trkpt lat="47.30572" lon="-2.37929">
        <ele>29.799999237061</ele>
        <time>2021-01-14T09:08:06.000Z</time>
      </trkpt>
      <trkpt lat="47.30583" lon="-2.37941">
        <ele>29.799999237061</ele>
        <time>2021-01-14T09:08:09.000Z</time>
      </trkpt>
      <trkpt lat="47.30588" lon="-2.37961">
        <ele>29.799999237061</ele>
        <time>2021-01-14T09:08:13.000Z</time>
      </trkpt>
      <trkpt lat="47.30586" lon="-2.37984">
        <ele>29.799999237061</ele>
        <time>2021-01-14T09:08:18.000Z</time>
      </trkpt>
      <trkpt lat="47.30586" lon="-2.37988">
        <ele>29.799999237061</ele>
        <time>2021-01-14T09:08:19.000Z</time>
      </trkpt>
      <trkpt lat="47.30586" lon="-2.38012">
        <ele>29.799999237061</ele>
        <time>2021-01-14T09:08:25.000Z</time>
      </trkpt>
      <trkpt lat="47.30594" lon="-2.38043">
        <ele>29.799999237061</ele>
        <time>2021-01-14T09:08:32.000Z</time>
      </trkpt>
      <trkpt lat="47.30597" lon="-2.38057">
        <ele>29.799999237061</ele>
        <time>2021-01-14T09:08:37.000Z</time>
      </trkpt>
      <trkpt lat="47.30603" lon="-2.38077">
        <ele>29.799999237061</ele>
        <time>2021-01-14T09:08:44.000Z</time>
      </trkpt>
      <trkpt lat="47.30607" lon="-2.38093">
        <ele>29.799999237061</ele>
        <time>2021-01-14T09:08:49.000Z</time>
      </trkpt>
      <trkpt lat="47.30617" lon="-2.38123">
        <ele>29.799999237061</ele>
        <time>2021-01-14T09:08:55.000Z</time>
      </trkpt>
      <trkpt lat="47.30631" lon="-2.38183">
        <ele>29.799999237061</ele>
        <time>2021-01-14T09:09:04.000Z</time>
      </trkpt>
      <trkpt lat="47.30647" lon="-2.38246">
        <ele>29.799999237061</ele>
        <time>2021-01-14T09:09:13.000Z</time>
      </trkpt>
      <trkpt lat="47.30657" lon="-2.38284">
        <ele>30.200000762939</ele>
        <time>2021-01-14T09:09:19.000Z</time>
      </trkpt>
      <trkpt lat="47.30659" lon="-2.38291">
        <ele>30.60000038147</ele>
        <time>2021-01-14T09:09:20.000Z</time>
      </trkpt>
      <trkpt lat="47.30661" lon="-2.38297">
        <ele>31</ele>
        <time>2021-01-14T09:09:21.000Z</time>
      </trkpt>
      <trkpt lat="47.30663" lon="-2.38304">
        <ele>31.39999961853</ele>
        <time>2021-01-14T09:09:22.000Z</time>
      </trkpt>
      <trkpt lat="47.30664" lon="-2.3831">
        <ele>31.799999237061</ele>
        <time>2021-01-14T09:09:23.000Z</time>
      </trkpt>
      <trkpt lat="47.30674" lon="-2.38352">
        <ele>31.799999237061</ele>
        <time>2021-01-14T09:09:29.000Z</time>
      </trkpt>
      <trkpt lat="47.30686" lon="-2.38408">
        <ele>31.799999237061</ele>
        <time>2021-01-14T09:09:37.000Z</time>
      </trkpt>
      <trkpt lat="47.307" lon="-2.38454">
        <ele>31.799999237061</ele>
        <time>2021-01-14T09:09:44.000Z</time>
      </trkpt>
      <trkpt lat="47.30717" lon="-2.38508">
        <ele>31.799999237061</ele>
        <time>2021-01-14T09:09:52.000Z</time>
      </trkpt>
      <trkpt lat="47.30737" lon="-2.38571">
        <ele>31.799999237061</ele>
        <time>2021-01-14T09:10:01.000Z</time>
      </trkpt>
      <trkpt lat="47.30753" lon="-2.38629">
        <ele>31.799999237061</ele>
        <time>2021-01-14T09:10:09.000Z</time>
      </trkpt>
      <trkpt lat="47.30769" lon="-2.38686">
        <ele>31.799999237061</ele>
        <time>2021-01-14T09:10:17.000Z</time>
      </trkpt>
      <trkpt lat="47.30786" lon="-2.38739">
        <ele>31.799999237061</ele>
        <time>2021-01-14T09:10:25.000Z</time>
      </trkpt>
      <trkpt lat="47.30808" lon="-2.38771">
        <ele>31.799999237061</ele>
        <time>2021-01-14T09:10:31.000Z</time>
      </trkpt>
      <trkpt lat="47.30834" lon="-2.38782">
        <ele>31.799999237061</ele>
        <time>2021-01-14T09:10:36.000Z</time>
      </trkpt>
      <trkpt lat="47.3084" lon="-2.38783">
        <ele>31.799999237061</ele>
        <time>2021-01-14T09:10:37.000Z</time>
      </trkpt>
      <trkpt lat="47.30871" lon="-2.38793">
        <ele>31.799999237061</ele>
        <time>2021-01-14T09:10:42.000Z</time>
      </trkpt>
      <trkpt lat="47.30886" lon="-2.38813">
        <ele>31.799999237061</ele>
        <time>2021-01-14T09:10:46.000Z</time>
      </trkpt>
      <trkpt lat="47.30891" lon="-2.38829">
        <ele>31.799999237061</ele>
        <time>2021-01-14T09:10:50.000Z</time>
      </trkpt>
      <trkpt lat="47.30893" lon="-2.38833">
        <ele>31.799999237061</ele>
        <time>2021-01-14T09:10:51.000Z</time>
      </trkpt>
      <trkpt lat="47.30905" lon="-2.38849">
        <ele>31.799999237061</ele>
        <time>2021-01-14T09:10:55.000Z</time>
      </trkpt>
      <trkpt lat="47.3091" lon="-2.38876">
        <ele>31.799999237061</ele>
        <time>2021-01-14T09:10:59.000Z</time>
      </trkpt>
      <trkpt lat="47.30922" lon="-2.38892">
        <ele>31.799999237061</ele>
        <time>2021-01-14T09:11:02.000Z</time>
      </trkpt>
      <trkpt lat="47.30929" lon="-2.38903">
        <ele>31.799999237061</ele>
        <time>2021-01-14T09:11:04.000Z</time>
      </trkpt>
      <trkpt lat="47.30934" lon="-2.38924">
        <ele>31.799999237061</ele>
        <time>2021-01-14T09:11:07.000Z</time>
      </trkpt>
      <trkpt lat="47.30927" lon="-2.38946">
        <ele>31.799999237061</ele>
        <time>2021-01-14T09:11:10.000Z</time>
      </trkpt>
      <trkpt lat="47.30918" lon="-2.38964">
        <ele>31.799999237061</ele>
        <time>2021-01-14T09:11:13.000Z</time>
      </trkpt>
      <trkpt lat="47.30912" lon="-2.38978">
        <ele>31.799999237061</ele>
        <time>2021-01-14T09:11:15.000Z</time>
      </trkpt>
      <trkpt lat="47.3091" lon="-2.38985">
        <ele>31.799999237061</ele>
        <time>2021-01-14T09:11:16.000Z</time>
      </trkpt>
      <trkpt lat="47.30907" lon="-2.39008">
        <ele>31.799999237061</ele>
        <time>2021-01-14T09:11:19.000Z</time>
      </trkpt>
      <trkpt lat="47.30906" lon="-2.39023">
        <ele>31.799999237061</ele>
        <time>2021-01-14T09:11:21.000Z</time>
      </trkpt>
      <trkpt lat="47.30903" lon="-2.39062">
        <ele>32.200000762939</ele>
        <time>2021-01-14T09:11:26.000Z</time>
      </trkpt>
      <trkpt lat="47.30903" lon="-2.3907">
        <ele>32.599998474121</ele>
        <time>2021-01-14T09:11:27.000Z</time>
      </trkpt>
      <trkpt lat="47.30903" lon="-2.39077">
        <ele>33</ele>
        <time>2021-01-14T09:11:28.000Z</time>
      </trkpt>
      <trkpt lat="47.30904" lon="-2.39084">
        <ele>33.400001525879</ele>
        <time>2021-01-14T09:11:29.000Z</time>
      </trkpt>
      <trkpt lat="47.30906" lon="-2.39091">
        <ele>33.799999237061</ele>
        <time>2021-01-14T09:11:30.000Z</time>
      </trkpt>
      <trkpt lat="47.30915" lon="-2.3912">
        <ele>33.799999237061</ele>
        <time>2021-01-14T09:11:34.000Z</time>
      </trkpt>
      <trkpt lat="47.30917" lon="-2.39127">
        <ele>33.799999237061</ele>
        <time>2021-01-14T09:11:35.000Z</time>
      </trkpt>
      <trkpt lat="47.30932" lon="-2.39166">
        <ele>33.799999237061</ele>
        <time>2021-01-14T09:11:41.000Z</time>
      </trkpt>
      <trkpt lat="47.30955" lon="-2.39219">
        <ele>33.799999237061</ele>
        <time>2021-01-14T09:11:49.000Z</time>
      </trkpt>
      <trkpt lat="47.30981" lon="-2.39281">
        <ele>33.799999237061</ele>
        <time>2021-01-14T09:11:58.000Z</time>
      </trkpt>
      <trkpt lat="47.31002" lon="-2.39343">
        <ele>33.799999237061</ele>
        <time>2021-01-14T09:12:07.000Z</time>
      </trkpt>
      <trkpt lat="47.31024" lon="-2.39409">
        <ele>33.799999237061</ele>
        <time>2021-01-14T09:12:16.000Z</time>
      </trkpt>
      <trkpt lat="47.31039" lon="-2.39456">
        <ele>33.799999237061</ele>
        <time>2021-01-14T09:12:23.000Z</time>
      </trkpt>
      <trkpt lat="47.31042" lon="-2.3946">
        <ele>33.799999237061</ele>
        <time>2021-01-14T09:12:24.000Z</time>
      </trkpt>
      <trkpt lat="47.3105" lon="-2.39461">
        <ele>33.799999237061</ele>
        <time>2021-01-14T09:12:26.000Z</time>
      </trkpt>
      <trkpt lat="47.31059" lon="-2.39453">
        <ele>33.799999237061</ele>
        <time>2021-01-14T09:12:29.000Z</time>
      </trkpt>
      <trkpt lat="47.31069" lon="-2.39442">
        <ele>33.799999237061</ele>
        <time>2021-01-14T09:12:32.000Z</time>
      </trkpt>
      <trkpt lat="47.31079" lon="-2.3943">
        <ele>33.799999237061</ele>
        <time>2021-01-14T09:12:35.000Z</time>
      </trkpt>
      <trkpt lat="47.31097" lon="-2.39404">
        <ele>33.799999237061</ele>
        <time>2021-01-14T09:12:40.000Z</time>
      </trkpt>
      <trkpt lat="47.31106" lon="-2.39394">
        <ele>33.799999237061</ele>
        <time>2021-01-14T09:12:42.000Z</time>
      </trkpt>
      <trkpt lat="47.31117" lon="-2.39379">
        <ele>33.799999237061</ele>
        <time>2021-01-14T09:12:45.000Z</time>
      </trkpt>
      <trkpt lat="47.31146" lon="-2.39347">
        <ele>33.799999237061</ele>
        <time>2021-01-14T09:12:52.000Z</time>
      </trkpt>
      <trkpt lat="47.31182" lon="-2.39317">
        <ele>33.799999237061</ele>
        <time>2021-01-14T09:13:00.000Z</time>
      </trkpt>
      <trkpt lat="47.31204" lon="-2.39301">
        <ele>33.799999237061</ele>
        <time>2021-01-14T09:13:05.000Z</time>
      </trkpt>
      <trkpt lat="47.31218" lon="-2.39291">
        <ele>33.799999237061</ele>
        <time>2021-01-14T09:13:08.000Z</time>
      </trkpt>
      <trkpt lat="47.31221" lon="-2.39287">
        <ele>33.799999237061</ele>
        <time>2021-01-14T09:13:09.000Z</time>
      </trkpt>
      <trkpt lat="47.31242" lon="-2.39263">
        <ele>33.799999237061</ele>
        <time>2021-01-14T09:13:14.000Z</time>
      </trkpt>
      <trkpt lat="47.31265" lon="-2.39231">
        <ele>33.799999237061</ele>
        <time>2021-01-14T09:13:20.000Z</time>
      </trkpt>
      <trkpt lat="47.31281" lon="-2.39207">
        <ele>33.799999237061</ele>
        <time>2021-01-14T09:13:24.000Z</time>
      </trkpt>
      <trkpt lat="47.3129" lon="-2.39196">
        <ele>33.799999237061</ele>
        <time>2021-01-14T09:13:26.000Z</time>
      </trkpt>
      <trkpt lat="47.31328" lon="-2.39155">
        <ele>33.799999237061</ele>
        <time>2021-01-14T09:13:34.000Z</time>
      </trkpt>
      <trkpt lat="47.31356" lon="-2.39124">
        <ele>33.799999237061</ele>
        <time>2021-01-14T09:13:40.000Z</time>
      </trkpt>
      <trkpt lat="47.31361" lon="-2.39119">
        <ele>33.799999237061</ele>
        <time>2021-01-14T09:13:41.000Z</time>
      </trkpt>
      <trkpt lat="47.31388" lon="-2.39088">
        <ele>33.799999237061</ele>
        <time>2021-01-14T09:13:47.000Z</time>
      </trkpt>
      <trkpt lat="47.31417" lon="-2.39042">
        <ele>33.799999237061</ele>
        <time>2021-01-14T09:13:53.000Z</time>
      </trkpt>
      <trkpt lat="47.31435" lon="-2.38999">
        <ele>33.799999237061</ele>
        <time>2021-01-14T09:13:58.000Z</time>
      </trkpt>
      <trkpt lat="47.31463" lon="-2.38939">
        <ele>33.799999237061</ele>
        <time>2021-01-14T09:14:05.000Z</time>
      </trkpt>
      <trkpt lat="47.31499" lon="-2.38874">
        <ele>33.799999237061</ele>
        <time>2021-01-14T09:14:13.000Z</time>
      </trkpt>
      <trkpt lat="47.31534" lon="-2.38805">
        <ele>33.799999237061</ele>
        <time>2021-01-14T09:14:21.000Z</time>
      </trkpt>
      <trkpt lat="47.31568" lon="-2.38748">
        <ele>33.799999237061</ele>
        <time>2021-01-14T09:14:29.000Z</time>
      </trkpt>
      <trkpt lat="47.31597" lon="-2.38704">
        <ele>33.799999237061</ele>
        <time>2021-01-14T09:14:36.000Z</time>
      </trkpt>
      <trkpt lat="47.3163" lon="-2.38654">
        <ele>33.799999237061</ele>
        <time>2021-01-14T09:14:44.000Z</time>
      </trkpt>
      <trkpt lat="47.31654" lon="-2.38626">
        <ele>33.799999237061</ele>
        <time>2021-01-14T09:14:49.000Z</time>
      </trkpt>
      <trkpt lat="47.31665" lon="-2.38617">
        <ele>33.799999237061</ele>
        <time>2021-01-14T09:14:51.000Z</time>
      </trkpt>
      <trkpt lat="47.31702" lon="-2.38593">
        <ele>33.799999237061</ele>
        <time>2021-01-14T09:14:58.000Z</time>
      </trkpt>
      <trkpt lat="47.31744" lon="-2.38568">
        <ele>33.799999237061</ele>
        <time>2021-01-14T09:15:06.000Z</time>
      </trkpt>
      <trkpt lat="47.3179" lon="-2.38543">
        <ele>33.799999237061</ele>
        <time>2021-01-14T09:15:15.000Z</time>
      </trkpt>
      <trkpt lat="47.3181" lon="-2.38536">
        <ele>33.799999237061</ele>
        <time>2021-01-14T09:15:20.000Z</time>
      </trkpt>
      <trkpt lat="47.31835" lon="-2.38532">
        <ele>33.799999237061</ele>
        <time>2021-01-14T09:15:26.000Z</time>
      </trkpt>
      <trkpt lat="47.31873" lon="-2.38517">
        <ele>33.799999237061</ele>
        <time>2021-01-14T09:15:34.000Z</time>
      </trkpt>
      <trkpt lat="47.31901" lon="-2.38505">
        <ele>33.799999237061</ele>
        <time>2021-01-14T09:15:40.000Z</time>
      </trkpt>
      <trkpt lat="47.31932" lon="-2.3849">
        <ele>33.799999237061</ele>
        <time>2021-01-14T09:15:46.000Z</time>
      </trkpt>
      <trkpt lat="47.31937" lon="-2.3849">
        <ele>33.799999237061</ele>
        <time>2021-01-14T09:15:47.000Z</time>
      </trkpt>
      <trkpt lat="47.31956" lon="-2.38485">
        <ele>33.799999237061</ele>
        <time>2021-01-14T09:15:51.000Z</time>
      </trkpt>
      <trkpt lat="47.31966" lon="-2.3848">
        <ele>33.799999237061</ele>
        <time>2021-01-14T09:15:53.000Z</time>
      </trkpt>
      <trkpt lat="47.31986" lon="-2.38473">
        <ele>33.799999237061</ele>
        <time>2021-01-14T09:15:57.000Z</time>
      </trkpt>
      <trkpt lat="47.32019" lon="-2.3846">
        <ele>33.799999237061</ele>
        <time>2021-01-14T09:16:03.000Z</time>
      </trkpt>
      <trkpt lat="47.32054" lon="-2.38447">
        <ele>33.799999237061</ele>
        <time>2021-01-14T09:16:09.000Z</time>
      </trkpt>
      <trkpt lat="47.32065" lon="-2.38442">
        <ele>33.799999237061</ele>
        <time>2021-01-14T09:16:11.000Z</time>
      </trkpt>
      <trkpt lat="47.32082" lon="-2.38434">
        <ele>33.799999237061</ele>
        <time>2021-01-14T09:16:14.000Z</time>
      </trkpt>
      <trkpt lat="47.32092" lon="-2.38429">
        <ele>33.799999237061</ele>
        <time>2021-01-14T09:16:16.000Z</time>
      </trkpt>
      <trkpt lat="47.32101" lon="-2.38425">
        <ele>33.799999237061</ele>
        <time>2021-01-14T09:16:18.000Z</time>
      </trkpt>
      <trkpt lat="47.32106" lon="-2.38422">
        <ele>33.799999237061</ele>
        <time>2021-01-14T09:16:19.000Z</time>
      </trkpt>
      <trkpt lat="47.32127" lon="-2.38407">
        <ele>33.799999237061</ele>
        <time>2021-01-14T09:16:24.000Z</time>
      </trkpt>
      <trkpt lat="47.32131" lon="-2.38403">
        <ele>33.799999237061</ele>
        <time>2021-01-14T09:16:25.000Z</time>
      </trkpt>
      <trkpt lat="47.32155" lon="-2.38369">
        <ele>33.799999237061</ele>
        <time>2021-01-14T09:16:31.000Z</time>
      </trkpt>
      <trkpt lat="47.32167" lon="-2.38354">
        <ele>33.799999237061</ele>
        <time>2021-01-14T09:16:35.000Z</time>
      </trkpt>
      <trkpt lat="47.32175" lon="-2.38343">
        <ele>33.799999237061</ele>
        <time>2021-01-14T09:16:40.000Z</time>
      </trkpt>
      <trkpt lat="47.32184" lon="-2.38332">
        <ele>33.799999237061</ele>
        <time>2021-01-14T09:16:45.000Z</time>
      </trkpt>
      <trkpt lat="47.32207" lon="-2.38304">
        <ele>33.799999237061</ele>
        <time>2021-01-14T09:16:53.000Z</time>
      </trkpt>
      <trkpt lat="47.32215" lon="-2.38294">
        <ele>33.799999237061</ele>
        <time>2021-01-14T09:16:56.000Z</time>
      </trkpt>
      <trkpt lat="47.32219" lon="-2.38294">
        <ele>33.799999237061</ele>
        <time>2021-01-14T09:16:57.000Z</time>
      </trkpt>
      <trkpt lat="47.32231" lon="-2.38295">
        <ele>33.799999237061</ele>
        <time>2021-01-14T09:17:00.000Z</time>
      </trkpt>
      <trkpt lat="47.32236" lon="-2.38294">
        <ele>33.799999237061</ele>
        <time>2021-01-14T09:17:01.000Z</time>
      </trkpt>
      <trkpt lat="47.32268" lon="-2.38285">
        <ele>33.799999237061</ele>
        <time>2021-01-14T09:17:08.000Z</time>
      </trkpt>
      <trkpt lat="47.32289" lon="-2.38288">
        <ele>33.799999237061</ele>
        <time>2021-01-14T09:17:13.000Z</time>
      </trkpt>
      <trkpt lat="47.32314" lon="-2.38295">
        <ele>33.799999237061</ele>
        <time>2021-01-14T09:17:18.000Z</time>
      </trkpt>
      <trkpt lat="47.32343" lon="-2.38305">
        <ele>33.799999237061</ele>
        <time>2021-01-14T09:17:24.000Z</time>
      </trkpt>
      <trkpt lat="47.32375" lon="-2.3832">
        <ele>33.799999237061</ele>
        <time>2021-01-14T09:17:31.000Z</time>
      </trkpt>
      <trkpt lat="47.32407" lon="-2.38337">
        <ele>33.799999237061</ele>
        <time>2021-01-14T09:17:37.000Z</time>
      </trkpt>
      <trkpt lat="47.32426" lon="-2.38347">
        <ele>33.799999237061</ele>
        <time>2021-01-14T09:17:41.000Z</time>
      </trkpt>
      <trkpt lat="47.32456" lon="-2.3836">
        <ele>33.799999237061</ele>
        <time>2021-01-14T09:17:47.000Z</time>
      </trkpt>
      <trkpt lat="47.32487" lon="-2.38374">
        <ele>33.799999237061</ele>
        <time>2021-01-14T09:17:53.000Z</time>
      </trkpt>
      <trkpt lat="47.32513" lon="-2.38381">
        <ele>33.799999237061</ele>
        <time>2021-01-14T09:17:58.000Z</time>
      </trkpt>
      <trkpt lat="47.32518" lon="-2.38379">
        <ele>33.799999237061</ele>
        <time>2021-01-14T09:17:59.000Z</time>
      </trkpt>
      <trkpt lat="47.32524" lon="-2.38366">
        <ele>33.799999237061</ele>
        <time>2021-01-14T09:18:02.000Z</time>
      </trkpt>
      <trkpt lat="47.32524" lon="-2.38359">
        <ele>33.799999237061</ele>
        <time>2021-01-14T09:18:03.000Z</time>
      </trkpt>
      <trkpt lat="47.32525" lon="-2.38338">
        <ele>33.799999237061</ele>
        <time>2021-01-14T09:18:06.000Z</time>
      </trkpt>
      <trkpt lat="47.32526" lon="-2.3833">
        <ele>33.799999237061</ele>
        <time>2021-01-14T09:18:07.000Z</time>
      </trkpt>
      <trkpt lat="47.32527" lon="-2.38314">
        <ele>33.799999237061</ele>
        <time>2021-01-14T09:18:10.000Z</time>
      </trkpt>
      <trkpt lat="47.32529" lon="-2.38312">
        <ele>33.799999237061</ele>
        <time>2021-01-14T09:18:12.000Z</time>
      </trkpt>
      <trkpt lat="47.3253" lon="-2.38312">
        <ele>33.799999237061</ele>
        <time>2021-01-14T09:18:13.000Z</time>
      </trkpt>
      <trkpt lat="47.32531" lon="-2.38312">
        <ele>33.799999237061</ele>
        <time>2021-01-14T09:18:14.000Z</time>
      </trkpt>
      <trkpt lat="47.32541" lon="-2.3831">
        <ele>33.799999237061</ele>
        <time>2021-01-14T09:18:18.000Z</time>
      </trkpt>
      <trkpt lat="47.32545" lon="-2.38308">
        <ele>33.799999237061</ele>
        <time>2021-01-14T09:18:19.000Z</time>
      </trkpt>
      <trkpt lat="47.32568" lon="-2.38301">
        <ele>33.799999237061</ele>
        <time>2021-01-14T09:18:25.000Z</time>
      </trkpt>
      <trkpt lat="47.32588" lon="-2.38294">
        <ele>33.799999237061</ele>
        <time>2021-01-14T09:18:31.000Z</time>
      </trkpt>
      <trkpt lat="47.32609" lon="-2.383">
        <ele>33.799999237061</ele>
        <time>2021-01-14T09:18:37.000Z</time>
      </trkpt>
      <trkpt lat="47.32624" lon="-2.38319">
        <ele>33.400001525879</ele>
        <time>2021-01-14T09:18:43.000Z</time>
      </trkpt>
      <trkpt lat="47.32626" lon="-2.38322">
        <ele>33</ele>
        <time>2021-01-14T09:18:44.000Z</time>
      </trkpt>
      <trkpt lat="47.32628" lon="-2.38324">
        <ele>32.599998474121</ele>
        <time>2021-01-14T09:18:45.000Z</time>
      </trkpt>
      <trkpt lat="47.32631" lon="-2.38327">
        <ele>32.200000762939</ele>
        <time>2021-01-14T09:18:46.000Z</time>
      </trkpt>
      <trkpt lat="47.32633" lon="-2.3833">
        <ele>31.799999237061</ele>
        <time>2021-01-14T09:18:47.000Z</time>
      </trkpt>
      <trkpt lat="47.3264" lon="-2.38338">
        <ele>31.799999237061</ele>
        <time>2021-01-14T09:18:50.000Z</time>
      </trkpt>
      <trkpt lat="47.32654" lon="-2.38358">
        <ele>31.799999237061</ele>
        <time>2021-01-14T09:18:57.000Z</time>
      </trkpt>
      <trkpt lat="47.3267" lon="-2.38379">
        <ele>31.799999237061</ele>
        <time>2021-01-14T09:19:05.000Z</time>
      </trkpt>
      <trkpt lat="47.32682" lon="-2.38389">
        <ele>31.799999237061</ele>
        <time>2021-01-14T09:19:11.000Z</time>
      </trkpt>
      <trkpt lat="47.32697" lon="-2.38404">
        <ele>31.799999237061</ele>
        <time>2021-01-14T09:19:18.000Z</time>
      </trkpt>
      <trkpt lat="47.32715" lon="-2.38407">
        <ele>31.799999237061</ele>
        <time>2021-01-14T09:19:25.000Z</time>
      </trkpt>
      <trkpt lat="47.32731" lon="-2.38405">
        <ele>31.799999237061</ele>
        <time>2021-01-14T09:19:31.000Z</time>
      </trkpt>
      <trkpt lat="47.32749" lon="-2.384">
        <ele>31.799999237061</ele>
        <time>2021-01-14T09:19:38.000Z</time>
      </trkpt>
      <trkpt lat="47.32766" lon="-2.38396">
        <ele>31.799999237061</ele>
        <time>2021-01-14T09:19:45.000Z</time>
      </trkpt>
      <trkpt lat="47.32778" lon="-2.38389">
        <ele>31.799999237061</ele>
        <time>2021-01-14T09:19:52.000Z</time>
      </trkpt>
      <trkpt lat="47.3278" lon="-2.38388">
        <ele>31.799999237061</ele>
        <time>2021-01-14T09:19:54.000Z</time>
      </trkpt>
      <trkpt lat="47.32781" lon="-2.38386">
        <ele>31.799999237061</ele>
        <time>2021-01-14T09:20:27.000Z</time>
      </trkpt>
      <trkpt lat="47.32781" lon="-2.38383">
        <ele>31.799999237061</ele>
        <time>2021-01-14T09:20:28.000Z</time>
      </trkpt>
      <trkpt lat="47.32783" lon="-2.38368">
        <ele>31.799999237061</ele>
        <time>2021-01-14T09:20:31.000Z</time>
      </trkpt>
      <trkpt lat="47.32784" lon="-2.38361">
        <ele>31.799999237061</ele>
        <time>2021-01-14T09:20:32.000Z</time>
      </trkpt>
      <trkpt lat="47.32787" lon="-2.38337">
        <ele>31.799999237061</ele>
        <time>2021-01-14T09:20:35.000Z</time>
      </trkpt>
      <trkpt lat="47.32793" lon="-2.38312">
        <ele>31.799999237061</ele>
        <time>2021-01-14T09:20:38.000Z</time>
      </trkpt>
      <trkpt lat="47.32805" lon="-2.38262">
        <ele>31.799999237061</ele>
        <time>2021-01-14T09:20:43.000Z</time>
      </trkpt>
      <trkpt lat="47.32821" lon="-2.38204">
        <ele>31.799999237061</ele>
        <time>2021-01-14T09:20:48.000Z</time>
      </trkpt>
      <trkpt lat="47.32845" lon="-2.38151">
        <ele>31.799999237061</ele>
        <time>2021-01-14T09:20:53.000Z</time>
      </trkpt>
      <trkpt lat="47.32884" lon="-2.38085">
        <ele>31.799999237061</ele>
        <time>2021-01-14T09:21:00.000Z</time>
      </trkpt>
      <trkpt lat="47.3292" lon="-2.38022">
        <ele>31.799999237061</ele>
        <time>2021-01-14T09:21:07.000Z</time>
      </trkpt>
      <trkpt lat="47.32942" lon="-2.37994">
        <ele>31.799999237061</ele>
        <time>2021-01-14T09:21:11.000Z</time>
      </trkpt>
      <trkpt lat="47.32969" lon="-2.37955">
        <ele>31.799999237061</ele>
        <time>2021-01-14T09:21:17.000Z</time>
      </trkpt>
      <trkpt lat="47.32997" lon="-2.37911">
        <ele>31.799999237061</ele>
        <time>2021-01-14T09:21:23.000Z</time>
      </trkpt>
      <trkpt lat="47.3302" lon="-2.37866">
        <ele>31.799999237061</ele>
        <time>2021-01-14T09:21:29.000Z</time>
      </trkpt>
      <trkpt lat="47.33023" lon="-2.37859">
        <ele>31.799999237061</ele>
        <time>2021-01-14T09:21:30.000Z</time>
      </trkpt>
      <trkpt lat="47.33026" lon="-2.37852">
        <ele>31.799999237061</ele>
        <time>2021-01-14T09:21:31.000Z</time>
      </trkpt>
      <trkpt lat="47.33039" lon="-2.37835">
        <ele>31.799999237061</ele>
        <time>2021-01-14T09:21:34.000Z</time>
      </trkpt>
      <trkpt lat="47.33078" lon="-2.37794">
        <ele>31.799999237061</ele>
        <time>2021-01-14T09:21:42.000Z</time>
      </trkpt>
      <trkpt lat="47.33116" lon="-2.37752">
        <ele>31.799999237061</ele>
        <time>2021-01-14T09:21:50.000Z</time>
      </trkpt>
      <trkpt lat="47.33124" lon="-2.37743">
        <ele>31.799999237061</ele>
        <time>2021-01-14T09:21:52.000Z</time>
      </trkpt>
      <trkpt lat="47.33128" lon="-2.3774">
        <ele>31.39999961853</ele>
        <time>2021-01-14T09:21:53.000Z</time>
      </trkpt>
      <trkpt lat="47.33133" lon="-2.37737">
        <ele>31</ele>
        <time>2021-01-14T09:21:54.000Z</time>
      </trkpt>
      <trkpt lat="47.33138" lon="-2.37735">
        <ele>30.60000038147</ele>
        <time>2021-01-14T09:21:55.000Z</time>
      </trkpt>
      <trkpt lat="47.33143" lon="-2.37734">
        <ele>30.200000762939</ele>
        <time>2021-01-14T09:21:56.000Z</time>
      </trkpt>
      <trkpt lat="47.33148" lon="-2.37735">
        <ele>29.799999237061</ele>
        <time>2021-01-14T09:21:57.000Z</time>
      </trkpt>
      <trkpt lat="47.33153" lon="-2.37737">
        <ele>29.799999237061</ele>
        <time>2021-01-14T09:21:58.000Z</time>
      </trkpt>
      <trkpt lat="47.33158" lon="-2.37739">
        <ele>29.799999237061</ele>
        <time>2021-01-14T09:21:59.000Z</time>
      </trkpt>
      <trkpt lat="47.33172" lon="-2.37754">
        <ele>29.799999237061</ele>
        <time>2021-01-14T09:22:02.000Z</time>
      </trkpt>
      <trkpt lat="47.33175" lon="-2.3776">
        <ele>29.799999237061</ele>
        <time>2021-01-14T09:22:03.000Z</time>
      </trkpt>
      <trkpt lat="47.33196" lon="-2.37798">
        <ele>29.799999237061</ele>
        <time>2021-01-14T09:22:09.000Z</time>
      </trkpt>
      <trkpt lat="47.33204" lon="-2.3781">
        <ele>29.799999237061</ele>
        <time>2021-01-14T09:22:11.000Z</time>
      </trkpt>
      <trkpt lat="47.33214" lon="-2.37825">
        <ele>29.799999237061</ele>
        <time>2021-01-14T09:22:14.000Z</time>
      </trkpt>
      <trkpt lat="47.33237" lon="-2.37857">
        <ele>29.799999237061</ele>
        <time>2021-01-14T09:22:20.000Z</time>
      </trkpt>
      <trkpt lat="47.33265" lon="-2.37883">
        <ele>29.799999237061</ele>
        <time>2021-01-14T09:22:27.000Z</time>
      </trkpt>
      <trkpt lat="47.33283" lon="-2.37903">
        <ele>29.799999237061</ele>
        <time>2021-01-14T09:22:32.000Z</time>
      </trkpt>
      <trkpt lat="47.3329" lon="-2.37912">
        <ele>29.799999237061</ele>
        <time>2021-01-14T09:22:34.000Z</time>
      </trkpt>
      <trkpt lat="47.33313" lon="-2.37945">
        <ele>29.799999237061</ele>
        <time>2021-01-14T09:22:41.000Z</time>
      </trkpt>
      <trkpt lat="47.33316" lon="-2.3795">
        <ele>29.799999237061</ele>
        <time>2021-01-14T09:22:42.000Z</time>
      </trkpt>
      <trkpt lat="47.33327" lon="-2.37959">
        <ele>29.799999237061</ele>
        <time>2021-01-14T09:22:45.000Z</time>
      </trkpt>
      <trkpt lat="47.33335" lon="-2.37961">
        <ele>29.799999237061</ele>
        <time>2021-01-14T09:22:47.000Z</time>
      </trkpt>
      <trkpt lat="47.33342" lon="-2.37962">
        <ele>29.799999237061</ele>
        <time>2021-01-14T09:22:50.000Z</time>
      </trkpt>
      <trkpt lat="47.33345" lon="-2.37962">
        <ele>29.799999237061</ele>
        <time>2021-01-14T09:22:54.000Z</time>
      </trkpt>
      <trkpt lat="47.33347" lon="-2.37964">
        <ele>29.799999237061</ele>
        <time>2021-01-14T09:23:09.000Z</time>
      </trkpt>
      <trkpt lat="47.33352" lon="-2.37977">
        <ele>29.799999237061</ele>
        <time>2021-01-14T09:23:14.000Z</time>
      </trkpt>
      <trkpt lat="47.33356" lon="-2.38013">
        <ele>29.799999237061</ele>
        <time>2021-01-14T09:23:21.000Z</time>
      </trkpt>
      <trkpt lat="47.33363" lon="-2.3805">
        <ele>29.799999237061</ele>
        <time>2021-01-14T09:23:28.000Z</time>
      </trkpt>
      <trkpt lat="47.33368" lon="-2.38072">
        <ele>29.799999237061</ele>
        <time>2021-01-14T09:23:32.000Z</time>
      </trkpt>
      <trkpt lat="47.3337" lon="-2.38078">
        <ele>29.799999237061</ele>
        <time>2021-01-14T09:23:33.000Z</time>
      </trkpt>
      <trkpt lat="47.33374" lon="-2.38089">
        <ele>29.799999237061</ele>
        <time>2021-01-14T09:23:35.000Z</time>
      </trkpt>
      <trkpt lat="47.33381" lon="-2.381">
        <ele>29.799999237061</ele>
        <time>2021-01-14T09:23:37.000Z</time>
      </trkpt>
      <trkpt lat="47.33386" lon="-2.38111">
        <ele>29.799999237061</ele>
        <time>2021-01-14T09:23:39.000Z</time>
      </trkpt>
      <trkpt lat="47.33397" lon="-2.38137">
        <ele>29.799999237061</ele>
        <time>2021-01-14T09:23:44.000Z</time>
      </trkpt>
      <trkpt lat="47.33403" lon="-2.38152">
        <ele>29.799999237061</ele>
        <time>2021-01-14T09:23:47.000Z</time>
      </trkpt>
      <trkpt lat="47.33407" lon="-2.3817">
        <ele>29.799999237061</ele>
        <time>2021-01-14T09:23:50.000Z</time>
      </trkpt>
      <trkpt lat="47.33412" lon="-2.38218">
        <ele>29.799999237061</ele>
        <time>2021-01-14T09:23:57.000Z</time>
      </trkpt>
      <trkpt lat="47.33413" lon="-2.38225">
        <ele>29.799999237061</ele>
        <time>2021-01-14T09:23:58.000Z</time>
      </trkpt>
      <trkpt lat="47.33415" lon="-2.38253">
        <ele>29.799999237061</ele>
        <time>2021-01-14T09:24:02.000Z</time>
      </trkpt>
      <trkpt lat="47.33416" lon="-2.3826">
        <ele>29.799999237061</ele>
        <time>2021-01-14T09:24:03.000Z</time>
      </trkpt>
      <trkpt lat="47.33424" lon="-2.3831">
        <ele>29.799999237061</ele>
        <time>2021-01-14T09:24:10.000Z</time>
      </trkpt>
      <trkpt lat="47.33436" lon="-2.38377">
        <ele>29.799999237061</ele>
        <time>2021-01-14T09:24:20.000Z</time>
      </trkpt>
      <trkpt lat="47.33439" lon="-2.38392">
        <ele>29.799999237061</ele>
        <time>2021-01-14T09:24:24.000Z</time>
      </trkpt>
      <trkpt lat="47.33438" lon="-2.38414">
        <ele>29.799999237061</ele>
        <time>2021-01-14T09:24:28.000Z</time>
      </trkpt>
      <trkpt lat="47.33433" lon="-2.38465">
        <ele>29.799999237061</ele>
        <time>2021-01-14T09:24:35.000Z</time>
      </trkpt>
      <trkpt lat="47.33426" lon="-2.3852">
        <ele>29.799999237061</ele>
        <time>2021-01-14T09:24:42.000Z</time>
      </trkpt>
      <trkpt lat="47.33418" lon="-2.38585">
        <ele>29.799999237061</ele>
        <time>2021-01-14T09:24:50.000Z</time>
      </trkpt>
      <trkpt lat="47.3341" lon="-2.38644">
        <ele>29.799999237061</ele>
        <time>2021-01-14T09:24:57.000Z</time>
      </trkpt>
      <trkpt lat="47.334" lon="-2.38721">
        <ele>29.799999237061</ele>
        <time>2021-01-14T09:25:06.000Z</time>
      </trkpt>
      <trkpt lat="47.33394" lon="-2.38777">
        <ele>29.799999237061</ele>
        <time>2021-01-14T09:25:13.000Z</time>
      </trkpt>
      <trkpt lat="47.33388" lon="-2.38822">
        <ele>29.799999237061</ele>
        <time>2021-01-14T09:25:19.000Z</time>
      </trkpt>
      <trkpt lat="47.33384" lon="-2.38863">
        <ele>29.799999237061</ele>
        <time>2021-01-14T09:25:24.000Z</time>
      </trkpt>
      <trkpt lat="47.33377" lon="-2.38922">
        <ele>29.799999237061</ele>
        <time>2021-01-14T09:25:32.000Z</time>
      </trkpt>
      <trkpt lat="47.3337" lon="-2.38978">
        <ele>29.799999237061</ele>
        <time>2021-01-14T09:25:40.000Z</time>
      </trkpt>
      <trkpt lat="47.33365" lon="-2.39028">
        <ele>29.799999237061</ele>
        <time>2021-01-14T09:25:47.000Z</time>
      </trkpt>
      <trkpt lat="47.33361" lon="-2.39048">
        <ele>30.200000762939</ele>
        <time>2021-01-14T09:25:50.000Z</time>
      </trkpt>
      <trkpt lat="47.3336" lon="-2.39054">
        <ele>30.60000038147</ele>
        <time>2021-01-14T09:25:51.000Z</time>
      </trkpt>
      <trkpt lat="47.33358" lon="-2.3906">
        <ele>31</ele>
        <time>2021-01-14T09:25:52.000Z</time>
      </trkpt>
      <trkpt lat="47.33357" lon="-2.39067">
        <ele>31.39999961853</ele>
        <time>2021-01-14T09:25:53.000Z</time>
      </trkpt>
      <trkpt lat="47.33355" lon="-2.39073">
        <ele>31.799999237061</ele>
        <time>2021-01-14T09:25:54.000Z</time>
      </trkpt>
      <trkpt lat="47.33351" lon="-2.39093">
        <ele>31.799999237061</ele>
        <time>2021-01-14T09:25:57.000Z</time>
      </trkpt>
      <trkpt lat="47.33348" lon="-2.39116">
        <ele>31.799999237061</ele>
        <time>2021-01-14T09:26:00.000Z</time>
      </trkpt>
      <trkpt lat="47.3334" lon="-2.39159">
        <ele>31.799999237061</ele>
        <time>2021-01-14T09:26:06.000Z</time>
      </trkpt>
      <trkpt lat="47.33333" lon="-2.39191">
        <ele>31.799999237061</ele>
        <time>2021-01-14T09:26:11.000Z</time>
      </trkpt>
      <trkpt lat="47.3332" lon="-2.39246">
        <ele>31.799999237061</ele>
        <time>2021-01-14T09:26:19.000Z</time>
      </trkpt>
      <trkpt lat="47.33306" lon="-2.39307">
        <ele>31.799999237061</ele>
        <time>2021-01-14T09:26:28.000Z</time>
      </trkpt>
      <trkpt lat="47.33295" lon="-2.39354">
        <ele>31.799999237061</ele>
        <time>2021-01-14T09:26:35.000Z</time>
      </trkpt>
      <trkpt lat="47.33285" lon="-2.39402">
        <ele>31.799999237061</ele>
        <time>2021-01-14T09:26:42.000Z</time>
      </trkpt>
      <trkpt lat="47.3328" lon="-2.3943">
        <ele>31.799999237061</ele>
        <time>2021-01-14T09:26:47.000Z</time>
      </trkpt>
      <trkpt lat="47.3329" lon="-2.39439">
        <ele>31.799999237061</ele>
        <time>2021-01-14T09:26:51.000Z</time>
      </trkpt>
      <trkpt lat="47.33293" lon="-2.39438">
        <ele>31.799999237061</ele>
        <time>2021-01-14T09:26:52.000Z</time>
      </trkpt>
      <trkpt lat="47.33301" lon="-2.39439">
        <ele>31.799999237061</ele>
        <time>2021-01-14T09:26:54.000Z</time>
      </trkpt>
      <trkpt lat="47.33305" lon="-2.39438">
        <ele>31.799999237061</ele>
        <time>2021-01-14T09:26:55.000Z</time>
      </trkpt>
      <trkpt lat="47.33328" lon="-2.39435">
        <ele>31.799999237061</ele>
        <time>2021-01-14T09:27:01.000Z</time>
      </trkpt>
      <trkpt lat="47.33336" lon="-2.39432">
        <ele>31.799999237061</ele>
        <time>2021-01-14T09:27:03.000Z</time>
      </trkpt>
      <trkpt lat="47.33353" lon="-2.39426">
        <ele>31.799999237061</ele>
        <time>2021-01-14T09:27:07.000Z</time>
      </trkpt>
      <trkpt lat="47.33383" lon="-2.39415">
        <ele>31.799999237061</ele>
        <time>2021-01-14T09:27:15.000Z</time>
      </trkpt>
      <trkpt lat="47.33406" lon="-2.39404">
        <ele>31.799999237061</ele>
        <time>2021-01-14T09:27:21.000Z</time>
      </trkpt>
      <trkpt lat="47.33434" lon="-2.39393">
        <ele>31.799999237061</ele>
        <time>2021-01-14T09:27:27.000Z</time>
      </trkpt>
      <trkpt lat="47.33461" lon="-2.39384">
        <ele>31.799999237061</ele>
        <time>2021-01-14T09:27:33.000Z</time>
      </trkpt>
      <trkpt lat="47.33495" lon="-2.39375">
        <ele>31.799999237061</ele>
        <time>2021-01-14T09:27:41.000Z</time>
      </trkpt>
      <trkpt lat="47.33499" lon="-2.39374">
        <ele>31.799999237061</ele>
        <time>2021-01-14T09:27:42.000Z</time>
      </trkpt>
      <trkpt lat="47.33523" lon="-2.39372">
        <ele>31.799999237061</ele>
        <time>2021-01-14T09:27:47.000Z</time>
      </trkpt>
      <trkpt lat="47.33557" lon="-2.39365">
        <ele>31.799999237061</ele>
        <time>2021-01-14T09:27:54.000Z</time>
      </trkpt>
      <trkpt lat="47.33562" lon="-2.39363">
        <ele>31.799999237061</ele>
        <time>2021-01-14T09:27:55.000Z</time>
      </trkpt>
      <trkpt lat="47.33606" lon="-2.39344">
        <ele>31.799999237061</ele>
        <time>2021-01-14T09:28:04.000Z</time>
      </trkpt>
      <trkpt lat="47.33633" lon="-2.39327">
        <ele>31.799999237061</ele>
        <time>2021-01-14T09:28:10.000Z</time>
      </trkpt>
      <trkpt lat="47.33641" lon="-2.39319">
        <ele>31.799999237061</ele>
        <time>2021-01-14T09:28:12.000Z</time>
      </trkpt>
      <trkpt lat="47.33658" lon="-2.39301">
        <ele>31.799999237061</ele>
        <time>2021-01-14T09:28:16.000Z</time>
      </trkpt>
      <trkpt lat="47.33667" lon="-2.39296">
        <ele>31.799999237061</ele>
        <time>2021-01-14T09:28:18.000Z</time>
      </trkpt>
      <trkpt lat="47.33682" lon="-2.39298">
        <ele>31.799999237061</ele>
        <time>2021-01-14T09:28:21.000Z</time>
      </trkpt>
      <trkpt lat="47.33686" lon="-2.39299">
        <ele>31.799999237061</ele>
        <time>2021-01-14T09:28:22.000Z</time>
      </trkpt>
      <trkpt lat="47.33707" lon="-2.39305">
        <ele>31.799999237061</ele>
        <time>2021-01-14T09:28:28.000Z</time>
      </trkpt>
      <trkpt lat="47.33733" lon="-2.39305">
        <ele>31.799999237061</ele>
        <time>2021-01-14T09:28:36.000Z</time>
      </trkpt>
      <trkpt lat="47.33746" lon="-2.39303">
        <ele>31.799999237061</ele>
        <time>2021-01-14T09:28:39.000Z</time>
      </trkpt>
      <trkpt lat="47.33756" lon="-2.39302">
        <ele>31.799999237061</ele>
        <time>2021-01-14T09:28:41.000Z</time>
      </trkpt>
      <trkpt lat="47.33791" lon="-2.39295">
        <ele>31.799999237061</ele>
        <time>2021-01-14T09:28:47.000Z</time>
      </trkpt>
      <trkpt lat="47.33833" lon="-2.3929">
        <ele>31.799999237061</ele>
        <time>2021-01-14T09:28:53.000Z</time>
      </trkpt>
      <trkpt lat="47.3386" lon="-2.39285">
        <ele>31.799999237061</ele>
        <time>2021-01-14T09:28:57.000Z</time>
      </trkpt>
      <trkpt lat="47.33867" lon="-2.39284">
        <ele>31.799999237061</ele>
        <time>2021-01-14T09:28:58.000Z</time>
      </trkpt>
      <trkpt lat="47.33897" lon="-2.39278">
        <ele>31.799999237061</ele>
        <time>2021-01-14T09:29:03.000Z</time>
      </trkpt>
      <trkpt lat="47.33933" lon="-2.39269">
        <ele>31.799999237061</ele>
        <time>2021-01-14T09:29:09.000Z</time>
      </trkpt>
      <trkpt lat="47.33983" lon="-2.39259">
        <ele>31.799999237061</ele>
        <time>2021-01-14T09:29:17.000Z</time>
      </trkpt>
      <trkpt lat="47.34022" lon="-2.39253">
        <ele>31.799999237061</ele>
        <time>2021-01-14T09:29:23.000Z</time>
      </trkpt>
      <trkpt lat="47.34028" lon="-2.39253">
        <ele>31.799999237061</ele>
        <time>2021-01-14T09:29:24.000Z</time>
      </trkpt>
      <trkpt lat="47.34054" lon="-2.39254">
        <ele>31.799999237061</ele>
        <time>2021-01-14T09:29:28.000Z</time>
      </trkpt>
      <trkpt lat="47.34066" lon="-2.39265">
        <ele>31.799999237061</ele>
        <time>2021-01-14T09:29:31.000Z</time>
      </trkpt>
      <trkpt lat="47.34072" lon="-2.39294">
        <ele>31.799999237061</ele>
        <time>2021-01-14T09:29:35.000Z</time>
      </trkpt>
      <trkpt lat="47.34073" lon="-2.39303">
        <ele>31.799999237061</ele>
        <time>2021-01-14T09:29:36.000Z</time>
      </trkpt>
      <trkpt lat="47.34079" lon="-2.39338">
        <ele>31.799999237061</ele>
        <time>2021-01-14T09:29:40.000Z</time>
      </trkpt>
      <trkpt lat="47.34087" lon="-2.39388">
        <ele>31.799999237061</ele>
        <time>2021-01-14T09:29:46.000Z</time>
      </trkpt>
      <trkpt lat="47.34089" lon="-2.39395">
        <ele>31.799999237061</ele>
        <time>2021-01-14T09:29:47.000Z</time>
      </trkpt>
      <trkpt lat="47.3409" lon="-2.39403">
        <ele>31.799999237061</ele>
        <time>2021-01-14T09:29:48.000Z</time>
      </trkpt>
      <trkpt lat="47.34093" lon="-2.39417">
        <ele>31.799999237061</ele>
        <time>2021-01-14T09:29:50.000Z</time>
      </trkpt>
      <trkpt lat="47.34095" lon="-2.39423">
        <ele>31.799999237061</ele>
        <time>2021-01-14T09:29:51.000Z</time>
      </trkpt>
      <trkpt lat="47.34105" lon="-2.39427">
        <ele>31.799999237061</ele>
        <time>2021-01-14T09:29:54.000Z</time>
      </trkpt>
      <trkpt lat="47.34117" lon="-2.39421">
        <ele>31.799999237061</ele>
        <time>2021-01-14T09:29:57.000Z</time>
      </trkpt>
      <trkpt lat="47.34131" lon="-2.39412">
        <ele>31.799999237061</ele>
        <time>2021-01-14T09:30:00.000Z</time>
      </trkpt>
      <trkpt lat="47.34153" lon="-2.39397">
        <ele>31.799999237061</ele>
        <time>2021-01-14T09:30:05.000Z</time>
      </trkpt>
      <trkpt lat="47.34181" lon="-2.39378">
        <ele>31.799999237061</ele>
        <time>2021-01-14T09:30:11.000Z</time>
      </trkpt>
      <trkpt lat="47.34195" lon="-2.39368">
        <ele>31.799999237061</ele>
        <time>2021-01-14T09:30:14.000Z</time>
      </trkpt>
      <trkpt lat="47.3421" lon="-2.39359">
        <ele>31.799999237061</ele>
        <time>2021-01-14T09:30:17.000Z</time>
      </trkpt>
      <trkpt lat="47.34236" lon="-2.3934">
        <ele>31.799999237061</ele>
        <time>2021-01-14T09:30:22.000Z</time>
      </trkpt>
      <trkpt lat="47.34272" lon="-2.39317">
        <ele>31.799999237061</ele>
        <time>2021-01-14T09:30:28.000Z</time>
      </trkpt>
      <trkpt lat="47.34317" lon="-2.39293">
        <ele>31.799999237061</ele>
        <time>2021-01-14T09:30:35.000Z</time>
      </trkpt>
      <trkpt lat="47.34363" lon="-2.39268">
        <ele>31.799999237061</ele>
        <time>2021-01-14T09:30:42.000Z</time>
      </trkpt>
      <trkpt lat="47.34416" lon="-2.39245">
        <ele>31.799999237061</ele>
        <time>2021-01-14T09:30:49.000Z</time>
      </trkpt>
      <trkpt lat="47.34463" lon="-2.39233">
        <ele>31.799999237061</ele>
        <time>2021-01-14T09:30:55.000Z</time>
      </trkpt>
      <trkpt lat="47.34494" lon="-2.39223">
        <ele>31.39999961853</ele>
        <time>2021-01-14T09:30:59.000Z</time>
      </trkpt>
      <trkpt lat="47.34503" lon="-2.39222">
        <ele>31</ele>
        <time>2021-01-14T09:31:00.000Z</time>
      </trkpt>
      <trkpt lat="47.34511" lon="-2.39222">
        <ele>30.60000038147</ele>
        <time>2021-01-14T09:31:01.000Z</time>
      </trkpt>
      <trkpt lat="47.34519" lon="-2.39222">
        <ele>30</ele>
        <time>2021-01-14T09:31:02.000Z</time>
      </trkpt>
      <trkpt lat="47.34527" lon="-2.39221">
        <ele>29.60000038147</ele>
        <time>2021-01-14T09:31:03.000Z</time>
      </trkpt>
      <trkpt lat="47.34561" lon="-2.39228">
        <ele>29.60000038147</ele>
        <time>2021-01-14T09:31:07.000Z</time>
      </trkpt>
      <trkpt lat="47.346" lon="-2.39251">
        <ele>29.60000038147</ele>
        <time>2021-01-14T09:31:12.000Z</time>
      </trkpt>
      <trkpt lat="47.34636" lon="-2.39279">
        <ele>29.60000038147</ele>
        <time>2021-01-14T09:31:18.000Z</time>
      </trkpt>
      <trkpt lat="47.34651" lon="-2.39295">
        <ele>29.60000038147</ele>
        <time>2021-01-14T09:31:22.000Z</time>
      </trkpt>
      <trkpt lat="47.34658" lon="-2.39298">
        <ele>29.60000038147</ele>
        <time>2021-01-14T09:31:26.000Z</time>
      </trkpt>
      <trkpt lat="47.34662" lon="-2.39304">
        <ele>29.60000038147</ele>
        <time>2021-01-14T09:31:31.000Z</time>
      </trkpt>
      <trkpt lat="47.3466" lon="-2.39318">
        <ele>29.60000038147</ele>
        <time>2021-01-14T09:31:36.000Z</time>
      </trkpt>
      <trkpt lat="47.34654" lon="-2.39327">
        <ele>29.60000038147</ele>
        <time>2021-01-14T09:31:39.000Z</time>
      </trkpt>
      <trkpt lat="47.34645" lon="-2.39341">
        <ele>29.60000038147</ele>
        <time>2021-01-14T09:31:43.000Z</time>
      </trkpt>
      <trkpt lat="47.34629" lon="-2.39365">
        <ele>29.60000038147</ele>
        <time>2021-01-14T09:31:49.000Z</time>
      </trkpt>
      <trkpt lat="47.34619" lon="-2.39382">
        <ele>29.60000038147</ele>
        <time>2021-01-14T09:31:54.000Z</time>
      </trkpt>
      <trkpt lat="47.34605" lon="-2.39406">
        <ele>29.60000038147</ele>
        <time>2021-01-14T09:32:00.000Z</time>
      </trkpt>
      <trkpt lat="47.34589" lon="-2.39431">
        <ele>29.60000038147</ele>
        <time>2021-01-14T09:32:07.000Z</time>
      </trkpt>
      <trkpt lat="47.34573" lon="-2.39449">
        <ele>29.60000038147</ele>
        <time>2021-01-14T09:32:13.000Z</time>
      </trkpt>
      <trkpt lat="47.34557" lon="-2.39466">
        <ele>29.200000762939</ele>
        <time>2021-01-14T09:32:19.000Z</time>
      </trkpt>
      <trkpt lat="47.34556" lon="-2.39469">
        <ele>28.799999237061</ele>
        <time>2021-01-14T09:32:20.000Z</time>
      </trkpt>
      <trkpt lat="47.34555" lon="-2.39473">
        <ele>28.39999961853</ele>
        <time>2021-01-14T09:32:21.000Z</time>
      </trkpt>
      <trkpt lat="47.34554" lon="-2.39477">
        <ele>28</ele>
        <time>2021-01-14T09:32:22.000Z</time>
      </trkpt>
      <trkpt lat="47.34553" lon="-2.39481">
        <ele>27.60000038147</ele>
        <time>2021-01-14T09:32:23.000Z</time>
      </trkpt>
      <trkpt lat="47.3455" lon="-2.39493">
        <ele>27.60000038147</ele>
        <time>2021-01-14T09:32:26.000Z</time>
      </trkpt>
      <trkpt lat="47.34548" lon="-2.39522">
        <ele>27.60000038147</ele>
        <time>2021-01-14T09:32:33.000Z</time>
      </trkpt>
      <trkpt lat="47.34545" lon="-2.39544">
        <ele>27.60000038147</ele>
        <time>2021-01-14T09:32:39.000Z</time>
      </trkpt>
      <trkpt lat="47.34539" lon="-2.39569">
        <ele>27.60000038147</ele>
        <time>2021-01-14T09:32:45.000Z</time>
      </trkpt>
      <trkpt lat="47.34526" lon="-2.39598">
        <ele>27.60000038147</ele>
        <time>2021-01-14T09:32:52.000Z</time>
      </trkpt>
      <trkpt lat="47.34514" lon="-2.39627">
        <ele>27.60000038147</ele>
        <time>2021-01-14T09:32:58.000Z</time>
      </trkpt>
      <trkpt lat="47.34498" lon="-2.39657">
        <ele>27.60000038147</ele>
        <time>2021-01-14T09:33:04.000Z</time>
      </trkpt>
      <trkpt lat="47.34486" lon="-2.39678">
        <ele>27.60000038147</ele>
        <time>2021-01-14T09:33:08.000Z</time>
      </trkpt>
      <trkpt lat="47.34479" lon="-2.39697">
        <ele>27.60000038147</ele>
        <time>2021-01-14T09:33:11.000Z</time>
      </trkpt>
      <trkpt lat="47.34477" lon="-2.39704">
        <ele>27.60000038147</ele>
        <time>2021-01-14T09:33:12.000Z</time>
      </trkpt>
      <trkpt lat="47.34474" lon="-2.39726">
        <ele>27.60000038147</ele>
        <time>2021-01-14T09:33:15.000Z</time>
      </trkpt>
      <trkpt lat="47.34473" lon="-2.39732">
        <ele>27.60000038147</ele>
        <time>2021-01-14T09:33:16.000Z</time>
      </trkpt>
      <trkpt lat="47.34471" lon="-2.39759">
        <ele>27.60000038147</ele>
        <time>2021-01-14T09:33:22.000Z</time>
      </trkpt>
      <trkpt lat="47.34472" lon="-2.39762">
        <ele>27.60000038147</ele>
        <time>2021-01-14T09:33:23.000Z</time>
      </trkpt>
      <trkpt lat="47.34478" lon="-2.39766">
        <ele>27.60000038147</ele>
        <time>2021-01-14T09:33:26.000Z</time>
      </trkpt>
      <trkpt lat="47.3448" lon="-2.39767">
        <ele>27.60000038147</ele>
        <time>2021-01-14T09:33:27.000Z</time>
      </trkpt>
      <trkpt lat="47.34498" lon="-2.39776">
        <ele>27.60000038147</ele>
        <time>2021-01-14T09:33:32.000Z</time>
      </trkpt>
      <trkpt lat="47.34504" lon="-2.39779">
        <ele>27.200000762939</ele>
        <time>2021-01-14T09:33:34.000Z</time>
      </trkpt>
      <trkpt lat="47.34508" lon="-2.39781">
        <ele>26.799999237061</ele>
        <time>2021-01-14T09:33:35.000Z</time>
      </trkpt>
      <trkpt lat="47.34511" lon="-2.39783">
        <ele>26.39999961853</ele>
        <time>2021-01-14T09:33:36.000Z</time>
      </trkpt>
      <trkpt lat="47.34515" lon="-2.39785">
        <ele>26</ele>
        <time>2021-01-14T09:33:37.000Z</time>
      </trkpt>
      <trkpt lat="47.34518" lon="-2.39788">
        <ele>25.60000038147</ele>
        <time>2021-01-14T09:33:38.000Z</time>
      </trkpt>
      <trkpt lat="47.34523" lon="-2.39793">
        <ele>25.60000038147</ele>
        <time>2021-01-14T09:33:40.000Z</time>
      </trkpt>
      <trkpt lat="47.34539" lon="-2.39808">
        <ele>25.60000038147</ele>
        <time>2021-01-14T09:33:46.000Z</time>
      </trkpt>
      <trkpt lat="47.34564" lon="-2.39831">
        <ele>25.60000038147</ele>
        <time>2021-01-14T09:33:53.000Z</time>
      </trkpt>
      <trkpt lat="47.34592" lon="-2.39852">
        <ele>25.60000038147</ele>
        <time>2021-01-14T09:34:00.000Z</time>
      </trkpt>
      <trkpt lat="47.34606" lon="-2.39859">
        <ele>25.60000038147</ele>
        <time>2021-01-14T09:34:03.000Z</time>
      </trkpt>
      <trkpt lat="47.34612" lon="-2.39867">
        <ele>25.60000038147</ele>
        <time>2021-01-14T09:34:05.000Z</time>
      </trkpt>
      <trkpt lat="47.34612" lon="-2.39879">
        <ele>25.60000038147</ele>
        <time>2021-01-14T09:34:08.000Z</time>
      </trkpt>
      <trkpt lat="47.34608" lon="-2.39899">
        <ele>25.60000038147</ele>
        <time>2021-01-14T09:34:12.000Z</time>
      </trkpt>
      <trkpt lat="47.34607" lon="-2.39904">
        <ele>25.60000038147</ele>
        <time>2021-01-14T09:34:13.000Z</time>
      </trkpt>
      <trkpt lat="47.34596" lon="-2.39944">
        <ele>25.60000038147</ele>
        <time>2021-01-14T09:34:20.000Z</time>
      </trkpt>
      <trkpt lat="47.34591" lon="-2.39971">
        <ele>25.60000038147</ele>
        <time>2021-01-14T09:34:25.000Z</time>
      </trkpt>
      <trkpt lat="47.34589" lon="-2.39977">
        <ele>25.60000038147</ele>
        <time>2021-01-14T09:34:26.000Z</time>
      </trkpt>
      <trkpt lat="47.3459" lon="-2.39995">
        <ele>25.60000038147</ele>
        <time>2021-01-14T09:34:29.000Z</time>
      </trkpt>
      <trkpt lat="47.34596" lon="-2.40006">
        <ele>25.60000038147</ele>
        <time>2021-01-14T09:34:31.000Z</time>
      </trkpt>
      <trkpt lat="47.34609" lon="-2.40026">
        <ele>25.60000038147</ele>
        <time>2021-01-14T09:34:35.000Z</time>
      </trkpt>
      <trkpt lat="47.34617" lon="-2.40043">
        <ele>25.60000038147</ele>
        <time>2021-01-14T09:34:38.000Z</time>
      </trkpt>
      <trkpt lat="47.34628" lon="-2.4006">
        <ele>25.60000038147</ele>
        <time>2021-01-14T09:34:41.000Z</time>
      </trkpt>
      <trkpt lat="47.34645" lon="-2.40088">
        <ele>25.200000762939</ele>
        <time>2021-01-14T09:34:46.000Z</time>
      </trkpt>
      <trkpt lat="47.34648" lon="-2.40094">
        <ele>24.799999237061</ele>
        <time>2021-01-14T09:34:47.000Z</time>
      </trkpt>
      <trkpt lat="47.34652" lon="-2.401">
        <ele>24.39999961853</ele>
        <time>2021-01-14T09:34:48.000Z</time>
      </trkpt>
      <trkpt lat="47.34656" lon="-2.40105">
        <ele>24</ele>
        <time>2021-01-14T09:34:49.000Z</time>
      </trkpt>
      <trkpt lat="47.3466" lon="-2.4011">
        <ele>23.60000038147</ele>
        <time>2021-01-14T09:34:50.000Z</time>
      </trkpt>
      <trkpt lat="47.34672" lon="-2.4012">
        <ele>23.60000038147</ele>
        <time>2021-01-14T09:34:53.000Z</time>
      </trkpt>
      <trkpt lat="47.34682" lon="-2.40124">
        <ele>23.60000038147</ele>
        <time>2021-01-14T09:34:55.000Z</time>
      </trkpt>
      <trkpt lat="47.3469" lon="-2.40125">
        <ele>23.60000038147</ele>
        <time>2021-01-14T09:34:57.000Z</time>
      </trkpt>
      <trkpt lat="47.34699" lon="-2.40126">
        <ele>23.60000038147</ele>
        <time>2021-01-14T09:34:59.000Z</time>
      </trkpt>
      <trkpt lat="47.34704" lon="-2.40127">
        <ele>23.60000038147</ele>
        <time>2021-01-14T09:35:00.000Z</time>
      </trkpt>
      <trkpt lat="47.34723" lon="-2.40136">
        <ele>23.60000038147</ele>
        <time>2021-01-14T09:35:04.000Z</time>
      </trkpt>
      <trkpt lat="47.34727" lon="-2.40139">
        <ele>23.60000038147</ele>
        <time>2021-01-14T09:35:05.000Z</time>
      </trkpt>
      <trkpt lat="47.3474" lon="-2.40152">
        <ele>23.60000038147</ele>
        <time>2021-01-14T09:35:08.000Z</time>
      </trkpt>
      <trkpt lat="47.34743" lon="-2.40156">
        <ele>23.60000038147</ele>
        <time>2021-01-14T09:35:09.000Z</time>
      </trkpt>
      <trkpt lat="47.34768" lon="-2.40194">
        <ele>23.60000038147</ele>
        <time>2021-01-14T09:35:17.000Z</time>
      </trkpt>
      <trkpt lat="47.34778" lon="-2.40207">
        <ele>23.60000038147</ele>
        <time>2021-01-14T09:35:20.000Z</time>
      </trkpt>
      <trkpt lat="47.34788" lon="-2.40214">
        <ele>23.60000038147</ele>
        <time>2021-01-14T09:35:22.000Z</time>
      </trkpt>
      <trkpt lat="47.34798" lon="-2.40221">
        <ele>23.60000038147</ele>
        <time>2021-01-14T09:35:24.000Z</time>
      </trkpt>
      <trkpt lat="47.34807" lon="-2.40233">
        <ele>23.60000038147</ele>
        <time>2021-01-14T09:35:26.000Z</time>
      </trkpt>
      <trkpt lat="47.34818" lon="-2.40255">
        <ele>23.60000038147</ele>
        <time>2021-01-14T09:35:29.000Z</time>
      </trkpt>
      <trkpt lat="47.34824" lon="-2.40269">
        <ele>23.60000038147</ele>
        <time>2021-01-14T09:35:31.000Z</time>
      </trkpt>
      <trkpt lat="47.3483" lon="-2.40283">
        <ele>23.60000038147</ele>
        <time>2021-01-14T09:35:33.000Z</time>
      </trkpt>
      <trkpt lat="47.34845" lon="-2.40309">
        <ele>23.60000038147</ele>
        <time>2021-01-14T09:35:37.000Z</time>
      </trkpt>
      <trkpt lat="47.34861" lon="-2.40345">
        <ele>23.60000038147</ele>
        <time>2021-01-14T09:35:42.000Z</time>
      </trkpt>
      <trkpt lat="47.34863" lon="-2.40353">
        <ele>23.60000038147</ele>
        <time>2021-01-14T09:35:43.000Z</time>
      </trkpt>
      <trkpt lat="47.34872" lon="-2.40414">
        <ele>23.60000038147</ele>
        <time>2021-01-14T09:35:49.000Z</time>
      </trkpt>
      <trkpt lat="47.34882" lon="-2.40475">
        <ele>23.200000762939</ele>
        <time>2021-01-14T09:35:55.000Z</time>
      </trkpt>
      <trkpt lat="47.34883" lon="-2.40486">
        <ele>22.39999961853</ele>
        <time>2021-01-14T09:35:56.000Z</time>
      </trkpt>
      <trkpt lat="47.34884" lon="-2.40497">
        <ele>22</ele>
        <time>2021-01-14T09:35:57.000Z</time>
      </trkpt>
      <trkpt lat="47.34886" lon="-2.40509">
        <ele>21.60000038147</ele>
        <time>2021-01-14T09:35:58.000Z</time>
      </trkpt>
      <trkpt lat="47.34889" lon="-2.40542">
        <ele>21.60000038147</ele>
        <time>2021-01-14T09:36:01.000Z</time>
      </trkpt>
      <trkpt lat="47.34888" lon="-2.40552">
        <ele>21.60000038147</ele>
        <time>2021-01-14T09:36:02.000Z</time>
      </trkpt>
      <trkpt lat="47.34878" lon="-2.40575">
        <ele>21.60000038147</ele>
        <time>2021-01-14T09:36:05.000Z</time>
      </trkpt>
      <trkpt lat="47.34868" lon="-2.40587">
        <ele>21.60000038147</ele>
        <time>2021-01-14T09:36:07.000Z</time>
      </trkpt>
      <trkpt lat="47.34853" lon="-2.40603">
        <ele>21.60000038147</ele>
        <time>2021-01-14T09:36:10.000Z</time>
      </trkpt>
      <trkpt lat="47.34841" lon="-2.40623">
        <ele>21.60000038147</ele>
        <time>2021-01-14T09:36:13.000Z</time>
      </trkpt>
      <trkpt lat="47.34835" lon="-2.40639">
        <ele>21.60000038147</ele>
        <time>2021-01-14T09:36:15.000Z</time>
      </trkpt>
      <trkpt lat="47.3483" lon="-2.40663">
        <ele>21.60000038147</ele>
        <time>2021-01-14T09:36:18.000Z</time>
      </trkpt>
      <trkpt lat="47.34827" lon="-2.40679">
        <ele>21.60000038147</ele>
        <time>2021-01-14T09:36:20.000Z</time>
      </trkpt>
      <trkpt lat="47.34823" lon="-2.40732">
        <ele>21.60000038147</ele>
        <time>2021-01-14T09:36:27.000Z</time>
      </trkpt>
      <trkpt lat="47.34831" lon="-2.40765">
        <ele>21.60000038147</ele>
        <time>2021-01-14T09:36:32.000Z</time>
      </trkpt>
      <trkpt lat="47.34834" lon="-2.40771">
        <ele>21.60000038147</ele>
        <time>2021-01-14T09:36:33.000Z</time>
      </trkpt>
      <trkpt lat="47.34849" lon="-2.40775">
        <ele>21.60000038147</ele>
        <time>2021-01-14T09:36:36.000Z</time>
      </trkpt>
      <trkpt lat="47.34854" lon="-2.40774">
        <ele>21.60000038147</ele>
        <time>2021-01-14T09:36:37.000Z</time>
      </trkpt>
      <trkpt lat="47.34872" lon="-2.40775">
        <ele>21.60000038147</ele>
        <time>2021-01-14T09:36:41.000Z</time>
      </trkpt>
      <trkpt lat="47.34886" lon="-2.40778">
        <ele>21.60000038147</ele>
        <time>2021-01-14T09:36:44.000Z</time>
      </trkpt>
      <trkpt lat="47.34894" lon="-2.40784">
        <ele>21.60000038147</ele>
        <time>2021-01-14T09:36:46.000Z</time>
      </trkpt>
      <trkpt lat="47.34918" lon="-2.40815">
        <ele>21.60000038147</ele>
        <time>2021-01-14T09:36:52.000Z</time>
      </trkpt>
      <trkpt lat="47.34935" lon="-2.4086">
        <ele>21.60000038147</ele>
        <time>2021-01-14T09:36:59.000Z</time>
      </trkpt>
      <trkpt lat="47.34944" lon="-2.40891">
        <ele>21.60000038147</ele>
        <time>2021-01-14T09:37:03.000Z</time>
      </trkpt>
      <trkpt lat="47.34945" lon="-2.40899">
        <ele>21.60000038147</ele>
        <time>2021-01-14T09:37:04.000Z</time>
      </trkpt>
      <trkpt lat="47.34948" lon="-2.40922">
        <ele>21.60000038147</ele>
        <time>2021-01-14T09:37:07.000Z</time>
      </trkpt>
      <trkpt lat="47.34947" lon="-2.4094">
        <ele>21.60000038147</ele>
        <time>2021-01-14T09:37:09.000Z</time>
      </trkpt>
      <trkpt lat="47.34941" lon="-2.41008">
        <ele>21.60000038147</ele>
        <time>2021-01-14T09:37:17.000Z</time>
      </trkpt>
      <trkpt lat="47.3494" lon="-2.4105">
        <ele>21.60000038147</ele>
        <time>2021-01-14T09:37:22.000Z</time>
      </trkpt>
      <trkpt lat="47.3494" lon="-2.41058">
        <ele>21.60000038147</ele>
        <time>2021-01-14T09:37:23.000Z</time>
      </trkpt>
      <trkpt lat="47.34948" lon="-2.411">
        <ele>21.60000038147</ele>
        <time>2021-01-14T09:37:28.000Z</time>
      </trkpt>
      <trkpt lat="47.34956" lon="-2.41127">
        <ele>21.60000038147</ele>
        <time>2021-01-14T09:37:31.000Z</time>
      </trkpt>
      <trkpt lat="47.34968" lon="-2.41153">
        <ele>21.60000038147</ele>
        <time>2021-01-14T09:37:34.000Z</time>
      </trkpt>
      <trkpt lat="47.34986" lon="-2.41194">
        <ele>21.60000038147</ele>
        <time>2021-01-14T09:37:39.000Z</time>
      </trkpt>
      <trkpt lat="47.3499" lon="-2.41202">
        <ele>21.60000038147</ele>
        <time>2021-01-14T09:37:40.000Z</time>
      </trkpt>
      <trkpt lat="47.34999" lon="-2.41226">
        <ele>21.60000038147</ele>
        <time>2021-01-14T09:37:43.000Z</time>
      </trkpt>
      <trkpt lat="47.35009" lon="-2.4125">
        <ele>21.60000038147</ele>
        <time>2021-01-14T09:37:46.000Z</time>
      </trkpt>
      <trkpt lat="47.35031" lon="-2.41306">
        <ele>21.60000038147</ele>
        <time>2021-01-14T09:37:53.000Z</time>
      </trkpt>
      <trkpt lat="47.35044" lon="-2.41337">
        <ele>21.200000762939</ele>
        <time>2021-01-14T09:37:57.000Z</time>
      </trkpt>
      <trkpt lat="47.35048" lon="-2.41344">
        <ele>20.799999237061</ele>
        <time>2021-01-14T09:37:58.000Z</time>
      </trkpt>
      <trkpt lat="47.35051" lon="-2.41352">
        <ele>20.39999961853</ele>
        <time>2021-01-14T09:37:59.000Z</time>
      </trkpt>
      <trkpt lat="47.35054" lon="-2.41359">
        <ele>19.60000038147</ele>
        <time>2021-01-14T09:38:00.000Z</time>
      </trkpt>
      <trkpt lat="47.35062" lon="-2.41375">
        <ele>19.60000038147</ele>
        <time>2021-01-14T09:38:02.000Z</time>
      </trkpt>
      <trkpt lat="47.35069" lon="-2.41386">
        <ele>19.60000038147</ele>
        <time>2021-01-14T09:38:04.000Z</time>
      </trkpt>
      <trkpt lat="47.35075" lon="-2.41396">
        <ele>19.60000038147</ele>
        <time>2021-01-14T09:38:06.000Z</time>
      </trkpt>
      <trkpt lat="47.35077" lon="-2.41408">
        <ele>19.60000038147</ele>
        <time>2021-01-14T09:38:09.000Z</time>
      </trkpt>
      <trkpt lat="47.35077" lon="-2.4141">
        <ele>19.60000038147</ele>
        <time>2021-01-14T09:38:10.000Z</time>
      </trkpt>
      <trkpt lat="47.35076" lon="-2.41411">
        <ele>19.60000038147</ele>
        <time>2021-01-14T09:38:11.000Z</time>
      </trkpt>
      <trkpt lat="47.35062" lon="-2.41418">
        <ele>19.60000038147</ele>
        <time>2021-01-14T09:38:14.000Z</time>
      </trkpt>
      <trkpt lat="47.35057" lon="-2.41421">
        <ele>19.60000038147</ele>
        <time>2021-01-14T09:38:15.000Z</time>
      </trkpt>
      <trkpt lat="47.35024" lon="-2.41436">
        <ele>19.60000038147</ele>
        <time>2021-01-14T09:38:21.000Z</time>
      </trkpt>
      <trkpt lat="47.34993" lon="-2.4145">
        <ele>19.60000038147</ele>
        <time>2021-01-14T09:38:27.000Z</time>
      </trkpt>
      <trkpt lat="47.34973" lon="-2.41457">
        <ele>19.60000038147</ele>
        <time>2021-01-14T09:38:31.000Z</time>
      </trkpt>
      <trkpt lat="47.34963" lon="-2.41459">
        <ele>19.60000038147</ele>
        <time>2021-01-14T09:38:33.000Z</time>
      </trkpt>
      <trkpt lat="47.34948" lon="-2.41466">
        <ele>19.60000038147</ele>
        <time>2021-01-14T09:38:36.000Z</time>
      </trkpt>
      <trkpt lat="47.34914" lon="-2.41478">
        <ele>19.60000038147</ele>
        <time>2021-01-14T09:38:42.000Z</time>
      </trkpt>
      <trkpt lat="47.3487" lon="-2.41491">
        <ele>19.60000038147</ele>
        <time>2021-01-14T09:38:50.000Z</time>
      </trkpt>
      <trkpt lat="47.34848" lon="-2.41497">
        <ele>19.60000038147</ele>
        <time>2021-01-14T09:38:54.000Z</time>
      </trkpt>
      <trkpt lat="47.34818" lon="-2.41507">
        <ele>19.60000038147</ele>
        <time>2021-01-14T09:39:00.000Z</time>
      </trkpt>
      <trkpt lat="47.34779" lon="-2.41517">
        <ele>19.60000038147</ele>
        <time>2021-01-14T09:39:06.000Z</time>
      </trkpt>
      <trkpt lat="47.34742" lon="-2.41526">
        <ele>19.60000038147</ele>
        <time>2021-01-14T09:39:12.000Z</time>
      </trkpt>
      <trkpt lat="47.34715" lon="-2.41535">
        <ele>19.60000038147</ele>
        <time>2021-01-14T09:39:17.000Z</time>
      </trkpt>
      <trkpt lat="47.34686" lon="-2.41546">
        <ele>19.60000038147</ele>
        <time>2021-01-14T09:39:23.000Z</time>
      </trkpt>
      <trkpt lat="47.34666" lon="-2.41553">
        <ele>19.60000038147</ele>
        <time>2021-01-14T09:39:27.000Z</time>
      </trkpt>
      <trkpt lat="47.34656" lon="-2.41555">
        <ele>19.60000038147</ele>
        <time>2021-01-14T09:39:29.000Z</time>
      </trkpt>
      <trkpt lat="47.34639" lon="-2.41561">
        <ele>19.60000038147</ele>
        <time>2021-01-14T09:39:32.000Z</time>
      </trkpt>
      <trkpt lat="47.34627" lon="-2.41565">
        <ele>19.60000038147</ele>
        <time>2021-01-14T09:39:34.000Z</time>
      </trkpt>
      <trkpt lat="47.34574" lon="-2.41588">
        <ele>19.60000038147</ele>
        <time>2021-01-14T09:39:43.000Z</time>
      </trkpt>
      <trkpt lat="47.34544" lon="-2.41599">
        <ele>19.60000038147</ele>
        <time>2021-01-14T09:39:49.000Z</time>
      </trkpt>
      <trkpt lat="47.34513" lon="-2.41611">
        <ele>19.60000038147</ele>
        <time>2021-01-14T09:39:55.000Z</time>
      </trkpt>
      <trkpt lat="47.34488" lon="-2.41623">
        <ele>19.60000038147</ele>
        <time>2021-01-14T09:40:00.000Z</time>
      </trkpt>
      <trkpt lat="47.34459" lon="-2.41639">
        <ele>19.60000038147</ele>
        <time>2021-01-14T09:40:06.000Z</time>
      </trkpt>
      <trkpt lat="47.34444" lon="-2.41651">
        <ele>19.60000038147</ele>
        <time>2021-01-14T09:40:09.000Z</time>
      </trkpt>
      <trkpt lat="47.34436" lon="-2.41661">
        <ele>19.60000038147</ele>
        <time>2021-01-14T09:40:11.000Z</time>
      </trkpt>
      <trkpt lat="47.34414" lon="-2.41691">
        <ele>19.60000038147</ele>
        <time>2021-01-14T09:40:17.000Z</time>
      </trkpt>
      <trkpt lat="47.34386" lon="-2.4171">
        <ele>19.60000038147</ele>
        <time>2021-01-14T09:40:23.000Z</time>
      </trkpt>
      <trkpt lat="47.34358" lon="-2.41726">
        <ele>19.60000038147</ele>
        <time>2021-01-14T09:40:29.000Z</time>
      </trkpt>
      <trkpt lat="47.34325" lon="-2.41741">
        <ele>19.60000038147</ele>
        <time>2021-01-14T09:40:36.000Z</time>
      </trkpt>
      <trkpt lat="47.343" lon="-2.41753">
        <ele>19.60000038147</ele>
        <time>2021-01-14T09:40:41.000Z</time>
      </trkpt>
      <trkpt lat="47.34271" lon="-2.41772">
        <ele>19.60000038147</ele>
        <time>2021-01-14T09:40:47.000Z</time>
      </trkpt>
      <trkpt lat="47.34245" lon="-2.41784">
        <ele>19.60000038147</ele>
        <time>2021-01-14T09:40:53.000Z</time>
      </trkpt>
      <trkpt lat="47.34235" lon="-2.4178">
        <ele>19.60000038147</ele>
        <time>2021-01-14T09:40:57.000Z</time>
      </trkpt>
      <trkpt lat="47.34226" lon="-2.41763">
        <ele>19.60000038147</ele>
        <time>2021-01-14T09:41:03.000Z</time>
      </trkpt>
      <trkpt lat="47.34221" lon="-2.41736">
        <ele>19.60000038147</ele>
        <time>2021-01-14T09:41:10.000Z</time>
      </trkpt>
      <trkpt lat="47.34215" lon="-2.41718">
        <ele>19.60000038147</ele>
        <time>2021-01-14T09:41:15.000Z</time>
      </trkpt>
      <trkpt lat="47.34205" lon="-2.41705">
        <ele>19.60000038147</ele>
        <time>2021-01-14T09:41:20.000Z</time>
      </trkpt>
      <trkpt lat="47.34187" lon="-2.41691">
        <ele>19.60000038147</ele>
        <time>2021-01-14T09:41:27.000Z</time>
      </trkpt>
      <trkpt lat="47.34185" lon="-2.41698">
        <ele>19.60000038147</ele>
        <time>2021-01-14T09:41:31.000Z</time>
      </trkpt>
      <trkpt lat="47.34193" lon="-2.41704">
        <ele>19.60000038147</ele>
        <time>2021-01-14T09:41:38.000Z</time>
      </trkpt>
      <trkpt lat="47.34191" lon="-2.41707">
        <ele>19.60000038147</ele>
        <time>2021-01-14T09:41:42.000Z</time>
      </trkpt>
      <trkpt lat="47.34186" lon="-2.41705">
        <ele>19.60000038147</ele>
        <time>2021-01-14T09:41:46.000Z</time>
      </trkpt>
      <trkpt lat="47.34185" lon="-2.41705">
        <ele>19.60000038147</ele>
        <time>2021-01-14T09:41:47.000Z</time>
      </trkpt>
      <trkpt lat="47.34186" lon="-2.41705">
        <ele>19.60000038147</ele>
        <time>2021-01-14T09:41:48.000Z</time>
      </trkpt>
      <trkpt lat="47.34182" lon="-2.41704">
        <ele>19.60000038147</ele>
        <time>2021-01-14T09:42:17.000Z</time>
      </trkpt>
      <trkpt lat="47.34179" lon="-2.41706">
        <ele>19.60000038147</ele>
        <time>2021-01-14T09:42:19.000Z</time>
      </trkpt>
      <trkpt lat="47.34172" lon="-2.41715">
        <ele>19.60000038147</ele>
        <time>2021-01-14T09:42:24.000Z</time>
      </trkpt>
      <trkpt lat="47.34159" lon="-2.41725">
        <ele>19.60000038147</ele>
        <time>2021-01-14T09:42:29.000Z</time>
      </trkpt>
      <trkpt lat="47.34138" lon="-2.41748">
        <ele>19.60000038147</ele>
        <time>2021-01-14T09:42:36.000Z</time>
      </trkpt>
      <trkpt lat="47.3411" lon="-2.41774">
        <ele>19.60000038147</ele>
        <time>2021-01-14T09:42:44.000Z</time>
      </trkpt>
      <trkpt lat="47.34102" lon="-2.41781">
        <ele>19.60000038147</ele>
        <time>2021-01-14T09:42:46.000Z</time>
      </trkpt>
      <trkpt lat="47.34091" lon="-2.41791">
        <ele>19.60000038147</ele>
        <time>2021-01-14T09:42:49.000Z</time>
      </trkpt>
      <trkpt lat="47.34064" lon="-2.4182">
        <ele>19.60000038147</ele>
        <time>2021-01-14T09:42:57.000Z</time>
      </trkpt>
      <trkpt lat="47.3404" lon="-2.41855">
        <ele>19.60000038147</ele>
        <time>2021-01-14T09:43:05.000Z</time>
      </trkpt>
      <trkpt lat="47.34016" lon="-2.41895">
        <ele>19.60000038147</ele>
        <time>2021-01-14T09:43:13.000Z</time>
      </trkpt>
      <trkpt lat="47.33996" lon="-2.4193">
        <ele>19.60000038147</ele>
        <time>2021-01-14T09:43:20.000Z</time>
      </trkpt>
      <trkpt lat="47.33962" lon="-2.41972">
        <ele>19.60000038147</ele>
        <time>2021-01-14T09:43:29.000Z</time>
      </trkpt>
      <trkpt lat="47.33938" lon="-2.41994">
        <ele>20</ele>
        <time>2021-01-14T09:43:35.000Z</time>
      </trkpt>
      <trkpt lat="47.33934" lon="-2.41998">
        <ele>20.39999961853</ele>
        <time>2021-01-14T09:43:36.000Z</time>
      </trkpt>
      <trkpt lat="47.33931" lon="-2.42002">
        <ele>20.799999237061</ele>
        <time>2021-01-14T09:43:37.000Z</time>
      </trkpt>
      <trkpt lat="47.33928" lon="-2.42007">
        <ele>21.200000762939</ele>
        <time>2021-01-14T09:43:38.000Z</time>
      </trkpt>
      <trkpt lat="47.33924" lon="-2.42011">
        <ele>21.60000038147</ele>
        <time>2021-01-14T09:43:39.000Z</time>
      </trkpt>
      <trkpt lat="47.33916" lon="-2.42019">
        <ele>21.60000038147</ele>
        <time>2021-01-14T09:43:41.000Z</time>
      </trkpt>
      <trkpt lat="47.33912" lon="-2.42023">
        <ele>21.60000038147</ele>
        <time>2021-01-14T09:43:42.000Z</time>
      </trkpt>
      <trkpt lat="47.33874" lon="-2.42053">
        <ele>21.60000038147</ele>
        <time>2021-01-14T09:43:51.000Z</time>
      </trkpt>
      <trkpt lat="47.33849" lon="-2.42071">
        <ele>21.60000038147</ele>
        <time>2021-01-14T09:43:57.000Z</time>
      </trkpt>
      <trkpt lat="47.33845" lon="-2.42073">
        <ele>21.60000038147</ele>
        <time>2021-01-14T09:43:58.000Z</time>
      </trkpt>
      <trkpt lat="47.33827" lon="-2.42084">
        <ele>21.60000038147</ele>
        <time>2021-01-14T09:44:04.000Z</time>
      </trkpt>
      <trkpt lat="47.33813" lon="-2.42096">
        <ele>21.60000038147</ele>
        <time>2021-01-14T09:44:08.000Z</time>
      </trkpt>
      <trkpt lat="47.33809" lon="-2.42098">
        <ele>21.60000038147</ele>
        <time>2021-01-14T09:44:09.000Z</time>
      </trkpt>
      <trkpt lat="47.33791" lon="-2.421">
        <ele>21.60000038147</ele>
        <time>2021-01-14T09:44:13.000Z</time>
      </trkpt>
      <trkpt lat="47.33783" lon="-2.42103">
        <ele>21.60000038147</ele>
        <time>2021-01-14T09:44:15.000Z</time>
      </trkpt>
      <trkpt lat="47.33767" lon="-2.42109">
        <ele>21.60000038147</ele>
        <time>2021-01-14T09:44:19.000Z</time>
      </trkpt>
      <trkpt lat="47.33739" lon="-2.42121">
        <ele>21.60000038147</ele>
        <time>2021-01-14T09:44:26.000Z</time>
      </trkpt>
      <trkpt lat="47.33704" lon="-2.42133">
        <ele>21.60000038147</ele>
        <time>2021-01-14T09:44:34.000Z</time>
      </trkpt>
      <trkpt lat="47.33675" lon="-2.42143">
        <ele>21.60000038147</ele>
        <time>2021-01-14T09:44:41.000Z</time>
      </trkpt>
      <trkpt lat="47.33667" lon="-2.42146">
        <ele>22</ele>
        <time>2021-01-14T09:44:43.000Z</time>
      </trkpt>
      <trkpt lat="47.33664" lon="-2.42147">
        <ele>22.39999961853</ele>
        <time>2021-01-14T09:44:44.000Z</time>
      </trkpt>
      <trkpt lat="47.33661" lon="-2.42147">
        <ele>22.799999237061</ele>
        <time>2021-01-14T09:44:45.000Z</time>
      </trkpt>
      <trkpt lat="47.33657" lon="-2.42148">
        <ele>23.200000762939</ele>
        <time>2021-01-14T09:44:46.000Z</time>
      </trkpt>
      <trkpt lat="47.33653" lon="-2.42149">
        <ele>23.60000038147</ele>
        <time>2021-01-14T09:44:47.000Z</time>
      </trkpt>
      <trkpt lat="47.33646" lon="-2.4215">
        <ele>23.60000038147</ele>
        <time>2021-01-14T09:44:49.000Z</time>
      </trkpt>
      <trkpt lat="47.33634" lon="-2.4215">
        <ele>23.60000038147</ele>
        <time>2021-01-14T09:44:54.000Z</time>
      </trkpt>
      <trkpt lat="47.33621" lon="-2.42157">
        <ele>23.60000038147</ele>
        <time>2021-01-14T09:44:58.000Z</time>
      </trkpt>
      <trkpt lat="47.33617" lon="-2.42157">
        <ele>23.60000038147</ele>
        <time>2021-01-14T09:44:59.000Z</time>
      </trkpt>
      <trkpt lat="47.33603" lon="-2.42161">
        <ele>23.60000038147</ele>
        <time>2021-01-14T09:45:03.000Z</time>
      </trkpt>
      <trkpt lat="47.33586" lon="-2.42172">
        <ele>23.60000038147</ele>
        <time>2021-01-14T09:45:09.000Z</time>
      </trkpt>
      <trkpt lat="47.3358" lon="-2.42181">
        <ele>23.60000038147</ele>
        <time>2021-01-14T09:45:14.000Z</time>
      </trkpt>
      <trkpt lat="47.33579" lon="-2.42181">
        <ele>23.60000038147</ele>
        <time>2021-01-14T09:45:16.000Z</time>
      </trkpt>
      <trkpt lat="47.33576" lon="-2.4218">
        <ele>23.60000038147</ele>
        <time>2021-01-14T09:45:18.000Z</time>
      </trkpt>
      <trkpt lat="47.33574" lon="-2.42178">
        <ele>23.60000038147</ele>
        <time>2021-01-14T09:45:20.000Z</time>
      </trkpt>
      <trkpt lat="47.33573" lon="-2.42174">
        <ele>23.60000038147</ele>
        <time>2021-01-14T09:45:23.000Z</time>
      </trkpt>
      <trkpt lat="47.33571" lon="-2.42173">
        <ele>23.60000038147</ele>
        <time>2021-01-14T09:45:24.000Z</time>
      </trkpt>
      <trkpt lat="47.33568" lon="-2.42171">
        <ele>23.60000038147</ele>
        <time>2021-01-14T09:45:29.000Z</time>
      </trkpt>
      <trkpt lat="47.33567" lon="-2.42172">
        <ele>23.60000038147</ele>
        <time>2021-01-14T09:45:37.000Z</time>
      </trkpt>
      <trkpt lat="47.33566" lon="-2.42177">
        <ele>23.60000038147</ele>
        <time>2021-01-14T09:45:39.000Z</time>
      </trkpt>
      <trkpt lat="47.33557" lon="-2.42194">
        <ele>23.60000038147</ele>
        <time>2021-01-14T09:45:46.000Z</time>
      </trkpt>
      <trkpt lat="47.33555" lon="-2.42193">
        <ele>23.60000038147</ele>
        <time>2021-01-14T09:45:47.000Z</time>
      </trkpt>
      <trkpt lat="47.3355" lon="-2.42189">
        <ele>23.60000038147</ele>
        <time>2021-01-14T09:45:49.000Z</time>
      </trkpt>
      <trkpt lat="47.33535" lon="-2.42189">
        <ele>23.60000038147</ele>
        <time>2021-01-14T09:45:53.000Z</time>
      </trkpt>
      <trkpt lat="47.33519" lon="-2.42191">
        <ele>24</ele>
        <time>2021-01-14T09:45:57.000Z</time>
      </trkpt>
      <trkpt lat="47.33515" lon="-2.42193">
        <ele>24.39999961853</ele>
        <time>2021-01-14T09:45:58.000Z</time>
      </trkpt>
      <trkpt lat="47.33511" lon="-2.42195">
        <ele>24.799999237061</ele>
        <time>2021-01-14T09:45:59.000Z</time>
      </trkpt>
      <trkpt lat="47.33507" lon="-2.42197">
        <ele>25.200000762939</ele>
        <time>2021-01-14T09:46:00.000Z</time>
      </trkpt>
      <trkpt lat="47.33503" lon="-2.42199">
        <ele>25.60000038147</ele>
        <time>2021-01-14T09:46:01.000Z</time>
      </trkpt>
      <trkpt lat="47.33469" lon="-2.42214">
        <ele>25.60000038147</ele>
        <time>2021-01-14T09:46:09.000Z</time>
      </trkpt>
      <trkpt lat="47.33439" lon="-2.42229">
        <ele>25.60000038147</ele>
        <time>2021-01-14T09:46:16.000Z</time>
      </trkpt>
      <trkpt lat="47.33411" lon="-2.42242">
        <ele>25.60000038147</ele>
        <time>2021-01-14T09:46:23.000Z</time>
      </trkpt>
      <trkpt lat="47.33389" lon="-2.42263">
        <ele>25.60000038147</ele>
        <time>2021-01-14T09:46:30.000Z</time>
      </trkpt>
      <trkpt lat="47.33375" lon="-2.42283">
        <ele>25.60000038147</ele>
        <time>2021-01-14T09:46:35.000Z</time>
      </trkpt>
      <trkpt lat="47.33372" lon="-2.42287">
        <ele>25.60000038147</ele>
        <time>2021-01-14T09:46:36.000Z</time>
      </trkpt>
      <trkpt lat="47.33365" lon="-2.42295">
        <ele>25.60000038147</ele>
        <time>2021-01-14T09:46:38.000Z</time>
      </trkpt>
      <trkpt lat="47.33351" lon="-2.42309">
        <ele>25.60000038147</ele>
        <time>2021-01-14T09:46:42.000Z</time>
      </trkpt>
      <trkpt lat="47.33347" lon="-2.42312">
        <ele>25.60000038147</ele>
        <time>2021-01-14T09:46:43.000Z</time>
      </trkpt>
      <trkpt lat="47.33325" lon="-2.42334">
        <ele>25.60000038147</ele>
        <time>2021-01-14T09:46:49.000Z</time>
      </trkpt>
      <trkpt lat="47.33321" lon="-2.42337">
        <ele>25.60000038147</ele>
        <time>2021-01-14T09:46:50.000Z</time>
      </trkpt>
      <trkpt lat="47.33317" lon="-2.42339">
        <ele>26</ele>
        <time>2021-01-14T09:46:51.000Z</time>
      </trkpt>
      <trkpt lat="47.33314" lon="-2.42343">
        <ele>26.39999961853</ele>
        <time>2021-01-14T09:46:52.000Z</time>
      </trkpt>
      <trkpt lat="47.3331" lon="-2.42347">
        <ele>26.799999237061</ele>
        <time>2021-01-14T09:46:53.000Z</time>
      </trkpt>
      <trkpt lat="47.33307" lon="-2.42351">
        <ele>27.200000762939</ele>
        <time>2021-01-14T09:46:54.000Z</time>
      </trkpt>
      <trkpt lat="47.33303" lon="-2.42355">
        <ele>27.60000038147</ele>
        <time>2021-01-14T09:46:55.000Z</time>
      </trkpt>
      <trkpt lat="47.33299" lon="-2.42359">
        <ele>27.60000038147</ele>
        <time>2021-01-14T09:46:56.000Z</time>
      </trkpt>
      <trkpt lat="47.33274" lon="-2.42383">
        <ele>27.60000038147</ele>
        <time>2021-01-14T09:47:02.000Z</time>
      </trkpt>
      <trkpt lat="47.33265" lon="-2.42392">
        <ele>27.60000038147</ele>
        <time>2021-01-14T09:47:04.000Z</time>
      </trkpt>
      <trkpt lat="47.33248" lon="-2.42408">
        <ele>27.60000038147</ele>
        <time>2021-01-14T09:47:08.000Z</time>
      </trkpt>
      <trkpt lat="47.33217" lon="-2.42436">
        <ele>27.60000038147</ele>
        <time>2021-01-14T09:47:15.000Z</time>
      </trkpt>
      <trkpt lat="47.33202" lon="-2.42449">
        <ele>27.60000038147</ele>
        <time>2021-01-14T09:47:18.000Z</time>
      </trkpt>
      <trkpt lat="47.33185" lon="-2.42463">
        <ele>27.60000038147</ele>
        <time>2021-01-14T09:47:21.000Z</time>
      </trkpt>
      <trkpt lat="47.33151" lon="-2.42493">
        <ele>27.60000038147</ele>
        <time>2021-01-14T09:47:28.000Z</time>
      </trkpt>
      <trkpt lat="47.33113" lon="-2.42521">
        <ele>27.60000038147</ele>
        <time>2021-01-14T09:47:36.000Z</time>
      </trkpt>
      <trkpt lat="47.33088" lon="-2.4254">
        <ele>27.60000038147</ele>
        <time>2021-01-14T09:47:43.000Z</time>
      </trkpt>
      <trkpt lat="47.33086" lon="-2.42545">
        <ele>27.60000038147</ele>
        <time>2021-01-14T09:47:44.000Z</time>
      </trkpt>
      <trkpt lat="47.33085" lon="-2.42557">
        <ele>27.60000038147</ele>
        <time>2021-01-14T09:47:46.000Z</time>
      </trkpt>
      <trkpt lat="47.33091" lon="-2.42574">
        <ele>27.60000038147</ele>
        <time>2021-01-14T09:47:49.000Z</time>
      </trkpt>
      <trkpt lat="47.33102" lon="-2.42596">
        <ele>27.60000038147</ele>
        <time>2021-01-14T09:47:53.000Z</time>
      </trkpt>
      <trkpt lat="47.33109" lon="-2.42605">
        <ele>27.60000038147</ele>
        <time>2021-01-14T09:47:55.000Z</time>
      </trkpt>
      <trkpt lat="47.33119" lon="-2.42621">
        <ele>27.60000038147</ele>
        <time>2021-01-14T09:47:58.000Z</time>
      </trkpt>
      <trkpt lat="47.33123" lon="-2.42634">
        <ele>27.60000038147</ele>
        <time>2021-01-14T09:48:00.000Z</time>
      </trkpt>
      <trkpt lat="47.33131" lon="-2.42659">
        <ele>27.60000038147</ele>
        <time>2021-01-14T09:48:04.000Z</time>
      </trkpt>
      <trkpt lat="47.33135" lon="-2.42671">
        <ele>27.60000038147</ele>
        <time>2021-01-14T09:48:06.000Z</time>
      </trkpt>
      <trkpt lat="47.33154" lon="-2.42713">
        <ele>27.60000038147</ele>
        <time>2021-01-14T09:48:13.000Z</time>
      </trkpt>
      <trkpt lat="47.3316" lon="-2.42725">
        <ele>27.60000038147</ele>
        <time>2021-01-14T09:48:15.000Z</time>
      </trkpt>
      <trkpt lat="47.33163" lon="-2.42736">
        <ele>27.60000038147</ele>
        <time>2021-01-14T09:48:17.000Z</time>
      </trkpt>
      <trkpt lat="47.33164" lon="-2.42742">
        <ele>27.60000038147</ele>
        <time>2021-01-14T09:48:18.000Z</time>
      </trkpt>
      <trkpt lat="47.33165" lon="-2.42755">
        <ele>27.60000038147</ele>
        <time>2021-01-14T09:48:20.000Z</time>
      </trkpt>
      <trkpt lat="47.33164" lon="-2.42776">
        <ele>27.60000038147</ele>
        <time>2021-01-14T09:48:23.000Z</time>
      </trkpt>
      <trkpt lat="47.33165" lon="-2.42788">
        <ele>27.60000038147</ele>
        <time>2021-01-14T09:48:25.000Z</time>
      </trkpt>
      <trkpt lat="47.33167" lon="-2.42806">
        <ele>27.60000038147</ele>
        <time>2021-01-14T09:48:28.000Z</time>
      </trkpt>
      <trkpt lat="47.33167" lon="-2.42819">
        <ele>27.60000038147</ele>
        <time>2021-01-14T09:48:30.000Z</time>
      </trkpt>
      <trkpt lat="47.33165" lon="-2.42842">
        <ele>27.60000038147</ele>
        <time>2021-01-14T09:48:35.000Z</time>
      </trkpt>
      <trkpt lat="47.33167" lon="-2.42861">
        <ele>27.60000038147</ele>
        <time>2021-01-14T09:48:38.000Z</time>
      </trkpt>
      <trkpt lat="47.33169" lon="-2.42867">
        <ele>27.60000038147</ele>
        <time>2021-01-14T09:48:39.000Z</time>
      </trkpt>
      <trkpt lat="47.33176" lon="-2.42886">
        <ele>27.60000038147</ele>
        <time>2021-01-14T09:48:42.000Z</time>
      </trkpt>
      <trkpt lat="47.33177" lon="-2.42901">
        <ele>27.60000038147</ele>
        <time>2021-01-14T09:48:44.000Z</time>
      </trkpt>
      <trkpt lat="47.33175" lon="-2.42916">
        <ele>27.60000038147</ele>
        <time>2021-01-14T09:48:46.000Z</time>
      </trkpt>
      <trkpt lat="47.33174" lon="-2.42931">
        <ele>27.60000038147</ele>
        <time>2021-01-14T09:48:48.000Z</time>
      </trkpt>
      <trkpt lat="47.33177" lon="-2.42971">
        <ele>27.60000038147</ele>
        <time>2021-01-14T09:48:53.000Z</time>
      </trkpt>
      <trkpt lat="47.33179" lon="-2.42996">
        <ele>28</ele>
        <time>2021-01-14T09:48:56.000Z</time>
      </trkpt>
      <trkpt lat="47.3318" lon="-2.43004">
        <ele>28.39999961853</ele>
        <time>2021-01-14T09:48:57.000Z</time>
      </trkpt>
      <trkpt lat="47.3318" lon="-2.43012">
        <ele>28.799999237061</ele>
        <time>2021-01-14T09:48:58.000Z</time>
      </trkpt>
      <trkpt lat="47.3318" lon="-2.43019">
        <ele>29.200000762939</ele>
        <time>2021-01-14T09:48:59.000Z</time>
      </trkpt>
      <trkpt lat="47.3318" lon="-2.43027">
        <ele>29.60000038147</ele>
        <time>2021-01-14T09:49:00.000Z</time>
      </trkpt>
      <trkpt lat="47.33181" lon="-2.43064">
        <ele>29.60000038147</ele>
        <time>2021-01-14T09:49:05.000Z</time>
      </trkpt>
      <trkpt lat="47.33176" lon="-2.43118">
        <ele>29.60000038147</ele>
        <time>2021-01-14T09:49:12.000Z</time>
      </trkpt>
      <trkpt lat="47.33172" lon="-2.43158">
        <ele>29.60000038147</ele>
        <time>2021-01-14T09:49:18.000Z</time>
      </trkpt>
      <trkpt lat="47.33162" lon="-2.43202">
        <ele>29.60000038147</ele>
        <time>2021-01-14T09:49:25.000Z</time>
      </trkpt>
      <trkpt lat="47.33147" lon="-2.43249">
        <ele>29.60000038147</ele>
        <time>2021-01-14T09:49:33.000Z</time>
      </trkpt>
      <trkpt lat="47.33126" lon="-2.43298">
        <ele>29.60000038147</ele>
        <time>2021-01-14T09:49:41.000Z</time>
      </trkpt>
      <trkpt lat="47.33108" lon="-2.43339">
        <ele>29.60000038147</ele>
        <time>2021-01-14T09:49:47.000Z</time>
      </trkpt>
      <trkpt lat="47.33084" lon="-2.43392">
        <ele>29.60000038147</ele>
        <time>2021-01-14T09:49:55.000Z</time>
      </trkpt>
      <trkpt lat="47.33076" lon="-2.43412">
        <ele>29.60000038147</ele>
        <time>2021-01-14T09:49:58.000Z</time>
      </trkpt>
      <trkpt lat="47.33078" lon="-2.43427">
        <ele>29.60000038147</ele>
        <time>2021-01-14T09:50:00.000Z</time>
      </trkpt>
      <trkpt lat="47.33082" lon="-2.4344">
        <ele>29.60000038147</ele>
        <time>2021-01-14T09:50:02.000Z</time>
      </trkpt>
      <trkpt lat="47.33087" lon="-2.43459">
        <ele>29.60000038147</ele>
        <time>2021-01-14T09:50:05.000Z</time>
      </trkpt>
      <trkpt lat="47.33093" lon="-2.43483">
        <ele>29.60000038147</ele>
        <time>2021-01-14T09:50:09.000Z</time>
      </trkpt>
      <trkpt lat="47.33097" lon="-2.43493">
        <ele>29.60000038147</ele>
        <time>2021-01-14T09:50:11.000Z</time>
      </trkpt>
      <trkpt lat="47.331" lon="-2.43505">
        <ele>29.60000038147</ele>
        <time>2021-01-14T09:50:13.000Z</time>
      </trkpt>
      <trkpt lat="47.33108" lon="-2.43531">
        <ele>29.60000038147</ele>
        <time>2021-01-14T09:50:17.000Z</time>
      </trkpt>
      <trkpt lat="47.33116" lon="-2.43585">
        <ele>29.60000038147</ele>
        <time>2021-01-14T09:50:25.000Z</time>
      </trkpt>
      <trkpt lat="47.33117" lon="-2.43592">
        <ele>30</ele>
        <time>2021-01-14T09:50:26.000Z</time>
      </trkpt>
      <trkpt lat="47.33118" lon="-2.43599">
        <ele>30.39999961853</ele>
        <time>2021-01-14T09:50:27.000Z</time>
      </trkpt>
      <trkpt lat="47.3312" lon="-2.43605">
        <ele>30.799999237061</ele>
        <time>2021-01-14T09:50:28.000Z</time>
      </trkpt>
      <trkpt lat="47.3312" lon="-2.43612">
        <ele>31.200000762939</ele>
        <time>2021-01-14T09:50:29.000Z</time>
      </trkpt>
      <trkpt lat="47.33121" lon="-2.43619">
        <ele>31.60000038147</ele>
        <time>2021-01-14T09:50:30.000Z</time>
      </trkpt>
      <trkpt lat="47.33126" lon="-2.4364">
        <ele>31.60000038147</ele>
        <time>2021-01-14T09:50:33.000Z</time>
      </trkpt>
      <trkpt lat="47.33129" lon="-2.43653">
        <ele>31.60000038147</ele>
        <time>2021-01-14T09:50:35.000Z</time>
      </trkpt>
      <trkpt lat="47.33139" lon="-2.4368">
        <ele>31.60000038147</ele>
        <time>2021-01-14T09:50:39.000Z</time>
      </trkpt>
      <trkpt lat="47.33163" lon="-2.43741">
        <ele>31.60000038147</ele>
        <time>2021-01-14T09:50:48.000Z</time>
      </trkpt>
      <trkpt lat="47.33182" lon="-2.43787">
        <ele>31.60000038147</ele>
        <time>2021-01-14T09:50:55.000Z</time>
      </trkpt>
      <trkpt lat="47.33201" lon="-2.4384">
        <ele>31.60000038147</ele>
        <time>2021-01-14T09:51:03.000Z</time>
      </trkpt>
      <trkpt lat="47.33215" lon="-2.43871">
        <ele>31.60000038147</ele>
        <time>2021-01-14T09:51:08.000Z</time>
      </trkpt>
      <trkpt lat="47.33222" lon="-2.4388">
        <ele>31.60000038147</ele>
        <time>2021-01-14T09:51:10.000Z</time>
      </trkpt>
      <trkpt lat="47.33247" lon="-2.43893">
        <ele>31.60000038147</ele>
        <time>2021-01-14T09:51:15.000Z</time>
      </trkpt>
      <trkpt lat="47.33284" lon="-2.43911">
        <ele>31.60000038147</ele>
        <time>2021-01-14T09:51:22.000Z</time>
      </trkpt>
      <trkpt lat="47.33313" lon="-2.43925">
        <ele>31.60000038147</ele>
        <time>2021-01-14T09:51:28.000Z</time>
      </trkpt>
      <trkpt lat="47.33317" lon="-2.43927">
        <ele>32</ele>
        <time>2021-01-14T09:51:29.000Z</time>
      </trkpt>
      <trkpt lat="47.33321" lon="-2.4393">
        <ele>32.400001525879</ele>
        <time>2021-01-14T09:51:30.000Z</time>
      </trkpt>
      <trkpt lat="47.33325" lon="-2.43932">
        <ele>32.799999237061</ele>
        <time>2021-01-14T09:51:31.000Z</time>
      </trkpt>
      <trkpt lat="47.33329" lon="-2.43935">
        <ele>33.200000762939</ele>
        <time>2021-01-14T09:51:32.000Z</time>
      </trkpt>
      <trkpt lat="47.33334" lon="-2.43937">
        <ele>33.599998474121</ele>
        <time>2021-01-14T09:51:33.000Z</time>
      </trkpt>
      <trkpt lat="47.33343" lon="-2.43943">
        <ele>33.599998474121</ele>
        <time>2021-01-14T09:51:35.000Z</time>
      </trkpt>
      <trkpt lat="47.33347" lon="-2.43947">
        <ele>33.599998474121</ele>
        <time>2021-01-14T09:51:36.000Z</time>
      </trkpt>
      <trkpt lat="47.33372" lon="-2.43974">
        <ele>33.599998474121</ele>
        <time>2021-01-14T09:51:42.000Z</time>
      </trkpt>
      <trkpt lat="47.33402" lon="-2.44008">
        <ele>33.599998474121</ele>
        <time>2021-01-14T09:51:50.000Z</time>
      </trkpt>
      <trkpt lat="47.33406" lon="-2.44012">
        <ele>33.599998474121</ele>
        <time>2021-01-14T09:51:51.000Z</time>
      </trkpt>
      <trkpt lat="47.33422" lon="-2.44032">
        <ele>33.599998474121</ele>
        <time>2021-01-14T09:51:55.000Z</time>
      </trkpt>
      <trkpt lat="47.33449" lon="-2.44057">
        <ele>33.599998474121</ele>
        <time>2021-01-14T09:52:01.000Z</time>
      </trkpt>
      <trkpt lat="47.33482" lon="-2.44087">
        <ele>33.599998474121</ele>
        <time>2021-01-14T09:52:08.000Z</time>
      </trkpt>
      <trkpt lat="47.33514" lon="-2.44116">
        <ele>33.599998474121</ele>
        <time>2021-01-14T09:52:15.000Z</time>
      </trkpt>
      <trkpt lat="47.33543" lon="-2.4414">
        <ele>33.599998474121</ele>
        <time>2021-01-14T09:52:21.000Z</time>
      </trkpt>
      <trkpt lat="47.33575" lon="-2.44165">
        <ele>33.599998474121</ele>
        <time>2021-01-14T09:52:28.000Z</time>
      </trkpt>
      <trkpt lat="47.3358" lon="-2.44168">
        <ele>34</ele>
        <time>2021-01-14T09:52:29.000Z</time>
      </trkpt>
      <trkpt lat="47.33585" lon="-2.44172">
        <ele>34.599998474121</ele>
        <time>2021-01-14T09:52:30.000Z</time>
      </trkpt>
      <trkpt lat="47.3359" lon="-2.44176">
        <ele>35</ele>
        <time>2021-01-14T09:52:31.000Z</time>
      </trkpt>
      <trkpt lat="47.33595" lon="-2.4418">
        <ele>35.400001525879</ele>
        <time>2021-01-14T09:52:32.000Z</time>
      </trkpt>
      <trkpt lat="47.33601" lon="-2.44184">
        <ele>35.799999237061</ele>
        <time>2021-01-14T09:52:33.000Z</time>
      </trkpt>
      <trkpt lat="47.33617" lon="-2.44196">
        <ele>35.799999237061</ele>
        <time>2021-01-14T09:52:36.000Z</time>
      </trkpt>
      <trkpt lat="47.33665" lon="-2.44236">
        <ele>35.799999237061</ele>
        <time>2021-01-14T09:52:45.000Z</time>
      </trkpt>
      <trkpt lat="47.33671" lon="-2.44241">
        <ele>35.799999237061</ele>
        <time>2021-01-14T09:52:46.000Z</time>
      </trkpt>
      <trkpt lat="47.337" lon="-2.44271">
        <ele>35.799999237061</ele>
        <time>2021-01-14T09:52:52.000Z</time>
      </trkpt>
      <trkpt lat="47.33742" lon="-2.44313">
        <ele>35.799999237061</ele>
        <time>2021-01-14T09:53:00.000Z</time>
      </trkpt>
      <trkpt lat="47.33779" lon="-2.44334">
        <ele>35.799999237061</ele>
        <time>2021-01-14T09:53:06.000Z</time>
      </trkpt>
      <trkpt lat="47.33798" lon="-2.44339">
        <ele>35.799999237061</ele>
        <time>2021-01-14T09:53:09.000Z</time>
      </trkpt>
      <trkpt lat="47.33818" lon="-2.44342">
        <ele>35.799999237061</ele>
        <time>2021-01-14T09:53:12.000Z</time>
      </trkpt>
      <trkpt lat="47.33861" lon="-2.4435">
        <ele>35.799999237061</ele>
        <time>2021-01-14T09:53:19.000Z</time>
      </trkpt>
      <trkpt lat="47.33866" lon="-2.4435">
        <ele>36.200000762939</ele>
        <time>2021-01-14T09:53:20.000Z</time>
      </trkpt>
      <trkpt lat="47.33872" lon="-2.44351">
        <ele>36.599998474121</ele>
        <time>2021-01-14T09:53:21.000Z</time>
      </trkpt>
      <trkpt lat="47.33878" lon="-2.44351">
        <ele>37</ele>
        <time>2021-01-14T09:53:22.000Z</time>
      </trkpt>
      <trkpt lat="47.33884" lon="-2.4435">
        <ele>37.400001525879</ele>
        <time>2021-01-14T09:53:23.000Z</time>
      </trkpt>
      <trkpt lat="47.33891" lon="-2.4435">
        <ele>37.799999237061</ele>
        <time>2021-01-14T09:53:24.000Z</time>
      </trkpt>
      <trkpt lat="47.33904" lon="-2.44351">
        <ele>37.799999237061</ele>
        <time>2021-01-14T09:53:26.000Z</time>
      </trkpt>
      <trkpt lat="47.33923" lon="-2.44355">
        <ele>37.799999237061</ele>
        <time>2021-01-14T09:53:29.000Z</time>
      </trkpt>
      <trkpt lat="47.33937" lon="-2.44362">
        <ele>37.799999237061</ele>
        <time>2021-01-14T09:53:31.000Z</time>
      </trkpt>
      <trkpt lat="47.3395" lon="-2.4437">
        <ele>37.799999237061</ele>
        <time>2021-01-14T09:53:33.000Z</time>
      </trkpt>
      <trkpt lat="47.33978" lon="-2.44387">
        <ele>37.799999237061</ele>
        <time>2021-01-14T09:53:37.000Z</time>
      </trkpt>
      <trkpt lat="47.34029" lon="-2.44424">
        <ele>37.799999237061</ele>
        <time>2021-01-14T09:53:45.000Z</time>
      </trkpt>
      <trkpt lat="47.34036" lon="-2.4443">
        <ele>37.799999237061</ele>
        <time>2021-01-14T09:53:46.000Z</time>
      </trkpt>
      <trkpt lat="47.34047" lon="-2.44442">
        <ele>37.799999237061</ele>
        <time>2021-01-14T09:53:48.000Z</time>
      </trkpt>
      <trkpt lat="47.3406" lon="-2.44464">
        <ele>37.799999237061</ele>
        <time>2021-01-14T09:53:51.000Z</time>
      </trkpt>
      <trkpt lat="47.34061" lon="-2.44489">
        <ele>37.799999237061</ele>
        <time>2021-01-14T09:53:54.000Z</time>
      </trkpt>
      <trkpt lat="47.34062" lon="-2.44498">
        <ele>37.799999237061</ele>
        <time>2021-01-14T09:53:55.000Z</time>
      </trkpt>
      <trkpt lat="47.34064" lon="-2.44539">
        <ele>37.799999237061</ele>
        <time>2021-01-14T09:54:00.000Z</time>
      </trkpt>
      <trkpt lat="47.34065" lon="-2.44586">
        <ele>37.799999237061</ele>
        <time>2021-01-14T09:54:06.000Z</time>
      </trkpt>
      <trkpt lat="47.34064" lon="-2.44608">
        <ele>37.799999237061</ele>
        <time>2021-01-14T09:54:09.000Z</time>
      </trkpt>
      <trkpt lat="47.34063" lon="-2.44632">
        <ele>37.799999237061</ele>
        <time>2021-01-14T09:54:12.000Z</time>
      </trkpt>
      <trkpt lat="47.34052" lon="-2.44695">
        <ele>37.799999237061</ele>
        <time>2021-01-14T09:54:19.000Z</time>
      </trkpt>
      <trkpt lat="47.34036" lon="-2.44769">
        <ele>37.799999237061</ele>
        <time>2021-01-14T09:54:28.000Z</time>
      </trkpt>
      <trkpt lat="47.34027" lon="-2.44799">
        <ele>37.799999237061</ele>
        <time>2021-01-14T09:54:32.000Z</time>
      </trkpt>
      <trkpt lat="47.34022" lon="-2.44814">
        <ele>37.799999237061</ele>
        <time>2021-01-14T09:54:34.000Z</time>
      </trkpt>
      <trkpt lat="47.34005" lon="-2.44865">
        <ele>37.799999237061</ele>
        <time>2021-01-14T09:54:41.000Z</time>
      </trkpt>
      <trkpt lat="47.33992" lon="-2.44923">
        <ele>37.799999237061</ele>
        <time>2021-01-14T09:54:48.000Z</time>
      </trkpt>
      <trkpt lat="47.33989" lon="-2.44946">
        <ele>37.799999237061</ele>
        <time>2021-01-14T09:54:51.000Z</time>
      </trkpt>
      <trkpt lat="47.33987" lon="-2.44969">
        <ele>37.799999237061</ele>
        <time>2021-01-14T09:54:54.000Z</time>
      </trkpt>
      <trkpt lat="47.33987" lon="-2.44984">
        <ele>37.799999237061</ele>
        <time>2021-01-14T09:54:56.000Z</time>
      </trkpt>
      <trkpt lat="47.33989" lon="-2.44998">
        <ele>37.799999237061</ele>
        <time>2021-01-14T09:54:58.000Z</time>
      </trkpt>
      <trkpt lat="47.34" lon="-2.45047">
        <ele>37.799999237061</ele>
        <time>2021-01-14T09:55:04.000Z</time>
      </trkpt>
      <trkpt lat="47.34014" lon="-2.45106">
        <ele>37.799999237061</ele>
        <time>2021-01-14T09:55:11.000Z</time>
      </trkpt>
      <trkpt lat="47.34032" lon="-2.45166">
        <ele>37.799999237061</ele>
        <time>2021-01-14T09:55:19.000Z</time>
      </trkpt>
      <trkpt lat="47.34046" lon="-2.45218">
        <ele>37.799999237061</ele>
        <time>2021-01-14T09:55:26.000Z</time>
      </trkpt>
      <trkpt lat="47.34054" lon="-2.45253">
        <ele>37.799999237061</ele>
        <time>2021-01-14T09:55:32.000Z</time>
      </trkpt>
      <trkpt lat="47.34059" lon="-2.4526">
        <ele>37.799999237061</ele>
        <time>2021-01-14T09:55:36.000Z</time>
      </trkpt>
      <trkpt lat="47.34061" lon="-2.45261">
        <ele>37.799999237061</ele>
        <time>2021-01-14T09:55:37.000Z</time>
      </trkpt>
      <trkpt lat="47.34069" lon="-2.45257">
        <ele>37.799999237061</ele>
        <time>2021-01-14T09:55:40.000Z</time>
      </trkpt>
      <trkpt lat="47.34089" lon="-2.45239">
        <ele>37.799999237061</ele>
        <time>2021-01-14T09:55:45.000Z</time>
      </trkpt>
      <trkpt lat="47.34141" lon="-2.45201">
        <ele>37.799999237061</ele>
        <time>2021-01-14T09:55:55.000Z</time>
      </trkpt>
      <trkpt lat="47.34181" lon="-2.45172">
        <ele>37.799999237061</ele>
        <time>2021-01-14T09:56:02.000Z</time>
      </trkpt>
      <trkpt lat="47.34229" lon="-2.45136">
        <ele>37.799999237061</ele>
        <time>2021-01-14T09:56:10.000Z</time>
      </trkpt>
      <trkpt lat="47.3428" lon="-2.45098">
        <ele>37.799999237061</ele>
        <time>2021-01-14T09:56:19.000Z</time>
      </trkpt>
      <trkpt lat="47.34291" lon="-2.45089">
        <ele>37.799999237061</ele>
        <time>2021-01-14T09:56:21.000Z</time>
      </trkpt>
      <trkpt lat="47.34332" lon="-2.45052">
        <ele>37.799999237061</ele>
        <time>2021-01-14T09:56:29.000Z</time>
      </trkpt>
      <trkpt lat="47.34364" lon="-2.45016">
        <ele>37.799999237061</ele>
        <time>2021-01-14T09:56:36.000Z</time>
      </trkpt>
      <trkpt lat="47.34386" lon="-2.44992">
        <ele>37.799999237061</ele>
        <time>2021-01-14T09:56:41.000Z</time>
      </trkpt>
      <trkpt lat="47.34396" lon="-2.44989">
        <ele>37.799999237061</ele>
        <time>2021-01-14T09:56:43.000Z</time>
      </trkpt>
      <trkpt lat="47.34409" lon="-2.45003">
        <ele>37.799999237061</ele>
        <time>2021-01-14T09:56:46.000Z</time>
      </trkpt>
      <trkpt lat="47.34415" lon="-2.45018">
        <ele>37.799999237061</ele>
        <time>2021-01-14T09:56:48.000Z</time>
      </trkpt>
      <trkpt lat="47.34428" lon="-2.45049">
        <ele>37.799999237061</ele>
        <time>2021-01-14T09:56:52.000Z</time>
      </trkpt>
      <trkpt lat="47.34451" lon="-2.45102">
        <ele>37.799999237061</ele>
        <time>2021-01-14T09:56:59.000Z</time>
      </trkpt>
      <trkpt lat="47.34476" lon="-2.45145">
        <ele>37.799999237061</ele>
        <time>2021-01-14T09:57:05.000Z</time>
      </trkpt>
      <trkpt lat="47.34508" lon="-2.4518">
        <ele>37.799999237061</ele>
        <time>2021-01-14T09:57:11.000Z</time>
      </trkpt>
      <trkpt lat="47.34543" lon="-2.45227">
        <ele>37.799999237061</ele>
        <time>2021-01-14T09:57:18.000Z</time>
      </trkpt>
      <trkpt lat="47.34579" lon="-2.45283">
        <ele>37.799999237061</ele>
        <time>2021-01-14T09:57:26.000Z</time>
      </trkpt>
      <trkpt lat="47.34604" lon="-2.45328">
        <ele>37.799999237061</ele>
        <time>2021-01-14T09:57:32.000Z</time>
      </trkpt>
      <trkpt lat="47.34622" lon="-2.45376">
        <ele>37.799999237061</ele>
        <time>2021-01-14T09:57:38.000Z</time>
      </trkpt>
      <trkpt lat="47.34643" lon="-2.45433">
        <ele>37.799999237061</ele>
        <time>2021-01-14T09:57:45.000Z</time>
      </trkpt>
      <trkpt lat="47.34661" lon="-2.45481">
        <ele>37.799999237061</ele>
        <time>2021-01-14T09:57:51.000Z</time>
      </trkpt>
      <trkpt lat="47.34679" lon="-2.45533">
        <ele>37.799999237061</ele>
        <time>2021-01-14T09:57:58.000Z</time>
      </trkpt>
      <trkpt lat="47.34702" lon="-2.45595">
        <ele>37.799999237061</ele>
        <time>2021-01-14T09:58:07.000Z</time>
      </trkpt>
      <trkpt lat="47.3473" lon="-2.45649">
        <ele>37.799999237061</ele>
        <time>2021-01-14T09:58:15.000Z</time>
      </trkpt>
      <trkpt lat="47.34756" lon="-2.4571">
        <ele>37.799999237061</ele>
        <time>2021-01-14T09:58:23.000Z</time>
      </trkpt>
      <trkpt lat="47.34774" lon="-2.4577">
        <ele>37.799999237061</ele>
        <time>2021-01-14T09:58:30.000Z</time>
      </trkpt>
      <trkpt lat="47.34782" lon="-2.4582">
        <ele>37.799999237061</ele>
        <time>2021-01-14T09:58:36.000Z</time>
      </trkpt>
      <trkpt lat="47.34783" lon="-2.45834">
        <ele>37.799999237061</ele>
        <time>2021-01-14T09:58:38.000Z</time>
      </trkpt>
      <trkpt lat="47.34783" lon="-2.45851">
        <ele>37.799999237061</ele>
        <time>2021-01-14T09:58:41.000Z</time>
      </trkpt>
      <trkpt lat="47.34789" lon="-2.45878">
        <ele>37.799999237061</ele>
        <time>2021-01-14T09:58:46.000Z</time>
      </trkpt>
      <trkpt lat="47.34791" lon="-2.4591">
        <ele>37.799999237061</ele>
        <time>2021-01-14T09:58:51.000Z</time>
      </trkpt>
      <trkpt lat="47.34797" lon="-2.45968">
        <ele>37.799999237061</ele>
        <time>2021-01-14T09:58:57.000Z</time>
      </trkpt>
      <trkpt lat="47.34804" lon="-2.46028">
        <ele>37.799999237061</ele>
        <time>2021-01-14T09:59:03.000Z</time>
      </trkpt>
      <trkpt lat="47.34812" lon="-2.46095">
        <ele>37.799999237061</ele>
        <time>2021-01-14T09:59:10.000Z</time>
      </trkpt>
      <trkpt lat="47.34817" lon="-2.46167">
        <ele>37.799999237061</ele>
        <time>2021-01-14T09:59:18.000Z</time>
      </trkpt>
      <trkpt lat="47.3482" lon="-2.46216">
        <ele>37.799999237061</ele>
        <time>2021-01-14T09:59:24.000Z</time>
      </trkpt>
      <trkpt lat="47.34821" lon="-2.46231">
        <ele>37.799999237061</ele>
        <time>2021-01-14T09:59:26.000Z</time>
      </trkpt>
      <trkpt lat="47.34815" lon="-2.4625">
        <ele>37.799999237061</ele>
        <time>2021-01-14T09:59:29.000Z</time>
      </trkpt>
      <trkpt lat="47.34801" lon="-2.4626">
        <ele>37.799999237061</ele>
        <time>2021-01-14T09:59:32.000Z</time>
      </trkpt>
      <trkpt lat="47.34791" lon="-2.46261">
        <ele>37.799999237061</ele>
        <time>2021-01-14T09:59:34.000Z</time>
      </trkpt>
      <trkpt lat="47.34786" lon="-2.46262">
        <ele>37.799999237061</ele>
        <time>2021-01-14T09:59:35.000Z</time>
      </trkpt>
      <trkpt lat="47.34781" lon="-2.46263">
        <ele>37.799999237061</ele>
        <time>2021-01-14T09:59:36.000Z</time>
      </trkpt>
      <trkpt lat="47.34744" lon="-2.46269">
        <ele>37.799999237061</ele>
        <time>2021-01-14T09:59:43.000Z</time>
      </trkpt>
      <trkpt lat="47.3471" lon="-2.46282">
        <ele>37.799999237061</ele>
        <time>2021-01-14T09:59:49.000Z</time>
      </trkpt>
      <trkpt lat="47.34693" lon="-2.46289">
        <ele>37.799999237061</ele>
        <time>2021-01-14T09:59:52.000Z</time>
      </trkpt>
      <trkpt lat="47.34675" lon="-2.46295">
        <ele>37.799999237061</ele>
        <time>2021-01-14T09:59:55.000Z</time>
      </trkpt>
      <trkpt lat="47.34636" lon="-2.4631">
        <ele>37.799999237061</ele>
        <time>2021-01-14T10:00:02.000Z</time>
      </trkpt>
      <trkpt lat="47.34588" lon="-2.46333">
        <ele>37.799999237061</ele>
        <time>2021-01-14T10:00:11.000Z</time>
      </trkpt>
      <trkpt lat="47.34583" lon="-2.46336">
        <ele>37.799999237061</ele>
        <time>2021-01-14T10:00:12.000Z</time>
      </trkpt>
      <trkpt lat="47.34569" lon="-2.46347">
        <ele>37.799999237061</ele>
        <time>2021-01-14T10:00:15.000Z</time>
      </trkpt>
      <trkpt lat="47.3456" lon="-2.46356">
        <ele>37.799999237061</ele>
        <time>2021-01-14T10:00:17.000Z</time>
      </trkpt>
      <trkpt lat="47.34551" lon="-2.46365">
        <ele>37.799999237061</ele>
        <time>2021-01-14T10:00:19.000Z</time>
      </trkpt>
      <trkpt lat="47.34539" lon="-2.46379">
        <ele>37.799999237061</ele>
        <time>2021-01-14T10:00:22.000Z</time>
      </trkpt>
      <trkpt lat="47.34508" lon="-2.46401">
        <ele>37.799999237061</ele>
        <time>2021-01-14T10:00:29.000Z</time>
      </trkpt>
      <trkpt lat="47.34498" lon="-2.46406">
        <ele>37.799999237061</ele>
        <time>2021-01-14T10:00:31.000Z</time>
      </trkpt>
      <trkpt lat="47.34489" lon="-2.46411">
        <ele>37.799999237061</ele>
        <time>2021-01-14T10:00:33.000Z</time>
      </trkpt>
      <trkpt lat="47.34485" lon="-2.46413">
        <ele>37.799999237061</ele>
        <time>2021-01-14T10:00:34.000Z</time>
      </trkpt>
      <trkpt lat="47.34455" lon="-2.46426">
        <ele>37.799999237061</ele>
        <time>2021-01-14T10:00:40.000Z</time>
      </trkpt>
      <trkpt lat="47.34428" lon="-2.46436">
        <ele>37.799999237061</ele>
        <time>2021-01-14T10:00:45.000Z</time>
      </trkpt>
      <trkpt lat="47.34416" lon="-2.4644">
        <ele>37.799999237061</ele>
        <time>2021-01-14T10:00:47.000Z</time>
      </trkpt>
      <trkpt lat="47.34401" lon="-2.46448">
        <ele>37.799999237061</ele>
        <time>2021-01-14T10:00:50.000Z</time>
      </trkpt>
      <trkpt lat="47.34367" lon="-2.46467">
        <ele>37.799999237061</ele>
        <time>2021-01-14T10:00:57.000Z</time>
      </trkpt>
      <trkpt lat="47.34329" lon="-2.4648">
        <ele>37.799999237061</ele>
        <time>2021-01-14T10:01:04.000Z</time>
      </trkpt>
      <trkpt lat="47.34296" lon="-2.46485">
        <ele>37.799999237061</ele>
        <time>2021-01-14T10:01:10.000Z</time>
      </trkpt>
      <trkpt lat="47.34261" lon="-2.46486">
        <ele>37.799999237061</ele>
        <time>2021-01-14T10:01:16.000Z</time>
      </trkpt>
      <trkpt lat="47.34224" lon="-2.46489">
        <ele>37.799999237061</ele>
        <time>2021-01-14T10:01:22.000Z</time>
      </trkpt>
      <trkpt lat="47.34189" lon="-2.46491">
        <ele>37.799999237061</ele>
        <time>2021-01-14T10:01:28.000Z</time>
      </trkpt>
      <trkpt lat="47.34151" lon="-2.46493">
        <ele>37.799999237061</ele>
        <time>2021-01-14T10:01:35.000Z</time>
      </trkpt>
      <trkpt lat="47.3414" lon="-2.46493">
        <ele>37.799999237061</ele>
        <time>2021-01-14T10:01:37.000Z</time>
      </trkpt>
      <trkpt lat="47.34124" lon="-2.46492">
        <ele>37.799999237061</ele>
        <time>2021-01-14T10:01:40.000Z</time>
      </trkpt>
      <trkpt lat="47.34102" lon="-2.46487">
        <ele>37.799999237061</ele>
        <time>2021-01-14T10:01:44.000Z</time>
      </trkpt>
      <trkpt lat="47.34096" lon="-2.46487">
        <ele>37.799999237061</ele>
        <time>2021-01-14T10:01:45.000Z</time>
      </trkpt>
      <trkpt lat="47.34082" lon="-2.46486">
        <ele>37.799999237061</ele>
        <time>2021-01-14T10:01:49.000Z</time>
      </trkpt>
      <trkpt lat="47.34078" lon="-2.46473">
        <ele>37.799999237061</ele>
        <time>2021-01-14T10:01:53.000Z</time>
      </trkpt>
      <trkpt lat="47.34074" lon="-2.46451">
        <ele>37.799999237061</ele>
        <time>2021-01-14T10:01:58.000Z</time>
      </trkpt>
      <trkpt lat="47.34073" lon="-2.46447">
        <ele>37.400001525879</ele>
        <time>2021-01-14T10:01:59.000Z</time>
      </trkpt>
      <trkpt lat="47.34072" lon="-2.46442">
        <ele>37</ele>
        <time>2021-01-14T10:02:00.000Z</time>
      </trkpt>
      <trkpt lat="47.34071" lon="-2.46438">
        <ele>36.599998474121</ele>
        <time>2021-01-14T10:02:01.000Z</time>
      </trkpt>
      <trkpt lat="47.3407" lon="-2.46434">
        <ele>36.200000762939</ele>
        <time>2021-01-14T10:02:02.000Z</time>
      </trkpt>
      <trkpt lat="47.34068" lon="-2.46429">
        <ele>35.799999237061</ele>
        <time>2021-01-14T10:02:03.000Z</time>
      </trkpt>
      <trkpt lat="47.34064" lon="-2.46416">
        <ele>35.799999237061</ele>
        <time>2021-01-14T10:02:06.000Z</time>
      </trkpt>
      <trkpt lat="47.3406" lon="-2.4639">
        <ele>35.799999237061</ele>
        <time>2021-01-14T10:02:12.000Z</time>
      </trkpt>
      <trkpt lat="47.34067" lon="-2.46368">
        <ele>35.799999237061</ele>
        <time>2021-01-14T10:02:17.000Z</time>
      </trkpt>
      <trkpt lat="47.34082" lon="-2.46356">
        <ele>35.799999237061</ele>
        <time>2021-01-14T10:02:22.000Z</time>
      </trkpt>
      <trkpt lat="47.34104" lon="-2.4634">
        <ele>35.799999237061</ele>
        <time>2021-01-14T10:02:29.000Z</time>
      </trkpt>
      <trkpt lat="47.34124" lon="-2.46324">
        <ele>35.799999237061</ele>
        <time>2021-01-14T10:02:36.000Z</time>
      </trkpt>
      <trkpt lat="47.34141" lon="-2.46316">
        <ele>35.799999237061</ele>
        <time>2021-01-14T10:02:42.000Z</time>
      </trkpt>
      <trkpt lat="47.34167" lon="-2.46299">
        <ele>35.799999237061</ele>
        <time>2021-01-14T10:02:50.000Z</time>
      </trkpt>
      <trkpt lat="47.3417" lon="-2.46297">
        <ele>35.400001525879</ele>
        <time>2021-01-14T10:02:51.000Z</time>
      </trkpt>
      <trkpt lat="47.34173" lon="-2.46295">
        <ele>35</ele>
        <time>2021-01-14T10:02:52.000Z</time>
      </trkpt>
      <trkpt lat="47.34176" lon="-2.46293">
        <ele>34.599998474121</ele>
        <time>2021-01-14T10:02:53.000Z</time>
      </trkpt>
      <trkpt lat="47.34179" lon="-2.46292">
        <ele>34.200000762939</ele>
        <time>2021-01-14T10:02:54.000Z</time>
      </trkpt>
      <trkpt lat="47.34183" lon="-2.4629">
        <ele>33.799999237061</ele>
        <time>2021-01-14T10:02:55.000Z</time>
      </trkpt>
      <trkpt lat="47.34189" lon="-2.46286">
        <ele>33.799999237061</ele>
        <time>2021-01-14T10:02:57.000Z</time>
      </trkpt>
      <trkpt lat="47.34213" lon="-2.46283">
        <ele>33.799999237061</ele>
        <time>2021-01-14T10:03:04.000Z</time>
      </trkpt>
      <trkpt lat="47.3423" lon="-2.46281">
        <ele>33.799999237061</ele>
        <time>2021-01-14T10:03:09.000Z</time>
      </trkpt>
      <trkpt lat="47.3424" lon="-2.46278">
        <ele>33.799999237061</ele>
        <time>2021-01-14T10:03:13.000Z</time>
      </trkpt>
      <trkpt lat="47.34241" lon="-2.46276">
        <ele>33.799999237061</ele>
        <time>2021-01-14T10:03:14.000Z</time>
      </trkpt>
      <trkpt lat="47.34242" lon="-2.46267">
        <ele>33.799999237061</ele>
        <time>2021-01-14T10:03:19.000Z</time>
      </trkpt>
      <trkpt lat="47.34238" lon="-2.46277">
        <ele>29.60000038147</ele>
        <time>2021-01-14T10:04:11.000Z</time>
      </trkpt>
      <trkpt lat="47.34226" lon="-2.4628">
        <ele>29.60000038147</ele>
        <time>2021-01-14T10:04:16.000Z</time>
      </trkpt>
      <trkpt lat="47.34204" lon="-2.46282">
        <ele>29.60000038147</ele>
        <time>2021-01-14T10:04:22.000Z</time>
      </trkpt>
      <trkpt lat="47.34177" lon="-2.46291">
        <ele>29.60000038147</ele>
        <time>2021-01-14T10:04:29.000Z</time>
      </trkpt>
      <trkpt lat="47.34144" lon="-2.46312">
        <ele>29.60000038147</ele>
        <time>2021-01-14T10:04:38.000Z</time>
      </trkpt>
      <trkpt lat="47.34108" lon="-2.46336">
        <ele>29.60000038147</ele>
        <time>2021-01-14T10:04:47.000Z</time>
      </trkpt>
      <trkpt lat="47.34076" lon="-2.46363">
        <ele>29.60000038147</ele>
        <time>2021-01-14T10:04:55.000Z</time>
      </trkpt>
      <trkpt lat="47.34068" lon="-2.46371">
        <ele>29.60000038147</ele>
        <time>2021-01-14T10:04:57.000Z</time>
      </trkpt>
      <trkpt lat="47.3406" lon="-2.4639">
        <ele>29.60000038147</ele>
        <time>2021-01-14T10:05:00.000Z</time>
      </trkpt>
      <trkpt lat="47.34062" lon="-2.46415">
        <ele>29.60000038147</ele>
        <time>2021-01-14T10:05:04.000Z</time>
      </trkpt>
      <trkpt lat="47.34064" lon="-2.46421">
        <ele>29.60000038147</ele>
        <time>2021-01-14T10:05:05.000Z</time>
      </trkpt>
      <trkpt lat="47.34072" lon="-2.46458">
        <ele>29.60000038147</ele>
        <time>2021-01-14T10:05:11.000Z</time>
      </trkpt>
      <trkpt lat="47.34076" lon="-2.46476">
        <ele>29.60000038147</ele>
        <time>2021-01-14T10:05:14.000Z</time>
      </trkpt>
      <trkpt lat="47.34076" lon="-2.46487">
        <ele>29.60000038147</ele>
        <time>2021-01-14T10:05:16.000Z</time>
      </trkpt>
      <trkpt lat="47.34068" lon="-2.46496">
        <ele>29.60000038147</ele>
        <time>2021-01-14T10:05:19.000Z</time>
      </trkpt>
      <trkpt lat="47.34056" lon="-2.46501">
        <ele>29.60000038147</ele>
        <time>2021-01-14T10:05:22.000Z</time>
      </trkpt>
      <trkpt lat="47.34047" lon="-2.46507">
        <ele>29.60000038147</ele>
        <time>2021-01-14T10:05:24.000Z</time>
      </trkpt>
      <trkpt lat="47.34043" lon="-2.46509">
        <ele>29.60000038147</ele>
        <time>2021-01-14T10:05:25.000Z</time>
      </trkpt>
      <trkpt lat="47.34026" lon="-2.46522">
        <ele>29.60000038147</ele>
        <time>2021-01-14T10:05:29.000Z</time>
      </trkpt>
      <trkpt lat="47.34014" lon="-2.46531">
        <ele>29.60000038147</ele>
        <time>2021-01-14T10:05:32.000Z</time>
      </trkpt>
      <trkpt lat="47.34002" lon="-2.4654">
        <ele>30</ele>
        <time>2021-01-14T10:05:35.000Z</time>
      </trkpt>
      <trkpt lat="47.33998" lon="-2.46543">
        <ele>30.39999961853</ele>
        <time>2021-01-14T10:05:36.000Z</time>
      </trkpt>
      <trkpt lat="47.33995" lon="-2.46546">
        <ele>30.799999237061</ele>
        <time>2021-01-14T10:05:37.000Z</time>
      </trkpt>
      <trkpt lat="47.33991" lon="-2.46549">
        <ele>31.200000762939</ele>
        <time>2021-01-14T10:05:38.000Z</time>
      </trkpt>
      <trkpt lat="47.33987" lon="-2.46552">
        <ele>31.799999237061</ele>
        <time>2021-01-14T10:05:39.000Z</time>
      </trkpt>
      <trkpt lat="47.33975" lon="-2.4656">
        <ele>31.799999237061</ele>
        <time>2021-01-14T10:05:42.000Z</time>
      </trkpt>
      <trkpt lat="47.33942" lon="-2.46586">
        <ele>31.799999237061</ele>
        <time>2021-01-14T10:05:50.000Z</time>
      </trkpt>
      <trkpt lat="47.33913" lon="-2.4661">
        <ele>31.799999237061</ele>
        <time>2021-01-14T10:05:57.000Z</time>
      </trkpt>
      <trkpt lat="47.33909" lon="-2.46614">
        <ele>31.799999237061</ele>
        <time>2021-01-14T10:05:58.000Z</time>
      </trkpt>
      <trkpt lat="47.33889" lon="-2.46635">
        <ele>31.799999237061</ele>
        <time>2021-01-14T10:06:03.000Z</time>
      </trkpt>
      <trkpt lat="47.33865" lon="-2.4666">
        <ele>31.799999237061</ele>
        <time>2021-01-14T10:06:09.000Z</time>
      </trkpt>
      <trkpt lat="47.33861" lon="-2.46663">
        <ele>31.799999237061</ele>
        <time>2021-01-14T10:06:10.000Z</time>
      </trkpt>
      <trkpt lat="47.33824" lon="-2.46686">
        <ele>31.799999237061</ele>
        <time>2021-01-14T10:06:18.000Z</time>
      </trkpt>
      <trkpt lat="47.33797" lon="-2.46701">
        <ele>31.799999237061</ele>
        <time>2021-01-14T10:06:24.000Z</time>
      </trkpt>
      <trkpt lat="47.33792" lon="-2.46702">
        <ele>31.799999237061</ele>
        <time>2021-01-14T10:06:25.000Z</time>
      </trkpt>
      <trkpt lat="47.33761" lon="-2.46698">
        <ele>31.799999237061</ele>
        <time>2021-01-14T10:06:31.000Z</time>
      </trkpt>
      <trkpt lat="47.33738" lon="-2.46691">
        <ele>31.799999237061</ele>
        <time>2021-01-14T10:06:36.000Z</time>
      </trkpt>
      <trkpt lat="47.33729" lon="-2.46692">
        <ele>31.799999237061</ele>
        <time>2021-01-14T10:06:38.000Z</time>
      </trkpt>
      <trkpt lat="47.33721" lon="-2.46695">
        <ele>31.799999237061</ele>
        <time>2021-01-14T10:06:40.000Z</time>
      </trkpt>
      <trkpt lat="47.33717" lon="-2.46697">
        <ele>31.799999237061</ele>
        <time>2021-01-14T10:06:42.000Z</time>
      </trkpt>
      <trkpt lat="47.33713" lon="-2.46702">
        <ele>31.799999237061</ele>
        <time>2021-01-14T10:06:46.000Z</time>
      </trkpt>
      <trkpt lat="47.33712" lon="-2.46702">
        <ele>31.799999237061</ele>
        <time>2021-01-14T10:06:54.000Z</time>
      </trkpt>
      <trkpt lat="47.337" lon="-2.46706">
        <ele>31.799999237061</ele>
        <time>2021-01-14T10:06:59.000Z</time>
      </trkpt>
      <trkpt lat="47.33679" lon="-2.46715">
        <ele>31.799999237061</ele>
        <time>2021-01-14T10:07:05.000Z</time>
      </trkpt>
      <trkpt lat="47.33667" lon="-2.46721">
        <ele>31.799999237061</ele>
        <time>2021-01-14T10:07:08.000Z</time>
      </trkpt>
      <trkpt lat="47.33658" lon="-2.46728">
        <ele>31.799999237061</ele>
        <time>2021-01-14T10:07:10.000Z</time>
      </trkpt>
      <trkpt lat="47.33626" lon="-2.46748">
        <ele>31.799999237061</ele>
        <time>2021-01-14T10:07:16.000Z</time>
      </trkpt>
      <trkpt lat="47.33618" lon="-2.46753">
        <ele>31.799999237061</ele>
        <time>2021-01-14T10:07:19.000Z</time>
      </trkpt>
      <trkpt lat="47.33617" lon="-2.46753">
        <ele>31.799999237061</ele>
        <time>2021-01-14T10:07:20.000Z</time>
      </trkpt>
      <trkpt lat="47.33616" lon="-2.4675">
        <ele>31.799999237061</ele>
        <time>2021-01-14T10:07:22.000Z</time>
      </trkpt>
      <trkpt lat="47.33618" lon="-2.46735">
        <ele>31.799999237061</ele>
        <time>2021-01-14T10:07:26.000Z</time>
      </trkpt>
      <trkpt lat="47.33615" lon="-2.46725">
        <ele>31.799999237061</ele>
        <time>2021-01-14T10:07:28.000Z</time>
      </trkpt>
      <trkpt lat="47.33612" lon="-2.46713">
        <ele>31.799999237061</ele>
        <time>2021-01-14T10:07:30.000Z</time>
      </trkpt>
      <trkpt lat="47.33597" lon="-2.46673">
        <ele>31.799999237061</ele>
        <time>2021-01-14T10:07:36.000Z</time>
      </trkpt>
      <trkpt lat="47.33579" lon="-2.46625">
        <ele>31.799999237061</ele>
        <time>2021-01-14T10:07:44.000Z</time>
      </trkpt>
      <trkpt lat="47.33563" lon="-2.4659">
        <ele>31.799999237061</ele>
        <time>2021-01-14T10:07:51.000Z</time>
      </trkpt>
      <trkpt lat="47.33554" lon="-2.46574">
        <ele>31.799999237061</ele>
        <time>2021-01-14T10:07:55.000Z</time>
      </trkpt>
      <trkpt lat="47.33547" lon="-2.46539">
        <ele>31.799999237061</ele>
        <time>2021-01-14T10:08:02.000Z</time>
      </trkpt>
      <trkpt lat="47.33541" lon="-2.46509">
        <ele>31.799999237061</ele>
        <time>2021-01-14T10:08:08.000Z</time>
      </trkpt>
      <trkpt lat="47.33536" lon="-2.46492">
        <ele>31.799999237061</ele>
        <time>2021-01-14T10:08:13.000Z</time>
      </trkpt>
      <trkpt lat="47.33535" lon="-2.46491">
        <ele>31.799999237061</ele>
        <time>2021-01-14T10:08:14.000Z</time>
      </trkpt>
      <trkpt lat="47.33527" lon="-2.4649">
        <ele>31.799999237061</ele>
        <time>2021-01-14T10:08:17.000Z</time>
      </trkpt>
      <trkpt lat="47.33526" lon="-2.46481">
        <ele>31.799999237061</ele>
        <time>2021-01-14T10:08:20.000Z</time>
      </trkpt>
      <trkpt lat="47.33526" lon="-2.46479">
        <ele>31.799999237061</ele>
        <time>2021-01-14T10:08:22.000Z</time>
      </trkpt>
      <trkpt lat="47.33522" lon="-2.46483">
        <ele>29.60000038147</ele>
        <time>2021-01-14T10:19:32.000Z</time>
      </trkpt>
      <trkpt lat="47.33521" lon="-2.46486">
        <ele>29.60000038147</ele>
        <time>2021-01-14T10:19:33.000Z</time>
      </trkpt>
      <trkpt lat="47.33511" lon="-2.46503">
        <ele>29.60000038147</ele>
        <time>2021-01-14T10:19:37.000Z</time>
      </trkpt>
      <trkpt lat="47.33489" lon="-2.4653">
        <ele>29.60000038147</ele>
        <time>2021-01-14T10:19:42.000Z</time>
      </trkpt>
      <trkpt lat="47.33457" lon="-2.46567">
        <ele>29.60000038147</ele>
        <time>2021-01-14T10:19:49.000Z</time>
      </trkpt>
      <trkpt lat="47.33432" lon="-2.46588">
        <ele>29.60000038147</ele>
        <time>2021-01-14T10:19:54.000Z</time>
      </trkpt>
      <trkpt lat="47.33422" lon="-2.46594">
        <ele>29.60000038147</ele>
        <time>2021-01-14T10:19:56.000Z</time>
      </trkpt>
      <trkpt lat="47.3341" lon="-2.46601">
        <ele>29.60000038147</ele>
        <time>2021-01-14T10:19:58.000Z</time>
      </trkpt>
      <trkpt lat="47.334" lon="-2.46611">
        <ele>29.60000038147</ele>
        <time>2021-01-14T10:20:00.000Z</time>
      </trkpt>
      <trkpt lat="47.3339" lon="-2.46621">
        <ele>29.60000038147</ele>
        <time>2021-01-14T10:20:02.000Z</time>
      </trkpt>
      <trkpt lat="47.33378" lon="-2.46633">
        <ele>29.60000038147</ele>
        <time>2021-01-14T10:20:05.000Z</time>
      </trkpt>
      <trkpt lat="47.33365" lon="-2.46643">
        <ele>29.60000038147</ele>
        <time>2021-01-14T10:20:10.000Z</time>
      </trkpt>
      <trkpt lat="47.33356" lon="-2.46645">
        <ele>29.60000038147</ele>
        <time>2021-01-14T10:20:15.000Z</time>
      </trkpt>
      <trkpt lat="47.33342" lon="-2.46651">
        <ele>29.60000038147</ele>
        <time>2021-01-14T10:20:21.000Z</time>
      </trkpt>
      <trkpt lat="47.33329" lon="-2.46653">
        <ele>29.60000038147</ele>
        <time>2021-01-14T10:20:26.000Z</time>
      </trkpt>
      <trkpt lat="47.33328" lon="-2.4665">
        <ele>30</ele>
        <time>2021-01-14T10:20:27.000Z</time>
      </trkpt>
      <trkpt lat="47.33328" lon="-2.46647">
        <ele>30.39999961853</ele>
        <time>2021-01-14T10:20:28.000Z</time>
      </trkpt>
      <trkpt lat="47.33329" lon="-2.46644">
        <ele>30.799999237061</ele>
        <time>2021-01-14T10:20:29.000Z</time>
      </trkpt>
      <trkpt lat="47.33331" lon="-2.4664">
        <ele>31.200000762939</ele>
        <time>2021-01-14T10:20:30.000Z</time>
      </trkpt>
      <trkpt lat="47.33331" lon="-2.46635">
        <ele>31.60000038147</ele>
        <time>2021-01-14T10:20:31.000Z</time>
      </trkpt>
      <trkpt lat="47.33329" lon="-2.4663">
        <ele>31.60000038147</ele>
        <time>2021-01-14T10:20:32.000Z</time>
      </trkpt>
      <trkpt lat="47.33317" lon="-2.46611">
        <ele>31.60000038147</ele>
        <time>2021-01-14T10:20:36.000Z</time>
      </trkpt>
      <trkpt lat="47.333" lon="-2.46586">
        <ele>31.60000038147</ele>
        <time>2021-01-14T10:20:41.000Z</time>
      </trkpt>
      <trkpt lat="47.33298" lon="-2.4658">
        <ele>31.60000038147</ele>
        <time>2021-01-14T10:20:42.000Z</time>
      </trkpt>
      <trkpt lat="47.33294" lon="-2.46559">
        <ele>31.60000038147</ele>
        <time>2021-01-14T10:20:45.000Z</time>
      </trkpt>
      <trkpt lat="47.33292" lon="-2.46545">
        <ele>31.60000038147</ele>
        <time>2021-01-14T10:20:47.000Z</time>
      </trkpt>
      <trkpt lat="47.3329" lon="-2.46524">
        <ele>31.60000038147</ele>
        <time>2021-01-14T10:20:50.000Z</time>
      </trkpt>
      <trkpt lat="47.33288" lon="-2.46503">
        <ele>31.60000038147</ele>
        <time>2021-01-14T10:20:53.000Z</time>
      </trkpt>
      <trkpt lat="47.33287" lon="-2.46491">
        <ele>31.60000038147</ele>
        <time>2021-01-14T10:20:55.000Z</time>
      </trkpt>
      <trkpt lat="47.33284" lon="-2.46468">
        <ele>31.60000038147</ele>
        <time>2021-01-14T10:20:59.000Z</time>
      </trkpt>
      <trkpt lat="47.33276" lon="-2.46437">
        <ele>31.60000038147</ele>
        <time>2021-01-14T10:21:05.000Z</time>
      </trkpt>
      <trkpt lat="47.33263" lon="-2.46427">
        <ele>31.60000038147</ele>
        <time>2021-01-14T10:21:09.000Z</time>
      </trkpt>
      <trkpt lat="47.33254" lon="-2.46427">
        <ele>31.60000038147</ele>
        <time>2021-01-14T10:21:11.000Z</time>
      </trkpt>
      <trkpt lat="47.33241" lon="-2.46433">
        <ele>31.60000038147</ele>
        <time>2021-01-14T10:21:14.000Z</time>
      </trkpt>
      <trkpt lat="47.33232" lon="-2.4645">
        <ele>31.60000038147</ele>
        <time>2021-01-14T10:21:17.000Z</time>
      </trkpt>
      <trkpt lat="47.33229" lon="-2.46455">
        <ele>31.60000038147</ele>
        <time>2021-01-14T10:21:18.000Z</time>
      </trkpt>
      <trkpt lat="47.33227" lon="-2.4646">
        <ele>31.60000038147</ele>
        <time>2021-01-14T10:21:19.000Z</time>
      </trkpt>
      <trkpt lat="47.3322" lon="-2.4647">
        <ele>31.60000038147</ele>
        <time>2021-01-14T10:21:22.000Z</time>
      </trkpt>
      <trkpt lat="47.33218" lon="-2.46471">
        <ele>31.60000038147</ele>
        <time>2021-01-14T10:21:23.000Z</time>
      </trkpt>
      <trkpt lat="47.33207" lon="-2.46474">
        <ele>31.60000038147</ele>
        <time>2021-01-14T10:21:29.000Z</time>
      </trkpt>
      <trkpt lat="47.33194" lon="-2.46475">
        <ele>31.60000038147</ele>
        <time>2021-01-14T10:21:35.000Z</time>
      </trkpt>
      <trkpt lat="47.33179" lon="-2.4648">
        <ele>31.60000038147</ele>
        <time>2021-01-14T10:21:40.000Z</time>
      </trkpt>
      <trkpt lat="47.33176" lon="-2.46482">
        <ele>31.60000038147</ele>
        <time>2021-01-14T10:21:44.000Z</time>
      </trkpt>
      <trkpt lat="47.33169" lon="-2.46487">
        <ele>31.60000038147</ele>
        <time>2021-01-14T10:21:51.000Z</time>
      </trkpt>
      <trkpt lat="47.33158" lon="-2.46492">
        <ele>31.60000038147</ele>
        <time>2021-01-14T10:21:55.000Z</time>
      </trkpt>
      <trkpt lat="47.33142" lon="-2.46496">
        <ele>31.60000038147</ele>
        <time>2021-01-14T10:22:00.000Z</time>
      </trkpt>
      <trkpt lat="47.33132" lon="-2.46498">
        <ele>31.60000038147</ele>
        <time>2021-01-14T10:22:04.000Z</time>
      </trkpt>
      <trkpt lat="47.33114" lon="-2.46504">
        <ele>31.60000038147</ele>
        <time>2021-01-14T10:22:09.000Z</time>
      </trkpt>
      <trkpt lat="47.33096" lon="-2.46515">
        <ele>31.60000038147</ele>
        <time>2021-01-14T10:22:14.000Z</time>
      </trkpt>
      <trkpt lat="47.33091" lon="-2.46516">
        <ele>31.60000038147</ele>
        <time>2021-01-14T10:22:15.000Z</time>
      </trkpt>
      <trkpt lat="47.33072" lon="-2.46526">
        <ele>31.60000038147</ele>
        <time>2021-01-14T10:22:18.000Z</time>
      </trkpt>
      <trkpt lat="47.33051" lon="-2.46537">
        <ele>31.60000038147</ele>
        <time>2021-01-14T10:22:21.000Z</time>
      </trkpt>
      <trkpt lat="47.33036" lon="-2.4654">
        <ele>31.60000038147</ele>
        <time>2021-01-14T10:22:23.000Z</time>
      </trkpt>
      <trkpt lat="47.33011" lon="-2.46544">
        <ele>31.60000038147</ele>
        <time>2021-01-14T10:22:27.000Z</time>
      </trkpt>
      <trkpt lat="47.33005" lon="-2.46546">
        <ele>32</ele>
        <time>2021-01-14T10:22:28.000Z</time>
      </trkpt>
      <trkpt lat="47.32999" lon="-2.46548">
        <ele>32.400001525879</ele>
        <time>2021-01-14T10:22:29.000Z</time>
      </trkpt>
      <trkpt lat="47.32993" lon="-2.46551">
        <ele>32.799999237061</ele>
        <time>2021-01-14T10:22:30.000Z</time>
      </trkpt>
      <trkpt lat="47.32986" lon="-2.46555">
        <ele>33.200000762939</ele>
        <time>2021-01-14T10:22:31.000Z</time>
      </trkpt>
      <trkpt lat="47.3298" lon="-2.46558">
        <ele>33.599998474121</ele>
        <time>2021-01-14T10:22:32.000Z</time>
      </trkpt>
      <trkpt lat="47.32975" lon="-2.46561">
        <ele>33.599998474121</ele>
        <time>2021-01-14T10:22:33.000Z</time>
      </trkpt>
      <trkpt lat="47.3297" lon="-2.46563">
        <ele>33.599998474121</ele>
        <time>2021-01-14T10:22:34.000Z</time>
      </trkpt>
      <trkpt lat="47.32961" lon="-2.46564">
        <ele>33.599998474121</ele>
        <time>2021-01-14T10:22:37.000Z</time>
      </trkpt>
      <trkpt lat="47.32959" lon="-2.46562">
        <ele>33.599998474121</ele>
        <time>2021-01-14T10:22:40.000Z</time>
      </trkpt>
      <trkpt lat="47.32957" lon="-2.46567">
        <ele>29.60000038147</ele>
        <time>2021-01-14T10:24:55.000Z</time>
      </trkpt>
      <trkpt lat="47.32955" lon="-2.46589">
        <ele>29.60000038147</ele>
        <time>2021-01-14T10:25:00.000Z</time>
      </trkpt>
      <trkpt lat="47.32954" lon="-2.46611">
        <ele>29.200000762939</ele>
        <time>2021-01-14T10:25:04.000Z</time>
      </trkpt>
      <trkpt lat="47.32954" lon="-2.46617">
        <ele>28.799999237061</ele>
        <time>2021-01-14T10:25:05.000Z</time>
      </trkpt>
      <trkpt lat="47.32954" lon="-2.46622">
        <ele>28.39999961853</ele>
        <time>2021-01-14T10:25:06.000Z</time>
      </trkpt>
      <trkpt lat="47.32954" lon="-2.46628">
        <ele>28</ele>
        <time>2021-01-14T10:25:07.000Z</time>
      </trkpt>
      <trkpt lat="47.32954" lon="-2.46635">
        <ele>27.60000038147</ele>
        <time>2021-01-14T10:25:08.000Z</time>
      </trkpt>
      <trkpt lat="47.32956" lon="-2.46673">
        <ele>27.60000038147</ele>
        <time>2021-01-14T10:25:13.000Z</time>
      </trkpt>
      <trkpt lat="47.32968" lon="-2.46726">
        <ele>27.60000038147</ele>
        <time>2021-01-14T10:25:20.000Z</time>
      </trkpt>
      <trkpt lat="47.32972" lon="-2.4676">
        <ele>27.60000038147</ele>
        <time>2021-01-14T10:25:24.000Z</time>
      </trkpt>
      <trkpt lat="47.32971" lon="-2.46777">
        <ele>27.60000038147</ele>
        <time>2021-01-14T10:25:26.000Z</time>
      </trkpt>
      <trkpt lat="47.32965" lon="-2.46849">
        <ele>27.60000038147</ele>
        <time>2021-01-14T10:25:34.000Z</time>
      </trkpt>
      <trkpt lat="47.32956" lon="-2.46911">
        <ele>27.60000038147</ele>
        <time>2021-01-14T10:25:41.000Z</time>
      </trkpt>
      <trkpt lat="47.32944" lon="-2.46988">
        <ele>27.60000038147</ele>
        <time>2021-01-14T10:25:50.000Z</time>
      </trkpt>
      <trkpt lat="47.32943" lon="-2.47057">
        <ele>27.60000038147</ele>
        <time>2021-01-14T10:25:58.000Z</time>
      </trkpt>
      <trkpt lat="47.32949" lon="-2.47105">
        <ele>27.60000038147</ele>
        <time>2021-01-14T10:26:04.000Z</time>
      </trkpt>
      <trkpt lat="47.32963" lon="-2.47159">
        <ele>27.60000038147</ele>
        <time>2021-01-14T10:26:11.000Z</time>
      </trkpt>
      <trkpt lat="47.32972" lon="-2.47218">
        <ele>27.60000038147</ele>
        <time>2021-01-14T10:26:19.000Z</time>
      </trkpt>
      <trkpt lat="47.32976" lon="-2.47239">
        <ele>27.60000038147</ele>
        <time>2021-01-14T10:26:22.000Z</time>
      </trkpt>
      <trkpt lat="47.32981" lon="-2.47256">
        <ele>27.60000038147</ele>
        <time>2021-01-14T10:26:25.000Z</time>
      </trkpt>
      <trkpt lat="47.32979" lon="-2.47275">
        <ele>27.60000038147</ele>
        <time>2021-01-14T10:26:29.000Z</time>
      </trkpt>
      <trkpt lat="47.32961" lon="-2.47298">
        <ele>27.60000038147</ele>
        <time>2021-01-14T10:26:34.000Z</time>
      </trkpt>
      <trkpt lat="47.32928" lon="-2.47336">
        <ele>27.60000038147</ele>
        <time>2021-01-14T10:26:42.000Z</time>
      </trkpt>
      <trkpt lat="47.32905" lon="-2.47357">
        <ele>27.60000038147</ele>
        <time>2021-01-14T10:26:48.000Z</time>
      </trkpt>
      <trkpt lat="47.32896" lon="-2.47356">
        <ele>27.60000038147</ele>
        <time>2021-01-14T10:26:51.000Z</time>
      </trkpt>
      <trkpt lat="47.32893" lon="-2.47353">
        <ele>27.60000038147</ele>
        <time>2021-01-14T10:26:52.000Z</time>
      </trkpt>
      <trkpt lat="47.32886" lon="-2.47334">
        <ele>27.60000038147</ele>
        <time>2021-01-14T10:26:56.000Z</time>
      </trkpt>
      <trkpt lat="47.32885" lon="-2.47329">
        <ele>27.60000038147</ele>
        <time>2021-01-14T10:26:57.000Z</time>
      </trkpt>
      <trkpt lat="47.32882" lon="-2.47308">
        <ele>27.60000038147</ele>
        <time>2021-01-14T10:27:00.000Z</time>
      </trkpt>
      <trkpt lat="47.32882" lon="-2.47294">
        <ele>27.60000038147</ele>
        <time>2021-01-14T10:27:02.000Z</time>
      </trkpt>
      <trkpt lat="47.32876" lon="-2.47264">
        <ele>27.60000038147</ele>
        <time>2021-01-14T10:27:06.000Z</time>
      </trkpt>
      <trkpt lat="47.32875" lon="-2.47256">
        <ele>27.60000038147</ele>
        <time>2021-01-14T10:27:07.000Z</time>
      </trkpt>
      <trkpt lat="47.32864" lon="-2.4719">
        <ele>27.60000038147</ele>
        <time>2021-01-14T10:27:15.000Z</time>
      </trkpt>
      <trkpt lat="47.32855" lon="-2.47127">
        <ele>27.60000038147</ele>
        <time>2021-01-14T10:27:22.000Z</time>
      </trkpt>
      <trkpt lat="47.32844" lon="-2.4707">
        <ele>27.60000038147</ele>
        <time>2021-01-14T10:27:28.000Z</time>
      </trkpt>
      <trkpt lat="47.32823" lon="-2.47005">
        <ele>27.60000038147</ele>
        <time>2021-01-14T10:27:35.000Z</time>
      </trkpt>
      <trkpt lat="47.328" lon="-2.46953">
        <ele>27.60000038147</ele>
        <time>2021-01-14T10:27:41.000Z</time>
      </trkpt>
      <trkpt lat="47.32784" lon="-2.469">
        <ele>27.60000038147</ele>
        <time>2021-01-14T10:27:47.000Z</time>
      </trkpt>
      <trkpt lat="47.32781" lon="-2.46881">
        <ele>27.200000762939</ele>
        <time>2021-01-14T10:27:49.000Z</time>
      </trkpt>
      <trkpt lat="47.32779" lon="-2.46872">
        <ele>26.799999237061</ele>
        <time>2021-01-14T10:27:50.000Z</time>
      </trkpt>
      <trkpt lat="47.32777" lon="-2.46863">
        <ele>26.39999961853</ele>
        <time>2021-01-14T10:27:51.000Z</time>
      </trkpt>
      <trkpt lat="47.32775" lon="-2.46854">
        <ele>26</ele>
        <time>2021-01-14T10:27:52.000Z</time>
      </trkpt>
      <trkpt lat="47.32774" lon="-2.46845">
        <ele>25.39999961853</ele>
        <time>2021-01-14T10:27:53.000Z</time>
      </trkpt>
      <trkpt lat="47.32771" lon="-2.46836">
        <ele>25.39999961853</ele>
        <time>2021-01-14T10:27:54.000Z</time>
      </trkpt>
      <trkpt lat="47.32762" lon="-2.46811">
        <ele>25.39999961853</ele>
        <time>2021-01-14T10:27:57.000Z</time>
      </trkpt>
      <trkpt lat="47.32754" lon="-2.46796">
        <ele>25.39999961853</ele>
        <time>2021-01-14T10:27:59.000Z</time>
      </trkpt>
      <trkpt lat="47.32726" lon="-2.46743">
        <ele>25.39999961853</ele>
        <time>2021-01-14T10:28:06.000Z</time>
      </trkpt>
      <trkpt lat="47.32697" lon="-2.46707">
        <ele>25.39999961853</ele>
        <time>2021-01-14T10:28:12.000Z</time>
      </trkpt>
      <trkpt lat="47.32666" lon="-2.46682">
        <ele>25.39999961853</ele>
        <time>2021-01-14T10:28:18.000Z</time>
      </trkpt>
      <trkpt lat="47.32627" lon="-2.46654">
        <ele>25.39999961853</ele>
        <time>2021-01-14T10:28:25.000Z</time>
      </trkpt>
      <trkpt lat="47.32618" lon="-2.46643">
        <ele>25.39999961853</ele>
        <time>2021-01-14T10:28:27.000Z</time>
      </trkpt>
      <trkpt lat="47.32606" lon="-2.46624">
        <ele>25.39999961853</ele>
        <time>2021-01-14T10:28:30.000Z</time>
      </trkpt>
      <trkpt lat="47.32571" lon="-2.46565">
        <ele>25</ele>
        <time>2021-01-14T10:28:39.000Z</time>
      </trkpt>
      <trkpt lat="47.32567" lon="-2.4656">
        <ele>24.60000038147</ele>
        <time>2021-01-14T10:28:40.000Z</time>
      </trkpt>
      <trkpt lat="47.32562" lon="-2.46554">
        <ele>24.200000762939</ele>
        <time>2021-01-14T10:28:41.000Z</time>
      </trkpt>
      <trkpt lat="47.32557" lon="-2.46549">
        <ele>23.799999237061</ele>
        <time>2021-01-14T10:28:42.000Z</time>
      </trkpt>
      <trkpt lat="47.32553" lon="-2.46543">
        <ele>23.39999961853</ele>
        <time>2021-01-14T10:28:43.000Z</time>
      </trkpt>
      <trkpt lat="47.3254" lon="-2.46527">
        <ele>23.39999961853</ele>
        <time>2021-01-14T10:28:46.000Z</time>
      </trkpt>
      <trkpt lat="47.32523" lon="-2.4649">
        <ele>23.39999961853</ele>
        <time>2021-01-14T10:28:51.000Z</time>
      </trkpt>
      <trkpt lat="47.32495" lon="-2.46428">
        <ele>23.39999961853</ele>
        <time>2021-01-14T10:28:59.000Z</time>
      </trkpt>
      <trkpt lat="47.32464" lon="-2.46385">
        <ele>23.39999961853</ele>
        <time>2021-01-14T10:29:06.000Z</time>
      </trkpt>
      <trkpt lat="47.3244" lon="-2.46339">
        <ele>23.39999961853</ele>
        <time>2021-01-14T10:29:13.000Z</time>
      </trkpt>
      <trkpt lat="47.32416" lon="-2.46275">
        <ele>23.39999961853</ele>
        <time>2021-01-14T10:29:21.000Z</time>
      </trkpt>
      <trkpt lat="47.32389" lon="-2.46227">
        <ele>23.39999961853</ele>
        <time>2021-01-14T10:29:28.000Z</time>
      </trkpt>
      <trkpt lat="47.32357" lon="-2.46171">
        <ele>23.39999961853</ele>
        <time>2021-01-14T10:29:36.000Z</time>
      </trkpt>
      <trkpt lat="47.32352" lon="-2.46165">
        <ele>23</ele>
        <time>2021-01-14T10:29:37.000Z</time>
      </trkpt>
      <trkpt lat="47.32348" lon="-2.46159">
        <ele>22.60000038147</ele>
        <time>2021-01-14T10:29:38.000Z</time>
      </trkpt>
      <trkpt lat="47.32344" lon="-2.46152">
        <ele>22.200000762939</ele>
        <time>2021-01-14T10:29:39.000Z</time>
      </trkpt>
      <trkpt lat="47.3234" lon="-2.46146">
        <ele>21.799999237061</ele>
        <time>2021-01-14T10:29:40.000Z</time>
      </trkpt>
      <trkpt lat="47.32336" lon="-2.46139">
        <ele>21.39999961853</ele>
        <time>2021-01-14T10:29:41.000Z</time>
      </trkpt>
      <trkpt lat="47.32323" lon="-2.4612">
        <ele>21.39999961853</ele>
        <time>2021-01-14T10:29:44.000Z</time>
      </trkpt>
      <trkpt lat="47.32288" lon="-2.46057">
        <ele>21.39999961853</ele>
        <time>2021-01-14T10:29:53.000Z</time>
      </trkpt>
      <trkpt lat="47.32266" lon="-2.46004">
        <ele>21.39999961853</ele>
        <time>2021-01-14T10:30:00.000Z</time>
      </trkpt>
      <trkpt lat="47.32258" lon="-2.4599">
        <ele>21.39999961853</ele>
        <time>2021-01-14T10:30:02.000Z</time>
      </trkpt>
      <trkpt lat="47.32248" lon="-2.45979">
        <ele>21.39999961853</ele>
        <time>2021-01-14T10:30:04.000Z</time>
      </trkpt>
      <trkpt lat="47.32238" lon="-2.45969">
        <ele>21.39999961853</ele>
        <time>2021-01-14T10:30:06.000Z</time>
      </trkpt>
      <trkpt lat="47.32229" lon="-2.45958">
        <ele>21.39999961853</ele>
        <time>2021-01-14T10:30:08.000Z</time>
      </trkpt>
      <trkpt lat="47.32221" lon="-2.45945">
        <ele>21.39999961853</ele>
        <time>2021-01-14T10:30:10.000Z</time>
      </trkpt>
      <trkpt lat="47.32218" lon="-2.45938">
        <ele>21.39999961853</ele>
        <time>2021-01-14T10:30:11.000Z</time>
      </trkpt>
      <trkpt lat="47.32206" lon="-2.45906">
        <ele>21.39999961853</ele>
        <time>2021-01-14T10:30:15.000Z</time>
      </trkpt>
      <trkpt lat="47.32179" lon="-2.45841">
        <ele>21.39999961853</ele>
        <time>2021-01-14T10:30:23.000Z</time>
      </trkpt>
      <trkpt lat="47.32157" lon="-2.458">
        <ele>21.39999961853</ele>
        <time>2021-01-14T10:30:29.000Z</time>
      </trkpt>
      <trkpt lat="47.32131" lon="-2.45762">
        <ele>21.39999961853</ele>
        <time>2021-01-14T10:30:35.000Z</time>
      </trkpt>
      <trkpt lat="47.32126" lon="-2.45757">
        <ele>21.39999961853</ele>
        <time>2021-01-14T10:30:36.000Z</time>
      </trkpt>
      <trkpt lat="47.32095" lon="-2.45743">
        <ele>21.39999961853</ele>
        <time>2021-01-14T10:30:41.000Z</time>
      </trkpt>
      <trkpt lat="47.32061" lon="-2.45727">
        <ele>21.39999961853</ele>
        <time>2021-01-14T10:30:47.000Z</time>
      </trkpt>
      <trkpt lat="47.32018" lon="-2.45695">
        <ele>21.39999961853</ele>
        <time>2021-01-14T10:30:55.000Z</time>
      </trkpt>
      <trkpt lat="47.31989" lon="-2.45667">
        <ele>21.39999961853</ele>
        <time>2021-01-14T10:31:01.000Z</time>
      </trkpt>
      <trkpt lat="47.31981" lon="-2.45654">
        <ele>21</ele>
        <time>2021-01-14T10:31:03.000Z</time>
      </trkpt>
      <trkpt lat="47.31977" lon="-2.45647">
        <ele>20.60000038147</ele>
        <time>2021-01-14T10:31:04.000Z</time>
      </trkpt>
      <trkpt lat="47.31973" lon="-2.4564">
        <ele>20.200000762939</ele>
        <time>2021-01-14T10:31:05.000Z</time>
      </trkpt>
      <trkpt lat="47.31969" lon="-2.45633">
        <ele>19.799999237061</ele>
        <time>2021-01-14T10:31:06.000Z</time>
      </trkpt>
      <trkpt lat="47.31966" lon="-2.45626">
        <ele>19.39999961853</ele>
        <time>2021-01-14T10:31:07.000Z</time>
      </trkpt>
      <trkpt lat="47.31962" lon="-2.45618">
        <ele>19.39999961853</ele>
        <time>2021-01-14T10:31:08.000Z</time>
      </trkpt>
      <trkpt lat="47.31936" lon="-2.45555">
        <ele>19.39999961853</ele>
        <time>2021-01-14T10:31:16.000Z</time>
      </trkpt>
      <trkpt lat="47.31924" lon="-2.45532">
        <ele>19.39999961853</ele>
        <time>2021-01-14T10:31:19.000Z</time>
      </trkpt>
      <trkpt lat="47.31915" lon="-2.45521">
        <ele>19.39999961853</ele>
        <time>2021-01-14T10:31:21.000Z</time>
      </trkpt>
      <trkpt lat="47.31875" lon="-2.45466">
        <ele>19.39999961853</ele>
        <time>2021-01-14T10:31:30.000Z</time>
      </trkpt>
      <trkpt lat="47.3187" lon="-2.45459">
        <ele>19.39999961853</ele>
        <time>2021-01-14T10:31:31.000Z</time>
      </trkpt>
      <trkpt lat="47.31832" lon="-2.45401">
        <ele>19.39999961853</ele>
        <time>2021-01-14T10:31:40.000Z</time>
      </trkpt>
      <trkpt lat="47.3182" lon="-2.45381">
        <ele>19.39999961853</ele>
        <time>2021-01-14T10:31:43.000Z</time>
      </trkpt>
      <trkpt lat="47.31797" lon="-2.4535">
        <ele>19.39999961853</ele>
        <time>2021-01-14T10:31:49.000Z</time>
      </trkpt>
      <trkpt lat="47.31792" lon="-2.45346">
        <ele>19.39999961853</ele>
        <time>2021-01-14T10:31:50.000Z</time>
      </trkpt>
      <trkpt lat="47.3178" lon="-2.45332">
        <ele>19.39999961853</ele>
        <time>2021-01-14T10:31:53.000Z</time>
      </trkpt>
      <trkpt lat="47.31774" lon="-2.45318">
        <ele>19.39999961853</ele>
        <time>2021-01-14T10:31:55.000Z</time>
      </trkpt>
      <trkpt lat="47.3178" lon="-2.45292">
        <ele>19.39999961853</ele>
        <time>2021-01-14T10:31:58.000Z</time>
      </trkpt>
      <trkpt lat="47.31794" lon="-2.45271">
        <ele>19.39999961853</ele>
        <time>2021-01-14T10:32:01.000Z</time>
      </trkpt>
      <trkpt lat="47.31798" lon="-2.45264">
        <ele>19.39999961853</ele>
        <time>2021-01-14T10:32:02.000Z</time>
      </trkpt>
      <trkpt lat="47.31836" lon="-2.45215">
        <ele>19.39999961853</ele>
        <time>2021-01-14T10:32:10.000Z</time>
      </trkpt>
      <trkpt lat="47.31855" lon="-2.45195">
        <ele>19.39999961853</ele>
        <time>2021-01-14T10:32:14.000Z</time>
      </trkpt>
      <trkpt lat="47.31858" lon="-2.45188">
        <ele>19.39999961853</ele>
        <time>2021-01-14T10:32:15.000Z</time>
      </trkpt>
      <trkpt lat="47.31859" lon="-2.45171">
        <ele>19.39999961853</ele>
        <time>2021-01-14T10:32:17.000Z</time>
      </trkpt>
      <trkpt lat="47.31858" lon="-2.45163">
        <ele>19.39999961853</ele>
        <time>2021-01-14T10:32:18.000Z</time>
      </trkpt>
      <trkpt lat="47.31847" lon="-2.45111">
        <ele>19.39999961853</ele>
        <time>2021-01-14T10:32:24.000Z</time>
      </trkpt>
      <trkpt lat="47.3183" lon="-2.45061">
        <ele>19.39999961853</ele>
        <time>2021-01-14T10:32:30.000Z</time>
      </trkpt>
      <trkpt lat="47.31816" lon="-2.4501">
        <ele>18.799999237061</ele>
        <time>2021-01-14T10:32:36.000Z</time>
      </trkpt>
      <trkpt lat="47.31814" lon="-2.45002">
        <ele>18.39999961853</ele>
        <time>2021-01-14T10:32:37.000Z</time>
      </trkpt>
      <trkpt lat="47.31811" lon="-2.44995">
        <ele>18</ele>
        <time>2021-01-14T10:32:38.000Z</time>
      </trkpt>
      <trkpt lat="47.31808" lon="-2.44987">
        <ele>17.60000038147</ele>
        <time>2021-01-14T10:32:39.000Z</time>
      </trkpt>
      <trkpt lat="47.31805" lon="-2.4498">
        <ele>17.200000762939</ele>
        <time>2021-01-14T10:32:40.000Z</time>
      </trkpt>
      <trkpt lat="47.31791" lon="-2.44952">
        <ele>17.200000762939</ele>
        <time>2021-01-14T10:32:44.000Z</time>
      </trkpt>
      <trkpt lat="47.31758" lon="-2.44888">
        <ele>17.200000762939</ele>
        <time>2021-01-14T10:32:53.000Z</time>
      </trkpt>
      <trkpt lat="47.31756" lon="-2.4488">
        <ele>17.200000762939</ele>
        <time>2021-01-14T10:32:54.000Z</time>
      </trkpt>
      <trkpt lat="47.31735" lon="-2.44821">
        <ele>17.200000762939</ele>
        <time>2021-01-14T10:33:02.000Z</time>
      </trkpt>
      <trkpt lat="47.31711" lon="-2.4476">
        <ele>17.200000762939</ele>
        <time>2021-01-14T10:33:10.000Z</time>
      </trkpt>
      <trkpt lat="47.3168" lon="-2.44687">
        <ele>17.200000762939</ele>
        <time>2021-01-14T10:33:20.000Z</time>
      </trkpt>
      <trkpt lat="47.31668" lon="-2.44658">
        <ele>16.799999237061</ele>
        <time>2021-01-14T10:33:24.000Z</time>
      </trkpt>
      <trkpt lat="47.31665" lon="-2.44651">
        <ele>16.39999961853</ele>
        <time>2021-01-14T10:33:25.000Z</time>
      </trkpt>
      <trkpt lat="47.31662" lon="-2.44643">
        <ele>16</ele>
        <time>2021-01-14T10:33:26.000Z</time>
      </trkpt>
      <trkpt lat="47.31659" lon="-2.44636">
        <ele>15.60000038147</ele>
        <time>2021-01-14T10:33:27.000Z</time>
      </trkpt>
      <trkpt lat="47.31656" lon="-2.44628">
        <ele>15.199999809265</ele>
        <time>2021-01-14T10:33:28.000Z</time>
      </trkpt>
      <trkpt lat="47.31626" lon="-2.44569">
        <ele>15.199999809265</ele>
        <time>2021-01-14T10:33:36.000Z</time>
      </trkpt>
      <trkpt lat="47.31597" lon="-2.4452">
        <ele>15.199999809265</ele>
        <time>2021-01-14T10:33:43.000Z</time>
      </trkpt>
      <trkpt lat="47.31594" lon="-2.44513">
        <ele>15.199999809265</ele>
        <time>2021-01-14T10:33:44.000Z</time>
      </trkpt>
      <trkpt lat="47.31586" lon="-2.44487">
        <ele>15.199999809265</ele>
        <time>2021-01-14T10:33:47.000Z</time>
      </trkpt>
      <trkpt lat="47.31584" lon="-2.44478">
        <ele>15.199999809265</ele>
        <time>2021-01-14T10:33:48.000Z</time>
      </trkpt>
      <trkpt lat="47.31577" lon="-2.44451">
        <ele>14.800000190735</ele>
        <time>2021-01-14T10:33:51.000Z</time>
      </trkpt>
      <trkpt lat="47.31575" lon="-2.44442">
        <ele>14.39999961853</ele>
        <time>2021-01-14T10:33:52.000Z</time>
      </trkpt>
      <trkpt lat="47.31573" lon="-2.44432">
        <ele>14</ele>
        <time>2021-01-14T10:33:53.000Z</time>
      </trkpt>
      <trkpt lat="47.31572" lon="-2.44423">
        <ele>13.60000038147</ele>
        <time>2021-01-14T10:33:54.000Z</time>
      </trkpt>
      <trkpt lat="47.31571" lon="-2.44413">
        <ele>13.199999809265</ele>
        <time>2021-01-14T10:33:55.000Z</time>
      </trkpt>
      <trkpt lat="47.31566" lon="-2.44376">
        <ele>13.199999809265</ele>
        <time>2021-01-14T10:33:59.000Z</time>
      </trkpt>
      <trkpt lat="47.31554" lon="-2.44297">
        <ele>13.199999809265</ele>
        <time>2021-01-14T10:34:08.000Z</time>
      </trkpt>
      <trkpt lat="47.31542" lon="-2.4422">
        <ele>13.199999809265</ele>
        <time>2021-01-14T10:34:17.000Z</time>
      </trkpt>
      <trkpt lat="47.3154" lon="-2.44211">
        <ele>13.199999809265</ele>
        <time>2021-01-14T10:34:18.000Z</time>
      </trkpt>
      <trkpt lat="47.3152" lon="-2.44159">
        <ele>13.199999809265</ele>
        <time>2021-01-14T10:34:25.000Z</time>
      </trkpt>
      <trkpt lat="47.31508" lon="-2.44139">
        <ele>12.800000190735</ele>
        <time>2021-01-14T10:34:28.000Z</time>
      </trkpt>
      <trkpt lat="47.31503" lon="-2.44133">
        <ele>12.39999961853</ele>
        <time>2021-01-14T10:34:29.000Z</time>
      </trkpt>
      <trkpt lat="47.31499" lon="-2.44127">
        <ele>12</ele>
        <time>2021-01-14T10:34:30.000Z</time>
      </trkpt>
      <trkpt lat="47.31494" lon="-2.44121">
        <ele>11.60000038147</ele>
        <time>2021-01-14T10:34:31.000Z</time>
      </trkpt>
      <trkpt lat="47.31489" lon="-2.44114">
        <ele>11.199999809265</ele>
        <time>2021-01-14T10:34:32.000Z</time>
      </trkpt>
      <trkpt lat="47.31456" lon="-2.44072">
        <ele>11.199999809265</ele>
        <time>2021-01-14T10:34:39.000Z</time>
      </trkpt>
      <trkpt lat="47.31415" lon="-2.44021">
        <ele>11.199999809265</ele>
        <time>2021-01-14T10:34:48.000Z</time>
      </trkpt>
      <trkpt lat="47.31375" lon="-2.43968">
        <ele>11.199999809265</ele>
        <time>2021-01-14T10:34:57.000Z</time>
      </trkpt>
      <trkpt lat="47.31355" lon="-2.43928">
        <ele>11.199999809265</ele>
        <time>2021-01-14T10:35:03.000Z</time>
      </trkpt>
      <trkpt lat="47.31335" lon="-2.43875">
        <ele>11.199999809265</ele>
        <time>2021-01-14T10:35:10.000Z</time>
      </trkpt>
      <trkpt lat="47.31326" lon="-2.43852">
        <ele>10.800000190735</ele>
        <time>2021-01-14T10:35:13.000Z</time>
      </trkpt>
      <trkpt lat="47.31323" lon="-2.43845">
        <ele>10</ele>
        <time>2021-01-14T10:35:14.000Z</time>
      </trkpt>
      <trkpt lat="47.31319" lon="-2.43838">
        <ele>9.6000003814697</ele>
        <time>2021-01-14T10:35:15.000Z</time>
      </trkpt>
      <trkpt lat="47.31315" lon="-2.43831">
        <ele>9.1999998092651</ele>
        <time>2021-01-14T10:35:16.000Z</time>
      </trkpt>
      <trkpt lat="47.3131" lon="-2.43825">
        <ele>9.1999998092651</ele>
        <time>2021-01-14T10:35:17.000Z</time>
      </trkpt>
      <trkpt lat="47.31284" lon="-2.43784">
        <ele>9.1999998092651</ele>
        <time>2021-01-14T10:35:23.000Z</time>
      </trkpt>
      <trkpt lat="47.31256" lon="-2.4371">
        <ele>9.1999998092651</ele>
        <time>2021-01-14T10:35:32.000Z</time>
      </trkpt>
      <trkpt lat="47.31241" lon="-2.43658">
        <ele>9.1999998092651</ele>
        <time>2021-01-14T10:35:38.000Z</time>
      </trkpt>
      <trkpt lat="47.31229" lon="-2.43579">
        <ele>9.1999998092651</ele>
        <time>2021-01-14T10:35:46.000Z</time>
      </trkpt>
      <trkpt lat="47.31222" lon="-2.43529">
        <ele>8.8000001907349</ele>
        <time>2021-01-14T10:35:51.000Z</time>
      </trkpt>
      <trkpt lat="47.3122" lon="-2.4352">
        <ele>8.1999998092651</ele>
        <time>2021-01-14T10:35:52.000Z</time>
      </trkpt>
      <trkpt lat="47.31219" lon="-2.4351">
        <ele>7.8000001907349</ele>
        <time>2021-01-14T10:35:53.000Z</time>
      </trkpt>
      <trkpt lat="47.31217" lon="-2.43501">
        <ele>7.4000000953674</ele>
        <time>2021-01-14T10:35:54.000Z</time>
      </trkpt>
      <trkpt lat="47.31216" lon="-2.43492">
        <ele>7</ele>
        <time>2021-01-14T10:35:55.000Z</time>
      </trkpt>
      <trkpt lat="47.31205" lon="-2.43417">
        <ele>7</ele>
        <time>2021-01-14T10:36:03.000Z</time>
      </trkpt>
      <trkpt lat="47.31194" lon="-2.43343">
        <ele>7</ele>
        <time>2021-01-14T10:36:11.000Z</time>
      </trkpt>
      <trkpt lat="47.31192" lon="-2.43334">
        <ele>7</ele>
        <time>2021-01-14T10:36:12.000Z</time>
      </trkpt>
      <trkpt lat="47.31184" lon="-2.4331">
        <ele>7</ele>
        <time>2021-01-14T10:36:15.000Z</time>
      </trkpt>
      <trkpt lat="47.31178" lon="-2.43295">
        <ele>7</ele>
        <time>2021-01-14T10:36:17.000Z</time>
      </trkpt>
      <trkpt lat="47.3117" lon="-2.43281">
        <ele>7</ele>
        <time>2021-01-14T10:36:19.000Z</time>
      </trkpt>
      <trkpt lat="47.31165" lon="-2.43275">
        <ele>7</ele>
        <time>2021-01-14T10:36:20.000Z</time>
      </trkpt>
      <trkpt lat="47.31157" lon="-2.4326">
        <ele>6.5999999046326</ele>
        <time>2021-01-14T10:36:22.000Z</time>
      </trkpt>
      <trkpt lat="47.31152" lon="-2.43254">
        <ele>6.1999998092651</ele>
        <time>2021-01-14T10:36:23.000Z</time>
      </trkpt>
      <trkpt lat="47.31148" lon="-2.43248">
        <ele>5.8000001907349</ele>
        <time>2021-01-14T10:36:24.000Z</time>
      </trkpt>
      <trkpt lat="47.31144" lon="-2.43241">
        <ele>5.4000000953674</ele>
        <time>2021-01-14T10:36:25.000Z</time>
      </trkpt>
      <trkpt lat="47.3114" lon="-2.43235">
        <ele>5</ele>
        <time>2021-01-14T10:36:26.000Z</time>
      </trkpt>
      <trkpt lat="47.31127" lon="-2.43216">
        <ele>5</ele>
        <time>2021-01-14T10:36:29.000Z</time>
      </trkpt>
      <trkpt lat="47.311" lon="-2.4317">
        <ele>5</ele>
        <time>2021-01-14T10:36:36.000Z</time>
      </trkpt>
      <trkpt lat="47.3108" lon="-2.43112">
        <ele>5</ele>
        <time>2021-01-14T10:36:43.000Z</time>
      </trkpt>
      <trkpt lat="47.31062" lon="-2.43044">
        <ele>5</ele>
        <time>2021-01-14T10:36:51.000Z</time>
      </trkpt>
      <trkpt lat="47.31049" lon="-2.43001">
        <ele>4.5999999046326</ele>
        <time>2021-01-14T10:36:57.000Z</time>
      </trkpt>
      <trkpt lat="47.31047" lon="-2.42994">
        <ele>4.1999998092651</ele>
        <time>2021-01-14T10:36:58.000Z</time>
      </trkpt>
      <trkpt lat="47.31046" lon="-2.42989">
        <ele>3.7999999523163</ele>
        <time>2021-01-14T10:36:59.000Z</time>
      </trkpt>
      <trkpt lat="47.31045" lon="-2.42985">
        <ele>3.4000000953674</ele>
        <time>2021-01-14T10:37:00.000Z</time>
      </trkpt>
      <trkpt lat="47.31044" lon="-2.42982">
        <ele>3</ele>
        <time>2021-01-14T10:37:01.000Z</time>
      </trkpt>
      <trkpt lat="47.31044" lon="-2.42977">
        <ele>3</ele>
        <time>2021-01-14T10:37:04.000Z</time>
      </trkpt>
      <trkpt lat="47.31044" lon="-2.42976">
        <ele>3</ele>
        <time>2021-01-14T10:37:05.000Z</time>
      </trkpt>
      <trkpt lat="47.31044" lon="-2.42974">
        <ele>3</ele>
        <time>2021-01-14T10:37:10.000Z</time>
      </trkpt>
      <trkpt lat="47.31045" lon="-2.42967">
        <ele>3</ele>
        <time>2021-01-14T10:37:12.000Z</time>
      </trkpt>
      <trkpt lat="47.31046" lon="-2.42963">
        <ele>3</ele>
        <time>2021-01-14T10:37:13.000Z</time>
      </trkpt>
      <trkpt lat="47.31052" lon="-2.42958">
        <ele>3</ele>
        <time>2021-01-14T10:37:15.000Z</time>
      </trkpt>
      <trkpt lat="47.31066" lon="-2.42954">
        <ele>3</ele>
        <time>2021-01-14T10:37:18.000Z</time>
      </trkpt>
      <trkpt lat="47.31071" lon="-2.42953">
        <ele>3</ele>
        <time>2021-01-14T10:37:19.000Z</time>
      </trkpt>
      <trkpt lat="47.31077" lon="-2.42951">
        <ele>2.5999999046326</ele>
        <time>2021-01-14T10:37:20.000Z</time>
      </trkpt>
      <trkpt lat="47.31083" lon="-2.42951">
        <ele>2.2000000476837</ele>
        <time>2021-01-14T10:37:21.000Z</time>
      </trkpt>
      <trkpt lat="47.31089" lon="-2.4295">
        <ele>1.7999999523163</ele>
        <time>2021-01-14T10:37:22.000Z</time>
      </trkpt>
      <trkpt lat="47.31095" lon="-2.42949">
        <ele>1.3999999761581</ele>
        <time>2021-01-14T10:37:23.000Z</time>
      </trkpt>
      <trkpt lat="47.31101" lon="-2.42948">
        <ele>0.80000001192093</ele>
        <time>2021-01-14T10:37:24.000Z</time>
      </trkpt>
      <trkpt lat="47.31113" lon="-2.42946">
        <ele>0.80000001192093</ele>
        <time>2021-01-14T10:37:26.000Z</time>
      </trkpt>
      <trkpt lat="47.31165" lon="-2.4294">
        <ele>0.80000001192093</ele>
        <time>2021-01-14T10:37:35.000Z</time>
      </trkpt>
      <trkpt lat="47.31205" lon="-2.42933">
        <ele>0.80000001192093</ele>
        <time>2021-01-14T10:37:42.000Z</time>
      </trkpt>
      <trkpt lat="47.31247" lon="-2.42925">
        <ele>0.80000001192093</ele>
        <time>2021-01-14T10:37:49.000Z</time>
      </trkpt>
      <trkpt lat="47.31298" lon="-2.42913">
        <ele>0.80000001192093</ele>
        <time>2021-01-14T10:37:57.000Z</time>
      </trkpt>
      <trkpt lat="47.31346" lon="-2.429">
        <ele>0.80000001192093</ele>
        <time>2021-01-14T10:38:05.000Z</time>
      </trkpt>
      <trkpt lat="47.31389" lon="-2.42889">
        <ele>0.80000001192093</ele>
        <time>2021-01-14T10:38:12.000Z</time>
      </trkpt>
      <trkpt lat="47.31443" lon="-2.42869">
        <ele>0.80000001192093</ele>
        <time>2021-01-14T10:38:21.000Z</time>
      </trkpt>
      <trkpt lat="47.31454" lon="-2.42863">
        <ele>0.80000001192093</ele>
        <time>2021-01-14T10:38:23.000Z</time>
      </trkpt>
      <trkpt lat="47.31465" lon="-2.42846">
        <ele>0.80000001192093</ele>
        <time>2021-01-14T10:38:26.000Z</time>
      </trkpt>
      <trkpt lat="47.31463" lon="-2.42819">
        <ele>0.80000001192093</ele>
        <time>2021-01-14T10:38:29.000Z</time>
      </trkpt>
      <trkpt lat="47.31461" lon="-2.42801">
        <ele>0.80000001192093</ele>
        <time>2021-01-14T10:38:31.000Z</time>
      </trkpt>
      <trkpt lat="47.31453" lon="-2.42766">
        <ele>0.80000001192093</ele>
        <time>2021-01-14T10:38:35.000Z</time>
      </trkpt>
      <trkpt lat="47.31436" lon="-2.42726">
        <ele>0.80000001192093</ele>
        <time>2021-01-14T10:38:40.000Z</time>
      </trkpt>
      <trkpt lat="47.3141" lon="-2.42682">
        <ele>0.80000001192093</ele>
        <time>2021-01-14T10:38:46.000Z</time>
      </trkpt>
      <trkpt lat="47.31373" lon="-2.42621">
        <ele>0.80000001192093</ele>
        <time>2021-01-14T10:38:54.000Z</time>
      </trkpt>
      <trkpt lat="47.3137" lon="-2.42612">
        <ele>0.80000001192093</ele>
        <time>2021-01-14T10:38:55.000Z</time>
      </trkpt>
      <trkpt lat="47.31358" lon="-2.42575">
        <ele>0.80000001192093</ele>
        <time>2021-01-14T10:38:59.000Z</time>
      </trkpt>
      <trkpt lat="47.31357" lon="-2.42565">
        <ele>0.80000001192093</ele>
        <time>2021-01-14T10:39:00.000Z</time>
      </trkpt>
      <trkpt lat="47.31351" lon="-2.42504">
        <ele>0.40000000596046</ele>
        <time>2021-01-14T10:39:06.000Z</time>
      </trkpt>
      <trkpt lat="47.31349" lon="-2.42493">
        <ele>10.6</ele>
        <time>2021-01-14T10:39:07.000Z</time>
      </trkpt>
      <trkpt lat="47.31347" lon="-2.42483">
        <ele>-0.40000000596046</ele>
        <time>2021-01-14T10:39:08.000Z</time>
      </trkpt>
      <trkpt lat="47.31345" lon="-2.42473">
        <ele>-0.80000001192093</ele>
        <time>2021-01-14T10:39:09.000Z</time>
      </trkpt>
      <trkpt lat="47.31342" lon="-2.42463">
        <ele>-1.2000000476837</ele>
        <time>2021-01-14T10:39:10.000Z</time>
      </trkpt>
      <trkpt lat="47.31336" lon="-2.42444">
        <ele>-1.2000000476837</ele>
        <time>2021-01-14T10:39:12.000Z</time>
      </trkpt>
      <trkpt lat="47.31314" lon="-2.42401">
        <ele>-1.2000000476837</ele>
        <time>2021-01-14T10:39:17.000Z</time>
      </trkpt>
      <trkpt lat="47.31279" lon="-2.42349">
        <ele>-1.2000000476837</ele>
        <time>2021-01-14T10:39:24.000Z</time>
      </trkpt>
      <trkpt lat="47.31268" lon="-2.42337">
        <ele>-1.2000000476837</ele>
        <time>2021-01-14T10:39:26.000Z</time>
      </trkpt>
      <trkpt lat="47.31251" lon="-2.42321">
        <ele>-1.2000000476837</ele>
        <time>2021-01-14T10:39:29.000Z</time>
      </trkpt>
      <trkpt lat="47.31217" lon="-2.42279">
        <ele>-1.2000000476837</ele>
        <time>2021-01-14T10:39:36.000Z</time>
      </trkpt>
      <trkpt lat="47.3119" lon="-2.42222">
        <ele>-1.2000000476837</ele>
        <time>2021-01-14T10:39:43.000Z</time>
      </trkpt>
      <trkpt lat="47.3116" lon="-2.42161">
        <ele>-1.2000000476837</ele>
        <time>2021-01-14T10:39:51.000Z</time>
      </trkpt>
      <trkpt lat="47.31134" lon="-2.42105">
        <ele>-1.2000000476837</ele>
        <time>2021-01-14T10:39:58.000Z</time>
      </trkpt>
      <trkpt lat="47.31106" lon="-2.42043">
        <ele>-1.2000000476837</ele>
        <time>2021-01-14T10:40:06.000Z</time>
      </trkpt>
      <trkpt lat="47.3109" lon="-2.4199">
        <ele>-1.2000000476837</ele>
        <time>2021-01-14T10:40:12.000Z</time>
      </trkpt>
      <trkpt lat="47.31072" lon="-2.41927">
        <ele>-1.2000000476837</ele>
        <time>2021-01-14T10:40:19.000Z</time>
      </trkpt>
      <trkpt lat="47.31055" lon="-2.41869">
        <ele>-1.2000000476837</ele>
        <time>2021-01-14T10:40:26.000Z</time>
      </trkpt>
      <trkpt lat="47.31047" lon="-2.41844">
        <ele>-1.2000000476837</ele>
        <time>2021-01-14T10:40:29.000Z</time>
      </trkpt>
      <trkpt lat="47.31039" lon="-2.41822">
        <ele>-1.2000000476837</ele>
        <time>2021-01-14T10:40:32.000Z</time>
      </trkpt>
      <trkpt lat="47.31017" lon="-2.41781">
        <ele>-1.2000000476837</ele>
        <time>2021-01-14T10:40:38.000Z</time>
      </trkpt>
      <trkpt lat="47.30986" lon="-2.41732">
        <ele>-1.2000000476837</ele>
        <time>2021-01-14T10:40:45.000Z</time>
      </trkpt>
      <trkpt lat="47.30953" lon="-2.41672">
        <ele>-1.2000000476837</ele>
        <time>2021-01-14T10:40:53.000Z</time>
      </trkpt>
      <trkpt lat="47.3094" lon="-2.4162">
        <ele>-1.2000000476837</ele>
        <time>2021-01-14T10:40:59.000Z</time>
      </trkpt>
      <trkpt lat="47.30931" lon="-2.41558">
        <ele>-1.2000000476837</ele>
        <time>2021-01-14T10:41:06.000Z</time>
      </trkpt>
      <trkpt lat="47.30921" lon="-2.41499">
        <ele>-1.2000000476837</ele>
        <time>2021-01-14T10:41:13.000Z</time>
      </trkpt>
      <trkpt lat="47.30913" lon="-2.41445">
        <ele>-1.2000000476837</ele>
        <time>2021-01-14T10:41:20.000Z</time>
      </trkpt>
      <trkpt lat="47.30905" lon="-2.41412">
        <ele>-1.2000000476837</ele>
        <time>2021-01-14T10:41:24.000Z</time>
      </trkpt>
      <trkpt lat="47.30898" lon="-2.41397">
        <ele>-1.2000000476837</ele>
        <time>2021-01-14T10:41:26.000Z</time>
      </trkpt>
      <trkpt lat="47.3089" lon="-2.41382">
        <ele>-1.2000000476837</ele>
        <time>2021-01-14T10:41:28.000Z</time>
      </trkpt>
      <trkpt lat="47.3088" lon="-2.41369">
        <ele>-1.2000000476837</ele>
        <time>2021-01-14T10:41:30.000Z</time>
      </trkpt>
      <trkpt lat="47.30852" lon="-2.4134">
        <ele>-1.2000000476837</ele>
        <time>2021-01-14T10:41:35.000Z</time>
      </trkpt>
      <trkpt lat="47.30814" lon="-2.41305">
        <ele>-1.2000000476837</ele>
        <time>2021-01-14T10:41:42.000Z</time>
      </trkpt>
      <trkpt lat="47.30798" lon="-2.41288">
        <ele>-1.2000000476837</ele>
        <time>2021-01-14T10:41:45.000Z</time>
      </trkpt>
      <trkpt lat="47.30789" lon="-2.41273">
        <ele>-1.2000000476837</ele>
        <time>2021-01-14T10:41:47.000Z</time>
      </trkpt>
      <trkpt lat="47.30767" lon="-2.41224">
        <ele>-1.2000000476837</ele>
        <time>2021-01-14T10:41:53.000Z</time>
      </trkpt>
      <trkpt lat="47.30763" lon="-2.41216">
        <ele>-1.2000000476837</ele>
        <time>2021-01-14T10:41:54.000Z</time>
      </trkpt>
      <trkpt lat="47.30747" lon="-2.41178">
        <ele>-1.2000000476837</ele>
        <time>2021-01-14T10:41:59.000Z</time>
      </trkpt>
      <trkpt lat="47.30734" lon="-2.41136">
        <ele>-1.2000000476837</ele>
        <time>2021-01-14T10:42:04.000Z</time>
      </trkpt>
      <trkpt lat="47.30732" lon="-2.41127">
        <ele>-1.2000000476837</ele>
        <time>2021-01-14T10:42:05.000Z</time>
      </trkpt>
      <trkpt lat="47.30723" lon="-2.41074">
        <ele>-1.2000000476837</ele>
        <time>2021-01-14T10:42:11.000Z</time>
      </trkpt>
      <trkpt lat="47.30707" lon="-2.41036">
        <ele>-1.2000000476837</ele>
        <time>2021-01-14T10:42:16.000Z</time>
      </trkpt>
      <trkpt lat="47.3069" lon="-2.41009">
        <ele>-1.2000000476837</ele>
        <time>2021-01-14T10:42:20.000Z</time>
      </trkpt>
      <trkpt lat="47.30677" lon="-2.40989">
        <ele>-1.2000000476837</ele>
        <time>2021-01-14T10:42:23.000Z</time>
      </trkpt>
      <trkpt lat="47.30648" lon="-2.40942">
        <ele>-1.2000000476837</ele>
        <time>2021-01-14T10:42:30.000Z</time>
      </trkpt>
      <trkpt lat="47.3064" lon="-2.40929">
        <ele>-1.6000000238419</ele>
        <time>2021-01-14T10:42:32.000Z</time>
      </trkpt>
      <trkpt lat="47.30636" lon="-2.40922">
        <ele>-2</ele>
        <time>2021-01-14T10:42:33.000Z</time>
      </trkpt>
      <trkpt lat="47.30633" lon="-2.40916">
        <ele>-2.4000000953674</ele>
        <time>2021-01-14T10:42:34.000Z</time>
      </trkpt>
      <trkpt lat="47.3063" lon="-2.4091">
        <ele>-2.7999999523163</ele>
        <time>2021-01-14T10:42:35.000Z</time>
      </trkpt>
      <trkpt lat="47.30627" lon="-2.40905">
        <ele>-3.2000000476837</ele>
        <time>2021-01-14T10:42:36.000Z</time>
      </trkpt>
      <trkpt lat="47.30611" lon="-2.40873">
        <ele>-3.2000000476837</ele>
        <time>2021-01-14T10:42:43.000Z</time>
      </trkpt>
      <trkpt lat="47.30602" lon="-2.40854">
        <ele>-3.2000000476837</ele>
        <time>2021-01-14T10:42:47.000Z</time>
      </trkpt>
      <trkpt lat="47.306" lon="-2.40848">
        <ele>-3.2000000476837</ele>
        <time>2021-01-14T10:42:48.000Z</time>
      </trkpt>
      <trkpt lat="47.306" lon="-2.40828">
        <ele>-3.2000000476837</ele>
        <time>2021-01-14T10:42:51.000Z</time>
      </trkpt>
      <trkpt lat="47.30598" lon="-2.40821">
        <ele>-3.2000000476837</ele>
        <time>2021-01-14T10:42:52.000Z</time>
      </trkpt>
      <trkpt lat="47.30592" lon="-2.40805">
        <ele>-3.2000000476837</ele>
        <time>2021-01-14T10:42:55.000Z</time>
      </trkpt>
      <trkpt lat="47.30586" lon="-2.40789">
        <ele>-3.2000000476837</ele>
        <time>2021-01-14T10:42:58.000Z</time>
      </trkpt>
      <trkpt lat="47.30574" lon="-2.40755">
        <ele>-3.2000000476837</ele>
        <time>2021-01-14T10:43:04.000Z</time>
      </trkpt>
      <trkpt lat="47.30556" lon="-2.40708">
        <ele>-3.2000000476837</ele>
        <time>2021-01-14T10:43:10.000Z</time>
      </trkpt>
      <trkpt lat="47.3053" lon="-2.40644">
        <ele>-3.2000000476837</ele>
        <time>2021-01-14T10:43:17.000Z</time>
      </trkpt>
      <trkpt lat="47.30508" lon="-2.4059">
        <ele>-3.2000000476837</ele>
        <time>2021-01-14T10:43:23.000Z</time>
      </trkpt>
      <trkpt lat="47.30481" lon="-2.40527">
        <ele>-3.2000000476837</ele>
        <time>2021-01-14T10:43:30.000Z</time>
      </trkpt>
      <trkpt lat="47.30458" lon="-2.40464">
        <ele>-3.2000000476837</ele>
        <time>2021-01-14T10:43:37.000Z</time>
      </trkpt>
      <trkpt lat="47.30436" lon="-2.40414">
        <ele>-3.2000000476837</ele>
        <time>2021-01-14T10:43:43.000Z</time>
      </trkpt>
      <trkpt lat="47.30433" lon="-2.40406">
        <ele>-3.2000000476837</ele>
        <time>2021-01-14T10:43:44.000Z</time>
      </trkpt>
      <trkpt lat="47.30421" lon="-2.40374">
        <ele>-3.2000000476837</ele>
        <time>2021-01-14T10:43:48.000Z</time>
      </trkpt>
      <trkpt lat="47.30414" lon="-2.4036">
        <ele>-3.2000000476837</ele>
        <time>2021-01-14T10:43:50.000Z</time>
      </trkpt>
      <trkpt lat="47.30406" lon="-2.4034">
        <ele>-3.2000000476837</ele>
        <time>2021-01-14T10:43:53.000Z</time>
      </trkpt>
      <trkpt lat="47.30404" lon="-2.40334">
        <ele>-3.2000000476837</ele>
        <time>2021-01-14T10:43:54.000Z</time>
      </trkpt>
      <trkpt lat="47.30388" lon="-2.40295">
        <ele>-3.2000000476837</ele>
        <time>2021-01-14T10:44:00.000Z</time>
      </trkpt>
      <trkpt lat="47.30386" lon="-2.40287">
        <ele>-3.2000000476837</ele>
        <time>2021-01-14T10:44:01.000Z</time>
      </trkpt>
      <trkpt lat="47.30365" lon="-2.40222">
        <ele>-3.2000000476837</ele>
        <time>2021-01-14T10:44:09.000Z</time>
      </trkpt>
      <trkpt lat="47.30359" lon="-2.40206">
        <ele>-3.2000000476837</ele>
        <time>2021-01-14T10:44:11.000Z</time>
      </trkpt>
      <trkpt lat="47.30345" lon="-2.40187">
        <ele>-3.2000000476837</ele>
        <time>2021-01-14T10:44:14.000Z</time>
      </trkpt>
      <trkpt lat="47.3034" lon="-2.40179">
        <ele>-3.2000000476837</ele>
        <time>2021-01-14T10:44:15.000Z</time>
      </trkpt>
      <trkpt lat="47.30331" lon="-2.40152">
        <ele>-3.2000000476837</ele>
        <time>2021-01-14T10:44:18.000Z</time>
      </trkpt>
      <trkpt lat="47.30328" lon="-2.40142">
        <ele>-3.2000000476837</ele>
        <time>2021-01-14T10:44:19.000Z</time>
      </trkpt>
      <trkpt lat="47.30314" lon="-2.40086">
        <ele>-3.2000000476837</ele>
        <time>2021-01-14T10:44:25.000Z</time>
      </trkpt>
      <trkpt lat="47.30294" lon="-2.40024">
        <ele>-3.2000000476837</ele>
        <time>2021-01-14T10:44:32.000Z</time>
      </trkpt>
      <trkpt lat="47.30275" lon="-2.39959">
        <ele>-3.2000000476837</ele>
        <time>2021-01-14T10:44:39.000Z</time>
      </trkpt>
      <trkpt lat="47.30251" lon="-2.39886">
        <ele>-3.2000000476837</ele>
        <time>2021-01-14T10:44:47.000Z</time>
      </trkpt>
      <trkpt lat="47.30226" lon="-2.3981">
        <ele>-3.2000000476837</ele>
        <time>2021-01-14T10:44:55.000Z</time>
      </trkpt>
      <trkpt lat="47.30223" lon="-2.398">
        <ele>-3.2000000476837</ele>
        <time>2021-01-14T10:44:56.000Z</time>
      </trkpt>
      <trkpt lat="47.30199" lon="-2.39723">
        <ele>-3.2000000476837</ele>
        <time>2021-01-14T10:45:04.000Z</time>
      </trkpt>
      <trkpt lat="47.30188" lon="-2.39689">
        <ele>-3.2000000476837</ele>
        <time>2021-01-14T10:45:08.000Z</time>
      </trkpt>
      <trkpt lat="47.30179" lon="-2.39677">
        <ele>-3.2000000476837</ele>
        <time>2021-01-14T10:45:10.000Z</time>
      </trkpt>
      <trkpt lat="47.30161" lon="-2.39671">
        <ele>-3.2000000476837</ele>
        <time>2021-01-14T10:45:13.000Z</time>
      </trkpt>
      <trkpt lat="47.30154" lon="-2.3967">
        <ele>-3.2000000476837</ele>
        <time>2021-01-14T10:45:14.000Z</time>
      </trkpt>
      <trkpt lat="47.30102" lon="-2.3966">
        <ele>-3.2000000476837</ele>
        <time>2021-01-14T10:45:22.000Z</time>
      </trkpt>
      <trkpt lat="47.30054" lon="-2.39652">
        <ele>-3.2000000476837</ele>
        <time>2021-01-14T10:45:29.000Z</time>
      </trkpt>
      <trkpt lat="47.30032" lon="-2.39647">
        <ele>-2.7999999523163</ele>
        <time>2021-01-14T10:45:32.000Z</time>
      </trkpt>
      <trkpt lat="47.30024" lon="-2.39645">
        <ele>-2.4000000953674</ele>
        <time>2021-01-14T10:45:33.000Z</time>
      </trkpt>
      <trkpt lat="47.30016" lon="-2.39643">
        <ele>-2</ele>
        <time>2021-01-14T10:45:34.000Z</time>
      </trkpt>
      <trkpt lat="47.30009" lon="-2.39642">
        <ele>-1.6000000238419</ele>
        <time>2021-01-14T10:45:35.000Z</time>
      </trkpt>
      <trkpt lat="47.30002" lon="-2.3964">
        <ele>-1.2000000476837</ele>
        <time>2021-01-14T10:45:36.000Z</time>
      </trkpt>
      <trkpt lat="47.29969" lon="-2.39635">
        <ele>-1.2000000476837</ele>
        <time>2021-01-14T10:45:41.000Z</time>
      </trkpt>
      <trkpt lat="47.29955" lon="-2.39634">
        <ele>-1.2000000476837</ele>
        <time>2021-01-14T10:45:45.000Z</time>
      </trkpt>
      <trkpt lat="47.29952" lon="-2.39629">
        <ele>-1.2000000476837</ele>
        <time>2021-01-14T10:45:47.000Z</time>
      </trkpt>
      <trkpt lat="47.29949" lon="-2.39621">
        <ele>-1.2000000476837</ele>
        <time>2021-01-14T10:45:49.000Z</time>
      </trkpt>
      <trkpt lat="47.2994" lon="-2.39616">
        <ele>-1.2000000476837</ele>
        <time>2021-01-14T10:45:52.000Z</time>
      </trkpt>
      <trkpt lat="47.29928" lon="-2.39614">
        <ele>-1.2000000476837</ele>
        <time>2021-01-14T10:45:56.000Z</time>
      </trkpt>
      <trkpt lat="47.29925" lon="-2.39613">
        <ele>-1.2000000476837</ele>
        <time>2021-01-14T10:45:57.000Z</time>
      </trkpt>
      <trkpt lat="47.29908" lon="-2.3961">
        <ele>-1.2000000476837</ele>
        <time>2021-01-14T10:46:04.000Z</time>
      </trkpt>
      <trkpt lat="47.29882" lon="-2.39606">
        <ele>-1.2000000476837</ele>
        <time>2021-01-14T10:46:13.000Z</time>
      </trkpt>
      <trkpt lat="47.29848" lon="-2.39599">
        <ele>-1.2000000476837</ele>
        <time>2021-01-14T10:46:23.000Z</time>
      </trkpt>
      <trkpt lat="47.29826" lon="-2.39594">
        <ele>-1.2000000476837</ele>
        <time>2021-01-14T10:46:29.000Z</time>
      </trkpt>
      <trkpt lat="47.2981" lon="-2.39591">
        <ele>-1.2000000476837</ele>
        <time>2021-01-14T10:46:33.000Z</time>
      </trkpt>
      <trkpt lat="47.29798" lon="-2.39589">
        <ele>-1.2000000476837</ele>
        <time>2021-01-14T10:46:36.000Z</time>
      </trkpt>
      <trkpt lat="47.2979" lon="-2.39587">
        <ele>-1.2000000476837</ele>
        <time>2021-01-14T10:46:38.000Z</time>
      </trkpt>
      <trkpt lat="47.29769" lon="-2.39584">
        <ele>-1.2000000476837</ele>
        <time>2021-01-14T10:46:43.000Z</time>
      </trkpt>
      <trkpt lat="47.29738" lon="-2.39578">
        <ele>-1.2000000476837</ele>
        <time>2021-01-14T10:46:50.000Z</time>
      </trkpt>
      <trkpt lat="47.29703" lon="-2.39572">
        <ele>-1.2000000476837</ele>
        <time>2021-01-14T10:46:58.000Z</time>
      </trkpt>
      <trkpt lat="47.2969" lon="-2.3957">
        <ele>-1.2000000476837</ele>
        <time>2021-01-14T10:47:01.000Z</time>
      </trkpt>
      <trkpt lat="47.29678" lon="-2.39568">
        <ele>-1.2000000476837</ele>
        <time>2021-01-14T10:47:04.000Z</time>
      </trkpt>
      <trkpt lat="47.29651" lon="-2.39562">
        <ele>-1.2000000476837</ele>
        <time>2021-01-14T10:47:11.000Z</time>
      </trkpt>
      <trkpt lat="47.29619" lon="-2.39557">
        <ele>-1.2000000476837</ele>
        <time>2021-01-14T10:47:18.000Z</time>
      </trkpt>
      <trkpt lat="47.29596" lon="-2.39553">
        <ele>-1.2000000476837</ele>
        <time>2021-01-14T10:47:24.000Z</time>
      </trkpt>
      <trkpt lat="47.29571" lon="-2.39548">
        <ele>-1.2000000476837</ele>
        <time>2021-01-14T10:47:31.000Z</time>
      </trkpt>
      <trkpt lat="47.29553" lon="-2.3954">
        <ele>-1.2000000476837</ele>
        <time>2021-01-14T10:47:36.000Z</time>
      </trkpt>
      <trkpt lat="47.29553" lon="-2.39536">
        <ele>-1.2000000476837</ele>
        <time>2021-01-14T10:47:37.000Z</time>
      </trkpt>
      <trkpt lat="47.29553" lon="-2.39523">
        <ele>-1.2000000476837</ele>
        <time>2021-01-14T10:47:40.000Z</time>
      </trkpt>
      <trkpt lat="47.29554" lon="-2.39503">
        <ele>-1.2000000476837</ele>
        <time>2021-01-14T10:47:44.000Z</time>
      </trkpt>
      <trkpt lat="47.29559" lon="-2.39488">
        <ele>-1.2000000476837</ele>
        <time>2021-01-14T10:47:48.000Z</time>
      </trkpt>
      <trkpt lat="47.29553" lon="-2.39485">
        <ele>-1.2000000476837</ele>
        <time>2021-01-14T10:47:51.000Z</time>
      </trkpt>
      <trkpt lat="47.29549" lon="-2.39486">
        <ele>-1.2000000476837</ele>
        <time>2021-01-14T10:47:55.000Z</time>
      </trkpt>
      <trkpt lat="47.29546" lon="-2.39486">
        <ele>-1.2000000476837</ele>
        <time>2021-01-14T10:48:07.000Z</time>
      </trkpt>
      <trkpt lat="47.29542" lon="-2.39485">
        <ele>-1.2000000476837</ele>
        <time>2021-01-14T10:48:09.000Z</time>
      </trkpt>
      <trkpt lat="47.29536" lon="-2.39481">
        <ele>-1.6000000238419</ele>
        <time>2021-01-14T10:48:12.000Z</time>
      </trkpt>
      <trkpt lat="47.29533" lon="-2.3948">
        <ele>-2</ele>
        <time>2021-01-14T10:48:13.000Z</time>
      </trkpt>
      <trkpt lat="47.29531" lon="-2.3948">
        <ele>-2.4000000953674</ele>
        <time>2021-01-14T10:48:14.000Z</time>
      </trkpt>
      <trkpt lat="47.29528" lon="-2.39479">
        <ele>-2.7999999523163</ele>
        <time>2021-01-14T10:48:15.000Z</time>
      </trkpt>
      <trkpt lat="47.29526" lon="-2.39478">
        <ele>-3.2000000476837</ele>
        <time>2021-01-14T10:48:16.000Z</time>
      </trkpt>
      <trkpt lat="47.2951" lon="-2.39475">
        <ele>-3.2000000476837</ele>
        <time>2021-01-14T10:48:23.000Z</time>
      </trkpt>
      <trkpt lat="47.29495" lon="-2.39472">
        <ele>-3.2000000476837</ele>
        <time>2021-01-14T10:48:29.000Z</time>
      </trkpt>
      <trkpt lat="47.29473" lon="-2.39471">
        <ele>-3.2000000476837</ele>
        <time>2021-01-14T10:48:36.000Z</time>
      </trkpt>
      <trkpt lat="47.29454" lon="-2.39469">
        <ele>-3.2000000476837</ele>
        <time>2021-01-14T10:48:41.000Z</time>
      </trkpt>
      <trkpt lat="47.29422" lon="-2.39466">
        <ele>-3.2000000476837</ele>
        <time>2021-01-14T10:48:49.000Z</time>
      </trkpt>
      <trkpt lat="47.29401" lon="-2.39464">
        <ele>-3.2000000476837</ele>
        <time>2021-01-14T10:48:54.000Z</time>
      </trkpt>
      <trkpt lat="47.29373" lon="-2.39461">
        <ele>-3.2000000476837</ele>
        <time>2021-01-14T10:49:01.000Z</time>
      </trkpt>
      <trkpt lat="47.29356" lon="-2.39456">
        <ele>-3.2000000476837</ele>
        <time>2021-01-14T10:49:05.000Z</time>
      </trkpt>
      <trkpt lat="47.29352" lon="-2.39452">
        <ele>-3.2000000476837</ele>
        <time>2021-01-14T10:49:06.000Z</time>
      </trkpt>
      <trkpt lat="47.29342" lon="-2.39432">
        <ele>-3.2000000476837</ele>
        <time>2021-01-14T10:49:10.000Z</time>
      </trkpt>
      <trkpt lat="47.29343" lon="-2.39417">
        <ele>-3.2000000476837</ele>
        <time>2021-01-14T10:49:12.000Z</time>
      </trkpt>
      <trkpt lat="47.29343" lon="-2.39386">
        <ele>-3.2000000476837</ele>
        <time>2021-01-14T10:49:16.000Z</time>
      </trkpt>
      <trkpt lat="47.29343" lon="-2.39363">
        <ele>-3.5999999046326</ele>
        <time>2021-01-14T10:49:19.000Z</time>
      </trkpt>
      <trkpt lat="47.29343" lon="-2.39356">
        <ele>-4</ele>
        <time>2021-01-14T10:49:20.000Z</time>
      </trkpt>
      <trkpt lat="47.29343" lon="-2.39349">
        <ele>-4.4000000953674</ele>
        <time>2021-01-14T10:49:21.000Z</time>
      </trkpt>
      <trkpt lat="47.29343" lon="-2.39341">
        <ele>-4.8000001907349</ele>
        <time>2021-01-14T10:49:22.000Z</time>
      </trkpt>
      <trkpt lat="47.29341" lon="-2.39335">
        <ele>-5.1999998092651</ele>
        <time>2021-01-14T10:49:23.000Z</time>
      </trkpt>
      <trkpt lat="47.2933" lon="-2.3932">
        <ele>-5.1999998092651</ele>
        <time>2021-01-14T10:49:26.000Z</time>
      </trkpt>
      <trkpt lat="47.2932" lon="-2.39314">
        <ele>-5.1999998092651</ele>
        <time>2021-01-14T10:49:28.000Z</time>
      </trkpt>
      <trkpt lat="47.293" lon="-2.39302">
        <ele>-5.1999998092651</ele>
        <time>2021-01-14T10:49:32.000Z</time>
      </trkpt>
      <trkpt lat="47.29268" lon="-2.39291">
        <ele>-5.1999998092651</ele>
        <time>2021-01-14T10:49:39.000Z</time>
      </trkpt>
      <trkpt lat="47.29256" lon="-2.39294">
        <ele>-5.1999998092651</ele>
        <time>2021-01-14T10:49:41.000Z</time>
      </trkpt>
      <trkpt lat="47.29246" lon="-2.393">
        <ele>-5.1999998092651</ele>
        <time>2021-01-14T10:49:43.000Z</time>
      </trkpt>
      <trkpt lat="47.29231" lon="-2.39309">
        <ele>-5.1999998092651</ele>
        <time>2021-01-14T10:49:47.000Z</time>
      </trkpt>
      <trkpt lat="47.29228" lon="-2.39311">
        <ele>-5.1999998092651</ele>
        <time>2021-01-14T10:49:48.000Z</time>
      </trkpt>
      <trkpt lat="47.29219" lon="-2.39316">
        <ele>-5.1999998092651</ele>
        <time>2021-01-14T10:49:50.000Z</time>
      </trkpt>
      <trkpt lat="47.29205" lon="-2.3932">
        <ele>-5.1999998092651</ele>
        <time>2021-01-14T10:49:53.000Z</time>
      </trkpt>
      <trkpt lat="47.29167" lon="-2.39329">
        <ele>-5.1999998092651</ele>
        <time>2021-01-14T10:50:00.000Z</time>
      </trkpt>
      <trkpt lat="47.29162" lon="-2.39331">
        <ele>-5.1999998092651</ele>
        <time>2021-01-14T10:50:01.000Z</time>
      </trkpt>
      <trkpt lat="47.29141" lon="-2.39346">
        <ele>-5.1999998092651</ele>
        <time>2021-01-14T10:50:05.000Z</time>
      </trkpt>
      <trkpt lat="47.2912" lon="-2.39366">
        <ele>-5.5999999046326</ele>
        <time>2021-01-14T10:50:10.000Z</time>
      </trkpt>
      <trkpt lat="47.29116" lon="-2.39368">
        <ele>-6</ele>
        <time>2021-01-14T10:50:11.000Z</time>
      </trkpt>
      <trkpt lat="47.29111" lon="-2.39371">
        <ele>-6.4000000953674</ele>
        <time>2021-01-14T10:50:12.000Z</time>
      </trkpt>
      <trkpt lat="47.29106" lon="-2.39374">
        <ele>-7</ele>
        <time>2021-01-14T10:50:13.000Z</time>
      </trkpt>
      <trkpt lat="47.29101" lon="-2.39378">
        <ele>-7.4000000953674</ele>
        <time>2021-01-14T10:50:14.000Z</time>
      </trkpt>
      <trkpt lat="47.29096" lon="-2.3938">
        <ele>-7.4000000953674</ele>
        <time>2021-01-14T10:50:15.000Z</time>
      </trkpt>
      <trkpt lat="47.29092" lon="-2.3938">
        <ele>-7.4000000953674</ele>
        <time>2021-01-14T10:50:16.000Z</time>
      </trkpt>
      <trkpt lat="47.2908" lon="-2.3937">
        <ele>-7.4000000953674</ele>
        <time>2021-01-14T10:50:19.000Z</time>
      </trkpt>
      <trkpt lat="47.29076" lon="-2.39365">
        <ele>-7.4000000953674</ele>
        <time>2021-01-14T10:50:20.000Z</time>
      </trkpt>
      <trkpt lat="47.29072" lon="-2.39361">
        <ele>-7.4000000953674</ele>
        <time>2021-01-14T10:50:21.000Z</time>
      </trkpt>
      <trkpt lat="47.29061" lon="-2.39355">
        <ele>-7.4000000953674</ele>
        <time>2021-01-14T10:50:23.000Z</time>
      </trkpt>
      <trkpt lat="47.29017" lon="-2.39335">
        <ele>-7.4000000953674</ele>
        <time>2021-01-14T10:50:30.000Z</time>
      </trkpt>
      <trkpt lat="47.28977" lon="-2.39321">
        <ele>-7.4000000953674</ele>
        <time>2021-01-14T10:50:37.000Z</time>
      </trkpt>
      <trkpt lat="47.28952" lon="-2.39321">
        <ele>-7.4000000953674</ele>
        <time>2021-01-14T10:50:42.000Z</time>
      </trkpt>
      <trkpt lat="47.28947" lon="-2.39319">
        <ele>-7.4000000953674</ele>
        <time>2021-01-14T10:50:43.000Z</time>
      </trkpt>
      <trkpt lat="47.28941" lon="-2.39309">
        <ele>-7.4000000953674</ele>
        <time>2021-01-14T10:50:45.000Z</time>
      </trkpt>
      <trkpt lat="47.28934" lon="-2.39277">
        <ele>-7.4000000953674</ele>
        <time>2021-01-14T10:50:49.000Z</time>
      </trkpt>
      <trkpt lat="47.2893" lon="-2.39227">
        <ele>-7.4000000953674</ele>
        <time>2021-01-14T10:50:55.000Z</time>
      </trkpt>
      <trkpt lat="47.28929" lon="-2.39166">
        <ele>-7.4000000953674</ele>
        <time>2021-01-14T10:51:02.000Z</time>
      </trkpt>
      <trkpt lat="47.2893" lon="-2.39157">
        <ele>-7.4000000953674</ele>
        <time>2021-01-14T10:51:03.000Z</time>
      </trkpt>
      <trkpt lat="47.28935" lon="-2.39122">
        <ele>-7.4000000953674</ele>
        <time>2021-01-14T10:51:07.000Z</time>
      </trkpt>
      <trkpt lat="47.28944" lon="-2.39064">
        <ele>-7.4000000953674</ele>
        <time>2021-01-14T10:51:14.000Z</time>
      </trkpt>
      <trkpt lat="47.28948" lon="-2.39021">
        <ele>-7.4000000953674</ele>
        <time>2021-01-14T10:51:19.000Z</time>
      </trkpt>
      <trkpt lat="47.28953" lon="-2.38954">
        <ele>-7.4000000953674</ele>
        <time>2021-01-14T10:51:26.000Z</time>
      </trkpt>
      <trkpt lat="47.28958" lon="-2.3888">
        <ele>-7.4000000953674</ele>
        <time>2021-01-14T10:51:34.000Z</time>
      </trkpt>
      <trkpt lat="47.28959" lon="-2.38833">
        <ele>-7.4000000953674</ele>
        <time>2021-01-14T10:51:39.000Z</time>
      </trkpt>
      <trkpt lat="47.28959" lon="-2.38813">
        <ele>-7.4000000953674</ele>
        <time>2021-01-14T10:51:41.000Z</time>
      </trkpt>
      <trkpt lat="47.28959" lon="-2.38746">
        <ele>-7.4000000953674</ele>
        <time>2021-01-14T10:51:48.000Z</time>
      </trkpt>
      <trkpt lat="47.28958" lon="-2.38687">
        <ele>-7.4000000953674</ele>
        <time>2021-01-14T10:51:55.000Z</time>
      </trkpt>
      <trkpt lat="47.28957" lon="-2.38612">
        <ele>-7.4000000953674</ele>
        <time>2021-01-14T10:52:03.000Z</time>
      </trkpt>
      <trkpt lat="47.28953" lon="-2.38562">
        <ele>-7.8000001907349</ele>
        <time>2021-01-14T10:52:08.000Z</time>
      </trkpt>
      <trkpt lat="47.28952" lon="-2.38552">
        <ele>-8.1999998092651</ele>
        <time>2021-01-14T10:52:09.000Z</time>
      </trkpt>
      <trkpt lat="47.28951" lon="-2.38542">
        <ele>-8.6000003814697</ele>
        <time>2021-01-14T10:52:10.000Z</time>
      </trkpt>
      <trkpt lat="47.28949" lon="-2.38532">
        <ele>-9</ele>
        <time>2021-01-14T10:52:11.000Z</time>
      </trkpt>
      <trkpt lat="47.28948" lon="-2.38522">
        <ele>-9.3999996185303</ele>
        <time>2021-01-14T10:52:12.000Z</time>
      </trkpt>
      <trkpt lat="47.28941" lon="-2.38458">
        <ele>-9.3999996185303</ele>
        <time>2021-01-14T10:52:19.000Z</time>
      </trkpt>
      <trkpt lat="47.28937" lon="-2.38396">
        <ele>-9.3999996185303</ele>
        <time>2021-01-14T10:52:26.000Z</time>
      </trkpt>
      <trkpt lat="47.28931" lon="-2.3832">
        <ele>-9.3999996185303</ele>
        <time>2021-01-14T10:52:34.000Z</time>
      </trkpt>
      <trkpt lat="47.28934" lon="-2.38266">
        <ele>-9.3999996185303</ele>
        <time>2021-01-14T10:52:40.000Z</time>
      </trkpt>
      <trkpt lat="47.28935" lon="-2.38248">
        <ele>-9.3999996185303</ele>
        <time>2021-01-14T10:52:42.000Z</time>
      </trkpt>
      <trkpt lat="47.28929" lon="-2.38225">
        <ele>-9.3999996185303</ele>
        <time>2021-01-14T10:52:45.000Z</time>
      </trkpt>
      <trkpt lat="47.28914" lon="-2.38215">
        <ele>-9.3999996185303</ele>
        <time>2021-01-14T10:52:48.000Z</time>
      </trkpt>
      <trkpt lat="47.28904" lon="-2.38207">
        <ele>-9.3999996185303</ele>
        <time>2021-01-14T10:52:50.000Z</time>
      </trkpt>
      <trkpt lat="47.28898" lon="-2.38193">
        <ele>-9.3999996185303</ele>
        <time>2021-01-14T10:52:52.000Z</time>
      </trkpt>
      <trkpt lat="47.28898" lon="-2.38167">
        <ele>-9.3999996185303</ele>
        <time>2021-01-14T10:52:55.000Z</time>
      </trkpt>
      <trkpt lat="47.28902" lon="-2.38104">
        <ele>-9.3999996185303</ele>
        <time>2021-01-14T10:53:02.000Z</time>
      </trkpt>
      <trkpt lat="47.28906" lon="-2.38035">
        <ele>-9.3999996185303</ele>
        <time>2021-01-14T10:53:09.000Z</time>
      </trkpt>
      <trkpt lat="47.28911" lon="-2.37957">
        <ele>-9.3999996185303</ele>
        <time>2021-01-14T10:53:17.000Z</time>
      </trkpt>
      <trkpt lat="47.28914" lon="-2.37905">
        <ele>-9.3999996185303</ele>
        <time>2021-01-14T10:53:23.000Z</time>
      </trkpt>
      <trkpt lat="47.28915" lon="-2.37897">
        <ele>-9.3999996185303</ele>
        <time>2021-01-14T10:53:24.000Z</time>
      </trkpt>
      <trkpt lat="47.28916" lon="-2.37872">
        <ele>-9.3999996185303</ele>
        <time>2021-01-14T10:53:27.000Z</time>
      </trkpt>
      <trkpt lat="47.28917" lon="-2.37863">
        <ele>-9.3999996185303</ele>
        <time>2021-01-14T10:53:28.000Z</time>
      </trkpt>
      <trkpt lat="47.28922" lon="-2.37819">
        <ele>-9.3999996185303</ele>
        <time>2021-01-14T10:53:33.000Z</time>
      </trkpt>
      <trkpt lat="47.28927" lon="-2.37754">
        <ele>-9.3999996185303</ele>
        <time>2021-01-14T10:53:40.000Z</time>
      </trkpt>
      <trkpt lat="47.28931" lon="-2.37693">
        <ele>-9.3999996185303</ele>
        <time>2021-01-14T10:53:46.000Z</time>
      </trkpt>
      <trkpt lat="47.28931" lon="-2.37655">
        <ele>-9.3999996185303</ele>
        <time>2021-01-14T10:53:50.000Z</time>
      </trkpt>
      <trkpt lat="47.28927" lon="-2.37648">
        <ele>-9.3999996185303</ele>
        <time>2021-01-14T10:53:51.000Z</time>
      </trkpt>
      <trkpt lat="47.28917" lon="-2.37646">
        <ele>-9.3999996185303</ele>
        <time>2021-01-14T10:53:53.000Z</time>
      </trkpt>
      <trkpt lat="47.28906" lon="-2.37648">
        <ele>-9.3999996185303</ele>
        <time>2021-01-14T10:53:55.000Z</time>
      </trkpt>
      <trkpt lat="47.28895" lon="-2.37651">
        <ele>-9.3999996185303</ele>
        <time>2021-01-14T10:53:57.000Z</time>
      </trkpt>
      <trkpt lat="47.28869" lon="-2.37657">
        <ele>-9.3999996185303</ele>
        <time>2021-01-14T10:54:02.000Z</time>
      </trkpt>
      <trkpt lat="47.28859" lon="-2.37654">
        <ele>-9.3999996185303</ele>
        <time>2021-01-14T10:54:04.000Z</time>
      </trkpt>
      <trkpt lat="47.28851" lon="-2.37636">
        <ele>-9.3999996185303</ele>
        <time>2021-01-14T10:54:07.000Z</time>
      </trkpt>
      <trkpt lat="47.28852" lon="-2.37597">
        <ele>-9.3999996185303</ele>
        <time>2021-01-14T10:54:12.000Z</time>
      </trkpt>
      <trkpt lat="47.28853" lon="-2.3759">
        <ele>-9.3999996185303</ele>
        <time>2021-01-14T10:54:13.000Z</time>
      </trkpt>
      <trkpt lat="47.2886" lon="-2.3757">
        <ele>-9.3999996185303</ele>
        <time>2021-01-14T10:54:17.000Z</time>
      </trkpt>
      <trkpt lat="47.28876" lon="-2.37543">
        <ele>-9.3999996185303</ele>
        <time>2021-01-14T10:54:23.000Z</time>
      </trkpt>
      <trkpt lat="47.28876" lon="-2.37537">
        <ele>-9.3999996185303</ele>
        <time>2021-01-14T10:54:25.000Z</time>
      </trkpt>
      <trkpt lat="47.28876" lon="-2.37532">
        <ele>-9.3999996185303</ele>
        <time>2021-01-14T10:54:27.000Z</time>
      </trkpt>
      <trkpt lat="47.28877" lon="-2.37528">
        <ele>-9.3999996185303</ele>
        <time>2021-01-14T10:54:29.000Z</time>
      </trkpt>
      <trkpt lat="47.28876" lon="-2.37522">
        <ele>-9.3999996185303</ele>
        <time>2021-01-14T10:54:32.000Z</time>
      </trkpt>
      <trkpt lat="47.28876" lon="-2.37511">
        <ele>-9.3999996185303</ele>
        <time>2021-01-14T10:54:37.000Z</time>
      </trkpt>
      <trkpt lat="47.28876" lon="-2.3751">
        <ele>-9.3999996185303</ele>
        <time>2021-01-14T10:54:38.000Z</time>
      </trkpt>
      <trkpt lat="47.28877" lon="-2.37501">
        <ele>-9.3999996185303</ele>
        <time>2021-01-14T10:54:46.000Z</time>
      </trkpt>
      <trkpt lat="47.28877" lon="-2.37498">
        <ele>-9.3999996185303</ele>
        <time>2021-01-14T10:55:10.000Z</time>
      </trkpt>
      <trkpt lat="47.28876" lon="-2.37488">
        <ele>-9.3999996185303</ele>
        <time>2021-01-14T10:55:13.000Z</time>
      </trkpt>
      <trkpt lat="47.28873" lon="-2.37461">
        <ele>-9.3999996185303</ele>
        <time>2021-01-14T10:55:18.000Z</time>
      </trkpt>
      <trkpt lat="47.2887" lon="-2.37424">
        <ele>-9.3999996185303</ele>
        <time>2021-01-14T10:55:24.000Z</time>
      </trkpt>
      <trkpt lat="47.28866" lon="-2.37382">
        <ele>-9.3999996185303</ele>
        <time>2021-01-14T10:55:32.000Z</time>
      </trkpt>
      <trkpt lat="47.28862" lon="-2.37355">
        <ele>-9.3999996185303</ele>
        <time>2021-01-14T10:55:38.000Z</time>
      </trkpt>
      <trkpt lat="47.28861" lon="-2.37326">
        <ele>-9.3999996185303</ele>
        <time>2021-01-14T10:55:44.000Z</time>
      </trkpt>
      <trkpt lat="47.2886" lon="-2.373">
        <ele>-9.3999996185303</ele>
        <time>2021-01-14T10:55:49.000Z</time>
      </trkpt>
      <trkpt lat="47.28857" lon="-2.37259">
        <ele>-9.3999996185303</ele>
        <time>2021-01-14T10:55:55.000Z</time>
      </trkpt>
      <trkpt lat="47.28849" lon="-2.37237">
        <ele>-9.3999996185303</ele>
        <time>2021-01-14T10:55:59.000Z</time>
      </trkpt>
      <trkpt lat="47.28844" lon="-2.37216">
        <ele>-9.3999996185303</ele>
        <time>2021-01-14T10:56:03.000Z</time>
      </trkpt>
      <trkpt lat="47.28837" lon="-2.37179">
        <ele>-9.3999996185303</ele>
        <time>2021-01-14T10:56:10.000Z</time>
      </trkpt>
      <trkpt lat="47.28828" lon="-2.37143">
        <ele>-9.3999996185303</ele>
        <time>2021-01-14T10:56:17.000Z</time>
      </trkpt>
      <trkpt lat="47.28825" lon="-2.37136">
        <ele>-9.3999996185303</ele>
        <time>2021-01-14T10:56:21.000Z</time>
      </trkpt>
      <trkpt lat="47.28827" lon="-2.3712">
        <ele>-9.3999996185303</ele>
        <time>2021-01-14T10:56:27.000Z</time>
      </trkpt>
      <trkpt lat="47.28827" lon="-2.37112">
        <ele>-9.3999996185303</ele>
        <time>2021-01-14T10:56:30.000Z</time>
      </trkpt>
      <trkpt lat="47.28825" lon="-2.37113">
        <ele>-9.3999996185303</ele>
        <time>2021-01-14T10:56:32.000Z</time>
      </trkpt>
      <trkpt lat="47.28821" lon="-2.37115">
        <ele>-9.3999996185303</ele>
        <time>2021-01-14T10:56:38.000Z</time>
      </trkpt>
      <trkpt lat="47.2881" lon="-2.37119">
        <ele>-9.3999996185303</ele>
        <time>2021-01-14T10:56:45.000Z</time>
      </trkpt>
      <trkpt lat="47.28799" lon="-2.37117">
        <ele>-9.3999996185303</ele>
        <time>2021-01-14T10:56:51.000Z</time>
      </trkpt>
      <trkpt lat="47.28796" lon="-2.37111">
        <ele>-9.3999996185303</ele>
        <time>2021-01-14T10:56:53.000Z</time>
      </trkpt>
      <trkpt lat="47.28792" lon="-2.37097">
        <ele>-9.3999996185303</ele>
        <time>2021-01-14T10:56:57.000Z</time>
      </trkpt>
      <trkpt lat="47.2879" lon="-2.37087">
        <ele>-9</ele>
        <time>2021-01-14T10:56:59.000Z</time>
      </trkpt>
      <trkpt lat="47.28789" lon="-2.37083">
        <ele>-8.6000003814697</ele>
        <time>2021-01-14T10:57:00.000Z</time>
      </trkpt>
      <trkpt lat="47.28788" lon="-2.37079">
        <ele>-8.1999998092651</ele>
        <time>2021-01-14T10:57:01.000Z</time>
      </trkpt>
      <trkpt lat="47.28787" lon="-2.37074">
        <ele>-7.8000001907349</ele>
        <time>2021-01-14T10:57:02.000Z</time>
      </trkpt>
      <trkpt lat="47.28786" lon="-2.37071">
        <ele>-7.1999998092651</ele>
        <time>2021-01-14T10:57:03.000Z</time>
      </trkpt>
      <trkpt lat="47.2878" lon="-2.37053">
        <ele>-7.1999998092651</ele>
        <time>2021-01-14T10:57:08.000Z</time>
      </trkpt>
      <trkpt lat="47.28774" lon="-2.37029">
        <ele>-7.1999998092651</ele>
        <time>2021-01-14T10:57:14.000Z</time>
      </trkpt>
      <trkpt lat="47.28771" lon="-2.37022">
        <ele>-7.1999998092651</ele>
        <time>2021-01-14T10:57:16.000Z</time>
      </trkpt>
      <trkpt lat="47.28767" lon="-2.37017">
        <ele>-7.1999998092651</ele>
        <time>2021-01-14T10:57:19.000Z</time>
      </trkpt>
      <trkpt lat="47.28764" lon="-2.37013">
        <ele>-6.8000001907349</ele>
        <time>2021-01-14T10:57:20.000Z</time>
      </trkpt>
      <trkpt lat="47.28762" lon="-2.37009">
        <ele>-6.4000000953674</ele>
        <time>2021-01-14T10:57:21.000Z</time>
      </trkpt>
      <trkpt lat="47.28761" lon="-2.37004">
        <ele>-5.5999999046326</ele>
        <time>2021-01-14T10:57:22.000Z</time>
      </trkpt>
      <trkpt lat="47.2876" lon="-2.37">
        <ele>-5.1999998092651</ele>
        <time>2021-01-14T10:57:23.000Z</time>
      </trkpt>
      <trkpt lat="47.28759" lon="-2.36997">
        <ele>-5.1999998092651</ele>
        <time>2021-01-14T10:57:24.000Z</time>
      </trkpt>
      <trkpt lat="47.28755" lon="-2.36987">
        <ele>-5.1999998092651</ele>
        <time>2021-01-14T10:57:29.000Z</time>
      </trkpt>
      <trkpt lat="47.28753" lon="-2.36978">
        <ele>-5.1999998092651</ele>
        <time>2021-01-14T10:57:33.000Z</time>
      </trkpt>
      <trkpt lat="47.28753" lon="-2.36968">
        <ele>-5.1999998092651</ele>
        <time>2021-01-14T10:57:36.000Z</time>
      </trkpt>
      <trkpt lat="47.28743" lon="-2.36945">
        <ele>-5.1999998092651</ele>
        <time>2021-01-14T10:57:40.000Z</time>
      </trkpt>
      <trkpt lat="47.28735" lon="-2.36932">
        <ele>-5.1999998092651</ele>
        <time>2021-01-14T10:57:42.000Z</time>
      </trkpt>
      <trkpt lat="47.28724" lon="-2.36923">
        <ele>-5.1999998092651</ele>
        <time>2021-01-14T10:57:44.000Z</time>
      </trkpt>
      <trkpt lat="47.2872" lon="-2.36921">
        <ele>-5.1999998092651</ele>
        <time>2021-01-14T10:57:45.000Z</time>
      </trkpt>
      <trkpt lat="47.28711" lon="-2.36913">
        <ele>-5.1999998092651</ele>
        <time>2021-01-14T10:57:49.000Z</time>
      </trkpt>
      <trkpt lat="47.28708" lon="-2.36907">
        <ele>-4.8000001907349</ele>
        <time>2021-01-14T10:57:52.000Z</time>
      </trkpt>
      <trkpt lat="47.28706" lon="-2.36904">
        <ele>-4.4000000953674</ele>
        <time>2021-01-14T10:57:53.000Z</time>
      </trkpt>
      <trkpt lat="47.28705" lon="-2.369">
        <ele>-4</ele>
        <time>2021-01-14T10:57:54.000Z</time>
      </trkpt>
      <trkpt lat="47.28703" lon="-2.36896">
        <ele>-3.5999999046326</ele>
        <time>2021-01-14T10:57:55.000Z</time>
      </trkpt>
      <trkpt lat="47.28702" lon="-2.36891">
        <ele>-3.2000000476837</ele>
        <time>2021-01-14T10:57:56.000Z</time>
      </trkpt>
      <trkpt lat="47.28693" lon="-2.36871">
        <ele>-3.2000000476837</ele>
        <time>2021-01-14T10:58:01.000Z</time>
      </trkpt>
      <trkpt lat="47.2868" lon="-2.36845">
        <ele>-3.2000000476837</ele>
        <time>2021-01-14T10:58:07.000Z</time>
      </trkpt>
      <trkpt lat="47.28668" lon="-2.36817">
        <ele>-3.2000000476837</ele>
        <time>2021-01-14T10:58:12.000Z</time>
      </trkpt>
      <trkpt lat="47.28664" lon="-2.36806">
        <ele>-3.2000000476837</ele>
        <time>2021-01-14T10:58:18.000Z</time>
      </trkpt>
      <trkpt lat="47.28663" lon="-2.36805">
        <ele>-2.7999999523163</ele>
        <time>2021-01-14T10:58:19.000Z</time>
      </trkpt>
      <trkpt lat="47.28661" lon="-2.36804">
        <ele>-2.4000000953674</ele>
        <time>2021-01-14T10:58:20.000Z</time>
      </trkpt>
      <trkpt lat="47.2866" lon="-2.36802">
        <ele>-2</ele>
        <time>2021-01-14T10:58:21.000Z</time>
      </trkpt>
      <trkpt lat="47.28659" lon="-2.368">
        <ele>-1.6000000238419</ele>
        <time>2021-01-14T10:58:22.000Z</time>
      </trkpt>
      <trkpt lat="47.28657" lon="-2.36799">
        <ele>-1</ele>
        <time>2021-01-14T10:58:23.000Z</time>
      </trkpt>
      <trkpt lat="47.28656" lon="-2.36798">
        <ele>-1</ele>
        <time>2021-01-14T10:58:24.000Z</time>
      </trkpt>
      <trkpt lat="47.28655" lon="-2.36797">
        <ele>-1</ele>
        <time>2021-01-14T10:58:26.000Z</time>
      </trkpt>
      <trkpt lat="47.28652" lon="-2.368">
        <ele>-1</ele>
        <time>2021-01-14T10:58:41.000Z</time>
      </trkpt>
      <trkpt lat="47.2865" lon="-2.36802">
        <ele>-1</ele>
        <time>2021-01-14T10:58:42.000Z</time>
      </trkpt>
      <trkpt lat="47.28642" lon="-2.36811">
        <ele>-1</ele>
        <time>2021-01-14T10:58:46.000Z</time>
      </trkpt>
      <trkpt lat="47.28624" lon="-2.36829">
        <ele>-1</ele>
        <time>2021-01-14T10:58:51.000Z</time>
      </trkpt>
      <trkpt lat="47.28608" lon="-2.36842">
        <ele>-1</ele>
        <time>2021-01-14T10:58:55.000Z</time>
      </trkpt>
      <trkpt lat="47.28599" lon="-2.36841">
        <ele>-1</ele>
        <time>2021-01-14T10:58:57.000Z</time>
      </trkpt>
      <trkpt lat="47.28589" lon="-2.36828">
        <ele>-1</ele>
        <time>2021-01-14T10:59:00.000Z</time>
      </trkpt>
      <trkpt lat="47.28573" lon="-2.368">
        <ele>-1</ele>
        <time>2021-01-14T10:59:05.000Z</time>
      </trkpt>
      <trkpt lat="47.28554" lon="-2.3677">
        <ele>-1</ele>
        <time>2021-01-14T10:59:11.000Z</time>
      </trkpt>
      <trkpt lat="47.28548" lon="-2.36759">
        <ele>-1</ele>
        <time>2021-01-14T10:59:13.000Z</time>
      </trkpt>
      <trkpt lat="47.28522" lon="-2.36714">
        <ele>-1</ele>
        <time>2021-01-14T10:59:22.000Z</time>
      </trkpt>
      <trkpt lat="47.28507" lon="-2.36688">
        <ele>-1</ele>
        <time>2021-01-14T10:59:29.000Z</time>
      </trkpt>
      <trkpt lat="47.28491" lon="-2.3666">
        <ele>-1</ele>
        <time>2021-01-14T10:59:36.000Z</time>
      </trkpt>
      <trkpt lat="47.28482" lon="-2.36632">
        <ele>-1</ele>
        <time>2021-01-14T10:59:41.000Z</time>
      </trkpt>
      <trkpt lat="47.28476" lon="-2.36612">
        <ele>-1</ele>
        <time>2021-01-14T10:59:44.000Z</time>
      </trkpt>
      <trkpt lat="47.28469" lon="-2.36574">
        <ele>-1</ele>
        <time>2021-01-14T10:59:50.000Z</time>
      </trkpt>
      <trkpt lat="47.2847" lon="-2.36568">
        <ele>-1</ele>
        <time>2021-01-14T10:59:51.000Z</time>
      </trkpt>
      <trkpt lat="47.28481" lon="-2.36549">
        <ele>-1</ele>
        <time>2021-01-14T10:59:55.000Z</time>
      </trkpt>
      <trkpt lat="47.28499" lon="-2.36526">
        <ele>-1</ele>
        <time>2021-01-14T11:00:00.000Z</time>
      </trkpt>
      <trkpt lat="47.28502" lon="-2.36522">
        <ele>-1</ele>
        <time>2021-01-14T11:00:01.000Z</time>
      </trkpt>
      <trkpt lat="47.28514" lon="-2.36507">
        <ele>-0.60000002384186</ele>
        <time>2021-01-14T11:00:05.000Z</time>
      </trkpt>
      <trkpt lat="47.28516" lon="-2.36503">
        <ele>-0.20000000298023</ele>
        <time>2021-01-14T11:00:06.000Z</time>
      </trkpt>
      <trkpt lat="47.28518" lon="-2.36499">
        <ele>0.20000000298023</ele>
        <time>2021-01-14T11:00:07.000Z</time>
      </trkpt>
      <trkpt lat="47.28519" lon="-2.36495">
        <ele>0.60000002384186</ele>
        <time>2021-01-14T11:00:08.000Z</time>
      </trkpt>
      <trkpt lat="47.28519" lon="-2.3649">
        <ele>1</ele>
        <time>2021-01-14T11:00:09.000Z</time>
      </trkpt>
      <trkpt lat="47.28518" lon="-2.36486">
        <ele>1</ele>
        <time>2021-01-14T11:00:10.000Z</time>
      </trkpt>
      <trkpt lat="47.28509" lon="-2.36451">
        <ele>1</ele>
        <time>2021-01-14T11:00:17.000Z</time>
      </trkpt>
      <trkpt lat="47.28502" lon="-2.36445">
        <ele>1</ele>
        <time>2021-01-14T11:00:19.000Z</time>
      </trkpt>
      <trkpt lat="47.28485" lon="-2.36435">
        <ele>1</ele>
        <time>2021-01-14T11:00:23.000Z</time>
      </trkpt>
      <trkpt lat="47.28482" lon="-2.36432">
        <ele>1</ele>
        <time>2021-01-14T11:00:24.000Z</time>
      </trkpt>
      <trkpt lat="47.28472" lon="-2.36421">
        <ele>1</ele>
        <time>2021-01-14T11:00:28.000Z</time>
      </trkpt>
      <trkpt lat="47.28465" lon="-2.36409">
        <ele>1.3999999761581</ele>
        <time>2021-01-14T11:00:31.000Z</time>
      </trkpt>
      <trkpt lat="47.28461" lon="-2.36404">
        <ele>1.7999999523163</ele>
        <time>2021-01-14T11:00:32.000Z</time>
      </trkpt>
      <trkpt lat="47.28457" lon="-2.364">
        <ele>2.2000000476837</ele>
        <time>2021-01-14T11:00:33.000Z</time>
      </trkpt>
      <trkpt lat="47.28454" lon="-2.36396">
        <ele>2.5999999046326</ele>
        <time>2021-01-14T11:00:34.000Z</time>
      </trkpt>
      <trkpt lat="47.2845" lon="-2.36392">
        <ele>3</ele>
        <time>2021-01-14T11:00:35.000Z</time>
      </trkpt>
      <trkpt lat="47.28441" lon="-2.36386">
        <ele>3</ele>
        <time>2021-01-14T11:00:37.000Z</time>
      </trkpt>
      <trkpt lat="47.28433" lon="-2.3638">
        <ele>3</ele>
        <time>2021-01-14T11:00:39.000Z</time>
      </trkpt>
      <trkpt lat="47.28419" lon="-2.36359">
        <ele>3</ele>
        <time>2021-01-14T11:00:43.000Z</time>
      </trkpt>
      <trkpt lat="47.28416" lon="-2.36354">
        <ele>3</ele>
        <time>2021-01-14T11:00:44.000Z</time>
      </trkpt>
      <trkpt lat="47.28397" lon="-2.36335">
        <ele>3</ele>
        <time>2021-01-14T11:00:48.000Z</time>
      </trkpt>
      <trkpt lat="47.28381" lon="-2.36321">
        <ele>3</ele>
        <time>2021-01-14T11:00:51.000Z</time>
      </trkpt>
      <trkpt lat="47.28373" lon="-2.36317">
        <ele>3</ele>
        <time>2021-01-14T11:00:53.000Z</time>
      </trkpt>
      <trkpt lat="47.28363" lon="-2.363">
        <ele>3</ele>
        <time>2021-01-14T11:00:57.000Z</time>
      </trkpt>
      <trkpt lat="47.28362" lon="-2.3628">
        <ele>3.4000000953674</ele>
        <time>2021-01-14T11:01:01.000Z</time>
      </trkpt>
      <trkpt lat="47.28359" lon="-2.36277">
        <ele>3.7999999523163</ele>
        <time>2021-01-14T11:01:02.000Z</time>
      </trkpt>
      <trkpt lat="47.28356" lon="-2.36274">
        <ele>4.1999998092651</ele>
        <time>2021-01-14T11:01:03.000Z</time>
      </trkpt>
      <trkpt lat="47.28353" lon="-2.36272">
        <ele>5</ele>
        <time>2021-01-14T11:01:04.000Z</time>
      </trkpt>
      <trkpt lat="47.28348" lon="-2.36271">
        <ele>5</ele>
        <time>2021-01-14T11:01:05.000Z</time>
      </trkpt>
      <trkpt lat="47.28343" lon="-2.3627">
        <ele>5</ele>
        <time>2021-01-14T11:01:06.000Z</time>
      </trkpt>
      <trkpt lat="47.28325" lon="-2.36264">
        <ele>5</ele>
        <time>2021-01-14T11:01:09.000Z</time>
      </trkpt>
      <trkpt lat="47.28299" lon="-2.36254">
        <ele>5</ele>
        <time>2021-01-14T11:01:13.000Z</time>
      </trkpt>
      <trkpt lat="47.28275" lon="-2.3623">
        <ele>5</ele>
        <time>2021-01-14T11:01:17.000Z</time>
      </trkpt>
      <trkpt lat="47.28263" lon="-2.36205">
        <ele>5</ele>
        <time>2021-01-14T11:01:20.000Z</time>
      </trkpt>
      <trkpt lat="47.2826" lon="-2.36196">
        <ele>5</ele>
        <time>2021-01-14T11:01:21.000Z</time>
      </trkpt>
      <trkpt lat="47.28242" lon="-2.36151">
        <ele>5</ele>
        <time>2021-01-14T11:01:27.000Z</time>
      </trkpt>
      <trkpt lat="47.28236" lon="-2.36134">
        <ele>5</ele>
        <time>2021-01-14T11:01:31.000Z</time>
      </trkpt>
      <trkpt lat="47.28233" lon="-2.36126">
        <ele>5.4000000953674</ele>
        <time>2021-01-14T11:01:33.000Z</time>
      </trkpt>
      <trkpt lat="47.28231" lon="-2.36123">
        <ele>5.8000001907349</ele>
        <time>2021-01-14T11:01:34.000Z</time>
      </trkpt>
      <trkpt lat="47.28229" lon="-2.3612">
        <ele>6.1999998092651</ele>
        <time>2021-01-14T11:01:35.000Z</time>
      </trkpt>
      <trkpt lat="47.28227" lon="-2.36115">
        <ele>6.8000001907349</ele>
        <time>2021-01-14T11:01:36.000Z</time>
      </trkpt>
      <trkpt lat="47.28225" lon="-2.36109">
        <ele>7.1999998092651</ele>
        <time>2021-01-14T11:01:37.000Z</time>
      </trkpt>
      <trkpt lat="47.28223" lon="-2.36103">
        <ele>7.1999998092651</ele>
        <time>2021-01-14T11:01:38.000Z</time>
      </trkpt>
      <trkpt lat="47.28218" lon="-2.36088">
        <ele>7.1999998092651</ele>
        <time>2021-01-14T11:01:40.000Z</time>
      </trkpt>
      <trkpt lat="47.28204" lon="-2.36043">
        <ele>7.1999998092651</ele>
        <time>2021-01-14T11:01:46.000Z</time>
      </trkpt>
      <trkpt lat="47.282" lon="-2.36029">
        <ele>7.1999998092651</ele>
        <time>2021-01-14T11:01:48.000Z</time>
      </trkpt>
      <trkpt lat="47.28186" lon="-2.35999">
        <ele>7.1999998092651</ele>
        <time>2021-01-14T11:01:52.000Z</time>
      </trkpt>
      <trkpt lat="47.2817" lon="-2.35965">
        <ele>7.1999998092651</ele>
        <time>2021-01-14T11:01:57.000Z</time>
      </trkpt>
      <trkpt lat="47.28153" lon="-2.35941">
        <ele>7.1999998092651</ele>
        <time>2021-01-14T11:02:03.000Z</time>
      </trkpt>
      <trkpt lat="47.28143" lon="-2.35923">
        <ele>7.1999998092651</ele>
        <time>2021-01-14T11:02:08.000Z</time>
      </trkpt>
      <trkpt lat="47.2814" lon="-2.3592">
        <ele>7.5999999046326</ele>
        <time>2021-01-14T11:02:09.000Z</time>
      </trkpt>
      <trkpt lat="47.28137" lon="-2.35916">
        <ele>8</ele>
        <time>2021-01-14T11:02:10.000Z</time>
      </trkpt>
      <trkpt lat="47.28135" lon="-2.35912">
        <ele>8.3999996185303</ele>
        <time>2021-01-14T11:02:11.000Z</time>
      </trkpt>
      <trkpt lat="47.28132" lon="-2.35909">
        <ele>8.8000001907349</ele>
        <time>2021-01-14T11:02:12.000Z</time>
      </trkpt>
      <trkpt lat="47.28128" lon="-2.35905">
        <ele>9.1999998092651</ele>
        <time>2021-01-14T11:02:13.000Z</time>
      </trkpt>
      <trkpt lat="47.28125" lon="-2.35901">
        <ele>9.1999998092651</ele>
        <time>2021-01-14T11:02:14.000Z</time>
      </trkpt>
      <trkpt lat="47.28107" lon="-2.35871">
        <ele>9.1999998092651</ele>
        <time>2021-01-14T11:02:20.000Z</time>
      </trkpt>
      <trkpt lat="47.28088" lon="-2.35838">
        <ele>9.1999998092651</ele>
        <time>2021-01-14T11:02:26.000Z</time>
      </trkpt>
      <trkpt lat="47.28081" lon="-2.35828">
        <ele>9.1999998092651</ele>
        <time>2021-01-14T11:02:28.000Z</time>
      </trkpt>
      <trkpt lat="47.28075" lon="-2.35809">
        <ele>9.1999998092651</ele>
        <time>2021-01-14T11:02:31.000Z</time>
      </trkpt>
      <trkpt lat="47.28078" lon="-2.35784">
        <ele>9.1999998092651</ele>
        <time>2021-01-14T11:02:36.000Z</time>
      </trkpt>
      <trkpt lat="47.2808" lon="-2.35758">
        <ele>9.1999998092651</ele>
        <time>2021-01-14T11:02:41.000Z</time>
      </trkpt>
      <trkpt lat="47.28081" lon="-2.35748">
        <ele>9.6000003814697</ele>
        <time>2021-01-14T11:02:43.000Z</time>
      </trkpt>
      <trkpt lat="47.28082" lon="-2.35742">
        <ele>10.39999961853</ele>
        <time>2021-01-14T11:02:44.000Z</time>
      </trkpt>
      <trkpt lat="47.28083" lon="-2.35738">
        <ele>10.800000190735</ele>
        <time>2021-01-14T11:02:45.000Z</time>
      </trkpt>
      <trkpt lat="47.28083" lon="-2.35733">
        <ele>11.199999809265</ele>
        <time>2021-01-14T11:02:46.000Z</time>
      </trkpt>
      <trkpt lat="47.28085" lon="-2.35728">
        <ele>11.199999809265</ele>
        <time>2021-01-14T11:02:47.000Z</time>
      </trkpt>
      <trkpt lat="47.28087" lon="-2.35698">
        <ele>11.199999809265</ele>
        <time>2021-01-14T11:02:53.000Z</time>
      </trkpt>
      <trkpt lat="47.28086" lon="-2.35691">
        <ele>11.199999809265</ele>
        <time>2021-01-14T11:02:54.000Z</time>
      </trkpt>
      <trkpt lat="47.28081" lon="-2.35659">
        <ele>11.199999809265</ele>
        <time>2021-01-14T11:02:58.000Z</time>
      </trkpt>
      <trkpt lat="47.28075" lon="-2.35635">
        <ele>11.199999809265</ele>
        <time>2021-01-14T11:03:02.000Z</time>
      </trkpt>
      <trkpt lat="47.28077" lon="-2.35621">
        <ele>11.199999809265</ele>
        <time>2021-01-14T11:03:05.000Z</time>
      </trkpt>
      <trkpt lat="47.28079" lon="-2.35618">
        <ele>11.199999809265</ele>
        <time>2021-01-14T11:03:06.000Z</time>
      </trkpt>
      <trkpt lat="47.28084" lon="-2.35622">
        <ele>11.199999809265</ele>
        <time>2021-01-14T11:03:10.000Z</time>
      </trkpt>
      <trkpt lat="47.28085" lon="-2.35628">
        <ele>11.199999809265</ele>
        <time>2021-01-14T11:03:13.000Z</time>
      </trkpt>
      <trkpt lat="47.28085" lon="-2.35629">
        <ele>11.199999809265</ele>
        <time>2021-01-14T11:03:15.000Z</time>
      </trkpt>
      <trkpt lat="47.28087" lon="-2.35618">
        <ele>2.4000000953674</ele>
        <time>2021-01-14T11:16:38.000Z</time>
      </trkpt>
      <trkpt lat="47.28085" lon="-2.35615">
        <ele>2.7999999523163</ele>
        <time>2021-01-14T11:16:39.000Z</time>
      </trkpt>
      <trkpt lat="47.28083" lon="-2.35612">
        <ele>3.2000000476837</ele>
        <time>2021-01-14T11:16:40.000Z</time>
      </trkpt>
      <trkpt lat="47.28081" lon="-2.3561">
        <ele>3.5999999046326</ele>
        <time>2021-01-14T11:16:41.000Z</time>
      </trkpt>
      <trkpt lat="47.28075" lon="-2.35601">
        <ele>4</ele>
        <time>2021-01-14T11:16:44.000Z</time>
      </trkpt>
      <trkpt lat="47.28073" lon="-2.35598">
        <ele>4.8000001907349</ele>
        <time>2021-01-14T11:16:45.000Z</time>
      </trkpt>
      <trkpt lat="47.2807" lon="-2.35594">
        <ele>5.1999998092651</ele>
        <time>2021-01-14T11:16:46.000Z</time>
      </trkpt>
      <trkpt lat="47.28068" lon="-2.35591">
        <ele>5.5999999046326</ele>
        <time>2021-01-14T11:16:47.000Z</time>
      </trkpt>
      <trkpt lat="47.2806" lon="-2.35584">
        <ele>5.5999999046326</ele>
        <time>2021-01-14T11:16:50.000Z</time>
      </trkpt>
      <trkpt lat="47.28056" lon="-2.35582">
        <ele>6</ele>
        <time>2021-01-14T11:16:51.000Z</time>
      </trkpt>
      <trkpt lat="47.28051" lon="-2.3558">
        <ele>6.4000000953674</ele>
        <time>2021-01-14T11:16:52.000Z</time>
      </trkpt>
      <trkpt lat="47.28047" lon="-2.35579">
        <ele>7</ele>
        <time>2021-01-14T11:16:53.000Z</time>
      </trkpt>
      <trkpt lat="47.28042" lon="-2.35578">
        <ele>7.4000000953674</ele>
        <time>2021-01-14T11:16:54.000Z</time>
      </trkpt>
      <trkpt lat="47.28037" lon="-2.35576">
        <ele>7.8000001907349</ele>
        <time>2021-01-14T11:16:55.000Z</time>
      </trkpt>
      <trkpt lat="47.28024" lon="-2.35563">
        <ele>8.1999998092651</ele>
        <time>2021-01-14T11:16:58.000Z</time>
      </trkpt>
      <trkpt lat="47.28019" lon="-2.35559">
        <ele>8.6000003814697</ele>
        <time>2021-01-14T11:16:59.000Z</time>
      </trkpt>
      <trkpt lat="47.28015" lon="-2.35556">
        <ele>9</ele>
        <time>2021-01-14T11:17:00.000Z</time>
      </trkpt>
      <trkpt lat="47.28011" lon="-2.35553">
        <ele>9.3999996185303</ele>
        <time>2021-01-14T11:17:01.000Z</time>
      </trkpt>
      <trkpt lat="47.28008" lon="-2.3555">
        <ele>9.8000001907349</ele>
        <time>2021-01-14T11:17:02.000Z</time>
      </trkpt>
      <trkpt lat="47.28002" lon="-2.3554">
        <ele>9.8000001907349</ele>
        <time>2021-01-14T11:17:04.000Z</time>
      </trkpt>
      <trkpt lat="47.28" lon="-2.35533">
        <ele>10.199999809265</ele>
        <time>2021-01-14T11:17:05.000Z</time>
      </trkpt>
      <trkpt lat="47.27997" lon="-2.35526">
        <ele>10.60000038147</ele>
        <time>2021-01-14T11:17:06.000Z</time>
      </trkpt>
      <trkpt lat="47.27994" lon="-2.35518">
        <ele>11</ele>
        <time>2021-01-14T11:17:07.000Z</time>
      </trkpt>
      <trkpt lat="47.2799" lon="-2.35511">
        <ele>11.39999961853</ele>
        <time>2021-01-14T11:17:08.000Z</time>
      </trkpt>
      <trkpt lat="47.27986" lon="-2.35503">
        <ele>11.800000190735</ele>
        <time>2021-01-14T11:17:09.000Z</time>
      </trkpt>
      <trkpt lat="47.27974" lon="-2.35479">
        <ele>11.800000190735</ele>
        <time>2021-01-14T11:17:12.000Z</time>
      </trkpt>
      <trkpt lat="47.2797" lon="-2.35473">
        <ele>12.199999809265</ele>
        <time>2021-01-14T11:17:13.000Z</time>
      </trkpt>
      <trkpt lat="47.27966" lon="-2.35469">
        <ele>12.60000038147</ele>
        <time>2021-01-14T11:17:14.000Z</time>
      </trkpt>
      <trkpt lat="47.27963" lon="-2.35467">
        <ele>13.199999809265</ele>
        <time>2021-01-14T11:17:15.000Z</time>
      </trkpt>
      <trkpt lat="47.27959" lon="-2.35465">
        <ele>13.60000038147</ele>
        <time>2021-01-14T11:17:16.000Z</time>
      </trkpt>
      <trkpt lat="47.27956" lon="-2.35463">
        <ele>14</ele>
        <time>2021-01-14T11:17:17.000Z</time>
      </trkpt>
      <trkpt lat="47.27953" lon="-2.35453">
        <ele>14</ele>
        <time>2021-01-14T11:17:19.000Z</time>
      </trkpt>
      <trkpt lat="47.27953" lon="-2.35448">
        <ele>14</ele>
        <time>2021-01-14T11:17:20.000Z</time>
      </trkpt>
      <trkpt lat="47.27952" lon="-2.35443">
        <ele>14.39999961853</ele>
        <time>2021-01-14T11:17:21.000Z</time>
      </trkpt>
      <trkpt lat="47.2795" lon="-2.35438">
        <ele>14.800000190735</ele>
        <time>2021-01-14T11:17:22.000Z</time>
      </trkpt>
      <trkpt lat="47.27947" lon="-2.35433">
        <ele>15.199999809265</ele>
        <time>2021-01-14T11:17:23.000Z</time>
      </trkpt>
      <trkpt lat="47.27944" lon="-2.35429">
        <ele>15.60000038147</ele>
        <time>2021-01-14T11:17:24.000Z</time>
      </trkpt>
      <trkpt lat="47.27941" lon="-2.35424">
        <ele>16</ele>
        <time>2021-01-14T11:17:25.000Z</time>
      </trkpt>
      <trkpt lat="47.27935" lon="-2.35414">
        <ele>16</ele>
        <time>2021-01-14T11:17:27.000Z</time>
      </trkpt>
      <trkpt lat="47.27931" lon="-2.354">
        <ele>16</ele>
        <time>2021-01-14T11:17:29.000Z</time>
      </trkpt>
      <trkpt lat="47.27929" lon="-2.35379">
        <ele>16.39999961853</ele>
        <time>2021-01-14T11:17:32.000Z</time>
      </trkpt>
      <trkpt lat="47.27928" lon="-2.35372">
        <ele>17</ele>
        <time>2021-01-14T11:17:33.000Z</time>
      </trkpt>
      <trkpt lat="47.27928" lon="-2.35366">
        <ele>17.39999961853</ele>
        <time>2021-01-14T11:17:34.000Z</time>
      </trkpt>
      <trkpt lat="47.27927" lon="-2.35359">
        <ele>18.200000762939</ele>
        <time>2021-01-14T11:17:35.000Z</time>
      </trkpt>
      <trkpt lat="47.27927" lon="-2.35352">
        <ele>18.200000762939</ele>
        <time>2021-01-14T11:17:36.000Z</time>
      </trkpt>
      <trkpt lat="47.27926" lon="-2.35327">
        <ele>18.200000762939</ele>
        <time>2021-01-14T11:17:40.000Z</time>
      </trkpt>
      <trkpt lat="47.27925" lon="-2.3532">
        <ele>18.200000762939</ele>
        <time>2021-01-14T11:17:41.000Z</time>
      </trkpt>
      <trkpt lat="47.27923" lon="-2.35305">
        <ele>18.60000038147</ele>
        <time>2021-01-14T11:17:43.000Z</time>
      </trkpt>
      <trkpt lat="47.27923" lon="-2.35298">
        <ele>19</ele>
        <time>2021-01-14T11:17:44.000Z</time>
      </trkpt>
      <trkpt lat="47.27923" lon="-2.3529">
        <ele>19.39999961853</ele>
        <time>2021-01-14T11:17:45.000Z</time>
      </trkpt>
      <trkpt lat="47.27922" lon="-2.35282">
        <ele>20</ele>
        <time>2021-01-14T11:17:46.000Z</time>
      </trkpt>
      <trkpt lat="47.27921" lon="-2.35274">
        <ele>20.39999961853</ele>
        <time>2021-01-14T11:17:47.000Z</time>
      </trkpt>
      <trkpt lat="47.2792" lon="-2.35266">
        <ele>20.39999961853</ele>
        <time>2021-01-14T11:17:48.000Z</time>
      </trkpt>
      <trkpt lat="47.27917" lon="-2.35248">
        <ele>20.39999961853</ele>
        <time>2021-01-14T11:17:50.000Z</time>
      </trkpt>
      <trkpt lat="47.27915" lon="-2.3523">
        <ele>20.39999961853</ele>
        <time>2021-01-14T11:17:52.000Z</time>
      </trkpt>
      <trkpt lat="47.27912" lon="-2.35204">
        <ele>20.799999237061</ele>
        <time>2021-01-14T11:17:55.000Z</time>
      </trkpt>
      <trkpt lat="47.27911" lon="-2.35195">
        <ele>21.200000762939</ele>
        <time>2021-01-14T11:17:56.000Z</time>
      </trkpt>
      <trkpt lat="47.27909" lon="-2.35186">
        <ele>21.60000038147</ele>
        <time>2021-01-14T11:17:57.000Z</time>
      </trkpt>
      <trkpt lat="47.27909" lon="-2.35178">
        <ele>22</ele>
        <time>2021-01-14T11:17:58.000Z</time>
      </trkpt>
      <trkpt lat="47.27908" lon="-2.35169">
        <ele>22.39999961853</ele>
        <time>2021-01-14T11:17:59.000Z</time>
      </trkpt>
      <trkpt lat="47.27908" lon="-2.35145">
        <ele>22.39999961853</ele>
        <time>2021-01-14T11:18:02.000Z</time>
      </trkpt>
      <trkpt lat="47.27906" lon="-2.35112">
        <ele>22.799999237061</ele>
        <time>2021-01-14T11:18:06.000Z</time>
      </trkpt>
      <trkpt lat="47.27906" lon="-2.35104">
        <ele>23.39999961853</ele>
        <time>2021-01-14T11:18:07.000Z</time>
      </trkpt>
      <trkpt lat="47.27906" lon="-2.35097">
        <ele>23.799999237061</ele>
        <time>2021-01-14T11:18:08.000Z</time>
      </trkpt>
      <trkpt lat="47.27906" lon="-2.35089">
        <ele>24.200000762939</ele>
        <time>2021-01-14T11:18:09.000Z</time>
      </trkpt>
      <trkpt lat="47.27906" lon="-2.35082">
        <ele>24.60000038147</ele>
        <time>2021-01-14T11:18:10.000Z</time>
      </trkpt>
      <trkpt lat="47.27903" lon="-2.35059">
        <ele>24.60000038147</ele>
        <time>2021-01-14T11:18:13.000Z</time>
      </trkpt>
      <trkpt lat="47.27902" lon="-2.35052">
        <ele>24.60000038147</ele>
        <time>2021-01-14T11:18:14.000Z</time>
      </trkpt>
      <trkpt lat="47.279" lon="-2.35044">
        <ele>24.60000038147</ele>
        <time>2021-01-14T11:18:15.000Z</time>
      </trkpt>
      <trkpt lat="47.27893" lon="-2.35015">
        <ele>25</ele>
        <time>2021-01-14T11:18:19.000Z</time>
      </trkpt>
      <trkpt lat="47.27891" lon="-2.35008">
        <ele>25.39999961853</ele>
        <time>2021-01-14T11:18:20.000Z</time>
      </trkpt>
      <trkpt lat="47.27889" lon="-2.35002">
        <ele>25.799999237061</ele>
        <time>2021-01-14T11:18:21.000Z</time>
      </trkpt>
      <trkpt lat="47.27887" lon="-2.34995">
        <ele>26.200000762939</ele>
        <time>2021-01-14T11:18:22.000Z</time>
      </trkpt>
      <trkpt lat="47.27884" lon="-2.34988">
        <ele>26.60000038147</ele>
        <time>2021-01-14T11:18:23.000Z</time>
      </trkpt>
      <trkpt lat="47.27877" lon="-2.34969">
        <ele>26.60000038147</ele>
        <time>2021-01-14T11:18:26.000Z</time>
      </trkpt>
      <trkpt lat="47.27872" lon="-2.34959">
        <ele>26.60000038147</ele>
        <time>2021-01-14T11:18:28.000Z</time>
      </trkpt>
      <trkpt lat="47.27868" lon="-2.34954">
        <ele>26.60000038147</ele>
        <time>2021-01-14T11:18:29.000Z</time>
      </trkpt>
      <trkpt lat="47.27854" lon="-2.34935">
        <ele>27</ele>
        <time>2021-01-14T11:18:33.000Z</time>
      </trkpt>
      <trkpt lat="47.2785" lon="-2.3493">
        <ele>27.60000038147</ele>
        <time>2021-01-14T11:18:34.000Z</time>
      </trkpt>
      <trkpt lat="47.27846" lon="-2.34926">
        <ele>28</ele>
        <time>2021-01-14T11:18:35.000Z</time>
      </trkpt>
      <trkpt lat="47.27842" lon="-2.34921">
        <ele>28.39999961853</ele>
        <time>2021-01-14T11:18:36.000Z</time>
      </trkpt>
      <trkpt lat="47.27838" lon="-2.34916">
        <ele>28.799999237061</ele>
        <time>2021-01-14T11:18:37.000Z</time>
      </trkpt>
      <trkpt lat="47.27827" lon="-2.34904">
        <ele>28.799999237061</ele>
        <time>2021-01-14T11:18:40.000Z</time>
      </trkpt>
      <trkpt lat="47.27802" lon="-2.34884">
        <ele>28.799999237061</ele>
        <time>2021-01-14T11:18:46.000Z</time>
      </trkpt>
      <trkpt lat="47.27784" lon="-2.34871">
        <ele>28.799999237061</ele>
        <time>2021-01-14T11:18:52.000Z</time>
      </trkpt>
      <trkpt lat="47.2777" lon="-2.34865">
        <ele>28.799999237061</ele>
        <time>2021-01-14T11:18:56.000Z</time>
      </trkpt>
      <trkpt lat="47.27767" lon="-2.34861">
        <ele>28.799999237061</ele>
        <time>2021-01-14T11:18:57.000Z</time>
      </trkpt>
      <trkpt lat="47.27755" lon="-2.34838">
        <ele>28.799999237061</ele>
        <time>2021-01-14T11:19:02.000Z</time>
      </trkpt>
      <trkpt lat="47.27752" lon="-2.34834">
        <ele>28.799999237061</ele>
        <time>2021-01-14T11:19:03.000Z</time>
      </trkpt>
      <trkpt lat="47.27746" lon="-2.34823">
        <ele>28.799999237061</ele>
        <time>2021-01-14T11:19:05.000Z</time>
      </trkpt>
      <trkpt lat="47.2774" lon="-2.34812">
        <ele>29.200000762939</ele>
        <time>2021-01-14T11:19:07.000Z</time>
      </trkpt>
      <trkpt lat="47.27737" lon="-2.34806">
        <ele>29.60000038147</ele>
        <time>2021-01-14T11:19:08.000Z</time>
      </trkpt>
      <trkpt lat="47.27734" lon="-2.34799">
        <ele>30</ele>
        <time>2021-01-14T11:19:09.000Z</time>
      </trkpt>
      <trkpt lat="47.27731" lon="-2.34793">
        <ele>30.39999961853</ele>
        <time>2021-01-14T11:19:10.000Z</time>
      </trkpt>
      <trkpt lat="47.27728" lon="-2.34786">
        <ele>30.799999237061</ele>
        <time>2021-01-14T11:19:11.000Z</time>
      </trkpt>
      <trkpt lat="47.27719" lon="-2.34767">
        <ele>30.799999237061</ele>
        <time>2021-01-14T11:19:14.000Z</time>
      </trkpt>
      <trkpt lat="47.27709" lon="-2.34748">
        <ele>30.799999237061</ele>
        <time>2021-01-14T11:19:17.000Z</time>
      </trkpt>
      <trkpt lat="47.27706" lon="-2.34735">
        <ele>30.799999237061</ele>
        <time>2021-01-14T11:19:19.000Z</time>
      </trkpt>
      <trkpt lat="47.27701" lon="-2.34704">
        <ele>30.799999237061</ele>
        <time>2021-01-14T11:19:23.000Z</time>
      </trkpt>
      <trkpt lat="47.27697" lon="-2.34692">
        <ele>30.799999237061</ele>
        <time>2021-01-14T11:19:25.000Z</time>
      </trkpt>
      <trkpt lat="47.27694" lon="-2.3468">
        <ele>31.200000762939</ele>
        <time>2021-01-14T11:19:28.000Z</time>
      </trkpt>
      <trkpt lat="47.27694" lon="-2.34678">
        <ele>31.60000038147</ele>
        <time>2021-01-14T11:19:29.000Z</time>
      </trkpt>
      <trkpt lat="47.27693" lon="-2.34675">
        <ele>32</ele>
        <time>2021-01-14T11:19:30.000Z</time>
      </trkpt>
      <trkpt lat="47.27692" lon="-2.34672">
        <ele>32.400001525879</ele>
        <time>2021-01-14T11:19:31.000Z</time>
      </trkpt>
      <trkpt lat="47.2769" lon="-2.34669">
        <ele>32.799999237061</ele>
        <time>2021-01-14T11:19:32.000Z</time>
      </trkpt>
      <trkpt lat="47.27688" lon="-2.34666">
        <ele>32.799999237061</ele>
        <time>2021-01-14T11:19:33.000Z</time>
      </trkpt>
      <trkpt lat="47.27683" lon="-2.34645">
        <ele>32.799999237061</ele>
        <time>2021-01-14T11:19:37.000Z</time>
      </trkpt>
      <trkpt lat="47.27677" lon="-2.34604">
        <ele>32.799999237061</ele>
        <time>2021-01-14T11:19:43.000Z</time>
      </trkpt>
      <trkpt lat="47.27677" lon="-2.34597">
        <ele>32.799999237061</ele>
        <time>2021-01-14T11:19:44.000Z</time>
      </trkpt>
      <trkpt lat="47.27673" lon="-2.34578">
        <ele>32.799999237061</ele>
        <time>2021-01-14T11:19:48.000Z</time>
      </trkpt>
      <trkpt lat="47.27672" lon="-2.34573">
        <ele>32.799999237061</ele>
        <time>2021-01-14T11:19:50.000Z</time>
      </trkpt>
      <trkpt lat="47.2767" lon="-2.34569">
        <ele>32.799999237061</ele>
        <time>2021-01-14T11:19:53.000Z</time>
      </trkpt>
      <trkpt lat="47.27668" lon="-2.34571">
        <ele>32.799999237061</ele>
        <time>2021-01-14T11:19:55.000Z</time>
      </trkpt>
      <trkpt lat="47.27665" lon="-2.34576">
        <ele>32.799999237061</ele>
        <time>2021-01-14T11:19:57.000Z</time>
      </trkpt>
      <trkpt lat="47.2765" lon="-2.34589">
        <ele>32.799999237061</ele>
        <time>2021-01-14T11:20:02.000Z</time>
      </trkpt>
      <trkpt lat="47.2761" lon="-2.34624">
        <ele>32.799999237061</ele>
        <time>2021-01-14T11:20:10.000Z</time>
      </trkpt>
      <trkpt lat="47.27607" lon="-2.34629">
        <ele>32.799999237061</ele>
        <time>2021-01-14T11:20:11.000Z</time>
      </trkpt>
      <trkpt lat="47.27589" lon="-2.34646">
        <ele>32.799999237061</ele>
        <time>2021-01-14T11:20:15.000Z</time>
      </trkpt>
      <trkpt lat="47.27561" lon="-2.34667">
        <ele>32.799999237061</ele>
        <time>2021-01-14T11:20:21.000Z</time>
      </trkpt>
      <trkpt lat="47.27547" lon="-2.34673">
        <ele>33.200000762939</ele>
        <time>2021-01-14T11:20:24.000Z</time>
      </trkpt>
      <trkpt lat="47.27542" lon="-2.34675">
        <ele>33.599998474121</ele>
        <time>2021-01-14T11:20:25.000Z</time>
      </trkpt>
      <trkpt lat="47.27537" lon="-2.34676">
        <ele>34</ele>
        <time>2021-01-14T11:20:26.000Z</time>
      </trkpt>
      <trkpt lat="47.27532" lon="-2.34676">
        <ele>34.400001525879</ele>
        <time>2021-01-14T11:20:27.000Z</time>
      </trkpt>
      <trkpt lat="47.27527" lon="-2.34676">
        <ele>34.799999237061</ele>
        <time>2021-01-14T11:20:28.000Z</time>
      </trkpt>
      <trkpt lat="47.27496" lon="-2.34676">
        <ele>34.799999237061</ele>
        <time>2021-01-14T11:20:34.000Z</time>
      </trkpt>
      <trkpt lat="47.27475" lon="-2.34684">
        <ele>34.799999237061</ele>
        <time>2021-01-14T11:20:38.000Z</time>
      </trkpt>
      <trkpt lat="47.27471" lon="-2.34687">
        <ele>34.799999237061</ele>
        <time>2021-01-14T11:20:39.000Z</time>
      </trkpt>
      <trkpt lat="47.27462" lon="-2.34696">
        <ele>34.799999237061</ele>
        <time>2021-01-14T11:20:43.000Z</time>
      </trkpt>
      <trkpt lat="47.27456" lon="-2.34697">
        <ele>34.799999237061</ele>
        <time>2021-01-14T11:20:46.000Z</time>
      </trkpt>
      <trkpt lat="47.27454" lon="-2.34693">
        <ele>34.799999237061</ele>
        <time>2021-01-14T11:20:47.000Z</time>
      </trkpt>
      <trkpt lat="47.27453" lon="-2.34677">
        <ele>34.799999237061</ele>
        <time>2021-01-14T11:20:50.000Z</time>
      </trkpt>
      <trkpt lat="47.2745" lon="-2.34634">
        <ele>34.799999237061</ele>
        <time>2021-01-14T11:20:57.000Z</time>
      </trkpt>
      <trkpt lat="47.27449" lon="-2.34628">
        <ele>34.799999237061</ele>
        <time>2021-01-14T11:20:58.000Z</time>
      </trkpt>
      <trkpt lat="47.27444" lon="-2.34595">
        <ele>34.799999237061</ele>
        <time>2021-01-14T11:21:03.000Z</time>
      </trkpt>
      <trkpt lat="47.27435" lon="-2.34548">
        <ele>34.799999237061</ele>
        <time>2021-01-14T11:21:10.000Z</time>
      </trkpt>
      <trkpt lat="47.27432" lon="-2.34536">
        <ele>34.799999237061</ele>
        <time>2021-01-14T11:21:13.000Z</time>
      </trkpt>
      <trkpt lat="47.27431" lon="-2.3453">
        <ele>34.799999237061</ele>
        <time>2021-01-14T11:21:19.000Z</time>
      </trkpt>
      <trkpt lat="47.27431" lon="-2.34529">
        <ele>34.799999237061</ele>
        <time>2021-01-14T11:21:20.000Z</time>
      </trkpt>
      <trkpt lat="47.27429" lon="-2.34519">
        <ele>34.799999237061</ele>
        <time>2021-01-14T11:21:23.000Z</time>
      </trkpt>
      <trkpt lat="47.27422" lon="-2.34496">
        <ele>34.799999237061</ele>
        <time>2021-01-14T11:21:27.000Z</time>
      </trkpt>
      <trkpt lat="47.27421" lon="-2.34489">
        <ele>34.799999237061</ele>
        <time>2021-01-14T11:21:28.000Z</time>
      </trkpt>
      <trkpt lat="47.27416" lon="-2.34437">
        <ele>34.799999237061</ele>
        <time>2021-01-14T11:21:35.000Z</time>
      </trkpt>
      <trkpt lat="47.27413" lon="-2.34385">
        <ele>34.799999237061</ele>
        <time>2021-01-14T11:21:41.000Z</time>
      </trkpt>
      <trkpt lat="47.27411" lon="-2.34367">
        <ele>34.799999237061</ele>
        <time>2021-01-14T11:21:43.000Z</time>
      </trkpt>
      <trkpt lat="47.27408" lon="-2.3434">
        <ele>34.799999237061</ele>
        <time>2021-01-14T11:21:46.000Z</time>
      </trkpt>
      <trkpt lat="47.27407" lon="-2.34266">
        <ele>34.799999237061</ele>
        <time>2021-01-14T11:21:54.000Z</time>
      </trkpt>
      <trkpt lat="47.27406" lon="-2.34252">
        <ele>34.400001525879</ele>
        <time>2021-01-14T11:21:56.000Z</time>
      </trkpt>
      <trkpt lat="47.27404" lon="-2.34247">
        <ele>34</ele>
        <time>2021-01-14T11:21:57.000Z</time>
      </trkpt>
      <trkpt lat="47.27402" lon="-2.34245">
        <ele>33.599998474121</ele>
        <time>2021-01-14T11:21:58.000Z</time>
      </trkpt>
      <trkpt lat="47.274" lon="-2.34244">
        <ele>33.200000762939</ele>
        <time>2021-01-14T11:21:59.000Z</time>
      </trkpt>
      <trkpt lat="47.27397" lon="-2.34242">
        <ele>32.799999237061</ele>
        <time>2021-01-14T11:22:00.000Z</time>
      </trkpt>
      <trkpt lat="47.27394" lon="-2.34234">
        <ele>32.799999237061</ele>
        <time>2021-01-14T11:22:02.000Z</time>
      </trkpt>
      <trkpt lat="47.27394" lon="-2.3423">
        <ele>32.799999237061</ele>
        <time>2021-01-14T11:22:03.000Z</time>
      </trkpt>
      <trkpt lat="47.27391" lon="-2.34227">
        <ele>32.799999237061</ele>
        <time>2021-01-14T11:22:07.000Z</time>
      </trkpt>
      <trkpt lat="47.27391" lon="-2.34235">
        <ele>32.400001525879</ele>
        <time>2021-01-14T11:22:11.000Z</time>
      </trkpt>
      <trkpt lat="47.27392" lon="-2.34238">
        <ele>32</ele>
        <time>2021-01-14T11:22:12.000Z</time>
      </trkpt>
      <trkpt lat="47.27391" lon="-2.34242">
        <ele>31.60000038147</ele>
        <time>2021-01-14T11:22:13.000Z</time>
      </trkpt>
      <trkpt lat="47.2739" lon="-2.34246">
        <ele>31</ele>
        <time>2021-01-14T11:22:14.000Z</time>
      </trkpt>
      <trkpt lat="47.27387" lon="-2.34249">
        <ele>30.60000038147</ele>
        <time>2021-01-14T11:22:15.000Z</time>
      </trkpt>
      <trkpt lat="47.2737" lon="-2.34262">
        <ele>30.60000038147</ele>
        <time>2021-01-14T11:22:19.000Z</time>
      </trkpt>
      <trkpt lat="47.27334" lon="-2.3429">
        <ele>30.60000038147</ele>
        <time>2021-01-14T11:22:26.000Z</time>
      </trkpt>
      <trkpt lat="47.27293" lon="-2.34317">
        <ele>30.60000038147</ele>
        <time>2021-01-14T11:22:33.000Z</time>
      </trkpt>
      <trkpt lat="47.27265" lon="-2.34327">
        <ele>30.200000762939</ele>
        <time>2021-01-14T11:22:37.000Z</time>
      </trkpt>
      <trkpt lat="47.27258" lon="-2.34327">
        <ele>29.799999237061</ele>
        <time>2021-01-14T11:22:38.000Z</time>
      </trkpt>
      <trkpt lat="47.27251" lon="-2.34328">
        <ele>29.39999961853</ele>
        <time>2021-01-14T11:22:39.000Z</time>
      </trkpt>
      <trkpt lat="47.27244" lon="-2.34328">
        <ele>29</ele>
        <time>2021-01-14T11:22:40.000Z</time>
      </trkpt>
      <trkpt lat="47.27236" lon="-2.34328">
        <ele>28.60000038147</ele>
        <time>2021-01-14T11:22:41.000Z</time>
      </trkpt>
      <trkpt lat="47.27205" lon="-2.34327">
        <ele>28.60000038147</ele>
        <time>2021-01-14T11:22:45.000Z</time>
      </trkpt>
      <trkpt lat="47.27151" lon="-2.34325">
        <ele>28.60000038147</ele>
        <time>2021-01-14T11:22:52.000Z</time>
      </trkpt>
      <trkpt lat="47.27143" lon="-2.34325">
        <ele>28.200000762939</ele>
        <time>2021-01-14T11:22:53.000Z</time>
      </trkpt>
      <trkpt lat="47.27135" lon="-2.34325">
        <ele>27.799999237061</ele>
        <time>2021-01-14T11:22:54.000Z</time>
      </trkpt>
      <trkpt lat="47.27127" lon="-2.34324">
        <ele>27.39999961853</ele>
        <time>2021-01-14T11:22:55.000Z</time>
      </trkpt>
      <trkpt lat="47.27119" lon="-2.34325">
        <ele>26.799999237061</ele>
        <time>2021-01-14T11:22:56.000Z</time>
      </trkpt>
      <trkpt lat="47.27111" lon="-2.34325">
        <ele>26.39999961853</ele>
        <time>2021-01-14T11:22:57.000Z</time>
      </trkpt>
      <trkpt lat="47.27095" lon="-2.34323">
        <ele>26.39999961853</ele>
        <time>2021-01-14T11:22:59.000Z</time>
      </trkpt>
      <trkpt lat="47.27079" lon="-2.34323">
        <ele>26</ele>
        <time>2021-01-14T11:23:01.000Z</time>
      </trkpt>
      <trkpt lat="47.27071" lon="-2.34323">
        <ele>25.39999961853</ele>
        <time>2021-01-14T11:23:02.000Z</time>
      </trkpt>
      <trkpt lat="47.27063" lon="-2.34322">
        <ele>25</ele>
        <time>2021-01-14T11:23:03.000Z</time>
      </trkpt>
      <trkpt lat="47.27055" lon="-2.34322">
        <ele>24.60000038147</ele>
        <time>2021-01-14T11:23:04.000Z</time>
      </trkpt>
      <trkpt lat="47.27047" lon="-2.34322">
        <ele>24.200000762939</ele>
        <time>2021-01-14T11:23:05.000Z</time>
      </trkpt>
      <trkpt lat="47.27025" lon="-2.34323">
        <ele>24.200000762939</ele>
        <time>2021-01-14T11:23:08.000Z</time>
      </trkpt>
      <trkpt lat="47.2702" lon="-2.34322">
        <ele>23.799999237061</ele>
        <time>2021-01-14T11:23:09.000Z</time>
      </trkpt>
      <trkpt lat="47.27015" lon="-2.34323">
        <ele>23.200000762939</ele>
        <time>2021-01-14T11:23:10.000Z</time>
      </trkpt>
      <trkpt lat="47.2701" lon="-2.34322">
        <ele>22.799999237061</ele>
        <time>2021-01-14T11:23:11.000Z</time>
      </trkpt>
      <trkpt lat="47.27007" lon="-2.34319">
        <ele>22.39999961853</ele>
        <time>2021-01-14T11:23:12.000Z</time>
      </trkpt>
      <trkpt lat="47.27005" lon="-2.34316">
        <ele>22</ele>
        <time>2021-01-14T11:23:13.000Z</time>
      </trkpt>
      <trkpt lat="47.27004" lon="-2.34313">
        <ele>22</ele>
        <time>2021-01-14T11:23:14.000Z</time>
      </trkpt>
      <trkpt lat="47.27004" lon="-2.34311">
        <ele>21.60000038147</ele>
        <time>2021-01-14T11:23:15.000Z</time>
      </trkpt>
      <trkpt lat="47.27003" lon="-2.34309">
        <ele>21.200000762939</ele>
        <time>2021-01-14T11:23:16.000Z</time>
      </trkpt>
      <trkpt lat="47.27003" lon="-2.3431">
        <ele>20.799999237061</ele>
        <time>2021-01-14T11:23:17.000Z</time>
      </trkpt>
      <trkpt lat="47.27003" lon="-2.34307">
        <ele>17.60000038147</ele>
        <time>2021-01-14T11:23:39.000Z</time>
      </trkpt>
      <trkpt lat="47.27002" lon="-2.34286">
        <ele>17.60000038147</ele>
        <time>2021-01-14T11:23:45.000Z</time>
      </trkpt>
      <trkpt lat="47.27" lon="-2.34274">
        <ele>17.200000762939</ele>
        <time>2021-01-14T11:23:47.000Z</time>
      </trkpt>
      <trkpt lat="47.26999" lon="-2.34268">
        <ele>16.799999237061</ele>
        <time>2021-01-14T11:23:48.000Z</time>
      </trkpt>
      <trkpt lat="47.26997" lon="-2.3426">
        <ele>16.39999961853</ele>
        <time>2021-01-14T11:23:49.000Z</time>
      </trkpt>
      <trkpt lat="47.26996" lon="-2.34252">
        <ele>16</ele>
        <time>2021-01-14T11:23:50.000Z</time>
      </trkpt>
      <trkpt lat="47.26993" lon="-2.34244">
        <ele>15.60000038147</ele>
        <time>2021-01-14T11:23:51.000Z</time>
      </trkpt>
      <trkpt lat="47.26987" lon="-2.3422">
        <ele>15.60000038147</ele>
        <time>2021-01-14T11:23:54.000Z</time>
      </trkpt>
      <trkpt lat="47.26972" lon="-2.34153">
        <ele>15.60000038147</ele>
        <time>2021-01-14T11:24:02.000Z</time>
      </trkpt>
      <trkpt lat="47.26959" lon="-2.34089">
        <ele>15.60000038147</ele>
        <time>2021-01-14T11:24:09.000Z</time>
      </trkpt>
      <trkpt lat="47.26941" lon="-2.3401">
        <ele>15.60000038147</ele>
        <time>2021-01-14T11:24:18.000Z</time>
      </trkpt>
      <trkpt lat="47.26934" lon="-2.33977">
        <ele>15.60000038147</ele>
        <time>2021-01-14T11:24:22.000Z</time>
      </trkpt>
      <trkpt lat="47.2693" lon="-2.33961">
        <ele>15.60000038147</ele>
        <time>2021-01-14T11:24:24.000Z</time>
      </trkpt>
      <trkpt lat="47.26916" lon="-2.33899">
        <ele>15.60000038147</ele>
        <time>2021-01-14T11:24:31.000Z</time>
      </trkpt>
      <trkpt lat="47.26912" lon="-2.33881">
        <ele>15.60000038147</ele>
        <time>2021-01-14T11:24:33.000Z</time>
      </trkpt>
      <trkpt lat="47.26905" lon="-2.33854">
        <ele>15.60000038147</ele>
        <time>2021-01-14T11:24:36.000Z</time>
      </trkpt>
      <trkpt lat="47.26893" lon="-2.33808">
        <ele>15.60000038147</ele>
        <time>2021-01-14T11:24:42.000Z</time>
      </trkpt>
      <trkpt lat="47.26891" lon="-2.33801">
        <ele>15.60000038147</ele>
        <time>2021-01-14T11:24:43.000Z</time>
      </trkpt>
      <trkpt lat="47.26878" lon="-2.33791">
        <ele>15.60000038147</ele>
        <time>2021-01-14T11:24:46.000Z</time>
      </trkpt>
      <trkpt lat="47.26869" lon="-2.33787">
        <ele>15.60000038147</ele>
        <time>2021-01-14T11:24:48.000Z</time>
      </trkpt>
      <trkpt lat="47.26841" lon="-2.33775">
        <ele>15.199999809265</ele>
        <time>2021-01-14T11:24:54.000Z</time>
      </trkpt>
      <trkpt lat="47.26838" lon="-2.33774">
        <ele>14.800000190735</ele>
        <time>2021-01-14T11:24:55.000Z</time>
      </trkpt>
      <trkpt lat="47.26834" lon="-2.33771">
        <ele>14.39999961853</ele>
        <time>2021-01-14T11:24:56.000Z</time>
      </trkpt>
      <trkpt lat="47.26831" lon="-2.33768">
        <ele>14</ele>
        <time>2021-01-14T11:24:57.000Z</time>
      </trkpt>
      <trkpt lat="47.26829" lon="-2.33763">
        <ele>13.60000038147</ele>
        <time>2021-01-14T11:24:58.000Z</time>
      </trkpt>
      <trkpt lat="47.26822" lon="-2.33753">
        <ele>13.60000038147</ele>
        <time>2021-01-14T11:25:00.000Z</time>
      </trkpt>
      <trkpt lat="47.26815" lon="-2.33745">
        <ele>13.60000038147</ele>
        <time>2021-01-14T11:25:02.000Z</time>
      </trkpt>
      <trkpt lat="47.26788" lon="-2.33716">
        <ele>13.60000038147</ele>
        <time>2021-01-14T11:25:08.000Z</time>
      </trkpt>
      <trkpt lat="47.26783" lon="-2.33712">
        <ele>13.60000038147</ele>
        <time>2021-01-14T11:25:09.000Z</time>
      </trkpt>
      <trkpt lat="47.26767" lon="-2.33703">
        <ele>13.60000038147</ele>
        <time>2021-01-14T11:25:12.000Z</time>
      </trkpt>
      <trkpt lat="47.26755" lon="-2.33701">
        <ele>13.60000038147</ele>
        <time>2021-01-14T11:25:14.000Z</time>
      </trkpt>
      <trkpt lat="47.26737" lon="-2.33699">
        <ele>13.60000038147</ele>
        <time>2021-01-14T11:25:17.000Z</time>
      </trkpt>
      <trkpt lat="47.26685" lon="-2.337">
        <ele>13.60000038147</ele>
        <time>2021-01-14T11:25:26.000Z</time>
      </trkpt>
      <trkpt lat="47.26648" lon="-2.337">
        <ele>13.60000038147</ele>
        <time>2021-01-14T11:25:33.000Z</time>
      </trkpt>
      <trkpt lat="47.26615" lon="-2.33703">
        <ele>13.60000038147</ele>
        <time>2021-01-14T11:25:40.000Z</time>
      </trkpt>
      <trkpt lat="47.26608" lon="-2.33702">
        <ele>13.60000038147</ele>
        <time>2021-01-14T11:25:44.000Z</time>
      </trkpt>
      <trkpt lat="47.26597" lon="-2.33702">
        <ele>13.60000038147</ele>
        <time>2021-01-14T11:25:49.000Z</time>
      </trkpt>
      <trkpt lat="47.26586" lon="-2.33694">
        <ele>13.60000038147</ele>
        <time>2021-01-14T11:25:52.000Z</time>
      </trkpt>
      <trkpt lat="47.26582" lon="-2.33692">
        <ele>13.60000038147</ele>
        <time>2021-01-14T11:25:53.000Z</time>
      </trkpt>
      <trkpt lat="47.2657" lon="-2.33675">
        <ele>13.60000038147</ele>
        <time>2021-01-14T11:25:57.000Z</time>
      </trkpt>
      <trkpt lat="47.26571" lon="-2.33659">
        <ele>13.60000038147</ele>
        <time>2021-01-14T11:25:59.000Z</time>
      </trkpt>
      <trkpt lat="47.26571" lon="-2.3365">
        <ele>13.60000038147</ele>
        <time>2021-01-14T11:26:00.000Z</time>
      </trkpt>
      <trkpt lat="47.26565" lon="-2.33602">
        <ele>13.60000038147</ele>
        <time>2021-01-14T11:26:05.000Z</time>
      </trkpt>
      <trkpt lat="47.26557" lon="-2.33552">
        <ele>13.60000038147</ele>
        <time>2021-01-14T11:26:10.000Z</time>
      </trkpt>
      <trkpt lat="47.26554" lon="-2.33542">
        <ele>13.60000038147</ele>
        <time>2021-01-14T11:26:11.000Z</time>
      </trkpt>
      <trkpt lat="47.26553" lon="-2.33531">
        <ele>13.199999809265</ele>
        <time>2021-01-14T11:26:12.000Z</time>
      </trkpt>
      <trkpt lat="47.26551" lon="-2.3352">
        <ele>12.800000190735</ele>
        <time>2021-01-14T11:26:13.000Z</time>
      </trkpt>
      <trkpt lat="47.26549" lon="-2.33511">
        <ele>11.800000190735</ele>
        <time>2021-01-14T11:26:14.000Z</time>
      </trkpt>
      <trkpt lat="47.26545" lon="-2.33502">
        <ele>11.39999961853</ele>
        <time>2021-01-14T11:26:15.000Z</time>
      </trkpt>
      <trkpt lat="47.26536" lon="-2.33472">
        <ele>11.39999961853</ele>
        <time>2021-01-14T11:26:18.000Z</time>
      </trkpt>
      <trkpt lat="47.26533" lon="-2.33452">
        <ele>11.39999961853</ele>
        <time>2021-01-14T11:26:20.000Z</time>
      </trkpt>
      <trkpt lat="47.26526" lon="-2.33403">
        <ele>11.39999961853</ele>
        <time>2021-01-14T11:26:25.000Z</time>
      </trkpt>
      <trkpt lat="47.26525" lon="-2.33394">
        <ele>11.39999961853</ele>
        <time>2021-01-14T11:26:26.000Z</time>
      </trkpt>
      <trkpt lat="47.26524" lon="-2.33386">
        <ele>11</ele>
        <time>2021-01-14T11:26:27.000Z</time>
      </trkpt>
      <trkpt lat="47.26523" lon="-2.33377">
        <ele>10.60000038147</ele>
        <time>2021-01-14T11:26:28.000Z</time>
      </trkpt>
      <trkpt lat="47.26521" lon="-2.33368">
        <ele>10.199999809265</ele>
        <time>2021-01-14T11:26:29.000Z</time>
      </trkpt>
      <trkpt lat="47.26519" lon="-2.33361">
        <ele>9.8000001907349</ele>
        <time>2021-01-14T11:26:30.000Z</time>
      </trkpt>
      <trkpt lat="47.26515" lon="-2.33356">
        <ele>9.3999996185303</ele>
        <time>2021-01-14T11:26:31.000Z</time>
      </trkpt>
      <trkpt lat="47.26502" lon="-2.33349">
        <ele>9.3999996185303</ele>
        <time>2021-01-14T11:26:34.000Z</time>
      </trkpt>
      <trkpt lat="47.26486" lon="-2.33343">
        <ele>9.3999996185303</ele>
        <time>2021-01-14T11:26:38.000Z</time>
      </trkpt>
      <trkpt lat="47.26484" lon="-2.33337">
        <ele>9.3999996185303</ele>
        <time>2021-01-14T11:26:40.000Z</time>
      </trkpt>
      <trkpt lat="47.2648" lon="-2.3333">
        <ele>9.3999996185303</ele>
        <time>2021-01-14T11:26:42.000Z</time>
      </trkpt>
      <trkpt lat="47.26475" lon="-2.3332">
        <ele>9.3999996185303</ele>
        <time>2021-01-14T11:26:44.000Z</time>
      </trkpt>
      <trkpt lat="47.26473" lon="-2.33308">
        <ele>9.3999996185303</ele>
        <time>2021-01-14T11:26:46.000Z</time>
      </trkpt>
      <trkpt lat="47.26475" lon="-2.33282">
        <ele>9.3999996185303</ele>
        <time>2021-01-14T11:26:50.000Z</time>
      </trkpt>
      <trkpt lat="47.26465" lon="-2.33277">
        <ele>9.3999996185303</ele>
        <time>2021-01-14T11:26:53.000Z</time>
      </trkpt>
      <trkpt lat="47.26453" lon="-2.33273">
        <ele>9.3999996185303</ele>
        <time>2021-01-14T11:26:56.000Z</time>
      </trkpt>
      <trkpt lat="47.26443" lon="-2.33271">
        <ele>9.3999996185303</ele>
        <time>2021-01-14T11:26:58.000Z</time>
      </trkpt>
      <trkpt lat="47.26405" lon="-2.33266">
        <ele>9.3999996185303</ele>
        <time>2021-01-14T11:27:05.000Z</time>
      </trkpt>
      <trkpt lat="47.26389" lon="-2.33261">
        <ele>9.3999996185303</ele>
        <time>2021-01-14T11:27:08.000Z</time>
      </trkpt>
      <trkpt lat="47.2638" lon="-2.3325">
        <ele>9</ele>
        <time>2021-01-14T11:27:10.000Z</time>
      </trkpt>
      <trkpt lat="47.26378" lon="-2.33242">
        <ele>8.6000003814697</ele>
        <time>2021-01-14T11:27:11.000Z</time>
      </trkpt>
      <trkpt lat="47.26376" lon="-2.33234">
        <ele>8</ele>
        <time>2021-01-14T11:27:12.000Z</time>
      </trkpt>
      <trkpt lat="47.26376" lon="-2.33225">
        <ele>7.5999999046326</ele>
        <time>2021-01-14T11:27:13.000Z</time>
      </trkpt>
      <trkpt lat="47.26376" lon="-2.33216">
        <ele>7.1999998092651</ele>
        <time>2021-01-14T11:27:14.000Z</time>
      </trkpt>
      <trkpt lat="47.26375" lon="-2.33207">
        <ele>7.1999998092651</ele>
        <time>2021-01-14T11:27:15.000Z</time>
      </trkpt>
      <trkpt lat="47.26373" lon="-2.33162">
        <ele>7.1999998092651</ele>
        <time>2021-01-14T11:27:20.000Z</time>
      </trkpt>
      <trkpt lat="47.26368" lon="-2.33096">
        <ele>7.1999998092651</ele>
        <time>2021-01-14T11:27:27.000Z</time>
      </trkpt>
      <trkpt lat="47.26366" lon="-2.33039">
        <ele>7.1999998092651</ele>
        <time>2021-01-14T11:27:33.000Z</time>
      </trkpt>
      <trkpt lat="47.26362" lon="-2.32983">
        <ele>7.1999998092651</ele>
        <time>2021-01-14T11:27:39.000Z</time>
      </trkpt>
      <trkpt lat="47.26358" lon="-2.32976">
        <ele>7.1999998092651</ele>
        <time>2021-01-14T11:27:40.000Z</time>
      </trkpt>
      <trkpt lat="47.26343" lon="-2.32959">
        <ele>7.1999998092651</ele>
        <time>2021-01-14T11:27:43.000Z</time>
      </trkpt>
      <trkpt lat="47.26335" lon="-2.32932">
        <ele>7.1999998092651</ele>
        <time>2021-01-14T11:27:46.000Z</time>
      </trkpt>
      <trkpt lat="47.26333" lon="-2.32923">
        <ele>7.1999998092651</ele>
        <time>2021-01-14T11:27:47.000Z</time>
      </trkpt>
      <trkpt lat="47.26319" lon="-2.3288">
        <ele>7.1999998092651</ele>
        <time>2021-01-14T11:27:52.000Z</time>
      </trkpt>
      <trkpt lat="47.26313" lon="-2.32865">
        <ele>7.1999998092651</ele>
        <time>2021-01-14T11:27:54.000Z</time>
      </trkpt>
      <trkpt lat="47.26301" lon="-2.32857">
        <ele>7.1999998092651</ele>
        <time>2021-01-14T11:27:56.000Z</time>
      </trkpt>
      <trkpt lat="47.26286" lon="-2.32846">
        <ele>7.1999998092651</ele>
        <time>2021-01-14T11:27:59.000Z</time>
      </trkpt>
      <trkpt lat="47.26282" lon="-2.32821">
        <ele>7.1999998092651</ele>
        <time>2021-01-14T11:28:02.000Z</time>
      </trkpt>
      <trkpt lat="47.26276" lon="-2.32797">
        <ele>7.1999998092651</ele>
        <time>2021-01-14T11:28:05.000Z</time>
      </trkpt>
      <trkpt lat="47.26262" lon="-2.32766">
        <ele>7.1999998092651</ele>
        <time>2021-01-14T11:28:09.000Z</time>
      </trkpt>
      <trkpt lat="47.26258" lon="-2.3276">
        <ele>7.1999998092651</ele>
        <time>2021-01-14T11:28:10.000Z</time>
      </trkpt>
      <trkpt lat="47.26223" lon="-2.32709">
        <ele>7.1999998092651</ele>
        <time>2021-01-14T11:28:18.000Z</time>
      </trkpt>
      <trkpt lat="47.26214" lon="-2.32698">
        <ele>7.1999998092651</ele>
        <time>2021-01-14T11:28:20.000Z</time>
      </trkpt>
      <trkpt lat="47.26196" lon="-2.32676">
        <ele>7.1999998092651</ele>
        <time>2021-01-14T11:28:24.000Z</time>
      </trkpt>
      <trkpt lat="47.2618" lon="-2.32662">
        <ele>7.1999998092651</ele>
        <time>2021-01-14T11:28:27.000Z</time>
      </trkpt>
      <trkpt lat="47.26169" lon="-2.32655">
        <ele>7.1999998092651</ele>
        <time>2021-01-14T11:28:29.000Z</time>
      </trkpt>
      <trkpt lat="47.26147" lon="-2.32641">
        <ele>7.1999998092651</ele>
        <time>2021-01-14T11:28:33.000Z</time>
      </trkpt>
      <trkpt lat="47.26141" lon="-2.32639">
        <ele>7.5999999046326</ele>
        <time>2021-01-14T11:28:34.000Z</time>
      </trkpt>
      <trkpt lat="47.26135" lon="-2.32637">
        <ele>8</ele>
        <time>2021-01-14T11:28:35.000Z</time>
      </trkpt>
      <trkpt lat="47.2613" lon="-2.32636">
        <ele>8.3999996185303</ele>
        <time>2021-01-14T11:28:36.000Z</time>
      </trkpt>
      <trkpt lat="47.26124" lon="-2.32635">
        <ele>8.8000001907349</ele>
        <time>2021-01-14T11:28:37.000Z</time>
      </trkpt>
      <trkpt lat="47.26118" lon="-2.32636">
        <ele>9.1999998092651</ele>
        <time>2021-01-14T11:28:38.000Z</time>
      </trkpt>
      <trkpt lat="47.26107" lon="-2.32637">
        <ele>9.1999998092651</ele>
        <time>2021-01-14T11:28:40.000Z</time>
      </trkpt>
      <trkpt lat="47.26093" lon="-2.32639">
        <ele>9.1999998092651</ele>
        <time>2021-01-14T11:28:43.000Z</time>
      </trkpt>
      <trkpt lat="47.26085" lon="-2.32641">
        <ele>9.1999998092651</ele>
        <time>2021-01-14T11:28:45.000Z</time>
      </trkpt>
      <trkpt lat="47.26076" lon="-2.32641">
        <ele>9.1999998092651</ele>
        <time>2021-01-14T11:28:47.000Z</time>
      </trkpt>
      <trkpt lat="47.2606" lon="-2.32643">
        <ele>9.1999998092651</ele>
        <time>2021-01-14T11:28:50.000Z</time>
      </trkpt>
      <trkpt lat="47.26023" lon="-2.32651">
        <ele>9.1999998092651</ele>
        <time>2021-01-14T11:28:56.000Z</time>
      </trkpt>
      <trkpt lat="47.25986" lon="-2.32657">
        <ele>9.1999998092651</ele>
        <time>2021-01-14T11:29:02.000Z</time>
      </trkpt>
      <trkpt lat="47.25974" lon="-2.32655">
        <ele>9.1999998092651</ele>
        <time>2021-01-14T11:29:04.000Z</time>
      </trkpt>
      <trkpt lat="47.25963" lon="-2.32655">
        <ele>9.1999998092651</ele>
        <time>2021-01-14T11:29:06.000Z</time>
      </trkpt>
      <trkpt lat="47.25951" lon="-2.32654">
        <ele>9.1999998092651</ele>
        <time>2021-01-14T11:29:08.000Z</time>
      </trkpt>
      <trkpt lat="47.25942" lon="-2.32645">
        <ele>8.8000001907349</ele>
        <time>2021-01-14T11:29:10.000Z</time>
      </trkpt>
      <trkpt lat="47.25938" lon="-2.3264">
        <ele>8.3999996185303</ele>
        <time>2021-01-14T11:29:11.000Z</time>
      </trkpt>
      <trkpt lat="47.25934" lon="-2.32634">
        <ele>8</ele>
        <time>2021-01-14T11:29:12.000Z</time>
      </trkpt>
      <trkpt lat="47.25929" lon="-2.32628">
        <ele>7.5999999046326</ele>
        <time>2021-01-14T11:29:13.000Z</time>
      </trkpt>
      <trkpt lat="47.25925" lon="-2.32622">
        <ele>7.1999998092651</ele>
        <time>2021-01-14T11:29:14.000Z</time>
      </trkpt>
      <trkpt lat="47.25913" lon="-2.32604">
        <ele>7.1999998092651</ele>
        <time>2021-01-14T11:29:17.000Z</time>
      </trkpt>
      <trkpt lat="47.25894" lon="-2.32583">
        <ele>7.1999998092651</ele>
        <time>2021-01-14T11:29:21.000Z</time>
      </trkpt>
      <trkpt lat="47.25884" lon="-2.32576">
        <ele>7.1999998092651</ele>
        <time>2021-01-14T11:29:23.000Z</time>
      </trkpt>
      <trkpt lat="47.25873" lon="-2.3256">
        <ele>7.1999998092651</ele>
        <time>2021-01-14T11:29:26.000Z</time>
      </trkpt>
      <trkpt lat="47.25869" lon="-2.32555">
        <ele>7.1999998092651</ele>
        <time>2021-01-14T11:29:27.000Z</time>
      </trkpt>
      <trkpt lat="47.25836" lon="-2.32508">
        <ele>7.1999998092651</ele>
        <time>2021-01-14T11:29:35.000Z</time>
      </trkpt>
      <trkpt lat="47.25824" lon="-2.32489">
        <ele>7.1999998092651</ele>
        <time>2021-01-14T11:29:40.000Z</time>
      </trkpt>
      <trkpt lat="47.25824" lon="-2.32489">
        <ele>7.1999998092651</ele>
        <time>2021-01-14T11:29:41.000Z</time>
      </trkpt>
      <trkpt lat="47.25825" lon="-2.32484">
        <ele>7.1999998092651</ele>
        <time>2021-01-14T11:30:16.000Z</time>
      </trkpt>
      <trkpt lat="47.25828" lon="-2.32481">
        <ele>7.1999998092651</ele>
        <time>2021-01-14T11:30:18.000Z</time>
      </trkpt>
      <trkpt lat="47.25837" lon="-2.32482">
        <ele>7.1999998092651</ele>
        <time>2021-01-14T11:30:21.000Z</time>
      </trkpt>
      <trkpt lat="47.2584" lon="-2.32483">
        <ele>7.1999998092651</ele>
        <time>2021-01-14T11:30:22.000Z</time>
      </trkpt>
      <trkpt lat="47.25853" lon="-2.32484">
        <ele>7.1999998092651</ele>
        <time>2021-01-14T11:30:25.000Z</time>
      </trkpt>
      <trkpt lat="47.25861" lon="-2.32484">
        <ele>7.1999998092651</ele>
        <time>2021-01-14T11:30:27.000Z</time>
      </trkpt>
      <trkpt lat="47.25882" lon="-2.32482">
        <ele>7.1999998092651</ele>
        <time>2021-01-14T11:30:32.000Z</time>
      </trkpt>
      <trkpt lat="47.25885" lon="-2.32478">
        <ele>7.1999998092651</ele>
        <time>2021-01-14T11:30:33.000Z</time>
      </trkpt>
      <trkpt lat="47.25891" lon="-2.32464">
        <ele>7.1999998092651</ele>
        <time>2021-01-14T11:30:36.000Z</time>
      </trkpt>
      <trkpt lat="47.25907" lon="-2.32445">
        <ele>7.1999998092651</ele>
        <time>2021-01-14T11:30:40.000Z</time>
      </trkpt>
      <trkpt lat="47.25921" lon="-2.32427">
        <ele>7.1999998092651</ele>
        <time>2021-01-14T11:30:43.000Z</time>
      </trkpt>
      <trkpt lat="47.25935" lon="-2.32409">
        <ele>7.1999998092651</ele>
        <time>2021-01-14T11:30:46.000Z</time>
      </trkpt>
      <trkpt lat="47.25972" lon="-2.3236">
        <ele>7.1999998092651</ele>
        <time>2021-01-14T11:30:54.000Z</time>
      </trkpt>
      <trkpt lat="47.26" lon="-2.32324">
        <ele>7.1999998092651</ele>
        <time>2021-01-14T11:31:00.000Z</time>
      </trkpt>
      <trkpt lat="47.26021" lon="-2.32301">
        <ele>7.1999998092651</ele>
        <time>2021-01-14T11:31:05.000Z</time>
      </trkpt>
      <trkpt lat="47.26056" lon="-2.32257">
        <ele>7.1999998092651</ele>
        <time>2021-01-14T11:31:13.000Z</time>
      </trkpt>
      <trkpt lat="47.26082" lon="-2.32224">
        <ele>7.1999998092651</ele>
        <time>2021-01-14T11:31:19.000Z</time>
      </trkpt>
      <trkpt lat="47.26099" lon="-2.32196">
        <ele>7.1999998092651</ele>
        <time>2021-01-14T11:31:23.000Z</time>
      </trkpt>
      <trkpt lat="47.26106" lon="-2.32181">
        <ele>7.1999998092651</ele>
        <time>2021-01-14T11:31:25.000Z</time>
      </trkpt>
      <trkpt lat="47.26125" lon="-2.32131">
        <ele>7.1999998092651</ele>
        <time>2021-01-14T11:31:31.000Z</time>
      </trkpt>
      <trkpt lat="47.26146" lon="-2.32062">
        <ele>7.1999998092651</ele>
        <time>2021-01-14T11:31:39.000Z</time>
      </trkpt>
      <trkpt lat="47.26158" lon="-2.32012">
        <ele>7.1999998092651</ele>
        <time>2021-01-14T11:31:45.000Z</time>
      </trkpt>
      <trkpt lat="47.26159" lon="-2.31987">
        <ele>7.1999998092651</ele>
        <time>2021-01-14T11:31:48.000Z</time>
      </trkpt>
      <trkpt lat="47.26156" lon="-2.31971">
        <ele>7.1999998092651</ele>
        <time>2021-01-14T11:31:50.000Z</time>
      </trkpt>
      <trkpt lat="47.26148" lon="-2.31913">
        <ele>7.1999998092651</ele>
        <time>2021-01-14T11:31:57.000Z</time>
      </trkpt>
      <trkpt lat="47.26139" lon="-2.31844">
        <ele>7.1999998092651</ele>
        <time>2021-01-14T11:32:05.000Z</time>
      </trkpt>
      <trkpt lat="47.26133" lon="-2.31773">
        <ele>7.1999998092651</ele>
        <time>2021-01-14T11:32:13.000Z</time>
      </trkpt>
      <trkpt lat="47.26127" lon="-2.31725">
        <ele>7.1999998092651</ele>
        <time>2021-01-14T11:32:19.000Z</time>
      </trkpt>
      <trkpt lat="47.26118" lon="-2.31669">
        <ele>7.1999998092651</ele>
        <time>2021-01-14T11:32:26.000Z</time>
      </trkpt>
      <trkpt lat="47.26112" lon="-2.31634">
        <ele>7.1999998092651</ele>
        <time>2021-01-14T11:32:31.000Z</time>
      </trkpt>
      <trkpt lat="47.26112" lon="-2.31628">
        <ele>7.1999998092651</ele>
        <time>2021-01-14T11:32:32.000Z</time>
      </trkpt>
      <trkpt lat="47.26118" lon="-2.31616">
        <ele>7.1999998092651</ele>
        <time>2021-01-14T11:32:35.000Z</time>
      </trkpt>
      <trkpt lat="47.26132" lon="-2.31613">
        <ele>7.1999998092651</ele>
        <time>2021-01-14T11:32:38.000Z</time>
      </trkpt>
      <trkpt lat="47.26137" lon="-2.31612">
        <ele>7.1999998092651</ele>
        <time>2021-01-14T11:32:39.000Z</time>
      </trkpt>
      <trkpt lat="47.2616" lon="-2.31603">
        <ele>7.1999998092651</ele>
        <time>2021-01-14T11:32:43.000Z</time>
      </trkpt>
      <trkpt lat="47.26194" lon="-2.31591">
        <ele>7.1999998092651</ele>
        <time>2021-01-14T11:32:49.000Z</time>
      </trkpt>
      <trkpt lat="47.26211" lon="-2.31588">
        <ele>7.1999998092651</ele>
        <time>2021-01-14T11:32:52.000Z</time>
      </trkpt>
      <trkpt lat="47.26227" lon="-2.31591">
        <ele>7.1999998092651</ele>
        <time>2021-01-14T11:32:55.000Z</time>
      </trkpt>
      <trkpt lat="47.26241" lon="-2.31602">
        <ele>7.1999998092651</ele>
        <time>2021-01-14T11:32:58.000Z</time>
      </trkpt>
      <trkpt lat="47.2625" lon="-2.31612">
        <ele>7.1999998092651</ele>
        <time>2021-01-14T11:33:00.000Z</time>
      </trkpt>
      <trkpt lat="47.26258" lon="-2.31631">
        <ele>7.1999998092651</ele>
        <time>2021-01-14T11:33:03.000Z</time>
      </trkpt>
      <trkpt lat="47.26261" lon="-2.31637">
        <ele>7.1999998092651</ele>
        <time>2021-01-14T11:33:04.000Z</time>
      </trkpt>
      <trkpt lat="47.26273" lon="-2.31662">
        <ele>7.1999998092651</ele>
        <time>2021-01-14T11:33:08.000Z</time>
      </trkpt>
      <trkpt lat="47.26279" lon="-2.31675">
        <ele>7.1999998092651</ele>
        <time>2021-01-14T11:33:10.000Z</time>
      </trkpt>
      <trkpt lat="47.26299" lon="-2.31708">
        <ele>7.1999998092651</ele>
        <time>2021-01-14T11:33:15.000Z</time>
      </trkpt>
      <trkpt lat="47.26304" lon="-2.31711">
        <ele>7.1999998092651</ele>
        <time>2021-01-14T11:33:16.000Z</time>
      </trkpt>
      <trkpt lat="47.26317" lon="-2.31705">
        <ele>7.1999998092651</ele>
        <time>2021-01-14T11:33:19.000Z</time>
      </trkpt>
      <trkpt lat="47.26332" lon="-2.31689">
        <ele>7.1999998092651</ele>
        <time>2021-01-14T11:33:24.000Z</time>
      </trkpt>
      <trkpt lat="47.26338" lon="-2.31683">
        <ele>7.1999998092651</ele>
        <time>2021-01-14T11:33:26.000Z</time>
      </trkpt>
      <trkpt lat="47.2634" lon="-2.31682">
        <ele>7.1999998092651</ele>
        <time>2021-01-14T11:33:27.000Z</time>
      </trkpt>
      <trkpt lat="47.26354" lon="-2.31676">
        <ele>7.5999999046326</ele>
        <time>2021-01-14T11:33:31.000Z</time>
      </trkpt>
      <trkpt lat="47.26358" lon="-2.31675">
        <ele>8</ele>
        <time>2021-01-14T11:33:32.000Z</time>
      </trkpt>
      <trkpt lat="47.26362" lon="-2.31673">
        <ele>8.3999996185303</ele>
        <time>2021-01-14T11:33:33.000Z</time>
      </trkpt>
      <trkpt lat="47.26365" lon="-2.31672">
        <ele>8.8000001907349</ele>
        <time>2021-01-14T11:33:34.000Z</time>
      </trkpt>
      <trkpt lat="47.26369" lon="-2.31671">
        <ele>9.1999998092651</ele>
        <time>2021-01-14T11:33:35.000Z</time>
      </trkpt>
      <trkpt lat="47.26385" lon="-2.31663">
        <ele>9.1999998092651</ele>
        <time>2021-01-14T11:33:39.000Z</time>
      </trkpt>
      <trkpt lat="47.26406" lon="-2.31651">
        <ele>9.1999998092651</ele>
        <time>2021-01-14T11:33:45.000Z</time>
      </trkpt>
      <trkpt lat="47.26407" lon="-2.31645">
        <ele>9.1999998092651</ele>
        <time>2021-01-14T11:33:46.000Z</time>
      </trkpt>
      <trkpt lat="47.26407" lon="-2.31635">
        <ele>9.1999998092651</ele>
        <time>2021-01-14T11:33:48.000Z</time>
      </trkpt>
      <trkpt lat="47.26407" lon="-2.31599">
        <ele>9.1999998092651</ele>
        <time>2021-01-14T11:33:54.000Z</time>
      </trkpt>
      <trkpt lat="47.26407" lon="-2.31593">
        <ele>9.6000003814697</ele>
        <time>2021-01-14T11:33:55.000Z</time>
      </trkpt>
      <trkpt lat="47.26407" lon="-2.31588">
        <ele>10</ele>
        <time>2021-01-14T11:33:56.000Z</time>
      </trkpt>
      <trkpt lat="47.26407" lon="-2.31582">
        <ele>10.39999961853</ele>
        <time>2021-01-14T11:33:57.000Z</time>
      </trkpt>
      <trkpt lat="47.26407" lon="-2.31576">
        <ele>10.800000190735</ele>
        <time>2021-01-14T11:33:58.000Z</time>
      </trkpt>
      <trkpt lat="47.26406" lon="-2.3157">
        <ele>11.199999809265</ele>
        <time>2021-01-14T11:33:59.000Z</time>
      </trkpt>
      <trkpt lat="47.26406" lon="-2.31561">
        <ele>11.199999809265</ele>
        <time>2021-01-14T11:34:01.000Z</time>
      </trkpt>
      <trkpt lat="47.26409" lon="-2.31551">
        <ele>11.199999809265</ele>
        <time>2021-01-14T11:34:04.000Z</time>
      </trkpt>
      <trkpt lat="47.26414" lon="-2.31551">
        <ele>11.199999809265</ele>
        <time>2021-01-14T11:34:06.000Z</time>
      </trkpt>
      <trkpt lat="47.26418" lon="-2.31553">
        <ele>11.199999809265</ele>
        <time>2021-01-14T11:34:10.000Z</time>
      </trkpt>
      <trkpt lat="47.26418" lon="-2.31553">
        <ele>11.199999809265</ele>
        <time>2021-01-14T11:34:11.000Z</time>
      </trkpt>
      <trkpt lat="47.26425" lon="-2.3155">
        <ele>11.199999809265</ele>
        <time>2021-01-14T11:34:27.000Z</time>
      </trkpt>
      <trkpt lat="47.26428" lon="-2.31551">
        <ele>11.199999809265</ele>
        <time>2021-01-14T11:34:29.000Z</time>
      </trkpt>
      <trkpt lat="47.26429" lon="-2.31552">
        <ele>11.199999809265</ele>
        <time>2021-01-14T11:34:32.000Z</time>
      </trkpt>
    </trkseg>
  </trk>
</gpx>